<?xml version='1.0' encoding='UTF-8'?><gpx version="1.1" creator="JPX - https://github.com/jenetics/jpx" xmlns="http://www.topografix.com/GPX/1/1"><trk><trkseg><trkpt lat="36.913027430293" lon="15.151714955561477"><ele>10.0</ele><time>2026-04-11T13:29:55.999Z</time></trkpt><trkpt lat="36.91295712752087" lon="15.151860229960448"><ele>10.0</ele><time>2026-04-11T13:29:57.999Z</time></trkpt><trkpt lat="36.91290247782287" lon="15.151967776522767"><ele>10.0</ele><time>2026-04-11T13:29:58.999Z</time></trkpt><trkpt lat="36.91284956204509" lon="15.152096004781471"><ele>10.0</ele><time>2026-04-11T13:29:59.999Z</time></trkpt><trkpt lat="36.912780171329004" lon="15.15214512251791"><ele>10.0</ele><time>2026-04-11T13:30:00.999Z</time></trkpt><trkpt lat="36.91271306018892" lon="15.152143357104384"><ele>10.0</ele><time>2026-04-11T13:30:01.999Z</time></trkpt><trkpt lat="36.91265432844406" lon="15.152076958106548"><ele>10.0</ele><time>2026-04-11T13:30:02.999Z</time></trkpt><trkpt lat="36.91257982894516" lon="15.15206268552723"><ele>10.0</ele><time>2026-04-11T13:30:03.999Z</time></trkpt><trkpt lat="36.91252003077696" lon="15.152014840810578"><ele>10.0</ele><time>2026-04-11T13:30:04.999Z</time></trkpt><trkpt lat="36.91245152528268" lon="15.151968318637742"><ele>10.0</ele><time>2026-04-11T13:30:06Z</time></trkpt><trkpt lat="36.912390627031236" lon="15.151925554252939"><ele>10.0</ele><time>2026-04-11T13:30:07Z</time></trkpt><trkpt lat="36.91232341542597" lon="15.151881587282839"><ele>10.0</ele><time>2026-04-11T13:30:08Z</time></trkpt><trkpt lat="36.91225832662745" lon="15.151843687262502"><ele>9.6</ele><time>2026-04-11T13:30:09Z</time></trkpt><trkpt lat="36.91213261643804" lon="15.151770479815719"><ele>9.2</ele><time>2026-04-11T13:30:11Z</time></trkpt><trkpt lat="36.91206279429431" lon="15.151727673499831"><ele>8.8</ele><time>2026-04-11T13:30:12Z</time></trkpt><trkpt lat="36.911987551836475" lon="15.15168454665776"><ele>8.4</ele><time>2026-04-11T13:30:13Z</time></trkpt><trkpt lat="36.911911704136116" lon="15.15164425101232"><ele>8.0</ele><time>2026-04-11T13:30:14Z</time></trkpt><trkpt lat="36.91184101599673" lon="15.151606755322128"><ele>7.999999999999999</ele><time>2026-04-11T13:30:15Z</time></trkpt><trkpt lat="36.911771619724625" lon="15.15156943214184"><ele>8.0</ele><time>2026-04-11T13:30:16Z</time></trkpt><trkpt lat="36.911703480016996" lon="15.151527121680182"><ele>8.0</ele><time>2026-04-11T13:30:17Z</time></trkpt><trkpt lat="36.91163515625413" lon="15.1514871930897"><ele>8.0</ele><time>2026-04-11T13:30:18Z</time></trkpt><trkpt lat="36.9115592452585" lon="15.151439357005309"><ele>7.999999999999999</ele><time>2026-04-11T13:30:19Z</time></trkpt><trkpt lat="36.91148095981471" lon="15.151393678217678"><ele>8.0</ele><time>2026-04-11T13:30:20Z</time></trkpt><trkpt lat="36.91139353200532" lon="15.151347780626942"><ele>8.5</ele><time>2026-04-11T13:30:21Z</time></trkpt><trkpt lat="36.91130548912518" lon="15.151301239920894"><ele>9.0</ele><time>2026-04-11T13:30:22Z</time></trkpt><trkpt lat="36.911221643331686" lon="15.15125738912509"><ele>9.5</ele><time>2026-04-11T13:30:23Z</time></trkpt><trkpt lat="36.91114120954576" lon="15.151218585158533"><ele>10.0</ele><time>2026-04-11T13:30:24Z</time></trkpt><trkpt lat="36.91106086560992" lon="15.151191299860633"><ele>10.5</ele><time>2026-04-11T13:30:25Z</time></trkpt><trkpt lat="36.91099843147137" lon="15.151170940535733"><ele>11.0</ele><time>2026-04-11T13:30:25.999Z</time></trkpt><trkpt lat="36.91088088218223" lon="15.151131606840462"><ele>11.0</ele><time>2026-04-11T13:30:27.999Z</time></trkpt><trkpt lat="36.91081180181121" lon="15.15110955380349"><ele>11.0</ele><time>2026-04-11T13:30:28.999Z</time></trkpt><trkpt lat="36.91073977609193" lon="15.151083016419213"><ele>11.0</ele><time>2026-04-11T13:30:29.999Z</time></trkpt><trkpt lat="36.91066116837281" lon="15.151056608218138"><ele>11.0</ele><time>2026-04-11T13:30:30.999Z</time></trkpt><trkpt lat="36.91058058566316" lon="15.1510317513538"><ele>11.0</ele><time>2026-04-11T13:30:31.999Z</time></trkpt><trkpt lat="36.91049422803792" lon="15.15100624350281"><ele>11.0</ele><time>2026-04-11T13:30:32.999Z</time></trkpt><trkpt lat="36.9104096523965" lon="15.150978407617409"><ele>11.0</ele><time>2026-04-11T13:30:33.999Z</time></trkpt><trkpt lat="36.91031962581263" lon="15.150945514904821"><ele>11.0</ele><time>2026-04-11T13:30:34.999Z</time></trkpt><trkpt lat="36.91022357290498" lon="15.150913783443153"><ele>11.0</ele><time>2026-04-11T13:30:35.999Z</time></trkpt><trkpt lat="36.91013084332827" lon="15.150875230579695"><ele>11.0</ele><time>2026-04-11T13:30:36.999Z</time></trkpt><trkpt lat="36.91004042169467" lon="15.150830867512651"><ele>11.0</ele><time>2026-04-11T13:30:37.999Z</time></trkpt><trkpt lat="36.90994642735183" lon="15.150782497811786"><ele>11.200000000000001</ele><time>2026-04-11T13:30:38.999Z</time></trkpt><trkpt lat="36.90985663945129" lon="15.150734152679853"><ele>11.4</ele><time>2026-04-11T13:30:39.999Z</time></trkpt><trkpt lat="36.909770210655694" lon="15.150688690332375"><ele>11.6</ele><time>2026-04-11T13:30:40.999Z</time></trkpt><trkpt lat="36.90968577060862" lon="15.150648012288663"><ele>11.8</ele><time>2026-04-11T13:30:41.999Z</time></trkpt><trkpt lat="36.90961061200726" lon="15.150602330815284"><ele>12.0</ele><time>2026-04-11T13:30:42.999Z</time></trkpt><trkpt lat="36.909530599475815" lon="15.150558092761807"><ele>12.0</ele><time>2026-04-11T13:30:43.999Z</time></trkpt><trkpt lat="36.909462031392515" lon="15.15051415721197"><ele>12.0</ele><time>2026-04-11T13:30:44.999Z</time></trkpt><trkpt lat="36.90940212587408" lon="15.150473767949698"><ele>12.0</ele><time>2026-04-11T13:30:45.999Z</time></trkpt><trkpt lat="36.90929620876649" lon="15.150410303543499"><ele>12.0</ele><time>2026-04-11T13:30:47.999Z</time></trkpt><trkpt lat="36.90917538426482" lon="15.1503474023515"><ele>12.0</ele><time>2026-04-11T13:30:49.999Z</time></trkpt><trkpt lat="36.909103927665896" lon="15.15030797577309"><ele>11.6</ele><time>2026-04-11T13:30:50.999Z</time></trkpt><trkpt lat="36.90902663134255" lon="15.150267297580262"><ele>11.2</ele><time>2026-04-11T13:30:51.999Z</time></trkpt><trkpt lat="36.908928187688865" lon="15.150215360832847"><ele>10.8</ele><time>2026-04-11T13:30:52.999Z</time></trkpt><trkpt lat="36.90882442621785" lon="15.150161873116415"><ele>10.4</ele><time>2026-04-11T13:30:53.999Z</time></trkpt><trkpt lat="36.90872313151983" lon="15.150107921467916"><ele>10.0</ele><time>2026-04-11T13:30:54.999Z</time></trkpt><trkpt lat="36.90862592025121" lon="15.150057768279531"><ele>10.0</ele><time>2026-04-11T13:30:55.999Z</time></trkpt><trkpt lat="36.908538911113034" lon="15.150013706833368"><ele>10.0</ele><time>2026-04-11T13:30:56.999Z</time></trkpt><trkpt lat="36.90845137707112" lon="15.14997706394833"><ele>10.0</ele><time>2026-04-11T13:30:57.999Z</time></trkpt><trkpt lat="36.908365200820754" lon="15.1499432528019"><ele>10.0</ele><time>2026-04-11T13:30:58.999Z</time></trkpt><trkpt lat="36.9082863829696" lon="15.149920972864575"><ele>10.0</ele><time>2026-04-11T13:30:59.999Z</time></trkpt><trkpt lat="36.908211294770425" lon="15.149909206800245"><ele>10.0</ele><time>2026-04-11T13:31:00.999Z</time></trkpt><trkpt lat="36.908139761558566" lon="15.149895785058867"><ele>9.666666666666668</ele><time>2026-04-11T13:31:01.999Z</time></trkpt><trkpt lat="36.90806577884567" lon="15.149879346074467"><ele>9.333333333333334</ele><time>2026-04-11T13:31:02.999Z</time></trkpt><trkpt lat="36.90798090120663" lon="15.149859228462434"><ele>9.0</ele><time>2026-04-11T13:31:03.999Z</time></trkpt><trkpt lat="36.907892492896295" lon="15.149835274452604"><ele>8.666666666666666</ele><time>2026-04-11T13:31:04.999Z</time></trkpt><trkpt lat="36.9078068728948" lon="15.149808773231735"><ele>8.333333333333332</ele><time>2026-04-11T13:31:05.999Z</time></trkpt><trkpt lat="36.90773157520532" lon="15.149774336837107"><ele>8.0</ele><time>2026-04-11T13:31:06.999Z</time></trkpt><trkpt lat="36.907654889310905" lon="15.149725619974973"><ele>9.0</ele><time>2026-04-11T13:31:07.999Z</time></trkpt><trkpt lat="36.90759022907944" lon="15.149677044582882"><ele>10.0</ele><time>2026-04-11T13:31:08.999Z</time></trkpt><trkpt lat="36.90751462601083" lon="15.149617586403407"><ele>11.0</ele><time>2026-04-11T13:31:09.999Z</time></trkpt><trkpt lat="36.90743519677332" lon="15.149446752661927"><ele>12.0</ele><time>2026-04-11T13:31:10.999Z</time></trkpt><trkpt lat="36.9073447604438" lon="15.149287341784818"><ele>12.0</ele><time>2026-04-11T13:31:11.999Z</time></trkpt><trkpt lat="36.907258056481744" lon="15.149101438045701"><ele>12.0</ele><time>2026-04-11T13:31:12.999Z</time></trkpt><trkpt lat="36.9071618674981" lon="15.148924069930773"><ele>12.0</ele><time>2026-04-11T13:31:13.999Z</time></trkpt><trkpt lat="36.90707520514398" lon="15.14875813378856"><ele>12.666666666666668</ele><time>2026-04-11T13:31:14.999Z</time></trkpt><trkpt lat="36.90697191640975" lon="15.14859842742973"><ele>13.333333333333334</ele><time>2026-04-11T13:31:15.999Z</time></trkpt><trkpt lat="36.90686526002738" lon="15.14845771210207"><ele>14.0</ele><time>2026-04-11T13:31:16.999Z</time></trkpt><trkpt lat="36.906740775532775" lon="15.1483396124831"><ele>14.0</ele><time>2026-04-11T13:31:17.999Z</time></trkpt><trkpt lat="36.90660021184412" lon="15.148243058045557"><ele>14.0</ele><time>2026-04-11T13:31:18.999Z</time></trkpt><trkpt lat="36.90645266270009" lon="15.148167838791348"><ele>14.0</ele><time>2026-04-11T13:31:19.999Z</time></trkpt><trkpt lat="36.906304822749256" lon="15.148119891608603"><ele>14.0</ele><time>2026-04-11T13:31:20.999Z</time></trkpt><trkpt lat="36.90616064972223" lon="15.148081698245916"><ele>14.0</ele><time>2026-04-11T13:31:21.999Z</time></trkpt><trkpt lat="36.90601153014259" lon="15.14804210466039"><ele>14.0</ele><time>2026-04-11T13:31:22.999Z</time></trkpt><trkpt lat="36.90586471591859" lon="15.14799698609563"><ele>14.0</ele><time>2026-04-11T13:31:23.999Z</time></trkpt><trkpt lat="36.90571664780614" lon="15.147950255134829"><ele>14.0</ele><time>2026-04-11T13:31:24.999Z</time></trkpt><trkpt lat="36.90556833627458" lon="15.147905095358864"><ele>14.0</ele><time>2026-04-11T13:31:25.999Z</time></trkpt><trkpt lat="36.905422261172106" lon="15.147863097951399"><ele>14.0</ele><time>2026-04-11T13:31:26.999Z</time></trkpt><trkpt lat="36.90527592334469" lon="15.147822567321086"><ele>14.0</ele><time>2026-04-11T13:31:27.999Z</time></trkpt><trkpt lat="36.90513263857999" lon="15.147784968329214"><ele>14.0</ele><time>2026-04-11T13:31:28.999Z</time></trkpt><trkpt lat="36.904985065655325" lon="15.147737451024403"><ele>14.0</ele><time>2026-04-11T13:31:29.999Z</time></trkpt><trkpt lat="36.90483543694467" lon="15.147677927193554"><ele>13.25</ele><time>2026-04-11T13:31:30.999Z</time></trkpt><trkpt lat="36.90468772358687" lon="15.14763990248204"><ele>12.5</ele><time>2026-04-11T13:31:31.999Z</time></trkpt><trkpt lat="36.904540274263" lon="15.14762289299885"><ele>11.75</ele><time>2026-04-11T13:31:32.998Z</time></trkpt><trkpt lat="36.90439400871818" lon="15.147590934029981"><ele>11.0</ele><time>2026-04-11T13:31:33.998Z</time></trkpt><trkpt lat="36.904250342611206" lon="15.14754384878405"><ele>10.666666666666666</ele><time>2026-04-11T13:31:34.998Z</time></trkpt><trkpt lat="36.904101955306196" lon="15.14749564467941"><ele>10.333333333333334</ele><time>2026-04-11T13:31:35.998Z</time></trkpt><trkpt lat="36.90395585602094" lon="15.147444274488224"><ele>10.0</ele><time>2026-04-11T13:31:36.998Z</time></trkpt><trkpt lat="36.903813736331784" lon="15.147393039014432"><ele>11.0</ele><time>2026-04-11T13:31:37.998Z</time></trkpt><trkpt lat="36.90366456125771" lon="15.147329980565152"><ele>12.0</ele><time>2026-04-11T13:31:38.998Z</time></trkpt><trkpt lat="36.90352068170378" lon="15.147233136870737"><ele>13.0</ele><time>2026-04-11T13:31:39.998Z</time></trkpt><trkpt lat="36.90338019582336" lon="15.147082933850694"><ele>13.0</ele><time>2026-04-11T13:31:40.998Z</time></trkpt><trkpt lat="36.90325471541537" lon="15.146907797038102"><ele>13.0</ele><time>2026-04-11T13:31:41.998Z</time></trkpt><trkpt lat="36.903141235575156" lon="15.146718676167785"><ele>13.0</ele><time>2026-04-11T13:31:42.998Z</time></trkpt><trkpt lat="36.90301927102692" lon="15.146549010851425"><ele>13.666666666666666</ele><time>2026-04-11T13:31:43.998Z</time></trkpt><trkpt lat="36.90288446019348" lon="15.14638412102761"><ele>14.333333333333332</ele><time>2026-04-11T13:31:44.998Z</time></trkpt><trkpt lat="36.902754878766416" lon="15.146218321778406"><ele>15.0</ele><time>2026-04-11T13:31:45.998Z</time></trkpt><trkpt lat="36.902630342404485" lon="15.146051342619115"><ele>15.0</ele><time>2026-04-11T13:31:46.998Z</time></trkpt><trkpt lat="36.9025139989027" lon="15.145887636796742"><ele>15.0</ele><time>2026-04-11T13:31:47.998Z</time></trkpt><trkpt lat="36.90239256999412" lon="15.14574061952553"><ele>15.0</ele><time>2026-04-11T13:31:48.998Z</time></trkpt><trkpt lat="36.902275175924174" lon="15.145597222481403"><ele>15.333333333333332</ele><time>2026-04-11T13:31:49.998Z</time></trkpt><trkpt lat="36.902154117211026" lon="15.145451518596067"><ele>15.666666666666666</ele><time>2026-04-11T13:31:50.998Z</time></trkpt><trkpt lat="36.90203449385403" lon="15.145303127903512"><ele>16.0</ele><time>2026-04-11T13:31:51.998Z</time></trkpt><trkpt lat="36.90191987644181" lon="15.1451648312852"><ele>16.0</ele><time>2026-04-11T13:31:52.998Z</time></trkpt><trkpt lat="36.90180651693705" lon="15.145034926112272"><ele>16.0</ele><time>2026-04-11T13:31:53.998Z</time></trkpt><trkpt lat="36.90170057363905" lon="15.14490198760755"><ele>16.0</ele><time>2026-04-11T13:31:54.998Z</time></trkpt><trkpt lat="36.901605019190306" lon="15.144776432876066"><ele>16.0</ele><time>2026-04-11T13:31:55.998Z</time></trkpt><trkpt lat="36.901518076126465" lon="15.14465962716049"><ele>15.75</ele><time>2026-04-11T13:31:57Z</time></trkpt><trkpt lat="36.90143515092516" lon="15.144553410966582"><ele>15.5</ele><time>2026-04-11T13:31:58Z</time></trkpt><trkpt lat="36.90134956155207" lon="15.144448223198722"><ele>15.25</ele><time>2026-04-11T13:31:59Z</time></trkpt><trkpt lat="36.90127151002656" lon="15.14434293040851"><ele>15.0</ele><time>2026-04-11T13:32:00Z</time></trkpt><trkpt lat="36.90119721763726" lon="15.144248778544787"><ele>15.0</ele><time>2026-04-11T13:32:01Z</time></trkpt><trkpt lat="36.901127964982294" lon="15.144162249128252"><ele>15.0</ele><time>2026-04-11T13:32:02Z</time></trkpt><trkpt lat="36.901056874880204" lon="15.144066270192951"><ele>15.0</ele><time>2026-04-11T13:32:03Z</time></trkpt><trkpt lat="36.90098573808684" lon="15.143982960877624"><ele>15.0</ele><time>2026-04-11T13:32:04Z</time></trkpt><trkpt lat="36.90090595478584" lon="15.143898345922162"><ele>15.0</ele><time>2026-04-11T13:32:05Z</time></trkpt><trkpt lat="36.9008163431479" lon="15.143830316377628"><ele>15.0</ele><time>2026-04-11T13:32:06Z</time></trkpt><trkpt lat="36.90072383972275" lon="15.143784327803493"><ele>15.0</ele><time>2026-04-11T13:32:07Z</time></trkpt><trkpt lat="36.900636581154664" lon="15.143744026747848"><ele>15.0</ele><time>2026-04-11T13:32:08Z</time></trkpt><trkpt lat="36.90055921143879" lon="15.143702783412325"><ele>15.0</ele><time>2026-04-11T13:32:09Z</time></trkpt><trkpt lat="36.90048417004937" lon="15.143659266762322"><ele>15.0</ele><time>2026-04-11T13:32:10Z</time></trkpt><trkpt lat="36.90042150350556" lon="15.143620391695334"><ele>15.0</ele><time>2026-04-11T13:32:11Z</time></trkpt><trkpt lat="36.90036016194535" lon="15.143587339171654"><ele>15.0</ele><time>2026-04-11T13:32:12Z</time></trkpt><trkpt lat="36.900277646988584" lon="15.143534006935203"><ele>15.0</ele><time>2026-04-11T13:32:14Z</time></trkpt><trkpt lat="36.90020215740676" lon="15.143514050702313"><ele>15.0</ele><time>2026-04-11T13:32:19Z</time></trkpt><trkpt lat="36.90008645882978" lon="15.143659769263273"><ele>15.0</ele><time>2026-04-11T13:32:20Z</time></trkpt><trkpt lat="36.90002699505856" lon="15.143778370811956"><ele>15.0</ele><time>2026-04-11T13:32:21Z</time></trkpt><trkpt lat="36.8999619148609" lon="15.143909872481418"><ele>14.4</ele><time>2026-04-11T13:32:22Z</time></trkpt><trkpt lat="36.89989736570001" lon="15.144041329915694"><ele>13.8</ele><time>2026-04-11T13:32:23Z</time></trkpt><trkpt lat="36.89984160645852" lon="15.144154712184314"><ele>13.2</ele><time>2026-04-11T13:32:24Z</time></trkpt><trkpt lat="36.8997888650281" lon="15.144257653921331"><ele>12.6</ele><time>2026-04-11T13:32:25Z</time></trkpt><trkpt lat="36.89974074757117" lon="15.144351570425146"><ele>12.0</ele><time>2026-04-11T13:32:26Z</time></trkpt><trkpt lat="36.89969572518447" lon="15.144439445974726"><ele>12.0</ele><time>2026-04-11T13:32:27Z</time></trkpt><trkpt lat="36.899651646783575" lon="15.144525478969411"><ele>12.0</ele><time>2026-04-11T13:32:28Z</time></trkpt><trkpt lat="36.89960514001214" lon="15.144616251784724"><ele>12.0</ele><time>2026-04-11T13:32:29Z</time></trkpt><trkpt lat="36.89956834077018" lon="15.144688077194964"><ele>12.0</ele><time>2026-04-11T13:32:30Z</time></trkpt><trkpt lat="36.899513274192984" lon="15.144795557217739"><ele>12.0</ele><time>2026-04-11T13:32:32Z</time></trkpt><trkpt lat="36.89947541751501" lon="15.14486944654115"><ele>12.0</ele><time>2026-04-11T13:32:34Z</time></trkpt><trkpt lat="36.89942926023144" lon="15.144959537234959"><ele>12.0</ele><time>2026-04-11T13:32:37Z</time></trkpt><trkpt lat="36.899394950417054" lon="15.14502650558924"><ele>12.0</ele><time>2026-04-11T13:32:40.999Z</time></trkpt><trkpt lat="36.89926794357689" lon="15.145009069380487"><ele>12.0</ele><time>2026-04-11T13:32:48.999Z</time></trkpt><trkpt lat="36.899211973066194" lon="15.144963636277424"><ele>12.0</ele><time>2026-04-11T13:32:49.999Z</time></trkpt><trkpt lat="36.89915681945466" lon="15.144918960125462"><ele>12.0</ele><time>2026-04-11T13:32:50.999Z</time></trkpt><trkpt lat="36.89903987768608" lon="15.144832227238524"><ele>12.0</ele><time>2026-04-11T13:32:52.999Z</time></trkpt><trkpt lat="36.898977440522785" lon="15.144780739851187"><ele>12.0</ele><time>2026-04-11T13:32:53.999Z</time></trkpt><trkpt lat="36.89890682600643" lon="15.144722640497701"><ele>12.0</ele><time>2026-04-11T13:32:54.999Z</time></trkpt><trkpt lat="36.89883957027212" lon="15.144656565158739"><ele>12.0</ele><time>2026-04-11T13:32:55.999Z</time></trkpt><trkpt lat="36.89874924239526" lon="15.144583055845695"><ele>12.0</ele><time>2026-04-11T13:32:56.999Z</time></trkpt><trkpt lat="36.89865660574765" lon="15.144491516936885"><ele>12.0</ele><time>2026-04-11T13:32:57.999Z</time></trkpt><trkpt lat="36.89856986982416" lon="15.144392021299984"><ele>12.0</ele><time>2026-04-11T13:32:58.999Z</time></trkpt><trkpt lat="36.89848489309535" lon="15.144277945530572"><ele>12.0</ele><time>2026-04-11T13:32:59.999Z</time></trkpt><trkpt lat="36.89839569203277" lon="15.144172751954242"><ele>12.0</ele><time>2026-04-11T13:33:00.999Z</time></trkpt><trkpt lat="36.89829382245067" lon="15.144074690933786"><ele>11.333333333333334</ele><time>2026-04-11T13:33:01.999Z</time></trkpt><trkpt lat="36.89816673027494" lon="15.143987572155924"><ele>10.666666666666668</ele><time>2026-04-11T13:33:02.999Z</time></trkpt><trkpt lat="36.898029437503766" lon="15.143907486861071"><ele>10.0</ele><time>2026-04-11T13:33:03.999Z</time></trkpt><trkpt lat="36.897881252803785" lon="15.143834485668087"><ele>10.0</ele><time>2026-04-11T13:33:04.999Z</time></trkpt><trkpt lat="36.897709463806585" lon="15.143767435588055"><ele>10.0</ele><time>2026-04-11T13:33:05.999Z</time></trkpt><trkpt lat="36.89753791366025" lon="15.1437047251179"><ele>10.0</ele><time>2026-04-11T13:33:06.999Z</time></trkpt><trkpt lat="36.89737288415559" lon="15.143644877278735"><ele>9.5</ele><time>2026-04-11T13:33:07.999Z</time></trkpt><trkpt lat="36.89722618452395" lon="15.143604192155124"><ele>9.0</ele><time>2026-04-11T13:33:08.999Z</time></trkpt><trkpt lat="36.8970923744603" lon="15.143587161302417"><ele>8.5</ele><time>2026-04-11T13:33:09.999Z</time></trkpt><trkpt lat="36.8969561564565" lon="15.143578015879594"><ele>8.0</ele><time>2026-04-11T13:33:10.999Z</time></trkpt><trkpt lat="36.89682406517294" lon="15.143555089856028"><ele>7.75</ele><time>2026-04-11T13:33:11.999Z</time></trkpt><trkpt lat="36.89669209008591" lon="15.14352324015255"><ele>7.5</ele><time>2026-04-11T13:33:12.999Z</time></trkpt><trkpt lat="36.89655764579419" lon="15.143494131192638"><ele>7.25</ele><time>2026-04-11T13:33:13.999Z</time></trkpt><trkpt lat="36.89641578907621" lon="15.14346168100147"><ele>7.0</ele><time>2026-04-11T13:33:14.999Z</time></trkpt><trkpt lat="36.89626868548943" lon="15.143422701885326"><ele>7.0</ele><time>2026-04-11T13:33:15.999Z</time></trkpt><trkpt lat="36.896123370722336" lon="15.14337798851825"><ele>7.0</ele><time>2026-04-11T13:33:16.999Z</time></trkpt><trkpt lat="36.895978926983766" lon="15.143329821650878"><ele>7.0</ele><time>2026-04-11T13:33:17.999Z</time></trkpt><trkpt lat="36.89583787467642" lon="15.143285897470005"><ele>7.0</ele><time>2026-04-11T13:33:18.999Z</time></trkpt><trkpt lat="36.895715470804355" lon="15.143253990262128"><ele>6.5</ele><time>2026-04-11T13:33:19.999Z</time></trkpt><trkpt lat="36.89559559316712" lon="15.143232964613633"><ele>6.0</ele><time>2026-04-11T13:33:20.999Z</time></trkpt><trkpt lat="36.89547392972941" lon="15.143215992657218"><ele>5.5</ele><time>2026-04-11T13:33:21.999Z</time></trkpt><trkpt lat="36.89535087348758" lon="15.143219827635287"><ele>5.0</ele><time>2026-04-11T13:33:22.999Z</time></trkpt><trkpt lat="36.8952255047054" lon="15.143259784069864"><ele>5.0</ele><time>2026-04-11T13:33:23.999Z</time></trkpt><trkpt lat="36.895094151739336" lon="15.143322423687007"><ele>5.0</ele><time>2026-04-11T13:33:24.999Z</time></trkpt><trkpt lat="36.89497789494199" lon="15.143354723604299"><ele>5.0</ele><time>2026-04-11T13:33:25.999Z</time></trkpt><trkpt lat="36.89486518104349" lon="15.14335370699942"><ele>5.0</ele><time>2026-04-11T13:33:26.999Z</time></trkpt><trkpt lat="36.894761707862784" lon="15.143329804991302"><ele>5.0</ele><time>2026-04-11T13:33:27.999Z</time></trkpt><trkpt lat="36.89466898074667" lon="15.143293167445398"><ele>5.0</ele><time>2026-04-11T13:33:28.999Z</time></trkpt><trkpt lat="36.89458805398596" lon="15.143255780265708"><ele>5.0</ele><time>2026-04-11T13:33:29.999Z</time></trkpt><trkpt lat="36.89451487209798" lon="15.14321000761821"><ele>5.0</ele><time>2026-04-11T13:33:30.999Z</time></trkpt><trkpt lat="36.894448285272325" lon="15.143151263945395"><ele>5.0</ele><time>2026-04-11T13:33:31.999Z</time></trkpt><trkpt lat="36.89435944284176" lon="15.14307098221075"><ele>5.5</ele><time>2026-04-11T13:33:32.999Z</time></trkpt><trkpt lat="36.89426252388663" lon="15.142996559287235"><ele>6.0</ele><time>2026-04-11T13:33:33.999Z</time></trkpt><trkpt lat="36.89415372822925" lon="15.142933460946935"><ele>6.5</ele><time>2026-04-11T13:33:34.999Z</time></trkpt><trkpt lat="36.8940353011628" lon="15.142884746152195"><ele>7.0</ele><time>2026-04-11T13:33:35.999Z</time></trkpt><trkpt lat="36.893923808972325" lon="15.142832386340675"><ele>7.0</ele><time>2026-04-11T13:33:36.999Z</time></trkpt><trkpt lat="36.89380400935008" lon="15.142798347407618"><ele>7.0</ele><time>2026-04-11T13:33:37.999Z</time></trkpt><trkpt lat="36.893682219321605" lon="15.142765098252207"><ele>7.0</ele><time>2026-04-11T13:33:38.999Z</time></trkpt><trkpt lat="36.89355809409513" lon="15.142727954848834"><ele>7.0</ele><time>2026-04-11T13:33:39.999Z</time></trkpt><trkpt lat="36.89343628337337" lon="15.142678374014869"><ele>6.75</ele><time>2026-04-11T13:33:40.998Z</time></trkpt><trkpt lat="36.89332017691446" lon="15.142619548601001"><ele>6.5</ele><time>2026-04-11T13:33:41.998Z</time></trkpt><trkpt lat="36.89319594786163" lon="15.142557190928898"><ele>6.25</ele><time>2026-04-11T13:33:42.998Z</time></trkpt><trkpt lat="36.89308794539341" lon="15.14249514527207"><ele>6.0</ele><time>2026-04-11T13:33:43.998Z</time></trkpt><trkpt lat="36.89298768417543" lon="15.142424885034242"><ele>7.0</ele><time>2026-04-11T13:33:44.998Z</time></trkpt><trkpt lat="36.89289550933209" lon="15.142336684005068"><ele>8.0</ele><time>2026-04-11T13:33:45.998Z</time></trkpt><trkpt lat="36.892819507914474" lon="15.142229339813573"><ele>9.0</ele><time>2026-04-11T13:33:46.998Z</time></trkpt><trkpt lat="36.892757695196984" lon="15.142117185998925"><ele>10.0</ele><time>2026-04-11T13:33:47.998Z</time></trkpt><trkpt lat="36.89269338475355" lon="15.141997225829044"><ele>10.0</ele><time>2026-04-11T13:33:48.998Z</time></trkpt><trkpt lat="36.89261827982863" lon="15.141888724700886"><ele>10.0</ele><time>2026-04-11T13:33:49.998Z</time></trkpt><trkpt lat="36.89252694456" lon="15.141799046952096"><ele>10.0</ele><time>2026-04-11T13:33:50.998Z</time></trkpt><trkpt lat="36.89242396544671" lon="15.141732003483376"><ele>10.0</ele><time>2026-04-11T13:33:51.998Z</time></trkpt><trkpt lat="36.89231627915271" lon="15.141684066612562"><ele>9.8</ele><time>2026-04-11T13:33:52.998Z</time></trkpt><trkpt lat="36.892214716899474" lon="15.141638827486245"><ele>9.6</ele><time>2026-04-11T13:33:53.998Z</time></trkpt><trkpt lat="36.89211966789706" lon="15.141587901339776"><ele>9.4</ele><time>2026-04-11T13:33:54.998Z</time></trkpt><trkpt lat="36.89202129848374" lon="15.141529594856712"><ele>9.2</ele><time>2026-04-11T13:33:55.998Z</time></trkpt><trkpt lat="36.89192580642271" lon="15.141474590293848"><ele>9.0</ele><time>2026-04-11T13:33:56.998Z</time></trkpt><trkpt lat="36.89183691539045" lon="15.141396445852466"><ele>8.5</ele><time>2026-04-11T13:33:57.998Z</time></trkpt><trkpt lat="36.891742475409075" lon="15.141322758268561"><ele>8.0</ele><time>2026-04-11T13:33:58.998Z</time></trkpt><trkpt lat="36.89162864888864" lon="15.141250491273377"><ele>7.5</ele><time>2026-04-11T13:33:59.998Z</time></trkpt><trkpt lat="36.891486443572916" lon="15.141215259235885"><ele>7.0</ele><time>2026-04-11T13:34:00.998Z</time></trkpt><trkpt lat="36.89137485863512" lon="15.141175844945035"><ele>7.0</ele><time>2026-04-11T13:34:01.998Z</time></trkpt><trkpt lat="36.89127760922412" lon="15.141109770961537"><ele>7.0</ele><time>2026-04-11T13:34:03Z</time></trkpt><trkpt lat="36.891153649824595" lon="15.140985539684742"><ele>7.0</ele><time>2026-04-11T13:34:04Z</time></trkpt><trkpt lat="36.89102351375596" lon="15.140858613725978"><ele>7.0</ele><time>2026-04-11T13:34:05Z</time></trkpt><trkpt lat="36.89089134105299" lon="15.140751057560351"><ele>7.333333333333334</ele><time>2026-04-11T13:34:06Z</time></trkpt><trkpt lat="36.890748303614195" lon="15.1406417265771"><ele>7.666666666666666</ele><time>2026-04-11T13:34:07Z</time></trkpt><trkpt lat="36.89059949944982" lon="15.14055283035472"><ele>8.0</ele><time>2026-04-11T13:34:08Z</time></trkpt><trkpt lat="36.89046356816516" lon="15.14049802991481"><ele>8.0</ele><time>2026-04-11T13:34:09Z</time></trkpt><trkpt lat="36.89033675245763" lon="15.140467034181826"><ele>8.0</ele><time>2026-04-11T13:34:10Z</time></trkpt><trkpt lat="36.8902048865408" lon="15.14046442907139"><ele>8.0</ele><time>2026-04-11T13:34:11Z</time></trkpt><trkpt lat="36.890063519589546" lon="15.140463654297562"><ele>8.0</ele><time>2026-04-11T13:34:12Z</time></trkpt><trkpt lat="36.88991858172555" lon="15.14048186837757"><ele>8.333333333333332</ele><time>2026-04-11T13:34:13Z</time></trkpt><trkpt lat="36.88976058369866" lon="15.140522892314529"><ele>8.666666666666666</ele><time>2026-04-11T13:34:14Z</time></trkpt><trkpt lat="36.88959564413323" lon="15.140547031924884"><ele>9.0</ele><time>2026-04-11T13:34:15Z</time></trkpt><trkpt lat="36.889440660911305" lon="15.140561581782318"><ele>9.0</ele><time>2026-04-11T13:34:16Z</time></trkpt><trkpt lat="36.889292870858604" lon="15.140574320730806"><ele>9.0</ele><time>2026-04-11T13:34:17Z</time></trkpt><trkpt lat="36.8891582233535" lon="15.140588533854586"><ele>9.0</ele><time>2026-04-11T13:34:18Z</time></trkpt><trkpt lat="36.889034346837754" lon="15.140600471063378"><ele>9.0</ele><time>2026-04-11T13:34:19Z</time></trkpt><trkpt lat="36.88891813745542" lon="15.140610496739088"><ele>8.8</ele><time>2026-04-11T13:34:20Z</time></trkpt><trkpt lat="36.888820062807525" lon="15.140609442434135"><ele>8.600000000000001</ele><time>2026-04-11T13:34:21Z</time></trkpt><trkpt lat="36.88873951160003" lon="15.140608394634048"><ele>8.4</ele><time>2026-04-11T13:34:22Z</time></trkpt><trkpt lat="36.88862921812468" lon="15.14057398116254"><ele>8.200000000000001</ele><time>2026-04-11T13:34:24Z</time></trkpt><trkpt lat="36.888578539477415" lon="15.140514193718571"><ele>8.0</ele><time>2026-04-11T13:34:25Z</time></trkpt><trkpt lat="36.88851705588409" lon="15.140435097724511"><ele>7.75</ele><time>2026-04-11T13:34:26Z</time></trkpt><trkpt lat="36.88841940879786" lon="15.140340244344646"><ele>7.5</ele><time>2026-04-11T13:34:27Z</time></trkpt><trkpt lat="36.88830829509945" lon="15.140239238915834"><ele>7.25</ele><time>2026-04-11T13:34:28Z</time></trkpt><trkpt lat="36.88820288916586" lon="15.140139333543274"><ele>7.0</ele><time>2026-04-11T13:34:29Z</time></trkpt><trkpt lat="36.8881018318881" lon="15.140039174252157"><ele>7.0</ele><time>2026-04-11T13:34:30Z</time></trkpt><trkpt lat="36.888002755195075" lon="15.139941114767016"><ele>7.0</ele><time>2026-04-11T13:34:31Z</time></trkpt><trkpt lat="36.887906258801436" lon="15.139847180421654"><ele>7.0</ele><time>2026-04-11T13:34:32Z</time></trkpt><trkpt lat="36.88781861443114" lon="15.139759225870693"><ele>7.0</ele><time>2026-04-11T13:34:33Z</time></trkpt><trkpt lat="36.887734572242834" lon="15.139680770498366"><ele>7.000000000000001</ele><time>2026-04-11T13:34:34Z</time></trkpt><trkpt lat="36.887647531748875" lon="15.139609588013137"><ele>7.0</ele><time>2026-04-11T13:34:35Z</time></trkpt><trkpt lat="36.887566344906375" lon="15.139557116851357"><ele>7.0</ele><time>2026-04-11T13:34:36Z</time></trkpt><trkpt lat="36.88749055907711" lon="15.139530597740332"><ele>7.0</ele><time>2026-04-11T13:34:37Z</time></trkpt><trkpt lat="36.88741499740099" lon="15.13953140784329"><ele>7.000000000000001</ele><time>2026-04-11T13:34:38Z</time></trkpt><trkpt lat="36.88734430183194" lon="15.139571095526813"><ele>7.0</ele><time>2026-04-11T13:34:39Z</time></trkpt><trkpt lat="36.887268012716895" lon="15.13964127537188"><ele>6.833333333333334</ele><time>2026-04-11T13:34:40Z</time></trkpt><trkpt lat="36.88719360911529" lon="15.139696179726469"><ele>6.666666666666667</ele><time>2026-04-11T13:34:41Z</time></trkpt><trkpt lat="36.88712258284746" lon="15.139692410111284"><ele>6.5</ele><time>2026-04-11T13:34:42Z</time></trkpt><trkpt lat="36.88705616097927" lon="15.139653205563873"><ele>6.333333333333334</ele><time>2026-04-11T13:34:43Z</time></trkpt><trkpt lat="36.886979433817686" lon="15.139615164388344"><ele>6.166666666666667</ele><time>2026-04-11T13:34:44Z</time></trkpt><trkpt lat="36.88689301699394" lon="15.139564147080963"><ele>6.0</ele><time>2026-04-11T13:34:45Z</time></trkpt><trkpt lat="36.88680101296675" lon="15.13950731005604"><ele>6.25</ele><time>2026-04-11T13:34:45.999Z</time></trkpt><trkpt lat="36.88669610702458" lon="15.139443109894597"><ele>6.5</ele><time>2026-04-11T13:34:46.999Z</time></trkpt><trkpt lat="36.88658201902756" lon="15.139376169479005"><ele>6.75</ele><time>2026-04-11T13:34:47.999Z</time></trkpt><trkpt lat="36.88647352207831" lon="15.139322405590748"><ele>7.0</ele><time>2026-04-11T13:34:48.999Z</time></trkpt><trkpt lat="36.88637463566333" lon="15.139292107882321"><ele>7.0</ele><time>2026-04-11T13:34:49.999Z</time></trkpt><trkpt lat="36.88628475535483" lon="15.13928832707652"><ele>6.999999999999999</ele><time>2026-04-11T13:34:50.999Z</time></trkpt><trkpt lat="36.886187226122395" lon="15.13931314549345"><ele>6.999999999999999</ele><time>2026-04-11T13:34:51.999Z</time></trkpt><trkpt lat="36.88607204109688" lon="15.139351511633164"><ele>7.0</ele><time>2026-04-11T13:34:52.999Z</time></trkpt><trkpt lat="36.88595696395181" lon="15.13937797225283"><ele>7.0</ele><time>2026-04-11T13:34:53.999Z</time></trkpt><trkpt lat="36.88584845051386" lon="15.139389723615954"><ele>6.833333333333334</ele><time>2026-04-11T13:34:54.999Z</time></trkpt><trkpt lat="36.8857487805756" lon="15.139386062609201"><ele>6.666666666666667</ele><time>2026-04-11T13:34:55.999Z</time></trkpt><trkpt lat="36.88566170629703" lon="15.139367309437075"><ele>6.5</ele><time>2026-04-11T13:34:56.999Z</time></trkpt><trkpt lat="36.88559692487439" lon="15.139296715257418"><ele>6.333333333333334</ele><time>2026-04-11T13:34:57.999Z</time></trkpt><trkpt lat="36.885529014117786" lon="15.13927431697372"><ele>6.166666666666667</ele><time>2026-04-11T13:34:58.999Z</time></trkpt><trkpt lat="36.88545628098336" lon="15.139186779599918"><ele>6.0</ele><time>2026-04-11T13:35:00.999Z</time></trkpt><trkpt lat="36.88547616257071" lon="15.139048556307525"><ele>6.6</ele><time>2026-04-11T13:35:02.999Z</time></trkpt><trkpt lat="36.88550603859626" lon="15.138964580266977"><ele>7.199999999999999</ele><time>2026-04-11T13:35:03.999Z</time></trkpt><trkpt lat="36.88553456168925" lon="15.138872253008795"><ele>7.800000000000001</ele><time>2026-04-11T13:35:04.999Z</time></trkpt><trkpt lat="36.885566172430046" lon="15.138771652345467"><ele>8.4</ele><time>2026-04-11T13:35:05.999Z</time></trkpt><trkpt lat="36.88561652609933" lon="15.138620038734325"><ele>9.0</ele><time>2026-04-11T13:35:06.999Z</time></trkpt><trkpt lat="36.885675952773084" lon="15.138430038654143"><ele>9.0</ele><time>2026-04-11T13:35:07.999Z</time></trkpt><trkpt lat="36.885739895013174" lon="15.13826289438037"><ele>9.0</ele><time>2026-04-11T13:35:08.999Z</time></trkpt><trkpt lat="36.885791693806624" lon="15.138102451884924"><ele>9.0</ele><time>2026-04-11T13:35:09.999Z</time></trkpt><trkpt lat="36.88584946948428" lon="15.137937509656863"><ele>9.0</ele><time>2026-04-11T13:35:10.999Z</time></trkpt><trkpt lat="36.88591872241797" lon="15.137775566728179"><ele>9.333333333333334</ele><time>2026-04-11T13:35:11.999Z</time></trkpt><trkpt lat="36.88598803242242" lon="15.137596852352589"><ele>9.666666666666668</ele><time>2026-04-11T13:35:12.999Z</time></trkpt><trkpt lat="36.88604743625769" lon="15.137429045570862"><ele>10.0</ele><time>2026-04-11T13:35:13.999Z</time></trkpt><trkpt lat="36.88610766944533" lon="15.137255459698693"><ele>10.333333333333334</ele><time>2026-04-11T13:35:14.999Z</time></trkpt><trkpt lat="36.88616378427562" lon="15.137048381528857"><ele>10.666666666666666</ele><time>2026-04-11T13:35:15.999Z</time></trkpt><trkpt lat="36.88620719005645" lon="15.136829012407448"><ele>11.0</ele><time>2026-04-11T13:35:16.999Z</time></trkpt><trkpt lat="36.88623574920027" lon="15.136617242058746"><ele>11.5</ele><time>2026-04-11T13:35:17.999Z</time></trkpt><trkpt lat="36.88626867386264" lon="15.136435300243857"><ele>12.0</ele><time>2026-04-11T13:35:18.999Z</time></trkpt><trkpt lat="36.88628851765263" lon="15.13628370721238"><ele>12.5</ele><time>2026-04-11T13:35:19.999Z</time></trkpt><trkpt lat="36.886254471644705" lon="15.136148207417438"><ele>13.0</ele><time>2026-04-11T13:35:20.999Z</time></trkpt><trkpt lat="36.88621673332494" lon="15.13599801774107"><ele>13.0</ele><time>2026-04-11T13:35:21.999Z</time></trkpt><trkpt lat="36.886162407501565" lon="15.135836692889672"><ele>13.0</ele><time>2026-04-11T13:35:22.999Z</time></trkpt><trkpt lat="36.88611782083798" lon="15.13569023800126"><ele>13.0</ele><time>2026-04-11T13:35:23.999Z</time></trkpt><trkpt lat="36.88608646955901" lon="15.135567602134822"><ele>13.0</ele><time>2026-04-11T13:35:24.999Z</time></trkpt><trkpt lat="36.88604586155269" lon="15.135428895527182"><ele>13.4</ele><time>2026-04-11T13:35:25.999Z</time></trkpt><trkpt lat="36.88601871980085" lon="15.135279703865526"><ele>13.8</ele><time>2026-04-11T13:35:26.999Z</time></trkpt><trkpt lat="36.88599496545581" lon="15.135154063740519"><ele>14.2</ele><time>2026-04-11T13:35:27.999Z</time></trkpt><trkpt lat="36.88598614505562" lon="15.135028152721782"><ele>14.6</ele><time>2026-04-11T13:35:28.999Z</time></trkpt><trkpt lat="36.885987652855626" lon="15.134896625088539"><ele>15.0</ele><time>2026-04-11T13:35:29.999Z</time></trkpt><trkpt lat="36.886009307689505" lon="15.134765306729738"><ele>15.2</ele><time>2026-04-11T13:35:30.999Z</time></trkpt><trkpt lat="36.88603176647759" lon="15.134629281060127"><ele>15.4</ele><time>2026-04-11T13:35:31.999Z</time></trkpt><trkpt lat="36.886042185465364" lon="15.134491568840746"><ele>15.600000000000001</ele><time>2026-04-11T13:35:32.999Z</time></trkpt><trkpt lat="36.886053013839955" lon="15.134366213524853"><ele>15.8</ele><time>2026-04-11T13:35:33.999Z</time></trkpt><trkpt lat="36.886060593075754" lon="15.134242808963396"><ele>16.0</ele><time>2026-04-11T13:35:34.999Z</time></trkpt><trkpt lat="36.8861047171939" lon="15.134125267373953"><ele>16.0</ele><time>2026-04-11T13:35:35.999Z</time></trkpt><trkpt lat="36.88617097647491" lon="15.134016401491719"><ele>16.0</ele><time>2026-04-11T13:35:36.999Z</time></trkpt><trkpt lat="36.88624060368492" lon="15.133900366889776"><ele>16.0</ele><time>2026-04-11T13:35:37.999Z</time></trkpt><trkpt lat="36.886299035745466" lon="15.133777620206924"><ele>16.0</ele><time>2026-04-11T13:35:38.999Z</time></trkpt><trkpt lat="36.88634735450369" lon="15.133641554207488"><ele>16.0</ele><time>2026-04-11T13:35:39.999Z</time></trkpt><trkpt lat="36.88637918964459" lon="15.133493444470439"><ele>16.0</ele><time>2026-04-11T13:35:40.999Z</time></trkpt><trkpt lat="36.886381525929686" lon="15.133347396191759"><ele>16.0</ele><time>2026-04-11T13:35:41.999Z</time></trkpt><trkpt lat="36.88638678332853" lon="15.133195372348297"><ele>16.0</ele><time>2026-04-11T13:35:42.999Z</time></trkpt><trkpt lat="36.88637116674824" lon="15.133041228082016"><ele>16.25</ele><time>2026-04-11T13:35:43.999Z</time></trkpt><trkpt lat="36.88636454499961" lon="15.132908048113746"><ele>16.5</ele><time>2026-04-11T13:35:44.999Z</time></trkpt><trkpt lat="36.886378374292505" lon="15.132781517045201"><ele>16.75</ele><time>2026-04-11T13:35:45.999Z</time></trkpt><trkpt lat="36.88641688068251" lon="15.132635120636486"><ele>17.0</ele><time>2026-04-11T13:35:46.999Z</time></trkpt><trkpt lat="36.88647312632597" lon="15.132482218826121"><ele>17.25</ele><time>2026-04-11T13:35:47.999Z</time></trkpt><trkpt lat="36.88653556035329" lon="15.132327754237489"><ele>17.5</ele><time>2026-04-11T13:35:48.999Z</time></trkpt><trkpt lat="36.88660363718628" lon="15.132169354791332"><ele>17.75</ele><time>2026-04-11T13:35:49.998Z</time></trkpt><trkpt lat="36.88667169710674" lon="15.132021252374173"><ele>18.0</ele><time>2026-04-11T13:35:50.998Z</time></trkpt><trkpt lat="36.88674000802234" lon="15.13187006125738"><ele>18.0</ele><time>2026-04-11T13:35:51.998Z</time></trkpt><trkpt lat="36.88679640255472" lon="15.131736969712003"><ele>18.0</ele><time>2026-04-11T13:35:52.998Z</time></trkpt><trkpt lat="36.886848379512436" lon="15.13161680594209"><ele>18.0</ele><time>2026-04-11T13:35:53.998Z</time></trkpt><trkpt lat="36.88689631266841" lon="15.131511900771622"><ele>18.0</ele><time>2026-04-11T13:35:54.998Z</time></trkpt><trkpt lat="36.88693413068824" lon="15.131418868621477"><ele>18.0</ele><time>2026-04-11T13:35:55.998Z</time></trkpt><trkpt lat="36.886966201530726" lon="15.131341657372152"><ele>18.2</ele><time>2026-04-11T13:35:56.998Z</time></trkpt><trkpt lat="36.88700379198307" lon="15.131244091117544"><ele>18.4</ele><time>2026-04-11T13:35:58.998Z</time></trkpt><trkpt lat="36.88699028602834" lon="15.131149067565419"><ele>18.599999999999998</ele><time>2026-04-11T13:36:04.998Z</time></trkpt><trkpt lat="36.88687798781123" lon="15.131100398196832"><ele>18.8</ele><time>2026-04-11T13:36:06.998Z</time></trkpt><trkpt lat="36.88678851580292" lon="15.131084888039233"><ele>19.0</ele><time>2026-04-11T13:36:07.998Z</time></trkpt><trkpt lat="36.886709740016734" lon="15.131065840527324"><ele>19.0</ele><time>2026-04-11T13:36:09Z</time></trkpt><trkpt lat="36.886607062497795" lon="15.131049160140309"><ele>19.0</ele><time>2026-04-11T13:36:10Z</time></trkpt><trkpt lat="36.88648115285958" lon="15.131025933768903"><ele>19.0</ele><time>2026-04-11T13:36:11Z</time></trkpt><trkpt lat="36.88632941653053" lon="15.131019347486985"><ele>19.0</ele><time>2026-04-11T13:36:12Z</time></trkpt><trkpt lat="36.886184342522746" lon="15.131040447369255"><ele>19.0</ele><time>2026-04-11T13:36:13Z</time></trkpt><trkpt lat="36.88599275875102" lon="15.131026988548049"><ele>19.0</ele><time>2026-04-11T13:36:14Z</time></trkpt><trkpt lat="36.885762746298454" lon="15.131053811828892"><ele>19.0</ele><time>2026-04-11T13:36:15Z</time></trkpt><trkpt lat="36.885518254605344" lon="15.1310736333175"><ele>19.333333333333332</ele><time>2026-04-11T13:36:16Z</time></trkpt><trkpt lat="36.88532814669781" lon="15.131079158469174"><ele>19.666666666666668</ele><time>2026-04-11T13:36:17Z</time></trkpt><trkpt lat="36.885071676024104" lon="15.13110683071454"><ele>20.0</ele><time>2026-04-11T13:36:18Z</time></trkpt><trkpt lat="36.884815849573265" lon="15.131123965542404"><ele>20.0</ele><time>2026-04-11T13:36:19Z</time></trkpt><trkpt lat="36.88456518609391" lon="15.13113436933766"><ele>20.0</ele><time>2026-04-11T13:36:20Z</time></trkpt><trkpt lat="36.88434047644467" lon="15.13114836913976"><ele>19.666666666666668</ele><time>2026-04-11T13:36:21Z</time></trkpt><trkpt lat="36.88413065964244" lon="15.13116072725135"><ele>19.333333333333332</ele><time>2026-04-11T13:36:22Z</time></trkpt><trkpt lat="36.883937619687615" lon="15.13117883257742"><ele>19.0</ele><time>2026-04-11T13:36:23Z</time></trkpt><trkpt lat="36.88375641457665" lon="15.131194586475058"><ele>19.0</ele><time>2026-04-11T13:36:24Z</time></trkpt><trkpt lat="36.88357809505518" lon="15.131204424148565"><ele>19.0</ele><time>2026-04-11T13:36:25Z</time></trkpt><trkpt lat="36.883388145866505" lon="15.13120112765842"><ele>19.0</ele><time>2026-04-11T13:36:26Z</time></trkpt><trkpt lat="36.883201037360976" lon="15.13118110262531"><ele>18.666666666666664</ele><time>2026-04-11T13:36:27Z</time></trkpt><trkpt lat="36.88302949105156" lon="15.131153104723262"><ele>18.333333333333332</ele><time>2026-04-11T13:36:28Z</time></trkpt><trkpt lat="36.88285649860311" lon="15.131123071115374"><ele>18.0</ele><time>2026-04-11T13:36:29Z</time></trkpt><trkpt lat="36.88269165083067" lon="15.13107792663039"><ele>17.666666666666668</ele><time>2026-04-11T13:36:30Z</time></trkpt><trkpt lat="36.88252592934108" lon="15.131004969521078"><ele>17.333333333333336</ele><time>2026-04-11T13:36:31Z</time></trkpt><trkpt lat="36.882362439846986" lon="15.130897490656148"><ele>17.0</ele><time>2026-04-11T13:36:32Z</time></trkpt><trkpt lat="36.88220426081116" lon="15.130795465731929"><ele>17.666666666666668</ele><time>2026-04-11T13:36:33Z</time></trkpt><trkpt lat="36.88203606885156" lon="15.130720525237889"><ele>18.333333333333332</ele><time>2026-04-11T13:36:34Z</time></trkpt><trkpt lat="36.88183960303781" lon="15.130674671550484"><ele>19.0</ele><time>2026-04-11T13:36:35Z</time></trkpt><trkpt lat="36.881629540160745" lon="15.130658054734496"><ele>17.0</ele><time>2026-04-11T13:36:36Z</time></trkpt><trkpt lat="36.88141071165633" lon="15.13066718149358"><ele>15.0</ele><time>2026-04-11T13:36:37Z</time></trkpt><trkpt lat="36.881178867088536" lon="15.130670276647042"><ele>15.0</ele><time>2026-04-11T13:36:38Z</time></trkpt><trkpt lat="36.88097485367446" lon="15.13064579565203"><ele>15.0</ele><time>2026-04-11T13:36:39Z</time></trkpt><trkpt lat="36.88079680475654" lon="15.130607530322942"><ele>15.0</ele><time>2026-04-11T13:36:40Z</time></trkpt><trkpt lat="36.8806178818791" lon="15.130556671974768"><ele>15.0</ele><time>2026-04-11T13:36:41Z</time></trkpt><trkpt lat="36.88043786474202" lon="15.130486334352433"><ele>15.0</ele><time>2026-04-11T13:36:42Z</time></trkpt><trkpt lat="36.88025509749659" lon="15.130404136663634"><ele>15.0</ele><time>2026-04-11T13:36:43Z</time></trkpt><trkpt lat="36.88008164394515" lon="15.130327230865763"><ele>13.666666666666666</ele><time>2026-04-11T13:36:44Z</time></trkpt><trkpt lat="36.87992236006656" lon="15.130245067495265"><ele>12.333333333333332</ele><time>2026-04-11T13:36:45Z</time></trkpt><trkpt lat="36.8797711134869" lon="15.130169442991152"><ele>11.0</ele><time>2026-04-11T13:36:46Z</time></trkpt><trkpt lat="36.879639853314664" lon="15.13009358371041"><ele>11.0</ele><time>2026-04-11T13:36:47Z</time></trkpt><trkpt lat="36.87952779004669" lon="15.129990585606112"><ele>11.0</ele><time>2026-04-11T13:36:48Z</time></trkpt><trkpt lat="36.8794333357445" lon="15.129849609577574"><ele>11.0</ele><time>2026-04-11T13:36:49Z</time></trkpt><trkpt lat="36.87934004741251" lon="15.12966419663254"><ele>10.0</ele><time>2026-04-11T13:36:50Z</time></trkpt><trkpt lat="36.87924636968177" lon="15.129479414325768"><ele>9.0</ele><time>2026-04-11T13:36:51Z</time></trkpt><trkpt lat="36.879164044148645" lon="15.129300413089542"><ele>8.0</ele><time>2026-04-11T13:36:52Z</time></trkpt><trkpt lat="36.879092365914346" lon="15.129115803156767"><ele>8.333333333333332</ele><time>2026-04-11T13:36:52.999Z</time></trkpt><trkpt lat="36.879039869860144" lon="15.128909655570208"><ele>8.666666666666666</ele><time>2026-04-11T13:36:53.999Z</time></trkpt><trkpt lat="36.87899093939477" lon="15.128704438538788"><ele>9.0</ele><time>2026-04-11T13:36:54.999Z</time></trkpt><trkpt lat="36.87891898879015" lon="15.128512436267075"><ele>9.0</ele><time>2026-04-11T13:36:55.999Z</time></trkpt><trkpt lat="36.878793016429086" lon="15.128350161166075"><ele>9.0</ele><time>2026-04-11T13:36:56.999Z</time></trkpt><trkpt lat="36.87861382121425" lon="15.128229671670741"><ele>9.0</ele><time>2026-04-11T13:36:57.999Z</time></trkpt><trkpt lat="36.87840015188555" lon="15.128117409971832"><ele>9.0</ele><time>2026-04-11T13:36:58.999Z</time></trkpt><trkpt lat="36.87818955843842" lon="15.127966301573988"><ele>9.0</ele><time>2026-04-11T13:36:59.999Z</time></trkpt><trkpt lat="36.8780068426188" lon="15.127800674407627"><ele>9.0</ele><time>2026-04-11T13:37:00.999Z</time></trkpt><trkpt lat="36.87784092900588" lon="15.127654077048748"><ele>9.0</ele><time>2026-04-11T13:37:01.999Z</time></trkpt><trkpt lat="36.87768296598427" lon="15.12752276200032"><ele>9.0</ele><time>2026-04-11T13:37:02.999Z</time></trkpt><trkpt lat="36.87753088783076" lon="15.127407681199433"><ele>8.666666666666666</ele><time>2026-04-11T13:37:03.999Z</time></trkpt><trkpt lat="36.87736782161214" lon="15.127323198469199"><ele>8.333333333333332</ele><time>2026-04-11T13:37:04.999Z</time></trkpt><trkpt lat="36.87717560664098" lon="15.12728059508634"><ele>8.0</ele><time>2026-04-11T13:37:05.999Z</time></trkpt><trkpt lat="36.8769647202059" lon="15.127272403609707"><ele>8.0</ele><time>2026-04-11T13:37:06.999Z</time></trkpt><trkpt lat="36.87675236097453" lon="15.127259356683023"><ele>8.0</ele><time>2026-04-11T13:37:07.999Z</time></trkpt><trkpt lat="36.87654949228136" lon="15.127233061867972"><ele>8.0</ele><time>2026-04-11T13:37:08.999Z</time></trkpt><trkpt lat="36.87636154573977" lon="15.12720631771685"><ele>8.0</ele><time>2026-04-11T13:37:09.999Z</time></trkpt><trkpt lat="36.87617290222654" lon="15.127178776330625"><ele>8.0</ele><time>2026-04-11T13:37:10.999Z</time></trkpt><trkpt lat="36.87598110835847" lon="15.12715452994461"><ele>8.0</ele><time>2026-04-11T13:37:11.999Z</time></trkpt><trkpt lat="36.87579243281668" lon="15.127134760713304"><ele>8.0</ele><time>2026-04-11T13:37:12.999Z</time></trkpt><trkpt lat="36.8756070741373" lon="15.127115813802497"><ele>8.0</ele><time>2026-04-11T13:37:13.999Z</time></trkpt><trkpt lat="36.87542774187658" lon="15.127098019602304"><ele>8.0</ele><time>2026-04-11T13:37:14.999Z</time></trkpt><trkpt lat="36.8752518579168" lon="15.127078305600465"><ele>8.0</ele><time>2026-04-11T13:37:15.999Z</time></trkpt><trkpt lat="36.87507721002561" lon="15.127046926081915"><ele>8.0</ele><time>2026-04-11T13:37:16.999Z</time></trkpt><trkpt lat="36.87491627528724" lon="15.12700298997105"><ele>8.0</ele><time>2026-04-11T13:37:17.999Z</time></trkpt><trkpt lat="36.87476604821559" lon="15.126918022664103"><ele>8.0</ele><time>2026-04-11T13:37:18.999Z</time></trkpt><trkpt lat="36.874627808444046" lon="15.126787156621939"><ele>8.0</ele><time>2026-04-11T13:37:19.999Z</time></trkpt><trkpt lat="36.8745011171323" lon="15.126627078160798"><ele>8.0</ele><time>2026-04-11T13:37:20.999Z</time></trkpt><trkpt lat="36.8743812385727" lon="15.12648367636294"><ele>10.5</ele><time>2026-04-11T13:37:21.999Z</time></trkpt><trkpt lat="36.87425788952246" lon="15.12636657767603"><ele>13.0</ele><time>2026-04-11T13:37:22.999Z</time></trkpt><trkpt lat="36.87412891938868" lon="15.126284416045353"><ele>15.5</ele><time>2026-04-11T13:37:23.999Z</time></trkpt><trkpt lat="36.87399426911474" lon="15.12626065499829"><ele>18.0</ele><time>2026-04-11T13:37:24.999Z</time></trkpt><trkpt lat="36.8738680275499" lon="15.126297694685697"><ele>18.0</ele><time>2026-04-11T13:37:25.999Z</time></trkpt><trkpt lat="36.87375696312504" lon="15.126358729227281"><ele>18.0</ele><time>2026-04-11T13:37:26.999Z</time></trkpt><trkpt lat="36.87365708562379" lon="15.126440385651053"><ele>18.0</ele><time>2026-04-11T13:37:27.999Z</time></trkpt><trkpt lat="36.87355392254436" lon="15.126510875312562"><ele>18.0</ele><time>2026-04-11T13:37:28.999Z</time></trkpt><trkpt lat="36.87345361790937" lon="15.126585062453637"><ele>17.0</ele><time>2026-04-11T13:37:29.999Z</time></trkpt><trkpt lat="36.87335040599444" lon="15.126655019526309"><ele>16.0</ele><time>2026-04-11T13:37:30.999Z</time></trkpt><trkpt lat="36.87324295646193" lon="15.126721271974347"><ele>15.0</ele><time>2026-04-11T13:37:31.999Z</time></trkpt><trkpt lat="36.87313423758782" lon="15.126774983312888"><ele>14.0</ele><time>2026-04-11T13:37:32.999Z</time></trkpt><trkpt lat="36.87301799305936" lon="15.126809164090043"><ele>14.0</ele><time>2026-04-11T13:37:33.999Z</time></trkpt><trkpt lat="36.87290105791746" lon="15.12683243570549"><ele>14.0</ele><time>2026-04-11T13:37:34.999Z</time></trkpt><trkpt lat="36.872782730978486" lon="15.126873580754008"><ele>14.0</ele><time>2026-04-11T13:37:35.999Z</time></trkpt><trkpt lat="36.872670509921704" lon="15.126935139933801"><ele>14.0</ele><time>2026-04-11T13:37:36.999Z</time></trkpt><trkpt lat="36.87256048887629" lon="15.127005342918492"><ele>14.5</ele><time>2026-04-11T13:37:37.999Z</time></trkpt><trkpt lat="36.872449935885506" lon="15.127073390382666"><ele>15.0</ele><time>2026-04-11T13:37:38.999Z</time></trkpt><trkpt lat="36.87233557854494" lon="15.12713454825839"><ele>15.5</ele><time>2026-04-11T13:37:39.999Z</time></trkpt><trkpt lat="36.87222502151464" lon="15.12720755467076"><ele>16.0</ele><time>2026-04-11T13:37:40.999Z</time></trkpt><trkpt lat="36.87212554837384" lon="15.127279963974091"><ele>15.999999999999998</ele><time>2026-04-11T13:37:41.999Z</time></trkpt><trkpt lat="36.872034834922815" lon="15.12735191882124"><ele>16.0</ele><time>2026-04-11T13:37:42.999Z</time></trkpt><trkpt lat="36.87194801449575" lon="15.127413752441687"><ele>16.0</ele><time>2026-04-11T13:37:43.999Z</time></trkpt><trkpt lat="36.871873910631" lon="15.127464996942917"><ele>16.0</ele><time>2026-04-11T13:37:44.999Z</time></trkpt><trkpt lat="36.87179769591549" lon="15.127484377690605"><ele>15.999999999999998</ele><time>2026-04-11T13:37:45.999Z</time></trkpt><trkpt lat="36.87172345651335" lon="15.127451673968958"><ele>16.0</ele><time>2026-04-11T13:37:46.999Z</time></trkpt><trkpt lat="36.87161801263322" lon="15.127306751127175"><ele>16.166666666666664</ele><time>2026-04-11T13:37:48.999Z</time></trkpt><trkpt lat="36.87155946500547" lon="15.127253700370485"><ele>16.333333333333332</ele><time>2026-04-11T13:37:49.999Z</time></trkpt><trkpt lat="36.8714890339421" lon="15.127231335846195"><ele>16.5</ele><time>2026-04-11T13:37:50.999Z</time></trkpt><trkpt lat="36.87142211606079" lon="15.127245358800591"><ele>16.666666666666668</ele><time>2026-04-11T13:37:51.999Z</time></trkpt><trkpt lat="36.87136007303596" lon="15.12727523007196"><ele>16.833333333333336</ele><time>2026-04-11T13:37:52.999Z</time></trkpt><trkpt lat="36.87125006327138" lon="15.127334971166116"><ele>17.0</ele><time>2026-04-11T13:37:54.999Z</time></trkpt><trkpt lat="36.871187301058534" lon="15.12730418414213"><ele>17.0</ele><time>2026-04-11T13:37:55.999Z</time></trkpt><trkpt lat="36.87111505997287" lon="15.127219841737794"><ele>17.0</ele><time>2026-04-11T13:37:57.998Z</time></trkpt><trkpt lat="36.87107067919224" lon="15.127123660501836"><ele>17.0</ele><time>2026-04-11T13:38:00.998Z</time></trkpt><trkpt lat="36.87099568274107" lon="15.126959698105948"><ele>17.0</ele><time>2026-04-11T13:38:02.998Z</time></trkpt><trkpt lat="36.870944836693" lon="15.12683181230917"><ele>17.25</ele><time>2026-04-11T13:38:03.998Z</time></trkpt><trkpt lat="36.87089395597875" lon="15.126698560040523"><ele>17.5</ele><time>2026-04-11T13:38:04.998Z</time></trkpt><trkpt lat="36.870814857292316" lon="15.126580182100122"><ele>17.75</ele><time>2026-04-11T13:38:05.998Z</time></trkpt><trkpt lat="36.87070024669636" lon="15.126466193828541"><ele>18.0</ele><time>2026-04-11T13:38:06.998Z</time></trkpt><trkpt lat="36.87058854973881" lon="15.126365901401474"><ele>18.25</ele><time>2026-04-11T13:38:07.998Z</time></trkpt><trkpt lat="36.87047959302606" lon="15.126268220205066"><ele>18.5</ele><time>2026-04-11T13:38:08.998Z</time></trkpt><trkpt lat="36.870374624642956" lon="15.12617063251355"><ele>18.75</ele><time>2026-04-11T13:38:09.998Z</time></trkpt><trkpt lat="36.870264833954415" lon="15.12607851035552"><ele>19.0</ele><time>2026-04-11T13:38:10.998Z</time></trkpt><trkpt lat="36.87015676341888" lon="15.125985360152299"><ele>19.0</ele><time>2026-04-11T13:38:11.998Z</time></trkpt><trkpt lat="36.8700480026462" lon="15.12590520613475"><ele>19.0</ele><time>2026-04-11T13:38:12.998Z</time></trkpt><trkpt lat="36.86993713081858" lon="15.125836978580642"><ele>19.0</ele><time>2026-04-11T13:38:13.998Z</time></trkpt><trkpt lat="36.86984008454916" lon="15.125784824598776"><ele>19.0</ele><time>2026-04-11T13:38:15Z</time></trkpt><trkpt lat="36.869739230432735" lon="15.12572469467264"><ele>19.0</ele><time>2026-04-11T13:38:16Z</time></trkpt><trkpt lat="36.86964742104107" lon="15.125672250080811"><ele>19.0</ele><time>2026-04-11T13:38:17Z</time></trkpt><trkpt lat="36.8695639408456" lon="15.12562106542888"><ele>19.0</ele><time>2026-04-11T13:38:18Z</time></trkpt><trkpt lat="36.86947782721633" lon="15.125572616660952"><ele>19.0</ele><time>2026-04-11T13:38:19Z</time></trkpt><trkpt lat="36.86938524726597" lon="15.1255230956177"><ele>19.0</ele><time>2026-04-11T13:38:20Z</time></trkpt><trkpt lat="36.86928808447866" lon="15.125466623847597"><ele>18.5</ele><time>2026-04-11T13:38:21Z</time></trkpt><trkpt lat="36.86920573241519" lon="15.125407310374587"><ele>18.0</ele><time>2026-04-11T13:38:22Z</time></trkpt><trkpt lat="36.86912903343348" lon="15.12535910406368"><ele>17.5</ele><time>2026-04-11T13:38:23Z</time></trkpt><trkpt lat="36.869071630737956" lon="15.12531736453696"><ele>17.0</ele><time>2026-04-11T13:38:24Z</time></trkpt><trkpt lat="36.868989342940594" lon="15.125294290527304"><ele>16.5</ele><time>2026-04-11T13:38:26Z</time></trkpt><trkpt lat="36.868935316504114" lon="15.125381015414378"><ele>16.0</ele><time>2026-04-11T13:38:27Z</time></trkpt><trkpt lat="36.86891425223536" lon="15.125474562698482"><ele>16.0</ele><time>2026-04-11T13:38:28Z</time></trkpt><trkpt lat="36.86886924489883" lon="15.125585533766523"><ele>16.0</ele><time>2026-04-11T13:38:30Z</time></trkpt><trkpt lat="36.868805223618075" lon="15.125622097424841"><ele>16.0</ele><time>2026-04-11T13:38:37Z</time></trkpt><trkpt lat="36.86867195884239" lon="15.125541486490237"><ele>16.0</ele><time>2026-04-11T13:38:39Z</time></trkpt><trkpt lat="36.868551149727125" lon="15.125463580061675"><ele>16.0</ele><time>2026-04-11T13:38:40Z</time></trkpt><trkpt lat="36.86837666565571" lon="15.125370852376333"><ele>16.0</ele><time>2026-04-11T13:38:41Z</time></trkpt><trkpt lat="36.86822472213581" lon="15.125287238590206"><ele>16.0</ele><time>2026-04-11T13:38:42Z</time></trkpt><trkpt lat="36.86810731608264" lon="15.125200033999572"><ele>16.0</ele><time>2026-04-11T13:38:43Z</time></trkpt><trkpt lat="36.868005124814644" lon="15.125123640752403"><ele>16.0</ele><time>2026-04-11T13:38:44Z</time></trkpt><trkpt lat="36.86788960647559" lon="15.125050925217732"><ele>16.0</ele><time>2026-04-11T13:38:45Z</time></trkpt><trkpt lat="36.867785145904215" lon="15.124989589864658"><ele>16.0</ele><time>2026-04-11T13:38:46Z</time></trkpt><trkpt lat="36.86770426885197" lon="15.124955931494416"><ele>16.0</ele><time>2026-04-11T13:38:47Z</time></trkpt><trkpt lat="36.86762482911848" lon="15.124997328211318"><ele>15.600000000000001</ele><time>2026-04-11T13:38:49Z</time></trkpt><trkpt lat="36.8676016821306" lon="15.125143841021327"><ele>15.200000000000001</ele><time>2026-04-11T13:38:51Z</time></trkpt><trkpt lat="36.867571180346495" lon="15.125255940122198"><ele>14.799999999999999</ele><time>2026-04-11T13:38:52Z</time></trkpt><trkpt lat="36.86748852224236" lon="15.125366027728752"><ele>14.399999999999999</ele><time>2026-04-11T13:38:53Z</time></trkpt><trkpt lat="36.867443820676264" lon="15.125496809066895"><ele>14.0</ele><time>2026-04-11T13:38:54Z</time></trkpt><trkpt lat="36.867403276650464" lon="15.125603833892447"><ele>14.0</ele><time>2026-04-11T13:38:55Z</time></trkpt><trkpt lat="36.867371393984925" lon="15.125677436755758"><ele>13.999999999999998</ele><time>2026-04-11T13:38:56Z</time></trkpt><trkpt lat="36.867321447239554" lon="15.125740637381456"><ele>13.999999999999998</ele><time>2026-04-11T13:38:58Z</time></trkpt><trkpt lat="36.8672338399747" lon="15.125619793188326"><ele>14.0</ele><time>2026-04-11T13:38:59.999Z</time></trkpt><trkpt lat="36.86714058976254" lon="15.125562474853188"><ele>14.0</ele><time>2026-04-11T13:39:00.999Z</time></trkpt><trkpt lat="36.86703598852039" lon="15.125493068556374"><ele>14.0</ele><time>2026-04-11T13:39:01.999Z</time></trkpt><trkpt lat="36.86693376766655" lon="15.125425241712957"><ele>14.0</ele><time>2026-04-11T13:39:02.999Z</time></trkpt><trkpt lat="36.866826579710725" lon="15.125355623687021"><ele>14.0</ele><time>2026-04-11T13:39:03.999Z</time></trkpt><trkpt lat="36.86670903746605" lon="15.125279685168506"><ele>14.0</ele><time>2026-04-11T13:39:04.999Z</time></trkpt><trkpt lat="36.86659071830614" lon="15.125203244721163"><ele>13.799999999999999</ele><time>2026-04-11T13:39:05.999Z</time></trkpt><trkpt lat="36.86648408354528" lon="15.125131885418634"><ele>13.599999999999998</ele><time>2026-04-11T13:39:06.999Z</time></trkpt><trkpt lat="36.86639244516022" lon="15.125069773538229"><ele>13.4</ele><time>2026-04-11T13:39:07.999Z</time></trkpt><trkpt lat="36.86631052659323" lon="15.125016683615426"><ele>13.2</ele><time>2026-04-11T13:39:08.999Z</time></trkpt><trkpt lat="36.86622697225172" lon="15.124990538458336"><ele>13.0</ele><time>2026-04-11T13:39:09.999Z</time></trkpt><trkpt lat="36.86615880438538" lon="15.124959791682617"><ele>12.999999999999998</ele><time>2026-04-11T13:39:10.999Z</time></trkpt><trkpt lat="36.866094917398314" lon="15.12495728003284"><ele>13.0</ele><time>2026-04-11T13:39:11.999Z</time></trkpt><trkpt lat="36.866034092242245" lon="15.124987053497833"><ele>13.0</ele><time>2026-04-11T13:39:12.999Z</time></trkpt><trkpt lat="36.86596626125497" lon="15.125024125660412"><ele>13.0</ele><time>2026-04-11T13:39:13.999Z</time></trkpt><trkpt lat="36.86590052297151" lon="15.125070443069312"><ele>12.999999999999998</ele><time>2026-04-11T13:39:14.999Z</time></trkpt><trkpt lat="36.86580439205003" lon="15.125138599044755"><ele>13.0</ele><time>2026-04-11T13:39:16.999Z</time></trkpt><trkpt lat="36.86574748866694" lon="15.125175490490362"><ele>13.2</ele><time>2026-04-11T13:39:19.999Z</time></trkpt><trkpt lat="36.86567973509708" lon="15.125205013932064"><ele>13.4</ele><time>2026-04-11T13:39:23.999Z</time></trkpt><trkpt lat="36.86565746862367" lon="15.125103552917324"><ele>13.599999999999998</ele><time>2026-04-11T13:39:25.999Z</time></trkpt><trkpt lat="36.86560379905414" lon="15.12494705975618"><ele>13.799999999999999</ele><time>2026-04-11T13:39:27.999Z</time></trkpt><trkpt lat="36.86557142860962" lon="15.124851124106067"><ele>14.0</ele><time>2026-04-11T13:39:28.999Z</time></trkpt><trkpt lat="36.86551648147799" lon="15.124740444481935"><ele>14.0</ele><time>2026-04-11T13:39:29.999Z</time></trkpt><trkpt lat="36.86547911286821" lon="15.124614344191016"><ele>13.999999999999998</ele><time>2026-04-11T13:39:30.999Z</time></trkpt><trkpt lat="36.86543972974706" lon="15.124483932046603"><ele>13.999999999999998</ele><time>2026-04-11T13:39:31.999Z</time></trkpt><trkpt lat="36.86539325500561" lon="15.124361562250556"><ele>14.0</ele><time>2026-04-11T13:39:32.999Z</time></trkpt><trkpt lat="36.865338811219935" lon="15.124246453094043"><ele>14.0</ele><time>2026-04-11T13:39:33.999Z</time></trkpt><trkpt lat="36.86529056575517" lon="15.124124422472693"><ele>13.399999999999999</ele><time>2026-04-11T13:39:34.999Z</time></trkpt><trkpt lat="36.86523382838627" lon="15.124007170913753"><ele>12.799999999999999</ele><time>2026-04-11T13:39:35.999Z</time></trkpt><trkpt lat="36.86519300122942" lon="15.12389294561143"><ele>12.2</ele><time>2026-04-11T13:39:36.999Z</time></trkpt><trkpt lat="36.86515134233355" lon="15.12379965890249"><ele>11.600000000000001</ele><time>2026-04-11T13:39:37.999Z</time></trkpt><trkpt lat="36.8651102073573" lon="15.123735781381578"><ele>11.0</ele><time>2026-04-11T13:39:38.999Z</time></trkpt><trkpt lat="36.86503051957741" lon="15.123664309309271"><ele>10.8</ele><time>2026-04-11T13:39:40.999Z</time></trkpt><trkpt lat="36.86492514803574" lon="15.123606302854638"><ele>10.600000000000001</ele><time>2026-04-11T13:39:42.999Z</time></trkpt><trkpt lat="36.864846613574485" lon="15.123566641921188"><ele>10.4</ele><time>2026-04-11T13:39:43.999Z</time></trkpt><trkpt lat="36.86474923985411" lon="15.123511959028626"><ele>10.2</ele><time>2026-04-11T13:39:44.999Z</time></trkpt><trkpt lat="36.86464905028113" lon="15.123438200821038"><ele>10.0</ele><time>2026-04-11T13:39:45.999Z</time></trkpt><trkpt lat="36.86455745752796" lon="15.123358948648747"><ele>10.0</ele><time>2026-04-11T13:39:46.999Z</time></trkpt><trkpt lat="36.86447752320979" lon="15.12330641745238"><ele>10.0</ele><time>2026-04-11T13:39:47.999Z</time></trkpt><trkpt lat="36.86440772594243" lon="15.123269668736224"><ele>10.0</ele><time>2026-04-11T13:39:48.999Z</time></trkpt><trkpt lat="36.86432732654078" lon="15.123191590595203"><ele>10.0</ele><time>2026-04-11T13:39:50.999Z</time></trkpt><trkpt lat="36.864199687603076" lon="15.123429255416147"><ele>9.8</ele><time>2026-04-11T13:39:52.999Z</time></trkpt><trkpt lat="36.86408915944908" lon="15.123317458958976"><ele>9.6</ele><time>2026-04-11T13:39:55.999Z</time></trkpt><trkpt lat="36.86402468661504" lon="15.12322369803319"><ele>9.4</ele><time>2026-04-11T13:39:56.999Z</time></trkpt><trkpt lat="36.86395815523069" lon="15.123136575614051"><ele>9.2</ele><time>2026-04-11T13:39:57.999Z</time></trkpt><trkpt lat="36.86390437492054" lon="15.123084213888786"><ele>9.0</ele><time>2026-04-11T13:39:58.999Z</time></trkpt><trkpt lat="36.8638349102767" lon="15.123127816390534"><ele>9.0</ele><time>2026-04-11T13:40:03.998Z</time></trkpt><trkpt lat="36.863793575749526" lon="15.123210496095187"><ele>9.0</ele><time>2026-04-11T13:40:06.998Z</time></trkpt><trkpt lat="36.86375111318105" lon="15.123327832096225"><ele>9.0</ele><time>2026-04-11T13:40:09.998Z</time></trkpt><trkpt lat="36.86369455731029" lon="15.123372930969753"><ele>9.0</ele><time>2026-04-11T13:40:15.998Z</time></trkpt><trkpt lat="36.86360323642495" lon="15.123273659625077"><ele>9.0</ele><time>2026-04-11T13:40:18.998Z</time></trkpt><trkpt lat="36.86350901864151" lon="15.123163450380062"><ele>9.333333333333334</ele><time>2026-04-11T13:40:21Z</time></trkpt><trkpt lat="36.863452403892445" lon="15.123102009490024"><ele>9.666666666666666</ele><time>2026-04-11T13:40:22Z</time></trkpt><trkpt lat="36.863390321912" lon="15.12303063647312"><ele>10.0</ele><time>2026-04-11T13:40:23Z</time></trkpt><trkpt lat="36.86333716155779" lon="15.122957221548798"><ele>10.333333333333332</ele><time>2026-04-11T13:40:24Z</time></trkpt><trkpt lat="36.863284520496244" lon="15.122885478226497"><ele>10.666666666666666</ele><time>2026-04-11T13:40:25Z</time></trkpt><trkpt lat="36.86322964663249" lon="15.122814931820752"><ele>11.0</ele><time>2026-04-11T13:40:26Z</time></trkpt><trkpt lat="36.863173467113306" lon="15.122746858629485"><ele>11.0</ele><time>2026-04-11T13:40:27Z</time></trkpt><trkpt lat="36.86311417441978" lon="15.122685820779699"><ele>11.0</ele><time>2026-04-11T13:40:28Z</time></trkpt><trkpt lat="36.863060221610915" lon="15.12262104692525"><ele>11.0</ele><time>2026-04-11T13:40:29Z</time></trkpt><trkpt lat="36.86300877351436" lon="15.122550469117186"><ele>11.0</ele><time>2026-04-11T13:40:30Z</time></trkpt><trkpt lat="36.86294677794047" lon="15.12247041091306"><ele>11.0</ele><time>2026-04-11T13:40:31Z</time></trkpt><trkpt lat="36.86285221066368" lon="15.122357698507598"><ele>11.0</ele><time>2026-04-11T13:40:32Z</time></trkpt><trkpt lat="36.8627407716122" lon="15.122201892780089"><ele>11.666666666666666</ele><time>2026-04-11T13:40:33Z</time></trkpt><trkpt lat="36.86260160931067" lon="15.122024036341106"><ele>12.333333333333332</ele><time>2026-04-11T13:40:34Z</time></trkpt><trkpt lat="36.862450309350955" lon="15.121835593015344"><ele>13.0</ele><time>2026-04-11T13:40:35Z</time></trkpt><trkpt lat="36.862289436597436" lon="15.121630019132816"><ele>12.666666666666666</ele><time>2026-04-11T13:40:36Z</time></trkpt><trkpt lat="36.862130415089645" lon="15.121428582957623"><ele>12.333333333333332</ele><time>2026-04-11T13:40:37Z</time></trkpt><trkpt lat="36.86199068686544" lon="15.12125056140045"><ele>12.0</ele><time>2026-04-11T13:40:38Z</time></trkpt><trkpt lat="36.861853382054505" lon="15.121079785707883"><ele>11.333333333333334</ele><time>2026-04-11T13:40:39Z</time></trkpt><trkpt lat="36.8617297251652" lon="15.120888837618468"><ele>10.666666666666668</ele><time>2026-04-11T13:40:40Z</time></trkpt><trkpt lat="36.86163044778668" lon="15.120697692201519"><ele>10.0</ele><time>2026-04-11T13:40:41Z</time></trkpt><trkpt lat="36.86153096229464" lon="15.120507059556903"><ele>9.0</ele><time>2026-04-11T13:40:42Z</time></trkpt><trkpt lat="36.86142525298992" lon="15.120307686601482"><ele>8.0</ele><time>2026-04-11T13:40:43Z</time></trkpt><trkpt lat="36.86131884881417" lon="15.12009441447621"><ele>7.0</ele><time>2026-04-11T13:40:44Z</time></trkpt><trkpt lat="36.86121006789587" lon="15.119874351579375"><ele>6.333333333333334</ele><time>2026-04-11T13:40:45Z</time></trkpt><trkpt lat="36.861114600580756" lon="15.119662613147216"><ele>5.666666666666667</ele><time>2026-04-11T13:40:46Z</time></trkpt><trkpt lat="36.86101754248696" lon="15.11947697102382"><ele>5.0</ele><time>2026-04-11T13:40:47Z</time></trkpt><trkpt lat="36.86093401756331" lon="15.119324673642913"><ele>6.0</ele><time>2026-04-11T13:40:48Z</time></trkpt><trkpt lat="36.86086990426339" lon="15.119214641294205"><ele>7.0</ele><time>2026-04-11T13:40:49Z</time></trkpt><trkpt lat="36.86082081018458" lon="15.11913485508634"><ele>8.0</ele><time>2026-04-11T13:40:50Z</time></trkpt><trkpt lat="36.86079647355152" lon="15.119055687673363"><ele>9.0</ele><time>2026-04-11T13:40:51Z</time></trkpt><trkpt lat="36.86074961996617" lon="15.118993581666722"><ele>10.0</ele><time>2026-04-11T13:40:52Z</time></trkpt><trkpt lat="36.860689477122875" lon="15.118826229576113"><ele>10.75</ele><time>2026-04-11T13:40:54Z</time></trkpt><trkpt lat="36.86063139398919" lon="15.118726110761807"><ele>11.5</ele><time>2026-04-11T13:40:55Z</time></trkpt><trkpt lat="36.860556609206775" lon="15.118622842305511"><ele>12.25</ele><time>2026-04-11T13:40:56Z</time></trkpt><trkpt lat="36.86046921655166" lon="15.11851453907646"><ele>13.0</ele><time>2026-04-11T13:40:57Z</time></trkpt><trkpt lat="36.860374891635935" lon="15.118407048852562"><ele>13.0</ele><time>2026-04-11T13:40:58Z</time></trkpt><trkpt lat="36.860271485602695" lon="15.118310199174871"><ele>13.0</ele><time>2026-04-11T13:40:59Z</time></trkpt><trkpt lat="36.860164614492895" lon="15.118222736426533"><ele>13.0</ele><time>2026-04-11T13:41:00Z</time></trkpt><trkpt lat="36.86005823384655" lon="15.118152694819189"><ele>13.0</ele><time>2026-04-11T13:41:01Z</time></trkpt><trkpt lat="36.859935581972906" lon="15.118071308534253"><ele>13.0</ele><time>2026-04-11T13:41:02Z</time></trkpt><trkpt lat="36.85982437635296" lon="15.117981513524606"><ele>13.0</ele><time>2026-04-11T13:41:03Z</time></trkpt><trkpt lat="36.85971714859134" lon="15.117897862410544"><ele>13.0</ele><time>2026-04-11T13:41:04Z</time></trkpt><trkpt lat="36.85960885387611" lon="15.117817665578695"><ele>13.0</ele><time>2026-04-11T13:41:05Z</time></trkpt><trkpt lat="36.85951104639446" lon="15.117735757028557"><ele>13.0</ele><time>2026-04-11T13:41:05.999Z</time></trkpt><trkpt lat="36.85940966128975" lon="15.117662777154147"><ele>13.0</ele><time>2026-04-11T13:41:06.999Z</time></trkpt><trkpt lat="36.85931379036208" lon="15.117590396315848"><ele>13.0</ele><time>2026-04-11T13:41:07.999Z</time></trkpt><trkpt lat="36.85922783441233" lon="15.117527313432754"><ele>13.0</ele><time>2026-04-11T13:41:08.999Z</time></trkpt><trkpt lat="36.85914458847186" lon="15.117443147936394"><ele>13.0</ele><time>2026-04-11T13:41:09.999Z</time></trkpt><trkpt lat="36.859065722235094" lon="15.117368790554105"><ele>12.600000000000001</ele><time>2026-04-11T13:41:10.999Z</time></trkpt><trkpt lat="36.85897330161338" lon="15.11730303560287"><ele>12.200000000000001</ele><time>2026-04-11T13:41:11.999Z</time></trkpt><trkpt lat="36.85887422235782" lon="15.117241527089083"><ele>11.8</ele><time>2026-04-11T13:41:12.999Z</time></trkpt><trkpt lat="36.8587740544938" lon="15.117173974626025"><ele>11.4</ele><time>2026-04-11T13:41:13.999Z</time></trkpt><trkpt lat="36.858670814365965" lon="15.11710750993981"><ele>11.0</ele><time>2026-04-11T13:41:14.999Z</time></trkpt><trkpt lat="36.85855317921558" lon="15.117030376965282"><ele>10.25</ele><time>2026-04-11T13:41:15.999Z</time></trkpt><trkpt lat="36.858433577671114" lon="15.116953699493598"><ele>9.5</ele><time>2026-04-11T13:41:16.999Z</time></trkpt><trkpt lat="36.8583122381321" lon="15.116875704391925"><ele>8.75</ele><time>2026-04-11T13:41:17.999Z</time></trkpt><trkpt lat="36.85820130968351" lon="15.116797423434399"><ele>8.0</ele><time>2026-04-11T13:41:18.999Z</time></trkpt><trkpt lat="36.85809600707313" lon="15.116721251960803"><ele>8.0</ele><time>2026-04-11T13:41:19.999Z</time></trkpt><trkpt lat="36.857999644186506" lon="15.116648205348513"><ele>8.0</ele><time>2026-04-11T13:41:20.999Z</time></trkpt><trkpt lat="36.85790129558174" lon="15.11657366230115"><ele>8.0</ele><time>2026-04-11T13:41:21.999Z</time></trkpt><trkpt lat="36.857796790397295" lon="15.116498610847179"><ele>8.0</ele><time>2026-04-11T13:41:22.999Z</time></trkpt><trkpt lat="36.857693158428155" lon="15.116424012142335"><ele>8.0</ele><time>2026-04-11T13:41:23.999Z</time></trkpt><trkpt lat="36.85759994032587" lon="15.116351042571711"><ele>8.0</ele><time>2026-04-11T13:41:24.999Z</time></trkpt><trkpt lat="36.85749924408812" lon="15.116277967348159"><ele>8.0</ele><time>2026-04-11T13:41:25.999Z</time></trkpt><trkpt lat="36.85738770038279" lon="15.116199962820465"><ele>8.0</ele><time>2026-04-11T13:41:26.999Z</time></trkpt><trkpt lat="36.85728451348733" lon="15.116125994823902"><ele>8.0</ele><time>2026-04-11T13:41:27.999Z</time></trkpt><trkpt lat="36.8571807979038" lon="15.116052182292819"><ele>8.0</ele><time>2026-04-11T13:41:28.999Z</time></trkpt><trkpt lat="36.85708062093981" lon="15.115977170102816"><ele>8.0</ele><time>2026-04-11T13:41:29.999Z</time></trkpt><trkpt lat="36.85698160932292" lon="15.115903441209102"><ele>8.0</ele><time>2026-04-11T13:41:30.999Z</time></trkpt><trkpt lat="36.856874661632894" lon="15.115827165009062"><ele>8.0</ele><time>2026-04-11T13:41:31.999Z</time></trkpt><trkpt lat="36.85677363935655" lon="15.115745544712547"><ele>8.0</ele><time>2026-04-11T13:41:32.999Z</time></trkpt><trkpt lat="36.85666631978671" lon="15.115672256652719"><ele>8.0</ele><time>2026-04-11T13:41:33.999Z</time></trkpt><trkpt lat="36.856553766957866" lon="15.115588952879554"><ele>8.0</ele><time>2026-04-11T13:41:34.999Z</time></trkpt><trkpt lat="36.856445330054036" lon="15.115505085419352"><ele>8.0</ele><time>2026-04-11T13:41:35.999Z</time></trkpt><trkpt lat="36.856333695523155" lon="15.115428130127151"><ele>8.0</ele><time>2026-04-11T13:41:36.999Z</time></trkpt><trkpt lat="36.85622665257572" lon="15.115354428616063"><ele>8.0</ele><time>2026-04-11T13:41:37.999Z</time></trkpt><trkpt lat="36.85612822807328" lon="15.11527580003045"><ele>8.0</ele><time>2026-04-11T13:41:38.999Z</time></trkpt><trkpt lat="36.85602821078469" lon="15.115206187194607"><ele>7.6000000000000005</ele><time>2026-04-11T13:41:39.999Z</time></trkpt><trkpt lat="36.85593386738814" lon="15.115145860118428"><ele>7.200000000000001</ele><time>2026-04-11T13:41:40.999Z</time></trkpt><trkpt lat="36.85583603555547" lon="15.115081947077499"><ele>6.8</ele><time>2026-04-11T13:41:41.999Z</time></trkpt><trkpt lat="36.85573530786495" lon="15.115014311437472"><ele>6.4</ele><time>2026-04-11T13:41:42.999Z</time></trkpt><trkpt lat="36.85563408137586" lon="15.114938870917298"><ele>6.0</ele><time>2026-04-11T13:41:43.999Z</time></trkpt><trkpt lat="36.85553112049861" lon="15.11486696666441"><ele>6.0</ele><time>2026-04-11T13:41:44.999Z</time></trkpt><trkpt lat="36.855430505023946" lon="15.114793642763617"><ele>6.0</ele><time>2026-04-11T13:41:45.999Z</time></trkpt><trkpt lat="36.855329973550965" lon="15.114718447788215"><ele>6.0</ele><time>2026-04-11T13:41:46.999Z</time></trkpt><trkpt lat="36.85522571262977" lon="15.114644656626572"><ele>6.0</ele><time>2026-04-11T13:41:47.999Z</time></trkpt><trkpt lat="36.85512092537062" lon="15.114574153784716"><ele>6.5</ele><time>2026-04-11T13:41:48.999Z</time></trkpt><trkpt lat="36.855017037239186" lon="15.114500487624383"><ele>7.0</ele><time>2026-04-11T13:41:49.999Z</time></trkpt><trkpt lat="36.85491353270873" lon="15.114426866676641"><ele>7.5</ele><time>2026-04-11T13:41:50.999Z</time></trkpt><trkpt lat="36.854808787356546" lon="15.114350572563996"><ele>8.0</ele><time>2026-04-11T13:41:51.999Z</time></trkpt><trkpt lat="36.85470403303523" lon="15.114277566607297"><ele>8.0</ele><time>2026-04-11T13:41:52.999Z</time></trkpt><trkpt lat="36.85459315605304" lon="15.114225487790643"><ele>8.0</ele><time>2026-04-11T13:41:53.999Z</time></trkpt><trkpt lat="36.85450218258346" lon="15.11415419041697"><ele>8.0</ele><time>2026-04-11T13:41:54.999Z</time></trkpt><trkpt lat="36.85443805495051" lon="15.114067033176402"><ele>8.0</ele><time>2026-04-11T13:41:55.999Z</time></trkpt><trkpt lat="36.85437161421645" lon="15.113988377551452"><ele>8.0</ele><time>2026-04-11T13:41:56.999Z</time></trkpt><trkpt lat="36.854320954376846" lon="15.113908337093019"><ele>8.4</ele><time>2026-04-11T13:41:57.999Z</time></trkpt><trkpt lat="36.854254806395886" lon="15.113865582988938"><ele>8.8</ele><time>2026-04-11T13:41:58.999Z</time></trkpt><trkpt lat="36.85431793758543" lon="15.113671958801167"><ele>9.2</ele><time>2026-04-11T13:42:00.999Z</time></trkpt><trkpt lat="36.854362339731495" lon="15.113584164394917"><ele>9.6</ele><time>2026-04-11T13:42:01.999Z</time></trkpt><trkpt lat="36.854408392802" lon="15.113497045102756"><ele>10.0</ele><time>2026-04-11T13:42:02.999Z</time></trkpt><trkpt lat="36.85445081712156" lon="15.113412049106932"><ele>10.0</ele><time>2026-04-11T13:42:03.999Z</time></trkpt><trkpt lat="36.854505373835565" lon="15.113323596275785"><ele>10.0</ele><time>2026-04-11T13:42:04.999Z</time></trkpt><trkpt lat="36.85456193550742" lon="15.11320802630133"><ele>10.0</ele><time>2026-04-11T13:42:05.999Z</time></trkpt><trkpt lat="36.854630399177815" lon="15.113089202569798"><ele>10.0</ele><time>2026-04-11T13:42:06.999Z</time></trkpt><trkpt lat="36.85469009911718" lon="15.11295974432036"><ele>10.0</ele><time>2026-04-11T13:42:07.999Z</time></trkpt><trkpt lat="36.85475391504239" lon="15.112821513488118"><ele>11.0</ele><time>2026-04-11T13:42:08.999Z</time></trkpt><trkpt lat="36.85482186771821" lon="15.112682996319048"><ele>12.0</ele><time>2026-04-11T13:42:09.999Z</time></trkpt><trkpt lat="36.8548868009767" lon="15.112541303820098"><ele>13.0</ele><time>2026-04-11T13:42:10.999Z</time></trkpt><trkpt lat="36.85495742948828" lon="15.112398838445047"><ele>14.0</ele><time>2026-04-11T13:42:11.999Z</time></trkpt><trkpt lat="36.8550270136665" lon="15.112253719929218"><ele>14.0</ele><time>2026-04-11T13:42:12.998Z</time></trkpt><trkpt lat="36.855094383128886" lon="15.112107384119735"><ele>14.0</ele><time>2026-04-11T13:42:13.998Z</time></trkpt><trkpt lat="36.8551628474308" lon="15.111962075648554"><ele>14.0</ele><time>2026-04-11T13:42:14.998Z</time></trkpt><trkpt lat="36.855232000377015" lon="15.111817237243889"><ele>14.0</ele><time>2026-04-11T13:42:15.998Z</time></trkpt><trkpt lat="36.8553043338473" lon="15.111673406494033"><ele>14.5</ele><time>2026-04-11T13:42:16.998Z</time></trkpt><trkpt lat="36.85537467869106" lon="15.111526009612312"><ele>15.0</ele><time>2026-04-11T13:42:17.998Z</time></trkpt><trkpt lat="36.8554463450207" lon="15.111376214607228"><ele>15.5</ele><time>2026-04-11T13:42:18.998Z</time></trkpt><trkpt lat="36.85552331367322" lon="15.111224213352308"><ele>16.0</ele><time>2026-04-11T13:42:19.998Z</time></trkpt><trkpt lat="36.85559126452482" lon="15.111074413927213"><ele>16.0</ele><time>2026-04-11T13:42:20.998Z</time></trkpt><trkpt lat="36.85565992920533" lon="15.110933699084619"><ele>16.0</ele><time>2026-04-11T13:42:21.998Z</time></trkpt><trkpt lat="36.85572992863149" lon="15.110807826314597"><ele>16.0</ele><time>2026-04-11T13:42:22.998Z</time></trkpt><trkpt lat="36.85581211370352" lon="15.110706032941817"><ele>16.0</ele><time>2026-04-11T13:42:23.998Z</time></trkpt><trkpt lat="36.8559147295731" lon="15.11060991384091"><ele>16.5</ele><time>2026-04-11T13:42:24.998Z</time></trkpt><trkpt lat="36.85603199242816" lon="15.110496329199872"><ele>17.0</ele><time>2026-04-11T13:42:25.998Z</time></trkpt><trkpt lat="36.85613138254621" lon="15.110389662239644"><ele>17.5</ele><time>2026-04-11T13:42:27Z</time></trkpt><trkpt lat="36.85622690674081" lon="15.11029342335004"><ele>18.0</ele><time>2026-04-11T13:42:28Z</time></trkpt><trkpt lat="36.85631270270649" lon="15.110214347121586"><ele>18.0</ele><time>2026-04-11T13:42:29Z</time></trkpt><trkpt lat="36.856380869655055" lon="15.11015642531689"><ele>18.0</ele><time>2026-04-11T13:42:30Z</time></trkpt><trkpt lat="36.85646690428032" lon="15.1100765387094"><ele>18.0</ele><time>2026-04-11T13:42:32Z</time></trkpt><trkpt lat="36.85652935092684" lon="15.11001600445289"><ele>18.0</ele><time>2026-04-11T13:42:34Z</time></trkpt><trkpt lat="36.85659247866872" lon="15.109928178851444"><ele>18.0</ele><time>2026-04-11T13:42:36Z</time></trkpt><trkpt lat="36.85663488569744" lon="15.109838670400828"><ele>18.0</ele><time>2026-04-11T13:42:38Z</time></trkpt><trkpt lat="36.85657567233004" lon="15.109770736430985"><ele>18.0</ele><time>2026-04-11T13:42:41Z</time></trkpt><trkpt lat="36.856525443127396" lon="15.109721966968467"><ele>18.0</ele><time>2026-04-11T13:42:42Z</time></trkpt><trkpt lat="36.856464546859925" lon="15.109671213990536"><ele>18.0</ele><time>2026-04-11T13:42:43Z</time></trkpt><trkpt lat="36.856393964435334" lon="15.109636406018572"><ele>18.0</ele><time>2026-04-11T13:42:45Z</time></trkpt><trkpt lat="36.85631475474446" lon="15.109744969371361"><ele>18.0</ele><time>2026-04-11T13:42:48Z</time></trkpt><trkpt lat="36.85625907646758" lon="15.109820535639468"><ele>18.0</ele><time>2026-04-11T13:42:50Z</time></trkpt><trkpt lat="36.85617780413547" lon="15.10982552255373"><ele>18.0</ele><time>2026-04-11T13:42:53Z</time></trkpt><trkpt lat="36.856056000144946" lon="15.109650609303703"><ele>18.0</ele><time>2026-04-11T13:42:54Z</time></trkpt><trkpt lat="36.85594746436987" lon="15.109577061855497"><ele>18.0</ele><time>2026-04-11T13:42:55Z</time></trkpt><trkpt lat="36.855862139073324" lon="15.109505056271674"><ele>18.0</ele><time>2026-04-11T13:42:56Z</time></trkpt><trkpt lat="36.85577229642508" lon="15.109458198897986"><ele>17.8</ele><time>2026-04-11T13:42:57Z</time></trkpt><trkpt lat="36.85567898311425" lon="15.109419163302697"><ele>17.6</ele><time>2026-04-11T13:42:58Z</time></trkpt><trkpt lat="36.855599294094525" lon="15.109361515716502"><ele>17.4</ele><time>2026-04-11T13:42:59Z</time></trkpt><trkpt lat="36.85551068219648" lon="15.10933899809006"><ele>17.2</ele><time>2026-04-11T13:43:00Z</time></trkpt><trkpt lat="36.85543098954129" lon="15.109289845986966"><ele>17.0</ele><time>2026-04-11T13:43:01Z</time></trkpt><trkpt lat="36.85535402933323" lon="15.109255677718366"><ele>17.0</ele><time>2026-04-11T13:43:02Z</time></trkpt><trkpt lat="36.85526620333277" lon="15.109221957115745"><ele>17.0</ele><time>2026-04-11T13:43:03Z</time></trkpt><trkpt lat="36.855175459697634" lon="15.10918581320941"><ele>17.0</ele><time>2026-04-11T13:43:04Z</time></trkpt><trkpt lat="36.8551190787046" lon="15.109098206643894"><ele>17.0</ele><time>2026-04-11T13:43:05Z</time></trkpt><trkpt lat="36.85496350808416" lon="15.109195400951908"><ele>15.8</ele><time>2026-04-11T13:43:06Z</time></trkpt><trkpt lat="36.85486547895232" lon="15.109170409707938"><ele>14.6</ele><time>2026-04-11T13:43:07Z</time></trkpt><trkpt lat="36.85476753136188" lon="15.109148336178018"><ele>13.4</ele><time>2026-04-11T13:43:08Z</time></trkpt><trkpt lat="36.85467145356429" lon="15.10912254521506"><ele>12.200000000000001</ele><time>2026-04-11T13:43:09Z</time></trkpt><trkpt lat="36.85457238176542" lon="15.109100347475003"><ele>11.0</ele><time>2026-04-11T13:43:10Z</time></trkpt><trkpt lat="36.854479389175125" lon="15.10907727686032"><ele>10.8</ele><time>2026-04-11T13:43:11Z</time></trkpt><trkpt lat="36.854378172283596" lon="15.109050330935514"><ele>10.600000000000001</ele><time>2026-04-11T13:43:12Z</time></trkpt><trkpt lat="36.854276536593424" lon="15.109022209467994"><ele>10.4</ele><time>2026-04-11T13:43:12.999Z</time></trkpt><trkpt lat="36.85417075776705" lon="15.109000053938573"><ele>10.2</ele><time>2026-04-11T13:43:13.999Z</time></trkpt><trkpt lat="36.854061890998224" lon="15.10897205381242"><ele>10.0</ele><time>2026-04-11T13:43:14.999Z</time></trkpt><trkpt lat="36.85395456398433" lon="15.108943820905948"><ele>10.0</ele><time>2026-04-11T13:43:15.999Z</time></trkpt><trkpt lat="36.85384591576508" lon="15.108912085409216"><ele>10.0</ele><time>2026-04-11T13:43:16.999Z</time></trkpt><trkpt lat="36.85373387239988" lon="15.108880920747064"><ele>10.0</ele><time>2026-04-11T13:43:17.999Z</time></trkpt><trkpt lat="36.8536302102091" lon="15.108852371356324"><ele>10.0</ele><time>2026-04-11T13:43:18.999Z</time></trkpt><trkpt lat="36.85352556519502" lon="15.108820471172127"><ele>10.0</ele><time>2026-04-11T13:43:19.999Z</time></trkpt><trkpt lat="36.85341440514866" lon="15.108771862872464"><ele>12.4</ele><time>2026-04-11T13:43:20.999Z</time></trkpt><trkpt lat="36.853313211774214" lon="15.108722773949703"><ele>14.8</ele><time>2026-04-11T13:43:21.999Z</time></trkpt><trkpt lat="36.853212515838074" lon="15.108667378206187"><ele>17.200000000000003</ele><time>2026-04-11T13:43:22.999Z</time></trkpt><trkpt lat="36.85311349906531" lon="15.108613560698442"><ele>19.6</ele><time>2026-04-11T13:43:23.999Z</time></trkpt><trkpt lat="36.853015591406226" lon="15.10854797935965"><ele>22.0</ele><time>2026-04-11T13:43:24.999Z</time></trkpt><trkpt lat="36.852919617266345" lon="15.108478302614003"><ele>22.0</ele><time>2026-04-11T13:43:25.999Z</time></trkpt><trkpt lat="36.85282121388791" lon="15.108409156291334"><ele>22.0</ele><time>2026-04-11T13:43:26.999Z</time></trkpt><trkpt lat="36.85273674723033" lon="15.108336003895857"><ele>22.0</ele><time>2026-04-11T13:43:27.999Z</time></trkpt><trkpt lat="36.852648623197574" lon="15.108251883472594"><ele>22.0</ele><time>2026-04-11T13:43:28.999Z</time></trkpt><trkpt lat="36.85248752119435" lon="15.108307612362063"><ele>22.8</ele><time>2026-04-11T13:43:29.999Z</time></trkpt><trkpt lat="36.85239816225924" lon="15.10822982105549"><ele>23.6</ele><time>2026-04-11T13:43:30.999Z</time></trkpt><trkpt lat="36.85230500319097" lon="15.10814734199147"><ele>24.400000000000002</ele><time>2026-04-11T13:43:31.999Z</time></trkpt><trkpt lat="36.852220018976304" lon="15.108064683491317"><ele>25.200000000000003</ele><time>2026-04-11T13:43:32.999Z</time></trkpt><trkpt lat="36.85213939828529" lon="15.108010943422046"><ele>26.0</ele><time>2026-04-11T13:43:33.999Z</time></trkpt><trkpt lat="36.85205307379124" lon="15.107954411990722"><ele>26.0</ele><time>2026-04-11T13:43:34.999Z</time></trkpt><trkpt lat="36.85197955595809" lon="15.107960781317288"><ele>26.0</ele><time>2026-04-11T13:43:35.999Z</time></trkpt><trkpt lat="36.851960170264405" lon="15.107634333174095"><ele>26.0</ele><time>2026-04-11T13:43:36.999Z</time></trkpt><trkpt lat="36.851876376579305" lon="15.107554030324572"><ele>26.0</ele><time>2026-04-11T13:43:37.999Z</time></trkpt><trkpt lat="36.851794323991975" lon="15.10747896132944"><ele>25.4</ele><time>2026-04-11T13:43:38.999Z</time></trkpt><trkpt lat="36.85167615858769" lon="15.1075021699905"><ele>24.8</ele><time>2026-04-11T13:43:39.999Z</time></trkpt><trkpt lat="36.85161008904213" lon="15.107443531402758"><ele>24.2</ele><time>2026-04-11T13:43:40.999Z</time></trkpt><trkpt lat="36.851546316794646" lon="15.107385170463182"><ele>23.599999999999998</ele><time>2026-04-11T13:43:41.999Z</time></trkpt><trkpt lat="36.85147482294108" lon="15.107318343193828"><ele>23.0</ele><time>2026-04-11T13:43:42.999Z</time></trkpt><trkpt lat="36.85140374343307" lon="15.107250914669443"><ele>22.799999999999997</ele><time>2026-04-11T13:43:43.999Z</time></trkpt><trkpt lat="36.85134222211578" lon="15.10719139538687"><ele>22.6</ele><time>2026-04-11T13:43:44.999Z</time></trkpt><trkpt lat="36.85128999130082" lon="15.107143150188229"><ele>22.4</ele><time>2026-04-11T13:43:45.999Z</time></trkpt><trkpt lat="36.85118489748859" lon="15.107050395426784"><ele>22.200000000000003</ele><time>2026-04-11T13:43:47.999Z</time></trkpt><trkpt lat="36.85109861883191" lon="15.106982500918466"><ele>22.0</ele><time>2026-04-11T13:43:49.999Z</time></trkpt><trkpt lat="36.851014547725676" lon="15.10692580866413"><ele>20.0</ele><time>2026-04-11T13:43:51.999Z</time></trkpt><trkpt lat="36.85094509216457" lon="15.106915869032312"><ele>18.0</ele><time>2026-04-11T13:43:53.999Z</time></trkpt><trkpt lat="36.85088358497168" lon="15.106893372096943"><ele>16.0</ele><time>2026-04-11T13:43:55.999Z</time></trkpt><trkpt lat="36.85080182079178" lon="15.106903747515082"><ele>14.0</ele><time>2026-04-11T13:43:59.999Z</time></trkpt><trkpt lat="36.85075749306383" lon="15.106541170259925"><ele>14.000000000000002</ele><time>2026-04-11T13:44:01.999Z</time></trkpt><trkpt lat="36.85065485739369" lon="15.106449518640721"><ele>14.0</ele><time>2026-04-11T13:44:03.999Z</time></trkpt><trkpt lat="36.85060223896542" lon="15.106402395277028"><ele>14.0</ele><time>2026-04-11T13:44:04.999Z</time></trkpt><trkpt lat="36.85054692164613" lon="15.106349846031497"><ele>14.0</ele><time>2026-04-11T13:44:05.999Z</time></trkpt><trkpt lat="36.850486735286836" lon="15.106296090664191"><ele>14.000000000000002</ele><time>2026-04-11T13:44:06.999Z</time></trkpt><trkpt lat="36.850424066562894" lon="15.10623975411939"><ele>14.0</ele><time>2026-04-11T13:44:07.999Z</time></trkpt><trkpt lat="36.850359215697374" lon="15.10617965797276"><ele>14.000000000000002</ele><time>2026-04-11T13:44:08.999Z</time></trkpt><trkpt lat="36.850293227796534" lon="15.106124126679582"><ele>14.0</ele><time>2026-04-11T13:44:09.999Z</time></trkpt><trkpt lat="36.85022985977405" lon="15.10606641340371"><ele>14.0</ele><time>2026-04-11T13:44:10.999Z</time></trkpt><trkpt lat="36.8501663011434" lon="15.106009954246288"><ele>14.0</ele><time>2026-04-11T13:44:11.999Z</time></trkpt><trkpt lat="36.850101395993136" lon="15.105949517496333"><ele>14.000000000000002</ele><time>2026-04-11T13:44:12.999Z</time></trkpt><trkpt lat="36.85003745077439" lon="15.10588929347575"><ele>14.0</ele><time>2026-04-11T13:44:13.999Z</time></trkpt><trkpt lat="36.84997036571919" lon="15.10582943714714"><ele>13.833333333333334</ele><time>2026-04-11T13:44:14.999Z</time></trkpt><trkpt lat="36.84990573948692" lon="15.10576778349859"><ele>13.666666666666668</ele><time>2026-04-11T13:44:15.999Z</time></trkpt><trkpt lat="36.84984015728422" lon="15.10570343918399"><ele>13.5</ele><time>2026-04-11T13:44:16.999Z</time></trkpt><trkpt lat="36.849767651070046" lon="15.105641381703355"><ele>13.333333333333332</ele><time>2026-04-11T13:44:17.999Z</time></trkpt><trkpt lat="36.8496939125136" lon="15.105580080496583"><ele>13.166666666666666</ele><time>2026-04-11T13:44:18.999Z</time></trkpt><trkpt lat="36.84961582934848" lon="15.10550666074853"><ele>13.0</ele><time>2026-04-11T13:44:19.998Z</time></trkpt><trkpt lat="36.849523590104084" lon="15.105424266540217"><ele>13.0</ele><time>2026-04-11T13:44:20.998Z</time></trkpt><trkpt lat="36.84941338017452" lon="15.105324690206597"><ele>13.0</ele><time>2026-04-11T13:44:21.998Z</time></trkpt><trkpt lat="36.849301181802666" lon="15.10522082833077"><ele>13.0</ele><time>2026-04-11T13:44:22.998Z</time></trkpt><trkpt lat="36.84917953499093" lon="15.105113999089287"><ele>13.0</ele><time>2026-04-11T13:44:23.998Z</time></trkpt><trkpt lat="36.84904223504353" lon="15.104996076064364"><ele>14.0</ele><time>2026-04-11T13:44:24.998Z</time></trkpt><trkpt lat="36.84888554149537" lon="15.104847925615791"><ele>15.0</ele><time>2026-04-11T13:44:25.998Z</time></trkpt><trkpt lat="36.84870203630583" lon="15.104684335303281"><ele>16.0</ele><time>2026-04-11T13:44:26.998Z</time></trkpt><trkpt lat="36.84850270306112" lon="15.104505970734095"><ele>21.5</ele><time>2026-04-11T13:44:27.998Z</time></trkpt><trkpt lat="36.848292124270905" lon="15.104311975716564"><ele>27.0</ele><time>2026-04-11T13:44:28.998Z</time></trkpt><trkpt lat="36.84809190513102" lon="15.104133354510992"><ele>27.666666666666664</ele><time>2026-04-11T13:44:29.998Z</time></trkpt><trkpt lat="36.84790378708074" lon="15.10396460222092"><ele>28.333333333333332</ele><time>2026-04-11T13:44:30.998Z</time></trkpt><trkpt lat="36.84774533203608" lon="15.103793124886723"><ele>29.0</ele><time>2026-04-11T13:44:31.998Z</time></trkpt><trkpt lat="36.84756009588754" lon="15.103625421392882"><ele>29.0</ele><time>2026-04-11T13:44:33Z</time></trkpt><trkpt lat="36.84737745147589" lon="15.103462384195216"><ele>29.0</ele><time>2026-04-11T13:44:34Z</time></trkpt><trkpt lat="36.84721496160706" lon="15.103314097712401"><ele>29.0</ele><time>2026-04-11T13:44:35Z</time></trkpt><trkpt lat="36.847066562916005" lon="15.10316026844644"><ele>29.0</ele><time>2026-04-11T13:44:36Z</time></trkpt><trkpt lat="36.84691391843076" lon="15.103047620951527"><ele>29.0</ele><time>2026-04-11T13:44:37Z</time></trkpt><trkpt lat="36.84677727877467" lon="15.102882077878224"><ele>29.0</ele><time>2026-04-11T13:44:38Z</time></trkpt><trkpt lat="36.846661302235496" lon="15.102723834545879"><ele>27.333333333333332</ele><time>2026-04-11T13:44:39Z</time></trkpt><trkpt lat="36.84656418610905" lon="15.1025583826938"><ele>25.666666666666664</ele><time>2026-04-11T13:44:40Z</time></trkpt><trkpt lat="36.84647496505629" lon="15.102396950997502"><ele>24.0</ele><time>2026-04-11T13:44:41Z</time></trkpt><trkpt lat="36.846376689903224" lon="15.102230848313239"><ele>23.75</ele><time>2026-04-11T13:44:42Z</time></trkpt><trkpt lat="36.846289290375104" lon="15.102054315850657"><ele>23.5</ele><time>2026-04-11T13:44:43Z</time></trkpt><trkpt lat="36.846233915623834" lon="15.101892301539824"><ele>23.25</ele><time>2026-04-11T13:44:44Z</time></trkpt><trkpt lat="36.84618285826302" lon="15.10174244343225"><ele>23.0</ele><time>2026-04-11T13:44:45Z</time></trkpt><trkpt lat="36.84614162334029" lon="15.10161203714655"><ele>22.166666666666668</ele><time>2026-04-11T13:44:46Z</time></trkpt><trkpt lat="36.846100966844894" lon="15.101495154165386"><ele>21.333333333333336</ele><time>2026-04-11T13:44:47Z</time></trkpt><trkpt lat="36.846071271567105" lon="15.101385134349108"><ele>20.5</ele><time>2026-04-11T13:44:48Z</time></trkpt><trkpt lat="36.84604512256821" lon="15.10129587739758"><ele>19.666666666666668</ele><time>2026-04-11T13:44:49Z</time></trkpt><trkpt lat="36.846020995436604" lon="15.10120832191013"><ele>18.833333333333332</ele><time>2026-04-11T13:44:50Z</time></trkpt><trkpt lat="36.84599671517697" lon="15.10113387813321"><ele>18.0</ele><time>2026-04-11T13:44:51Z</time></trkpt><trkpt lat="36.84594366490955" lon="15.100984711561988"><ele>17.333333333333332</ele><time>2026-04-11T13:44:53Z</time></trkpt><trkpt lat="36.84591497609469" lon="15.10089128865877"><ele>16.666666666666668</ele><time>2026-04-11T13:44:54Z</time></trkpt><trkpt lat="36.845879600137316" lon="15.100793500194222"><ele>16.0</ele><time>2026-04-11T13:44:55Z</time></trkpt><trkpt lat="36.845848514395605" lon="15.100685966799107"><ele>15.333333333333334</ele><time>2026-04-11T13:44:56Z</time></trkpt><trkpt lat="36.84581798523711" lon="15.100580882337447"><ele>14.666666666666668</ele><time>2026-04-11T13:44:57Z</time></trkpt><trkpt lat="36.84578429959035" lon="15.100481964439386"><ele>14.0</ele><time>2026-04-11T13:44:58Z</time></trkpt><trkpt lat="36.84575433972418" lon="15.100393716632809"><ele>13.833333333333334</ele><time>2026-04-11T13:44:59Z</time></trkpt><trkpt lat="36.84572820433632" lon="15.100317128192819"><ele>13.666666666666668</ele><time>2026-04-11T13:45:00Z</time></trkpt><trkpt lat="36.845705109994455" lon="15.100234610458044"><ele>13.5</ele><time>2026-04-11T13:45:01Z</time></trkpt><trkpt lat="36.84567516712912" lon="15.100147891029488"><ele>13.333333333333332</ele><time>2026-04-11T13:45:02Z</time></trkpt><trkpt lat="36.84564867519046" lon="15.10006699222779"><ele>13.166666666666666</ele><time>2026-04-11T13:45:03Z</time></trkpt><trkpt lat="36.84560459267788" lon="15.0999307630283"><ele>13.0</ele><time>2026-04-11T13:45:05Z</time></trkpt><trkpt lat="36.84556362138416" lon="15.09981357022477"><ele>13.0</ele><time>2026-04-11T13:45:07Z</time></trkpt><trkpt lat="36.84553741218382" lon="15.099715743179107"><ele>13.0</ele><time>2026-04-11T13:45:09Z</time></trkpt><trkpt lat="36.84550806531389" lon="15.099596078355061"><ele>13.0</ele><time>2026-04-11T13:45:11Z</time></trkpt><trkpt lat="36.84545767963366" lon="15.099455507110626"><ele>13.0</ele><time>2026-04-11T13:45:13Z</time></trkpt><trkpt lat="36.8454125078627" lon="15.099314347608297"><ele>13.0</ele><time>2026-04-11T13:45:15Z</time></trkpt><trkpt lat="36.845388292230716" lon="15.099235215918661"><ele>12.999999999999998</ele><time>2026-04-11T13:45:16Z</time></trkpt><trkpt lat="36.8453627748012" lon="15.099137360146823"><ele>13.0</ele><time>2026-04-11T13:45:17Z</time></trkpt><trkpt lat="36.845330032292786" lon="15.09903556493967"><ele>13.0</ele><time>2026-04-11T13:45:18Z</time></trkpt><trkpt lat="36.84529369667166" lon="15.098929620795209"><ele>13.0</ele><time>2026-04-11T13:45:18.999Z</time></trkpt><trkpt lat="36.84526374857838" lon="15.098827369885637"><ele>12.999999999999998</ele><time>2026-04-11T13:45:19.999Z</time></trkpt><trkpt lat="36.84523018466044" lon="15.09871433551817"><ele>13.0</ele><time>2026-04-11T13:45:20.999Z</time></trkpt><trkpt lat="36.84520268200238" lon="15.098606636590839"><ele>13.4</ele><time>2026-04-11T13:45:21.999Z</time></trkpt><trkpt lat="36.845176924421125" lon="15.09849302908735"><ele>13.8</ele><time>2026-04-11T13:45:22.999Z</time></trkpt><trkpt lat="36.845154393495775" lon="15.098378692465198"><ele>14.2</ele><time>2026-04-11T13:45:23.999Z</time></trkpt><trkpt lat="36.84513084245951" lon="15.098257593876589"><ele>14.6</ele><time>2026-04-11T13:45:24.999Z</time></trkpt><trkpt lat="36.8451152794013" lon="15.098130572001214"><ele>15.0</ele><time>2026-04-11T13:45:25.999Z</time></trkpt><trkpt lat="36.845099372009024" lon="15.098003976862474"><ele>15.0</ele><time>2026-04-11T13:45:26.999Z</time></trkpt><trkpt lat="36.84508864459773" lon="15.097867841093157"><ele>15.0</ele><time>2026-04-11T13:45:27.999Z</time></trkpt><trkpt lat="36.84508368036285" lon="15.097739612723739"><ele>15.0</ele><time>2026-04-11T13:45:28.999Z</time></trkpt><trkpt lat="36.845086757632615" lon="15.097617658352348"><ele>15.0</ele><time>2026-04-11T13:45:29.999Z</time></trkpt><trkpt lat="36.84509103310218" lon="15.097474725693019"><ele>15.0</ele><time>2026-04-11T13:45:30.999Z</time></trkpt><trkpt lat="36.84509508451469" lon="15.097329083471022"><ele>14.4</ele><time>2026-04-11T13:45:31.999Z</time></trkpt><trkpt lat="36.84510508671027" lon="15.097186443628182"><ele>13.8</ele><time>2026-04-11T13:45:32.999Z</time></trkpt><trkpt lat="36.84512117073809" lon="15.097053704844928"><ele>13.2</ele><time>2026-04-11T13:45:33.999Z</time></trkpt><trkpt lat="36.84514160287182" lon="15.096922794715558"><ele>12.6</ele><time>2026-04-11T13:45:34.999Z</time></trkpt><trkpt lat="36.845164885351764" lon="15.096791045540089"><ele>12.0</ele><time>2026-04-11T13:45:35.999Z</time></trkpt><trkpt lat="36.84519260467405" lon="15.096659660050776"><ele>14.8</ele><time>2026-04-11T13:45:36.999Z</time></trkpt><trkpt lat="36.8452142596304" lon="15.096532373865445"><ele>17.6</ele><time>2026-04-11T13:45:37.999Z</time></trkpt><trkpt lat="36.84524361681133" lon="15.096403872570791"><ele>20.400000000000002</ele><time>2026-04-11T13:45:38.999Z</time></trkpt><trkpt lat="36.845266228126725" lon="15.096290838126476"><ele>23.2</ele><time>2026-04-11T13:45:39.999Z</time></trkpt><trkpt lat="36.84528754726152" lon="15.096186181192333"><ele>26.0</ele><time>2026-04-11T13:45:40.999Z</time></trkpt><trkpt lat="36.84530419175271" lon="15.09609855105202"><ele>26.0</ele><time>2026-04-11T13:45:41.999Z</time></trkpt><trkpt lat="36.84532958669071" lon="15.095948861543345"><ele>26.0</ele><time>2026-04-11T13:45:43.999Z</time></trkpt><trkpt lat="36.845488847574394" lon="15.095832213418573"><ele>26.0</ele><time>2026-04-11T13:45:45.999Z</time></trkpt><trkpt lat="36.84541772251522" lon="15.095697083368444"><ele>26.0</ele><time>2026-04-11T13:45:47.999Z</time></trkpt><trkpt lat="36.845297035758676" lon="15.095708438504257"><ele>25.0</ele><time>2026-04-11T13:45:48.999Z</time></trkpt><trkpt lat="36.84519953116756" lon="15.095687756765878"><ele>24.0</ele><time>2026-04-11T13:45:50.999Z</time></trkpt><trkpt lat="36.845135392235576" lon="15.095656986659765"><ele>23.0</ele><time>2026-04-11T13:45:52.999Z</time></trkpt><trkpt lat="36.84506478402946" lon="15.095605030662634"><ele>22.0</ele><time>2026-04-11T13:46:03.999Z</time></trkpt><trkpt lat="36.84493094538802" lon="15.09556338476557"><ele>21.0</ele><time>2026-04-11T13:46:05.999Z</time></trkpt><trkpt lat="36.84487169765184" lon="15.095423735560447"><ele>18.6</ele><time>2026-04-11T13:46:06.999Z</time></trkpt><trkpt lat="36.84481231749506" lon="15.095382609861648"><ele>16.200000000000003</ele><time>2026-04-11T13:46:07.999Z</time></trkpt><trkpt lat="36.84475144154843" lon="15.09536254187811"><ele>13.8</ele><time>2026-04-11T13:46:08.999Z</time></trkpt><trkpt lat="36.84466838367628" lon="15.095346756022915"><ele>11.4</ele><time>2026-04-11T13:46:09.999Z</time></trkpt><trkpt lat="36.844569857172715" lon="15.095316335386105"><ele>9.0</ele><time>2026-04-11T13:46:10.999Z</time></trkpt><trkpt lat="36.8444281555413" lon="15.095275524877765"><ele>8.0</ele><time>2026-04-11T13:46:11.999Z</time></trkpt><trkpt lat="36.84428198833317" lon="15.095230571356748"><ele>7.0</ele><time>2026-04-11T13:46:12.999Z</time></trkpt><trkpt lat="36.84415743124037" lon="15.095192332379565"><ele>6.0</ele><time>2026-04-11T13:46:13.999Z</time></trkpt><trkpt lat="36.84402356426371" lon="15.09515822385379"><ele>5.0</ele><time>2026-04-11T13:46:14.999Z</time></trkpt><trkpt lat="36.8438892158159" lon="15.095122261336911"><ele>5.0</ele><time>2026-04-11T13:46:15.999Z</time></trkpt><trkpt lat="36.843754199538516" lon="15.0950874203415"><ele>5.0</ele><time>2026-04-11T13:46:16.999Z</time></trkpt><trkpt lat="36.84362722846399" lon="15.095056558650104"><ele>5.0</ele><time>2026-04-11T13:46:17.999Z</time></trkpt><trkpt lat="36.84350604990758" lon="15.095029212806992"><ele>5.0</ele><time>2026-04-11T13:46:18.999Z</time></trkpt><trkpt lat="36.84338347562978" lon="15.094999053622267"><ele>5.0</ele><time>2026-04-11T13:46:19.999Z</time></trkpt><trkpt lat="36.84327351263937" lon="15.09496621157534"><ele>5.0</ele><time>2026-04-11T13:46:20.999Z</time></trkpt><trkpt lat="36.84317670237361" lon="15.09494102697699"><ele>5.0</ele><time>2026-04-11T13:46:21.999Z</time></trkpt><trkpt lat="36.84306568455962" lon="15.094904460877267"><ele>5.0</ele><time>2026-04-11T13:46:22.999Z</time></trkpt><trkpt lat="36.84295178507475" lon="15.094865955282394"><ele>5.0</ele><time>2026-04-11T13:46:23.999Z</time></trkpt><trkpt lat="36.84284672994127" lon="15.094830714687442"><ele>5.166666666666667</ele><time>2026-04-11T13:46:24.999Z</time></trkpt><trkpt lat="36.84275922452404" lon="15.094803574466523"><ele>5.333333333333334</ele><time>2026-04-11T13:46:25.998Z</time></trkpt><trkpt lat="36.84267926443075" lon="15.094777359135692"><ele>5.5</ele><time>2026-04-11T13:46:26.998Z</time></trkpt><trkpt lat="36.842609456274836" lon="15.09475701307755"><ele>5.666666666666667</ele><time>2026-04-11T13:46:27.998Z</time></trkpt><trkpt lat="36.8425439705167" lon="15.094749252975072"><ele>5.833333333333333</ele><time>2026-04-11T13:46:28.998Z</time></trkpt><trkpt lat="36.84242565204418" lon="15.094738473077154"><ele>6.0</ele><time>2026-04-11T13:46:30.998Z</time></trkpt><trkpt lat="36.842366208253516" lon="15.094703044015736"><ele>6.0</ele><time>2026-04-11T13:46:31.998Z</time></trkpt><trkpt lat="36.84229930243101" lon="15.09464583901675"><ele>6.0</ele><time>2026-04-11T13:46:32.998Z</time></trkpt><trkpt lat="36.842220084578436" lon="15.0945818876676"><ele>6.0</ele><time>2026-04-11T13:46:33.998Z</time></trkpt><trkpt lat="36.842140857669065" lon="15.094535209943398"><ele>6.0</ele><time>2026-04-11T13:46:34.998Z</time></trkpt><trkpt lat="36.84206383140505" lon="15.094492471353885"><ele>6.0</ele><time>2026-04-11T13:46:35.998Z</time></trkpt><trkpt lat="36.84195621632106" lon="15.094455049352305"><ele>6.0</ele><time>2026-04-11T13:46:38Z</time></trkpt><trkpt lat="36.84188523679025" lon="15.094439656788563"><ele>6.0</ele><time>2026-04-11T13:46:40Z</time></trkpt><trkpt lat="36.84186612156076" lon="15.094351041454122"><ele>6.0</ele><time>2026-04-11T13:46:43Z</time></trkpt><trkpt lat="36.84190122248729" lon="15.094230757590825"><ele>6.0</ele><time>2026-04-11T13:46:45Z</time></trkpt><trkpt lat="36.841948340592396" lon="15.094104918804364"><ele>6.0</ele><time>2026-04-11T13:46:47Z</time></trkpt><trkpt lat="36.84198217687932" lon="15.093966098806098"><ele>6.0</ele><time>2026-04-11T13:46:49Z</time></trkpt><trkpt lat="36.842006806366605" lon="15.093830759401516"><ele>6.0</ele><time>2026-04-11T13:46:51Z</time></trkpt><trkpt lat="36.842021866419095" lon="15.093712725053118"><ele>6.0</ele><time>2026-04-11T13:46:53Z</time></trkpt><trkpt lat="36.84198330249438" lon="15.093618840285982"><ele>6.0</ele><time>2026-04-11T13:46:56Z</time></trkpt><trkpt lat="36.84193764685012" lon="15.093553157778446"><ele>6.0</ele><time>2026-04-11T13:46:58Z</time></trkpt><trkpt lat="36.84197424703624" lon="15.093471144968076"><ele>6.0</ele><time>2026-04-11T13:47:01Z</time></trkpt><trkpt lat="36.84204070908476" lon="15.093485947483975"><ele>6.0</ele><time>2026-04-11T13:47:03Z</time></trkpt><trkpt lat="36.842089819478595" lon="15.093411517857898"><ele>6.0</ele><time>2026-04-11T13:47:06Z</time></trkpt><trkpt lat="36.84209571795456" lon="15.09329447107204"><ele>6.0</ele><time>2026-04-11T13:47:08Z</time></trkpt><trkpt lat="36.842116188636645" lon="15.093169453926714"><ele>6.0</ele><time>2026-04-11T13:47:10Z</time></trkpt><trkpt lat="36.84214220126115" lon="15.093016284540502"><ele>6.0</ele><time>2026-04-11T13:47:12Z</time></trkpt><trkpt lat="36.84215710246992" lon="15.09293983231775"><ele>6.0</ele><time>2026-04-11T13:47:13Z</time></trkpt><trkpt lat="36.84218530526351" lon="15.092795215409293"><ele>6.0</ele><time>2026-04-11T13:47:15Z</time></trkpt><trkpt lat="36.84220427497919" lon="15.09265598609641"><ele>6.0</ele><time>2026-04-11T13:47:17Z</time></trkpt><trkpt lat="36.842213739990896" lon="15.092577883712854"><ele>6.0</ele><time>2026-04-11T13:47:18Z</time></trkpt><trkpt lat="36.842228649698264" lon="15.092491691539225"><ele>6.0</ele><time>2026-04-11T13:47:19Z</time></trkpt><trkpt lat="36.842242424686546" lon="15.092401610302973"><ele>6.0</ele><time>2026-04-11T13:47:20Z</time></trkpt><trkpt lat="36.84225613577787" lon="15.092303674168098"><ele>6.0</ele><time>2026-04-11T13:47:21Z</time></trkpt><trkpt lat="36.84226778462765" lon="15.092209976639266"><ele>6.0</ele><time>2026-04-11T13:47:22Z</time></trkpt><trkpt lat="36.84228013766703" lon="15.09211512746504"><ele>6.0</ele><time>2026-04-11T13:47:23Z</time></trkpt><trkpt lat="36.84228936389802" lon="15.092020254769386"><ele>6.0</ele><time>2026-04-11T13:47:23.999Z</time></trkpt><trkpt lat="36.84230010072443" lon="15.091920769350814"><ele>6.0</ele><time>2026-04-11T13:47:24.999Z</time></trkpt><trkpt lat="36.84230757506213" lon="15.091816868039295"><ele>6.0</ele><time>2026-04-11T13:47:25.999Z</time></trkpt><trkpt lat="36.842312588353344" lon="15.091714195728057"><ele>6.0</ele><time>2026-04-11T13:47:26.999Z</time></trkpt><trkpt lat="36.84232407654642" lon="15.091614417729954"><ele>6.0</ele><time>2026-04-11T13:47:27.999Z</time></trkpt><trkpt lat="36.84234961393871" lon="15.091508554666706"><ele>6.0</ele><time>2026-04-11T13:47:28.999Z</time></trkpt><trkpt lat="36.84237547610976" lon="15.091405171713891"><ele>6.0</ele><time>2026-04-11T13:47:29.999Z</time></trkpt><trkpt lat="36.84239117210916" lon="15.091302236906737"><ele>6.0</ele><time>2026-04-11T13:47:30.999Z</time></trkpt><trkpt lat="36.842404096520916" lon="15.091205337370067"><ele>6.0</ele><time>2026-04-11T13:47:31.999Z</time></trkpt><trkpt lat="36.84241807511321" lon="15.091102081751183"><ele>6.0</ele><time>2026-04-11T13:47:32.999Z</time></trkpt><trkpt lat="36.84242394246772" lon="15.09099300963642"><ele>6.0</ele><time>2026-04-11T13:47:33.999Z</time></trkpt><trkpt lat="36.84243005209993" lon="15.090878927269927"><ele>6.0</ele><time>2026-04-11T13:47:34.999Z</time></trkpt><trkpt lat="36.84243172344947" lon="15.09077050815767"><ele>6.0</ele><time>2026-04-11T13:47:35.999Z</time></trkpt><trkpt lat="36.842431279338925" lon="15.090680801390278"><ele>6.0</ele><time>2026-04-11T13:47:36.999Z</time></trkpt><trkpt lat="36.84243419947374" lon="15.09059927667043"><ele>6.0</ele><time>2026-04-11T13:47:37.999Z</time></trkpt><trkpt lat="36.842466549760225" lon="15.09046404206229"><ele>6.333333333333333</ele><time>2026-04-11T13:47:39.999Z</time></trkpt><trkpt lat="36.84253544812059" lon="15.090364614014431"><ele>6.666666666666666</ele><time>2026-04-11T13:47:41.999Z</time></trkpt><trkpt lat="36.84258122427188" lon="15.09028137765395"><ele>7.0</ele><time>2026-04-11T13:47:43.999Z</time></trkpt><trkpt lat="36.84258538280716" lon="15.090195980390684"><ele>7.333333333333333</ele><time>2026-04-11T13:47:45.999Z</time></trkpt><trkpt lat="36.84264586118003" lon="15.090165158519202"><ele>7.666666666666666</ele><time>2026-04-11T13:47:48.999Z</time></trkpt><trkpt lat="36.84272868159407" lon="15.090181079793501"><ele>8.0</ele><time>2026-04-11T13:47:52.999Z</time></trkpt><trkpt lat="36.842817491855214" lon="15.090176108341593"><ele>8.166666666666666</ele><time>2026-04-11T13:48:06.999Z</time></trkpt><trkpt lat="36.84283347079216" lon="15.090083904272884"><ele>8.333333333333332</ele><time>2026-04-11T13:48:10.999Z</time></trkpt><trkpt lat="36.842844761543205" lon="15.090002984355264"><ele>8.5</ele><time>2026-04-11T13:48:14.999Z</time></trkpt><trkpt lat="36.84282270551693" lon="15.089911708776599"><ele>8.666666666666666</ele><time>2026-04-11T13:48:18.999Z</time></trkpt><trkpt lat="36.84284291733974" lon="15.089814765634356"><ele>8.833333333333334</ele><time>2026-04-11T13:58:01.999Z</time></trkpt><trkpt lat="36.842881399219195" lon="15.08972938461986"><ele>9.0</ele><time>2026-04-11T13:58:03.999Z</time></trkpt><trkpt lat="36.84296026416442" lon="15.089660849907299"><ele>9.0</ele><time>2026-04-11T13:58:05.999Z</time></trkpt><trkpt lat="36.84305485057703" lon="15.089708636810448"><ele>9.0</ele><time>2026-04-11T13:58:07.999Z</time></trkpt><trkpt lat="36.84313752196146" lon="15.089771390290343"><ele>9.0</ele><time>2026-04-11T13:58:08.999Z</time></trkpt><trkpt lat="36.84320248972002" lon="15.089817260524747"><ele>9.0</ele><time>2026-04-11T13:58:09.999Z</time></trkpt><trkpt lat="36.843273605688694" lon="15.089848022155785"><ele>9.0</ele><time>2026-04-11T13:58:10.999Z</time></trkpt><trkpt lat="36.84333915680022" lon="15.089883482843907"><ele>9.0</ele><time>2026-04-11T13:58:11.999Z</time></trkpt><trkpt lat="36.843389426652095" lon="15.089932177292331"><ele>9.0</ele><time>2026-04-11T13:58:12.999Z</time></trkpt><trkpt lat="36.84344397632946" lon="15.089976143601067"><ele>9.0</ele><time>2026-04-11T13:58:13.999Z</time></trkpt><trkpt lat="36.843510533145654" lon="15.090024318369206"><ele>9.0</ele><time>2026-04-11T13:58:14.999Z</time></trkpt><trkpt lat="36.84358622960814" lon="15.090079805751692"><ele>9.0</ele><time>2026-04-11T13:58:15.999Z</time></trkpt><trkpt lat="36.84365359606021" lon="15.090138671769395"><ele>9.0</ele><time>2026-04-11T13:58:16.999Z</time></trkpt><trkpt lat="36.84371141864387" lon="15.090189559957548"><ele>9.0</ele><time>2026-04-11T13:58:17.999Z</time></trkpt><trkpt lat="36.84377458348267" lon="15.090238866494207"><ele>9.0</ele><time>2026-04-11T13:58:18.999Z</time></trkpt><trkpt lat="36.8438302738001" lon="15.090285146391198"><ele>9.0</ele><time>2026-04-11T13:58:19.999Z</time></trkpt><trkpt lat="36.84391489256972" lon="15.090352545810255"><ele>9.0</ele><time>2026-04-11T13:58:21.999Z</time></trkpt><trkpt lat="36.8439903538275" lon="15.090340088884307"><ele>9.0</ele><time>2026-04-11T13:58:23.999Z</time></trkpt><trkpt lat="36.84400908453315" lon="15.090252586033504"><ele>9.0</ele><time>2026-04-11T13:58:25.999Z</time></trkpt><trkpt lat="36.84402832396063" lon="15.090090640739186"><ele>9.0</ele><time>2026-04-11T13:58:27.999Z</time></trkpt><trkpt lat="36.844046822534914" lon="15.089958501783192"><ele>8.75</ele><time>2026-04-11T13:58:28.999Z</time></trkpt><trkpt lat="36.8440611721784" lon="15.089820105863566"><ele>8.5</ele><time>2026-04-11T13:58:29.999Z</time></trkpt><trkpt lat="36.84407784555234" lon="15.089683720663908"><ele>8.25</ele><time>2026-04-11T13:58:30.999Z</time></trkpt><trkpt lat="36.84409837345329" lon="15.08952589066194"><ele>8.0</ele><time>2026-04-11T13:58:31.999Z</time></trkpt><trkpt lat="36.844122693663756" lon="15.089350576894024"><ele>8.0</ele><time>2026-04-11T13:58:32.999Z</time></trkpt><trkpt lat="36.844141051692446" lon="15.089150789887142"><ele>8.0</ele><time>2026-04-11T13:58:33.999Z</time></trkpt><trkpt lat="36.844172997384725" lon="15.088897648780646"><ele>8.0</ele><time>2026-04-11T13:58:34.999Z</time></trkpt><trkpt lat="36.844211493111395" lon="15.088645121881223"><ele>8.0</ele><time>2026-04-11T13:58:35.999Z</time></trkpt><trkpt lat="36.844240750050346" lon="15.088389142581722"><ele>8.0</ele><time>2026-04-11T13:58:36.999Z</time></trkpt><trkpt lat="36.844272271449384" lon="15.088135867279373"><ele>8.0</ele><time>2026-04-11T13:58:37.999Z</time></trkpt><trkpt lat="36.844307573479234" lon="15.087884789782672"><ele>8.0</ele><time>2026-04-11T13:58:38.999Z</time></trkpt><trkpt lat="36.844339410865274" lon="15.087640477131082"><ele>8.0</ele><time>2026-04-11T13:58:39.999Z</time></trkpt><trkpt lat="36.84436219815311" lon="15.087404624896573"><ele>8.0</ele><time>2026-04-11T13:58:40.999Z</time></trkpt><trkpt lat="36.84439187008943" lon="15.0871961783367"><ele>7.75</ele><time>2026-04-11T13:58:41.999Z</time></trkpt><trkpt lat="36.844418696905514" lon="15.08700693459641"><ele>7.5</ele><time>2026-04-11T13:58:42.999Z</time></trkpt><trkpt lat="36.844434521246065" lon="15.086836558098877"><ele>7.25</ele><time>2026-04-11T13:58:43.999Z</time></trkpt><trkpt lat="36.84444974179742" lon="15.086679547589005"><ele>7.0</ele><time>2026-04-11T13:58:44.999Z</time></trkpt><trkpt lat="36.84446608755382" lon="15.086534762268789"><ele>7.0</ele><time>2026-04-11T13:58:45.999Z</time></trkpt><trkpt lat="36.8444767330316" lon="15.086416248213434"><ele>6.999999999999999</ele><time>2026-04-11T13:58:46.999Z</time></trkpt><trkpt lat="36.84448458430021" lon="15.08632149424736"><ele>6.999999999999999</ele><time>2026-04-11T13:58:47.999Z</time></trkpt><trkpt lat="36.84452160776822" lon="15.086221705165489"><ele>7.0</ele><time>2026-04-11T13:58:49.999Z</time></trkpt><trkpt lat="36.8446130252572" lon="15.086208773401788"><ele>7.0</ele><time>2026-04-11T13:58:51.999Z</time></trkpt><trkpt lat="36.84472939943983" lon="15.086230532728397"><ele>7.0</ele><time>2026-04-11T13:58:53.999Z</time></trkpt><trkpt lat="36.844819923122664" lon="15.086238441864001"><ele>7.0</ele><time>2026-04-11T13:58:54.999Z</time></trkpt><trkpt lat="36.844933512254876" lon="15.086244297298922"><ele>7.0</ele><time>2026-04-11T13:58:55.999Z</time></trkpt><trkpt lat="36.84505705686023" lon="15.086249405570047"><ele>7.0</ele><time>2026-04-11T13:58:56.999Z</time></trkpt><trkpt lat="36.845188634066645" lon="15.086268213923839"><ele>7.25</ele><time>2026-04-11T13:58:57.999Z</time></trkpt><trkpt lat="36.84530662184704" lon="15.086282265777125"><ele>7.5</ele><time>2026-04-11T13:58:58.999Z</time></trkpt><trkpt lat="36.84543000276759" lon="15.086296234841829"><ele>7.75</ele><time>2026-04-11T13:58:59.999Z</time></trkpt><trkpt lat="36.84556215933495" lon="15.08631444022825"><ele>8.0</ele><time>2026-04-11T13:59:00.999Z</time></trkpt><trkpt lat="36.84570443873103" lon="15.086330627316075"><ele>8.0</ele><time>2026-04-11T13:59:01.999Z</time></trkpt><trkpt lat="36.84584521203321" lon="15.086354964970743"><ele>8.0</ele><time>2026-04-11T13:59:02.999Z</time></trkpt><trkpt lat="36.84597579498946" lon="15.086385443698665"><ele>8.0</ele><time>2026-04-11T13:59:03.999Z</time></trkpt><trkpt lat="36.846115937662006" lon="15.086396392760195"><ele>8.0</ele><time>2026-04-11T13:59:04.998Z</time></trkpt><trkpt lat="36.84625263896535" lon="15.08639993309786"><ele>8.0</ele><time>2026-04-11T13:59:05.998Z</time></trkpt><trkpt lat="36.846392367294186" lon="15.08640791051071"><ele>8.0</ele><time>2026-04-11T13:59:06.998Z</time></trkpt><trkpt lat="36.84650027007298" lon="15.086419716710235"><ele>8.0</ele><time>2026-04-11T13:59:07.998Z</time></trkpt><trkpt lat="36.84658847445321" lon="15.08642730725434"><ele>8.0</ele><time>2026-04-11T13:59:08.998Z</time></trkpt><trkpt lat="36.84666878647935" lon="15.086444378178712"><ele>8.0</ele><time>2026-04-11T13:59:09.998Z</time></trkpt><trkpt lat="36.84675493347271" lon="15.086466133995874"><ele>9.4</ele><time>2026-04-11T13:59:10.998Z</time></trkpt><trkpt lat="36.84685812106705" lon="15.086496915420886"><ele>10.8</ele><time>2026-04-11T13:59:11.998Z</time></trkpt><trkpt lat="36.84696495198208" lon="15.086527152161777"><ele>12.2</ele><time>2026-04-11T13:59:12.998Z</time></trkpt><trkpt lat="36.84708267235753" lon="15.086551614082005"><ele>13.6</ele><time>2026-04-11T13:59:14Z</time></trkpt><trkpt lat="36.847191365790586" lon="15.086564328738259"><ele>15.0</ele><time>2026-04-11T13:59:15Z</time></trkpt><trkpt lat="36.84730129682147" lon="15.086555546635836"><ele>15.0</ele><time>2026-04-11T13:59:16Z</time></trkpt><trkpt lat="36.847402057468045" lon="15.086534484035983"><ele>15.0</ele><time>2026-04-11T13:59:17Z</time></trkpt><trkpt lat="36.847480533309096" lon="15.086521496851713"><ele>15.0</ele><time>2026-04-11T13:59:18Z</time></trkpt><trkpt lat="36.84754496241654" lon="15.086510318788209"><ele>15.0</ele><time>2026-04-11T13:59:19Z</time></trkpt><trkpt lat="36.84764931872224" lon="15.086506972753764"><ele>15.0</ele><time>2026-04-11T13:59:21Z</time></trkpt><trkpt lat="36.847709293785144" lon="15.086541734844952"><ele>15.0</ele><time>2026-04-11T13:59:23Z</time></trkpt><trkpt lat="36.84778817824882" lon="15.086604783072588"><ele>16.6</ele><time>2026-04-11T13:59:25Z</time></trkpt><trkpt lat="36.84789136900873" lon="15.086646568400436"><ele>18.2</ele><time>2026-04-11T13:59:27Z</time></trkpt><trkpt lat="36.848030256673155" lon="15.086690787942404"><ele>19.799999999999997</ele><time>2026-04-11T13:59:29Z</time></trkpt><trkpt lat="36.848118507271224" lon="15.08672300651132"><ele>21.4</ele><time>2026-04-11T13:59:30Z</time></trkpt><trkpt lat="36.84819765742384" lon="15.086767064177016"><ele>23.0</ele><time>2026-04-11T13:59:31Z</time></trkpt><trkpt lat="36.84827217735108" lon="15.086817639062929"><ele>23.0</ele><time>2026-04-11T13:59:32Z</time></trkpt><trkpt lat="36.84835251404371" lon="15.086859282757873"><ele>23.0</ele><time>2026-04-11T13:59:33Z</time></trkpt><trkpt lat="36.8484402703686" lon="15.086873882169462"><ele>23.0</ele><time>2026-04-11T13:59:34Z</time></trkpt><trkpt lat="36.848523946418716" lon="15.08687242917612"><ele>23.0</ele><time>2026-04-11T13:59:35Z</time></trkpt><trkpt lat="36.848599561734964" lon="15.086842419118877"><ele>23.0</ele><time>2026-04-11T13:59:36Z</time></trkpt><trkpt lat="36.84865954281007" lon="15.086789977959215"><ele>23.0</ele><time>2026-04-11T13:59:37Z</time></trkpt><trkpt lat="36.84873156399554" lon="15.086718991458328"><ele>26.0</ele><time>2026-04-11T13:59:38Z</time></trkpt><trkpt lat="36.84882326221958" lon="15.086605211500716"><ele>29.0</ele><time>2026-04-11T13:59:39Z</time></trkpt><trkpt lat="36.848876354287896" lon="15.08642266383625"><ele>32.0</ele><time>2026-04-11T13:59:40Z</time></trkpt><trkpt lat="36.84891186814391" lon="15.086224415562164"><ele>35.0</ele><time>2026-04-11T13:59:41Z</time></trkpt><trkpt lat="36.84895582318516" lon="15.086032081197773"><ele>35.0</ele><time>2026-04-11T13:59:42Z</time></trkpt><trkpt lat="36.849016977913514" lon="15.085884489133042"><ele>35.0</ele><time>2026-04-11T13:59:43Z</time></trkpt><trkpt lat="36.84908488084861" lon="15.085796128141977"><ele>35.0</ele><time>2026-04-11T13:59:44Z</time></trkpt><trkpt lat="36.849158773386286" lon="15.085751829419658"><ele>35.0</ele><time>2026-04-11T13:59:45Z</time></trkpt><trkpt lat="36.849252765622445" lon="15.085770613988894"><ele>35.0</ele><time>2026-04-11T13:59:46Z</time></trkpt><trkpt lat="36.84932198187539" lon="15.085816019121312"><ele>34.6</ele><time>2026-04-11T13:59:47Z</time></trkpt><trkpt lat="36.84943272610831" lon="15.085854338389533"><ele>34.2</ele><time>2026-04-11T13:59:49Z</time></trkpt><trkpt lat="36.849528965042964" lon="15.085880545032465"><ele>33.8</ele><time>2026-04-11T13:59:51Z</time></trkpt><trkpt lat="36.849624063060915" lon="15.085907802765643"><ele>33.4</ele><time>2026-04-11T13:59:53Z</time></trkpt><trkpt lat="36.84972293339834" lon="15.085939510763032"><ele>33.0</ele><time>2026-04-11T13:59:55Z</time></trkpt><trkpt lat="36.84983134911557" lon="15.085971888250526"><ele>33.0</ele><time>2026-04-11T13:59:57Z</time></trkpt><trkpt lat="36.8499639909154" lon="15.086004545336428"><ele>33.0</ele><time>2026-04-11T13:59:59Z</time></trkpt><trkpt lat="36.85004125326813" lon="15.086037277445271"><ele>33.0</ele><time>2026-04-11T14:00:00Z</time></trkpt><trkpt lat="36.85012724438653" lon="15.08606893559177"><ele>33.0</ele><time>2026-04-11T14:00:01Z</time></trkpt><trkpt lat="36.85023075807389" lon="15.086090157808325"><ele>33.0</ele><time>2026-04-11T14:00:02Z</time></trkpt><trkpt lat="36.85033972207941" lon="15.086110868838182"><ele>33.75</ele><time>2026-04-11T14:00:02.999Z</time></trkpt><trkpt lat="36.85046291023787" lon="15.086137668464794"><ele>34.5</ele><time>2026-04-11T14:00:03.999Z</time></trkpt><trkpt lat="36.850586611898215" lon="15.086167857532788"><ele>35.25</ele><time>2026-04-11T14:00:04.999Z</time></trkpt><trkpt lat="36.85070772844273" lon="15.086201441314103"><ele>36.0</ele><time>2026-04-11T14:00:05.999Z</time></trkpt><trkpt lat="36.85081662511515" lon="15.08623183583"><ele>36.0</ele><time>2026-04-11T14:00:06.999Z</time></trkpt><trkpt lat="36.85091219813854" lon="15.086269715645136"><ele>36.0</ele><time>2026-04-11T14:00:07.999Z</time></trkpt><trkpt lat="36.85099203521108" lon="15.086307778096465"><ele>36.0</ele><time>2026-04-11T14:00:08.999Z</time></trkpt><trkpt lat="36.851060058292894" lon="15.08636459418083"><ele>36.0</ele><time>2026-04-11T14:00:09.999Z</time></trkpt><trkpt lat="36.85111800605467" lon="15.086423093140477"><ele>36.0</ele><time>2026-04-11T14:00:10.999Z</time></trkpt><trkpt lat="36.85116876261614" lon="15.086485899727881"><ele>36.0</ele><time>2026-04-11T14:00:11.999Z</time></trkpt><trkpt lat="36.851245531657945" lon="15.086592542042892"><ele>37.0</ele><time>2026-04-11T14:00:13.999Z</time></trkpt><trkpt lat="36.85133394703313" lon="15.0866023372774"><ele>38.0</ele><time>2026-04-11T14:00:15.999Z</time></trkpt><trkpt lat="36.8513811824082" lon="15.086489328170186"><ele>39.0</ele><time>2026-04-11T14:00:17.999Z</time></trkpt><trkpt lat="36.851428579166736" lon="15.08636855696607"><ele>40.0</ele><time>2026-04-11T14:00:19.999Z</time></trkpt><trkpt lat="36.85144393473364" lon="15.086246018782957"><ele>41.0</ele><time>2026-04-11T14:00:20.999Z</time></trkpt><trkpt lat="36.851471787367196" lon="15.086114841818889"><ele>41.0</ele><time>2026-04-11T14:00:21.999Z</time></trkpt><trkpt lat="36.851492804662634" lon="15.085993251041826"><ele>41.0</ele><time>2026-04-11T14:00:22.999Z</time></trkpt><trkpt lat="36.8515159220591" lon="15.085880044991793"><ele>41.0</ele><time>2026-04-11T14:00:23.999Z</time></trkpt><trkpt lat="36.85153676994096" lon="15.08577092696173"><ele>41.0</ele><time>2026-04-11T14:00:24.999Z</time></trkpt><trkpt lat="36.85155058734505" lon="15.085678922746729"><ele>41.0</ele><time>2026-04-11T14:00:25.999Z</time></trkpt><trkpt lat="36.85153674283459" lon="15.085545619836946"><ele>40.4</ele><time>2026-04-11T14:00:27.999Z</time></trkpt><trkpt lat="36.8514655237092" lon="15.08547990162316"><ele>39.8</ele><time>2026-04-11T14:00:29.999Z</time></trkpt><trkpt lat="36.85138267415972" lon="15.085451323199566"><ele>39.199999999999996</ele><time>2026-04-11T14:00:30.999Z</time></trkpt><trkpt lat="36.8512846897817" lon="15.085433408620304"><ele>38.599999999999994</ele><time>2026-04-11T14:00:31.999Z</time></trkpt><trkpt lat="36.8511875632619" lon="15.085428232698439"><ele>38.0</ele><time>2026-04-11T14:00:32.999Z</time></trkpt><trkpt lat="36.85108921872603" lon="15.08540045560006"><ele>38.0</ele><time>2026-04-11T14:00:33.999Z</time></trkpt><trkpt lat="36.85098783756803" lon="15.085372128315004"><ele>38.0</ele><time>2026-04-11T14:00:34.999Z</time></trkpt><trkpt lat="36.85088501754747" lon="15.08535267189412"><ele>38.0</ele><time>2026-04-11T14:00:35.999Z</time></trkpt><trkpt lat="36.850772096482544" lon="15.085326204435884"><ele>38.0</ele><time>2026-04-11T14:00:36.999Z</time></trkpt><trkpt lat="36.85066003562564" lon="15.085293318738458"><ele>38.0</ele><time>2026-04-11T14:00:37.999Z</time></trkpt><trkpt lat="36.850552403879014" lon="15.085271115804632"><ele>37.166666666666664</ele><time>2026-04-11T14:00:38.999Z</time></trkpt><trkpt lat="36.85044969515345" lon="15.08525380569832"><ele>36.33333333333333</ele><time>2026-04-11T14:00:39.999Z</time></trkpt><trkpt lat="36.85035582884006" lon="15.08522975500984"><ele>35.5</ele><time>2026-04-11T14:00:40.999Z</time></trkpt><trkpt lat="36.850271962434476" lon="15.085213693531115"><ele>34.666666666666664</ele><time>2026-04-11T14:00:41.999Z</time></trkpt><trkpt lat="36.85020200107078" lon="15.08519952072037"><ele>33.833333333333336</ele><time>2026-04-11T14:00:42.999Z</time></trkpt><trkpt lat="36.85012217517608" lon="15.08515564697257"><ele>33.0</ele><time>2026-04-11T14:00:44.999Z</time></trkpt><trkpt lat="36.850114841538925" lon="15.08503265283837"><ele>32.333333333333336</ele><time>2026-04-11T14:00:46.999Z</time></trkpt><trkpt lat="36.850100185669746" lon="15.084948092658443"><ele>31.666666666666664</ele><time>2026-04-11T14:00:47.999Z</time></trkpt><trkpt lat="36.850098868372314" lon="15.084834857479736"><ele>31.0</ele><time>2026-04-11T14:00:48.999Z</time></trkpt><trkpt lat="36.85009784883303" lon="15.084712374017775"><ele>30.333333333333332</ele><time>2026-04-11T14:00:49.999Z</time></trkpt><trkpt lat="36.85010940175189" lon="15.084596726102745"><ele>29.666666666666664</ele><time>2026-04-11T14:00:50.999Z</time></trkpt><trkpt lat="36.850074204307255" lon="15.084493588682431"><ele>29.0</ele><time>2026-04-11T14:00:51.999Z</time></trkpt><trkpt lat="36.85008922210277" lon="15.08439371032183"><ele>28.28571428571429</ele><time>2026-04-11T14:00:52.999Z</time></trkpt><trkpt lat="36.8500723560219" lon="15.084300652291002"><ele>27.571428571428573</ele><time>2026-04-11T14:00:53.999Z</time></trkpt><trkpt lat="36.85006581365097" lon="15.084211285396206"><ele>26.857142857142858</ele><time>2026-04-11T14:00:54.999Z</time></trkpt><trkpt lat="36.85006964564559" lon="15.084129610706372"><ele>26.142857142857146</ele><time>2026-04-11T14:00:55.999Z</time></trkpt><trkpt lat="36.85000264512748" lon="15.084071574169123"><ele>25.42857142857143</ele><time>2026-04-11T14:00:56.999Z</time></trkpt><trkpt lat="36.84995183117876" lon="15.084024475563233"><ele>24.71428571428571</ele><time>2026-04-11T14:00:57.999Z</time></trkpt><trkpt lat="36.849893322377916" lon="15.083959298336872"><ele>24.0</ele><time>2026-04-11T14:00:59.999Z</time></trkpt><trkpt lat="36.849850282278496" lon="15.08389490959824"><ele>22.75</ele><time>2026-04-11T14:01:01.999Z</time></trkpt><trkpt lat="36.84981104739343" lon="15.083830326566849"><ele>21.5</ele><time>2026-04-11T14:01:03.999Z</time></trkpt><trkpt lat="36.849768736769875" lon="15.083766263680456"><ele>20.25</ele><time>2026-04-11T14:01:05.999Z</time></trkpt><trkpt lat="36.849738278848314" lon="15.083674667229014"><ele>19.0</ele><time>2026-04-11T14:01:07.999Z</time></trkpt><trkpt lat="36.8499311822859" lon="15.083397834564737"><ele>19.0</ele><time>2026-04-11T14:01:09.998Z</time></trkpt><trkpt lat="36.84997358949807" lon="15.08326455377414"><ele>19.0</ele><time>2026-04-11T14:01:11.998Z</time></trkpt><trkpt lat="36.849982974086686" lon="15.083105928692774"><ele>19.0</ele><time>2026-04-11T14:01:13.998Z</time></trkpt><trkpt lat="36.84999175021239" lon="15.083020567490903"><ele>19.0</ele><time>2026-04-11T14:01:14.998Z</time></trkpt><trkpt lat="36.8499777842318" lon="15.0828932112444"><ele>19.0</ele><time>2026-04-11T14:01:16.998Z</time></trkpt><trkpt lat="36.8499969150941" lon="15.082811027455017"><ele>18.166666666666664</ele><time>2026-04-11T14:01:18.998Z</time></trkpt><trkpt lat="36.850105719344015" lon="15.082785908908196"><ele>17.333333333333332</ele><time>2026-04-11T14:01:25Z</time></trkpt><trkpt lat="36.8502007006626" lon="15.082710324910588"><ele>16.5</ele><time>2026-04-11T14:01:26Z</time></trkpt><trkpt lat="36.85025752204626" lon="15.082662844765697"><ele>15.666666666666668</ele><time>2026-04-11T14:01:27Z</time></trkpt><trkpt lat="36.8503121933595" lon="15.08261307523988"><ele>14.833333333333334</ele><time>2026-04-11T14:01:28Z</time></trkpt><trkpt lat="36.85035087152528" lon="15.082544938750825"><ele>14.0</ele><time>2026-04-11T14:01:29Z</time></trkpt><trkpt lat="36.85030943232451" lon="15.082419226132897"><ele>13.75</ele><time>2026-04-11T14:01:30Z</time></trkpt><trkpt lat="36.850213572956015" lon="15.082329434093381"><ele>13.5</ele><time>2026-04-11T14:01:31Z</time></trkpt><trkpt lat="36.850135260571754" lon="15.08216987444982"><ele>13.25</ele><time>2026-04-11T14:01:32Z</time></trkpt><trkpt lat="36.85003007859026" lon="15.082039738980612"><ele>13.0</ele><time>2026-04-11T14:01:33Z</time></trkpt><trkpt lat="36.849949819871526" lon="15.08188878778332"><ele>13.0</ele><time>2026-04-11T14:01:34Z</time></trkpt><trkpt lat="36.84986267640526" lon="15.081745997131698"><ele>13.0</ele><time>2026-04-11T14:01:35Z</time></trkpt><trkpt lat="36.84980498143086" lon="15.081629051533694"><ele>13.0</ele><time>2026-04-11T14:01:36Z</time></trkpt><trkpt lat="36.84976854720077" lon="15.081520215129734"><ele>13.0</ele><time>2026-04-11T14:01:37Z</time></trkpt><trkpt lat="36.84974880202079" lon="15.08142704775033"><ele>13.0</ele><time>2026-04-11T14:01:38Z</time></trkpt><trkpt lat="36.84976243324958" lon="15.081329787790041"><ele>12.75</ele><time>2026-04-11T14:01:40Z</time></trkpt><trkpt lat="36.84978407294585" lon="15.081241989059293"><ele>12.5</ele><time>2026-04-11T14:01:44Z</time></trkpt><trkpt lat="36.84955301993056" lon="15.081084966917299"><ele>12.25</ele><time>2026-04-11T14:01:47Z</time></trkpt><trkpt lat="36.84949377467522" lon="15.081040802832414"><ele>12.0</ele><time>2026-04-11T14:01:48Z</time></trkpt><trkpt lat="36.84942875900634" lon="15.080996392187064"><ele>11.999999999999998</ele><time>2026-04-11T14:01:49Z</time></trkpt><trkpt lat="36.84935434488065" lon="15.080947725721646"><ele>12.0</ele><time>2026-04-11T14:01:50Z</time></trkpt><trkpt lat="36.849280602727724" lon="15.080901245235236"><ele>12.0</ele><time>2026-04-11T14:01:51Z</time></trkpt><trkpt lat="36.849215899717386" lon="15.08085864886685"><ele>12.0</ele><time>2026-04-11T14:01:52Z</time></trkpt><trkpt lat="36.84915583827055" lon="15.080817896321337"><ele>12.0</ele><time>2026-04-11T14:01:53Z</time></trkpt><trkpt lat="36.849096701632384" lon="15.08078182838886"><ele>11.999999999999998</ele><time>2026-04-11T14:01:54Z</time></trkpt><trkpt lat="36.84903223471654" lon="15.080750126291788"><ele>12.0</ele><time>2026-04-11T14:01:55Z</time></trkpt><trkpt lat="36.84895923932239" lon="15.080718669032152"><ele>11.5</ele><time>2026-04-11T14:01:56Z</time></trkpt><trkpt lat="36.848880379098766" lon="15.080678892893129"><ele>11.0</ele><time>2026-04-11T14:01:57Z</time></trkpt><trkpt lat="36.84881054875416" lon="15.080640548757383"><ele>10.5</ele><time>2026-04-11T14:01:58Z</time></trkpt><trkpt lat="36.84874674921902" lon="15.080607642849657"><ele>10.0</ele><time>2026-04-11T14:01:59Z</time></trkpt><trkpt lat="36.84863023679798" lon="15.080573776934065"><ele>9.5</ele><time>2026-04-11T14:02:01Z</time></trkpt><trkpt lat="36.8485608643314" lon="15.080557817176619"><ele>9.0</ele><time>2026-04-11T14:02:02Z</time></trkpt><trkpt lat="36.84849000633653" lon="15.080539847570414"><ele>8.75</ele><time>2026-04-11T14:02:03Z</time></trkpt><trkpt lat="36.84840918617142" lon="15.080516370868542"><ele>8.5</ele><time>2026-04-11T14:02:04Z</time></trkpt><trkpt lat="36.84831406768665" lon="15.080485791347792"><ele>8.25</ele><time>2026-04-11T14:02:05Z</time></trkpt><trkpt lat="36.848230565257026" lon="15.08045464743705"><ele>8.0</ele><time>2026-04-11T14:02:05.999Z</time></trkpt><trkpt lat="36.84818019970836" lon="15.080195027716321"><ele>7.999999999999999</ele><time>2026-04-11T14:02:06.999Z</time></trkpt><trkpt lat="36.84809077723089" lon="15.080182660475803"><ele>8.0</ele><time>2026-04-11T14:02:08.999Z</time></trkpt><trkpt lat="36.848000176183334" lon="15.080154896897561"><ele>8.0</ele><time>2026-04-11T14:02:12.999Z</time></trkpt><trkpt lat="36.84791425038708" lon="15.080124667989946"><ele>8.0</ele><time>2026-04-11T14:02:14.999Z</time></trkpt><trkpt lat="36.84781571357313" lon="15.080072217547407"><ele>7.999999999999999</ele><time>2026-04-11T14:02:16.999Z</time></trkpt><trkpt lat="36.84776303846426" lon="15.080026208367661"><ele>8.0</ele><time>2026-04-11T14:02:17.999Z</time></trkpt><trkpt lat="36.84771902172675" lon="15.079953187039301"><ele>8.166666666666666</ele><time>2026-04-11T14:02:18.999Z</time></trkpt><trkpt lat="36.847692338787276" lon="15.07986677058106"><ele>8.333333333333332</ele><time>2026-04-11T14:02:19.999Z</time></trkpt><trkpt lat="36.847672340690224" lon="15.079760000911426"><ele>8.5</ele><time>2026-04-11T14:02:20.999Z</time></trkpt><trkpt lat="36.847658158330944" lon="15.079648449786296"><ele>8.666666666666666</ele><time>2026-04-11T14:02:21.999Z</time></trkpt><trkpt lat="36.847650370997904" lon="15.07953683703714"><ele>8.833333333333334</ele><time>2026-04-11T14:02:22.999Z</time></trkpt><trkpt lat="36.84763512354042" lon="15.079424581961973"><ele>9.0</ele><time>2026-04-11T14:02:23.999Z</time></trkpt><trkpt lat="36.84758008986437" lon="15.079317881928585"><ele>9.0</ele><time>2026-04-11T14:02:24.999Z</time></trkpt><trkpt lat="36.84752071554254" lon="15.079257556258339"><ele>9.0</ele><time>2026-04-11T14:02:25.999Z</time></trkpt><trkpt lat="36.84743057142578" lon="15.079226331358962"><ele>9.0</ele><time>2026-04-11T14:02:27.999Z</time></trkpt><trkpt lat="36.84733823474121" lon="15.079381761378663"><ele>9.0</ele><time>2026-04-11T14:02:59.999Z</time></trkpt><trkpt lat="36.84734594881727" lon="15.079529109170382"><ele>9.0</ele><time>2026-04-11T14:03:00.999Z</time></trkpt><trkpt lat="36.847352899565905" lon="15.079661876592143"><ele>9.0</ele><time>2026-04-11T14:03:01.999Z</time></trkpt><trkpt lat="36.8473596779405" lon="15.079791351139729"><ele>9.0</ele><time>2026-04-11T14:03:02.999Z</time></trkpt><trkpt lat="36.84735617976384" lon="15.079939580423025"><ele>9.0</ele><time>2026-04-11T14:03:03.999Z</time></trkpt><trkpt lat="36.84733624482484" lon="15.08009447407858"><ele>9.0</ele><time>2026-04-11T14:03:04.999Z</time></trkpt><trkpt lat="36.847289141918864" lon="15.080227448169662"><ele>9.0</ele><time>2026-04-11T14:03:05.999Z</time></trkpt><trkpt lat="36.84717063908759" lon="15.080315822615429"><ele>9.0</ele><time>2026-04-11T14:03:06.999Z</time></trkpt><trkpt lat="36.84707184704734" lon="15.080434474348"><ele>9.0</ele><time>2026-04-11T14:03:07.999Z</time></trkpt><trkpt lat="36.84695079934112" lon="15.08051152039933"><ele>9.0</ele><time>2026-04-11T14:03:08.999Z</time></trkpt><trkpt lat="36.846801321998655" lon="15.08053879477332"><ele>8.666666666666666</ele><time>2026-04-11T14:03:09.999Z</time></trkpt><trkpt lat="36.8466053739329" lon="15.080522187647288"><ele>8.333333333333332</ele><time>2026-04-11T14:03:10.999Z</time></trkpt><trkpt lat="36.846403808306135" lon="15.080494969847287"><ele>8.0</ele><time>2026-04-11T14:03:11.999Z</time></trkpt><trkpt lat="36.846219150559634" lon="15.080464575999187"><ele>8.0</ele><time>2026-04-11T14:03:12.999Z</time></trkpt><trkpt lat="36.84601826055771" lon="15.080436684109326"><ele>8.0</ele><time>2026-04-11T14:03:13.999Z</time></trkpt><trkpt lat="36.84581611681395" lon="15.080414309409253"><ele>8.0</ele><time>2026-04-11T14:03:14.998Z</time></trkpt><trkpt lat="36.84561145453579" lon="15.080392152577497"><ele>8.666666666666666</ele><time>2026-04-11T14:03:15.998Z</time></trkpt><trkpt lat="36.845409049540855" lon="15.080371371136927"><ele>9.333333333333334</ele><time>2026-04-11T14:03:16.998Z</time></trkpt><trkpt lat="36.845206964790556" lon="15.080350778586997"><ele>10.0</ele><time>2026-04-11T14:03:17.998Z</time></trkpt><trkpt lat="36.84499923685857" lon="15.080331973484217"><ele>10.0</ele><time>2026-04-11T14:03:18.998Z</time></trkpt><trkpt lat="36.844789688792126" lon="15.080315400516248"><ele>10.0</ele><time>2026-04-11T14:03:19.998Z</time></trkpt><trkpt lat="36.844573793816856" lon="15.080309234405167"><ele>10.0</ele><time>2026-04-11T14:03:20.998Z</time></trkpt><trkpt lat="36.844362322528056" lon="15.080325223453903"><ele>10.0</ele><time>2026-04-11T14:03:21.998Z</time></trkpt><trkpt lat="36.84413961877997" lon="15.080361622154586"><ele>10.0</ele><time>2026-04-11T14:03:22.998Z</time></trkpt><trkpt lat="36.84391880456109" lon="15.080414641620996"><ele>10.0</ele><time>2026-04-11T14:03:23.998Z</time></trkpt><trkpt lat="36.84368914418678" lon="15.0804766714599"><ele>9.5</ele><time>2026-04-11T14:03:24.998Z</time></trkpt><trkpt lat="36.84345946391735" lon="15.080546506590805"><ele>9.0</ele><time>2026-04-11T14:03:26Z</time></trkpt><trkpt lat="36.843235387882025" lon="15.080616943956883"><ele>9.0</ele><time>2026-04-11T14:03:27Z</time></trkpt><trkpt lat="36.84301402625148" lon="15.080686919710002"><ele>9.0</ele><time>2026-04-11T14:03:28Z</time></trkpt><trkpt lat="36.84279799260267" lon="15.080752000020489"><ele>9.0</ele><time>2026-04-11T14:03:29Z</time></trkpt><trkpt lat="36.84260052999062" lon="15.080816350427419"><ele>9.0</ele><time>2026-04-11T14:03:30Z</time></trkpt><trkpt lat="36.84239422212242" lon="15.080880209510537"><ele>9.0</ele><time>2026-04-11T14:03:31Z</time></trkpt><trkpt lat="36.842192783742085" lon="15.080946359522635"><ele>9.0</ele><time>2026-04-11T14:03:32Z</time></trkpt><trkpt lat="36.841991955774894" lon="15.081018283274846"><ele>9.0</ele><time>2026-04-11T14:03:33Z</time></trkpt><trkpt lat="36.84179905286153" lon="15.081107548715853"><ele>9.0</ele><time>2026-04-11T14:03:34Z</time></trkpt><trkpt lat="36.84160609603793" lon="15.081213711329337"><ele>9.0</ele><time>2026-04-11T14:03:35Z</time></trkpt><trkpt lat="36.841416311994685" lon="15.081342178836131"><ele>9.0</ele><time>2026-04-11T14:03:36Z</time></trkpt><trkpt lat="36.84122893365757" lon="15.08148573430714"><ele>9.0</ele><time>2026-04-11T14:03:37Z</time></trkpt><trkpt lat="36.84105196112282" lon="15.081637359115017"><ele>9.333333333333334</ele><time>2026-04-11T14:03:38Z</time></trkpt><trkpt lat="36.840883239543295" lon="15.08179540865871"><ele>9.666666666666668</ele><time>2026-04-11T14:03:39Z</time></trkpt><trkpt lat="36.840703508810506" lon="15.081940027171614"><ele>10.0</ele><time>2026-04-11T14:03:40Z</time></trkpt><trkpt lat="36.84054020514062" lon="15.082104916066845"><ele>10.0</ele><time>2026-04-11T14:03:41Z</time></trkpt><trkpt lat="36.84037271571732" lon="15.082274031316585"><ele>10.0</ele><time>2026-04-11T14:03:42Z</time></trkpt><trkpt lat="36.84021201044327" lon="15.08243629657118"><ele>10.0</ele><time>2026-04-11T14:03:43Z</time></trkpt><trkpt lat="36.84005564687771" lon="15.082616833548293"><ele>9.666666666666668</ele><time>2026-04-11T14:03:44Z</time></trkpt><trkpt lat="36.83989500301329" lon="15.082778764316592"><ele>9.333333333333334</ele><time>2026-04-11T14:03:45Z</time></trkpt><trkpt lat="36.839738440991304" lon="15.082937889391252"><ele>9.0</ele><time>2026-04-11T14:03:46Z</time></trkpt><trkpt lat="36.83958280747886" lon="15.08309542228713"><ele>9.0</ele><time>2026-04-11T14:03:47Z</time></trkpt><trkpt lat="36.8394214546797" lon="15.083255452238872"><ele>9.0</ele><time>2026-04-11T14:03:48Z</time></trkpt><trkpt lat="36.8392685549111" lon="15.083412500867112"><ele>9.0</ele><time>2026-04-11T14:03:49Z</time></trkpt><trkpt lat="36.83911461863208" lon="15.083543066826042"><ele>9.666666666666666</ele><time>2026-04-11T14:03:50Z</time></trkpt><trkpt lat="36.83897998295748" lon="15.083678682746406"><ele>10.333333333333332</ele><time>2026-04-11T14:03:51Z</time></trkpt><trkpt lat="36.83885175603487" lon="15.083807843238894"><ele>11.0</ele><time>2026-04-11T14:03:52Z</time></trkpt><trkpt lat="36.83872745288972" lon="15.083933051368223"><ele>11.0</ele><time>2026-04-11T14:03:53Z</time></trkpt><trkpt lat="36.838610444430756" lon="15.084076410563629"><ele>11.0</ele><time>2026-04-11T14:03:54Z</time></trkpt><trkpt lat="36.83848354270069" lon="15.084204730335248"><ele>11.0</ele><time>2026-04-11T14:03:55Z</time></trkpt><trkpt lat="36.83835689463766" lon="15.084327593060864"><ele>11.0</ele><time>2026-04-11T14:03:56Z</time></trkpt><trkpt lat="36.83822826987793" lon="15.084438391937725"><ele>11.0</ele><time>2026-04-11T14:03:57Z</time></trkpt><trkpt lat="36.83809976549899" lon="15.084540887208293"><ele>11.0</ele><time>2026-04-11T14:03:58Z</time></trkpt><trkpt lat="36.83796407011213" lon="15.084622282558579"><ele>11.0</ele><time>2026-04-11T14:03:59Z</time></trkpt><trkpt lat="36.83783819555745" lon="15.084725913397351"><ele>11.0</ele><time>2026-04-11T14:04:00Z</time></trkpt><trkpt lat="36.83770474859758" lon="15.084790365017088"><ele>11.0</ele><time>2026-04-11T14:04:01Z</time></trkpt><trkpt lat="36.83756065553766" lon="15.084843118191158"><ele>11.0</ele><time>2026-04-11T14:04:02Z</time></trkpt><trkpt lat="36.83741312705207" lon="15.08489927808264"><ele>12.0</ele><time>2026-04-11T14:04:03Z</time></trkpt><trkpt lat="36.8372603862096" lon="15.084948309935122"><ele>13.0</ele><time>2026-04-11T14:04:04Z</time></trkpt><trkpt lat="36.83710162228829" lon="15.084983228315945"><ele>14.0</ele><time>2026-04-11T14:04:05Z</time></trkpt><trkpt lat="36.83692793376119" lon="15.085014037580793"><ele>15.666666666666668</ele><time>2026-04-11T14:04:06Z</time></trkpt><trkpt lat="36.836746422723316" lon="15.08503528955358"><ele>17.333333333333332</ele><time>2026-04-11T14:04:07Z</time></trkpt><trkpt lat="36.836558340333525" lon="15.085034432546461"><ele>19.0</ele><time>2026-04-11T14:04:08Z</time></trkpt><trkpt lat="36.83634609023342" lon="15.08501520731244"><ele>19.0</ele><time>2026-04-11T14:04:09Z</time></trkpt><trkpt lat="36.83613763444993" lon="15.08497512237173"><ele>19.0</ele><time>2026-04-11T14:04:10Z</time></trkpt><trkpt lat="36.835933337101565" lon="15.084915829552248"><ele>19.0</ele><time>2026-04-11T14:04:11Z</time></trkpt><trkpt lat="36.83574481917652" lon="15.08484666315224"><ele>21.666666666666664</ele><time>2026-04-11T14:04:11.999Z</time></trkpt><trkpt lat="36.83557013223466" lon="15.084769603588871"><ele>24.333333333333332</ele><time>2026-04-11T14:04:12.999Z</time></trkpt><trkpt lat="36.83539999443738" lon="15.084679286127766"><ele>27.0</ele><time>2026-04-11T14:04:13.999Z</time></trkpt><trkpt lat="36.83523212970898" lon="15.08458612349997"><ele>26.333333333333336</ele><time>2026-04-11T14:04:14.999Z</time></trkpt><trkpt lat="36.8350683145523" lon="15.084493793123025"><ele>25.666666666666668</ele><time>2026-04-11T14:04:15.999Z</time></trkpt><trkpt lat="36.83490916311891" lon="15.08439995447966"><ele>25.0</ele><time>2026-04-11T14:04:16.999Z</time></trkpt><trkpt lat="36.83474460818468" lon="15.084307963382816"><ele>25.0</ele><time>2026-04-11T14:04:17.999Z</time></trkpt><trkpt lat="36.83457939932036" lon="15.084222359483121"><ele>25.0</ele><time>2026-04-11T14:04:18.999Z</time></trkpt><trkpt lat="36.83441990359844" lon="15.084140274165037"><ele>25.0</ele><time>2026-04-11T14:04:19.999Z</time></trkpt><trkpt lat="36.83425569792168" lon="15.084046483218442"><ele>26.333333333333336</ele><time>2026-04-11T14:04:20.999Z</time></trkpt><trkpt lat="36.83409584569174" lon="15.083952352153362"><ele>27.666666666666664</ele><time>2026-04-11T14:04:21.999Z</time></trkpt><trkpt lat="36.833928697192725" lon="15.083863909963732"><ele>29.0</ele><time>2026-04-11T14:04:22.999Z</time></trkpt><trkpt lat="36.83375897266578" lon="15.08377756678248"><ele>29.0</ele><time>2026-04-11T14:04:23.999Z</time></trkpt><trkpt lat="36.83358786785506" lon="15.08369416045397"><ele>29.0</ele><time>2026-04-11T14:04:24.999Z</time></trkpt><trkpt lat="36.8334070451953" lon="15.083618549800532"><ele>29.0</ele><time>2026-04-11T14:04:25.999Z</time></trkpt><trkpt lat="36.83322565972203" lon="15.083552102957023"><ele>28.333333333333332</ele><time>2026-04-11T14:04:26.999Z</time></trkpt><trkpt lat="36.83304599167398" lon="15.083488387074446"><ele>27.666666666666664</ele><time>2026-04-11T14:04:27.999Z</time></trkpt><trkpt lat="36.83286492389401" lon="15.083435986779193"><ele>27.0</ele><time>2026-04-11T14:04:28.999Z</time></trkpt><trkpt lat="36.83267622358014" lon="15.083391883417786"><ele>27.0</ele><time>2026-04-11T14:04:29.999Z</time></trkpt><trkpt lat="36.83249396799711" lon="15.083356337864188"><ele>27.0</ele><time>2026-04-11T14:04:30.999Z</time></trkpt><trkpt lat="36.83230841626698" lon="15.0833289188555"><ele>27.0</ele><time>2026-04-11T14:04:31.999Z</time></trkpt><trkpt lat="36.832128649888375" lon="15.083314409918138"><ele>27.0</ele><time>2026-04-11T14:04:32.999Z</time></trkpt><trkpt lat="36.83195148326867" lon="15.083307475037229"><ele>27.0</ele><time>2026-04-11T14:04:33.999Z</time></trkpt><trkpt lat="36.83178284777238" lon="15.083296667193792"><ele>27.0</ele><time>2026-04-11T14:04:34.999Z</time></trkpt><trkpt lat="36.83162037969039" lon="15.083293438709788"><ele>26.333333333333336</ele><time>2026-04-11T14:04:35.999Z</time></trkpt><trkpt lat="36.831452041503425" lon="15.083294276948145"><ele>25.666666666666668</ele><time>2026-04-11T14:04:36.999Z</time></trkpt><trkpt lat="36.83128570409784" lon="15.083294782797703"><ele>25.0</ele><time>2026-04-11T14:04:37.999Z</time></trkpt><trkpt lat="36.83112706577915" lon="15.083290926491705"><ele>24.25</ele><time>2026-04-11T14:04:38.999Z</time></trkpt><trkpt lat="36.83097186817845" lon="15.083288543737055"><ele>23.5</ele><time>2026-04-11T14:04:39.999Z</time></trkpt><trkpt lat="36.830826982558634" lon="15.083288954074613"><ele>22.75</ele><time>2026-04-11T14:04:40.999Z</time></trkpt><trkpt lat="36.83069206042711" lon="15.083286119510138"><ele>22.0</ele><time>2026-04-11T14:04:41.999Z</time></trkpt><trkpt lat="36.830562874108665" lon="15.083279271413803"><ele>22.0</ele><time>2026-04-11T14:04:42.999Z</time></trkpt><trkpt lat="36.83043321642802" lon="15.08327876454358"><ele>22.0</ele><time>2026-04-11T14:04:43.999Z</time></trkpt><trkpt lat="36.830311164941534" lon="15.083273761979523"><ele>22.0</ele><time>2026-04-11T14:04:44.999Z</time></trkpt><trkpt lat="36.8301962718214" lon="15.0832693996673"><ele>22.0</ele><time>2026-04-11T14:04:45.999Z</time></trkpt><trkpt lat="36.83007699391571" lon="15.083271940630611"><ele>21.5</ele><time>2026-04-11T14:04:46.999Z</time></trkpt><trkpt lat="36.82994484945781" lon="15.083272722154412"><ele>21.0</ele><time>2026-04-11T14:04:47.999Z</time></trkpt><trkpt lat="36.82981235328871" lon="15.083271745775319"><ele>20.5</ele><time>2026-04-11T14:04:48.999Z</time></trkpt><trkpt lat="36.82968735440915" lon="15.08327830786722"><ele>20.0</ele><time>2026-04-11T14:04:49.999Z</time></trkpt><trkpt lat="36.829577629272855" lon="15.08329554412909"><ele>20.0</ele><time>2026-04-11T14:04:50.999Z</time></trkpt><trkpt lat="36.829480178099985" lon="15.083303071473754"><ele>20.0</ele><time>2026-04-11T14:04:51.999Z</time></trkpt><trkpt lat="36.82941158496499" lon="15.08335117324047"><ele>20.0</ele><time>2026-04-11T14:04:52.999Z</time></trkpt><trkpt lat="36.8293532414437" lon="15.08339692501563"><ele>20.0</ele><time>2026-04-11T14:05:02.999Z</time></trkpt><trkpt lat="36.8292199058859" lon="15.08335468054447"><ele>20.0</ele><time>2026-04-11T14:05:05.999Z</time></trkpt><trkpt lat="36.829124824475144" lon="15.083378495317229"><ele>21.0</ele><time>2026-04-11T14:05:06.999Z</time></trkpt><trkpt lat="36.82904104376889" lon="15.083356765200936"><ele>22.0</ele><time>2026-04-11T14:05:07.999Z</time></trkpt><trkpt lat="36.828963670114916" lon="15.083368690470252"><ele>23.0</ele><time>2026-04-11T14:05:08.999Z</time></trkpt><trkpt lat="36.82889875228932" lon="15.08339599790862"><ele>24.0</ele><time>2026-04-11T14:05:09.999Z</time></trkpt><trkpt lat="36.82878936845767" lon="15.083399402523545"><ele>25.0</ele><time>2026-04-11T14:05:11.999Z</time></trkpt><trkpt lat="36.82871642925411" lon="15.083524409475663"><ele>25.0</ele><time>2026-04-11T14:05:13.999Z</time></trkpt><trkpt lat="36.828696827800904" lon="15.083691302823983"><ele>25.0</ele><time>2026-04-11T14:05:15.999Z</time></trkpt><trkpt lat="36.828684460570734" lon="15.083782205483699"><ele>25.0</ele><time>2026-04-11T14:05:16.999Z</time></trkpt><trkpt lat="36.82867346971732" lon="15.083862991352644"><ele>25.0</ele><time>2026-04-11T14:05:17.999Z</time></trkpt><trkpt lat="36.82865472239649" lon="15.083989476831984"><ele>25.0</ele><time>2026-04-11T14:05:19.999Z</time></trkpt><trkpt lat="36.82863543946529" lon="15.084112990338271"><ele>25.0</ele><time>2026-04-11T14:05:21.998Z</time></trkpt><trkpt lat="36.82863201414974" lon="15.084211281962883"><ele>25.0</ele><time>2026-04-11T14:05:23.998Z</time></trkpt><trkpt lat="36.828615530831776" lon="15.084291661368075"><ele>25.0</ele><time>2026-04-11T14:05:25.998Z</time></trkpt><trkpt lat="36.82843892172304" lon="15.084227970850211"><ele>25.0</ele><time>2026-04-11T14:05:29.998Z</time></trkpt><trkpt lat="36.82831945422924" lon="15.084170388983683"><ele>25.0</ele><time>2026-04-11T14:05:30.998Z</time></trkpt><trkpt lat="36.8281543114911" lon="15.084116863505896"><ele>25.0</ele><time>2026-04-11T14:05:32Z</time></trkpt><trkpt lat="36.82799568060724" lon="15.084088317972132"><ele>25.0</ele><time>2026-04-11T14:05:33Z</time></trkpt><trkpt lat="36.82787107234292" lon="15.084041580137512"><ele>25.0</ele><time>2026-04-11T14:05:34Z</time></trkpt><trkpt lat="36.82772449401504" lon="15.083994684195545"><ele>25.0</ele><time>2026-04-11T14:05:35Z</time></trkpt><trkpt lat="36.82758066186895" lon="15.083954904799834"><ele>25.0</ele><time>2026-04-11T14:05:36Z</time></trkpt><trkpt lat="36.82745509578691" lon="15.08391977308683"><ele>25.0</ele><time>2026-04-11T14:05:37Z</time></trkpt><trkpt lat="36.827330503399864" lon="15.083891188681589"><ele>25.0</ele><time>2026-04-11T14:05:38Z</time></trkpt><trkpt lat="36.827211252040115" lon="15.083866167230292"><ele>25.0</ele><time>2026-04-11T14:05:39Z</time></trkpt><trkpt lat="36.82711998247806" lon="15.083840559583196"><ele>25.0</ele><time>2026-04-11T14:05:40Z</time></trkpt><trkpt lat="36.82703272108832" lon="15.083821002791332"><ele>25.0</ele><time>2026-04-11T14:05:41Z</time></trkpt><trkpt lat="36.826950287485886" lon="15.08380198235993"><ele>25.0</ele><time>2026-04-11T14:05:42Z</time></trkpt><trkpt lat="36.826855417312046" lon="15.08378573795829"><ele>25.2</ele><time>2026-04-11T14:05:43Z</time></trkpt><trkpt lat="36.82676100498848" lon="15.083771561358157"><ele>25.4</ele><time>2026-04-11T14:05:44Z</time></trkpt><trkpt lat="36.826648689437896" lon="15.083760838301556"><ele>25.6</ele><time>2026-04-11T14:05:45Z</time></trkpt><trkpt lat="36.82652207813623" lon="15.083745082390111"><ele>25.8</ele><time>2026-04-11T14:05:46Z</time></trkpt><trkpt lat="36.82642342038141" lon="15.083743221015785"><ele>26.0</ele><time>2026-04-11T14:05:47Z</time></trkpt><trkpt lat="36.826338150363725" lon="15.083736619552665"><ele>25.999999999999996</ele><time>2026-04-11T14:05:48Z</time></trkpt><trkpt lat="36.82626321526993" lon="15.083733748662732"><ele>26.0</ele><time>2026-04-11T14:05:49Z</time></trkpt><trkpt lat="36.82618832404289" lon="15.083730464772907"><ele>26.0</ele><time>2026-04-11T14:05:50Z</time></trkpt><trkpt lat="36.82612259774255" lon="15.083726024541383"><ele>26.0</ele><time>2026-04-11T14:05:51Z</time></trkpt><trkpt lat="36.82601179686258" lon="15.08373115778689"><ele>25.999999999999996</ele><time>2026-04-11T14:05:53Z</time></trkpt><trkpt lat="36.825917615056255" lon="15.083816729539139"><ele>26.0</ele><time>2026-04-11T14:05:55Z</time></trkpt><trkpt lat="36.82585753201459" lon="15.083866713603177"><ele>26.200000000000003</ele><time>2026-04-11T14:05:56Z</time></trkpt><trkpt lat="36.825764431890924" lon="15.08394570698989"><ele>26.400000000000002</ele><time>2026-04-11T14:05:58Z</time></trkpt><trkpt lat="36.82566323834549" lon="15.083861164108788"><ele>26.6</ele><time>2026-04-11T14:06:00Z</time></trkpt><trkpt lat="36.82561201477766" lon="15.083801720641077"><ele>26.8</ele><time>2026-04-11T14:06:01Z</time></trkpt><trkpt lat="36.82552902731142" lon="15.083693673553269"><ele>27.0</ele><time>2026-04-11T14:06:03Z</time></trkpt><trkpt lat="36.82546543644254" lon="15.08365763298577"><ele>27.0</ele><time>2026-04-11T14:06:04Z</time></trkpt><trkpt lat="36.82539254304709" lon="15.083648749554255"><ele>27.0</ele><time>2026-04-11T14:06:05Z</time></trkpt><trkpt lat="36.825327859320836" lon="15.08365330566253"><ele>27.0</ele><time>2026-04-11T14:06:06Z</time></trkpt><trkpt lat="36.82524297964032" lon="15.083629868480454"><ele>27.0</ele><time>2026-04-11T14:06:08Z</time></trkpt><trkpt lat="36.825164987356594" lon="15.08363887880041"><ele>27.0</ele><time>2026-04-11T14:06:11Z</time></trkpt><trkpt lat="36.82508230895267" lon="15.083636012801747"><ele>27.0</ele><time>2026-04-11T14:06:13Z</time></trkpt><trkpt lat="36.82498638562112" lon="15.08363505283184"><ele>27.0</ele><time>2026-04-11T14:06:15Z</time></trkpt><trkpt lat="36.82492279870391" lon="15.083523164957244"><ele>27.0</ele><time>2026-04-11T14:06:16Z</time></trkpt><trkpt lat="36.82484542568131" lon="15.083514938472007"><ele>27.0</ele><time>2026-04-11T14:06:17Z</time></trkpt><trkpt lat="36.82473135651818" lon="15.083642769563337"><ele>27.0</ele><time>2026-04-11T14:06:18.999Z</time></trkpt><trkpt lat="36.82461140353076" lon="15.08364215811665"><ele>27.0</ele><time>2026-04-11T14:06:20.999Z</time></trkpt><trkpt lat="36.82453875417285" lon="15.083641787021797"><ele>27.0</ele><time>2026-04-11T14:06:21.999Z</time></trkpt><trkpt lat="36.8244655437662" lon="15.083640417602059"><ele>27.0</ele><time>2026-04-11T14:06:22.999Z</time></trkpt><trkpt lat="36.82434792971574" lon="15.083638115625138"><ele>27.0</ele><time>2026-04-11T14:06:24.999Z</time></trkpt><trkpt lat="36.824282559491614" lon="15.083636836184013"><ele>27.0</ele><time>2026-04-11T14:06:25.999Z</time></trkpt><trkpt lat="36.82421031535909" lon="15.083637261911026"><ele>27.0</ele><time>2026-04-11T14:06:26.999Z</time></trkpt><trkpt lat="36.8241265700108" lon="15.083638833227218"><ele>27.0</ele><time>2026-04-11T14:06:27.999Z</time></trkpt><trkpt lat="36.8240344955745" lon="15.08361959316549"><ele>27.000000000000004</ele><time>2026-04-11T14:06:28.999Z</time></trkpt><trkpt lat="36.82394849302895" lon="15.083613901767656"><ele>27.000000000000004</ele><time>2026-04-11T14:06:29.999Z</time></trkpt><trkpt lat="36.82386682842322" lon="15.083620784813291"><ele>27.0</ele><time>2026-04-11T14:06:30.999Z</time></trkpt><trkpt lat="36.823764757196855" lon="15.083626968687074"><ele>27.0</ele><time>2026-04-11T14:06:31.999Z</time></trkpt><trkpt lat="36.82365784893881" lon="15.083618046378689"><ele>27.0</ele><time>2026-04-11T14:06:32.999Z</time></trkpt><trkpt lat="36.82356373639211" lon="15.08360377931451"><ele>27.000000000000004</ele><time>2026-04-11T14:06:33.999Z</time></trkpt><trkpt lat="36.823480573803" lon="15.083597347626178"><ele>27.000000000000004</ele><time>2026-04-11T14:06:34.999Z</time></trkpt><trkpt lat="36.82338039160759" lon="15.083599574860397"><ele>27.0</ele><time>2026-04-11T14:06:35.999Z</time></trkpt><trkpt lat="36.823266227586174" lon="15.083585819570242"><ele>27.0</ele><time>2026-04-11T14:06:36.999Z</time></trkpt><trkpt lat="36.82317480447619" lon="15.083569504446631"><ele>27.0</ele><time>2026-04-11T14:06:37.999Z</time></trkpt><trkpt lat="36.82307855685246" lon="15.083562025968742"><ele>27.000000000000004</ele><time>2026-04-11T14:06:38.999Z</time></trkpt><trkpt lat="36.82298002390713" lon="15.083559441596483"><ele>27.000000000000004</ele><time>2026-04-11T14:06:39.999Z</time></trkpt><trkpt lat="36.82287771725458" lon="15.083557117763597"><ele>27.0</ele><time>2026-04-11T14:06:40.999Z</time></trkpt><trkpt lat="36.822765446959565" lon="15.083544085380584"><ele>27.0</ele><time>2026-04-11T14:06:41.999Z</time></trkpt><trkpt lat="36.822679798751" lon="15.08353435302626"><ele>27.166666666666668</ele><time>2026-04-11T14:06:42.999Z</time></trkpt><trkpt lat="36.822597600988225" lon="15.08352756815673"><ele>27.333333333333336</ele><time>2026-04-11T14:06:43.999Z</time></trkpt><trkpt lat="36.82251871822658" lon="15.083521056898967"><ele>27.5</ele><time>2026-04-11T14:06:44.999Z</time></trkpt><trkpt lat="36.82243027921805" lon="15.083497883257374"><ele>27.666666666666668</ele><time>2026-04-11T14:06:45.999Z</time></trkpt><trkpt lat="36.822355126827865" lon="15.083472285901708"><ele>27.833333333333336</ele><time>2026-04-11T14:06:46.999Z</time></trkpt><trkpt lat="36.82226766955726" lon="15.083484958756681"><ele>28.0</ele><time>2026-04-11T14:06:47.999Z</time></trkpt><trkpt lat="36.82217579074993" lon="15.083498272316891"><ele>28.0</ele><time>2026-04-11T14:06:48.999Z</time></trkpt><trkpt lat="36.822129009819164" lon="15.083580525740045"><ele>27.999999999999996</ele><time>2026-04-11T14:06:49.999Z</time></trkpt><trkpt lat="36.82202182602266" lon="15.083622344485041"><ele>27.999999999999996</ele><time>2026-04-11T14:06:50.999Z</time></trkpt><trkpt lat="36.821915066322475" lon="15.083659693944755"><ele>28.0</ele><time>2026-04-11T14:06:51.999Z</time></trkpt><trkpt lat="36.8218868484242" lon="15.083737962576306"><ele>28.0</ele><time>2026-04-11T14:06:52.999Z</time></trkpt><trkpt lat="36.82156766890702" lon="15.083285479353062"><ele>27.75</ele><time>2026-04-11T14:06:53.999Z</time></trkpt><trkpt lat="36.8214509467362" lon="15.083273210935896"><ele>27.5</ele><time>2026-04-11T14:06:54.999Z</time></trkpt><trkpt lat="36.82133376822739" lon="15.083260285661023"><ele>27.25</ele><time>2026-04-11T14:06:55.999Z</time></trkpt><trkpt lat="36.82120810983024" lon="15.08325104453036"><ele>27.0</ele><time>2026-04-11T14:06:56.999Z</time></trkpt><trkpt lat="36.82106924057978" lon="15.08281322115474"><ele>27.0</ele><time>2026-04-11T14:06:57.999Z</time></trkpt><trkpt lat="36.820959861678354" lon="15.082818428691162"><ele>27.000000000000004</ele><time>2026-04-11T14:06:58.999Z</time></trkpt><trkpt lat="36.820862870882486" lon="15.082823046423085"><ele>27.000000000000004</ele><time>2026-04-11T14:06:59.999Z</time></trkpt><trkpt lat="36.82076818530493" lon="15.082827554407126"><ele>27.0</ele><time>2026-04-11T14:07:00.999Z</time></trkpt><trkpt lat="36.82067576289502" lon="15.082831954641215"><ele>27.0</ele><time>2026-04-11T14:07:01.999Z</time></trkpt><trkpt lat="36.820583573316526" lon="15.082836343790275"><ele>27.0</ele><time>2026-04-11T14:07:02.999Z</time></trkpt><trkpt lat="36.82049841726698" lon="15.082840398070593"><ele>27.0</ele><time>2026-04-11T14:07:03.999Z</time></trkpt><trkpt lat="36.82041330098931" lon="15.082844450461378"><ele>27.0</ele><time>2026-04-11T14:07:04.999Z</time></trkpt><trkpt lat="36.82033342688982" lon="15.08284825326811"><ele>27.0</ele><time>2026-04-11T14:07:05.999Z</time></trkpt><trkpt lat="36.82025925457003" lon="15.082851784615274"><ele>27.0</ele><time>2026-04-11T14:07:06.999Z</time></trkpt><trkpt lat="36.82017547003215" lon="15.082855773598098"><ele>27.0</ele><time>2026-04-11T14:07:07.999Z</time></trkpt><trkpt lat="36.820095106537096" lon="15.082859599707373"><ele>27.0</ele><time>2026-04-11T14:07:08.999Z</time></trkpt><trkpt lat="36.820011596190746" lon="15.082863575636669"><ele>27.0</ele><time>2026-04-11T14:07:09.999Z</time></trkpt><trkpt lat="36.819936900106036" lon="15.08286713192053"><ele>27.0</ele><time>2026-04-11T14:07:10.999Z</time></trkpt><trkpt lat="36.81988512117529" lon="15.083160931344995"><ele>27.0</ele><time>2026-04-11T14:07:11.999Z</time></trkpt><trkpt lat="36.819759513655235" lon="15.083149430507968"><ele>27.0</ele><time>2026-04-11T14:07:13.999Z</time></trkpt><trkpt lat="36.81968941984131" lon="15.08314650052576"><ele>27.0</ele><time>2026-04-11T14:07:14.999Z</time></trkpt><trkpt lat="36.8196140959748" lon="15.08314547503586"><ele>27.0</ele><time>2026-04-11T14:07:15.999Z</time></trkpt><trkpt lat="36.8195386799644" lon="15.083134955141325"><ele>27.0</ele><time>2026-04-11T14:07:16.999Z</time></trkpt><trkpt lat="36.81947148441455" lon="15.083131108637499"><ele>27.0</ele><time>2026-04-11T14:07:17.999Z</time></trkpt><trkpt lat="36.81939178724486" lon="15.083122435963901"><ele>27.0</ele><time>2026-04-11T14:07:18.999Z</time></trkpt><trkpt lat="36.81931524591777" lon="15.083120366769512"><ele>27.0</ele><time>2026-04-11T14:07:19.999Z</time></trkpt><trkpt lat="36.81924194887013" lon="15.083117893996427"><ele>27.166666666666668</ele><time>2026-04-11T14:07:20.999Z</time></trkpt><trkpt lat="36.81916491484359" lon="15.0831194940988"><ele>27.333333333333336</ele><time>2026-04-11T14:07:21.999Z</time></trkpt><trkpt lat="36.81908259061031" lon="15.083112729536005"><ele>27.5</ele><time>2026-04-11T14:07:22.999Z</time></trkpt><trkpt lat="36.81900133822888" lon="15.083110164086783"><ele>27.666666666666668</ele><time>2026-04-11T14:07:23.999Z</time></trkpt><trkpt lat="36.81892849005562" lon="15.083115803433781"><ele>27.833333333333336</ele><time>2026-04-11T14:07:24.999Z</time></trkpt><trkpt lat="36.8188422330542" lon="15.083114698405815"><ele>28.0</ele><time>2026-04-11T14:07:25.999Z</time></trkpt><trkpt lat="36.818762888608944" lon="15.083117072594355"><ele>28.0</ele><time>2026-04-11T14:07:26.999Z</time></trkpt><trkpt lat="36.81868877645656" lon="15.083115581609531"><ele>28.0</ele><time>2026-04-11T14:07:27.999Z</time></trkpt><trkpt lat="36.818619258219634" lon="15.083118915067041"><ele>28.0</ele><time>2026-04-11T14:07:28.998Z</time></trkpt><trkpt lat="36.8185557323237" lon="15.08312396295557"><ele>28.0</ele><time>2026-04-11T14:07:29.998Z</time></trkpt><trkpt lat="36.81849149904262" lon="15.083121159506621"><ele>28.0</ele><time>2026-04-11T14:07:30.998Z</time></trkpt><trkpt lat="36.818422974207536" lon="15.083128567790318"><ele>28.0</ele><time>2026-04-11T14:07:31.998Z</time></trkpt><trkpt lat="36.81835120991693" lon="15.083131409277149"><ele>28.0</ele><time>2026-04-11T14:07:32.998Z</time></trkpt><trkpt lat="36.81828147658802" lon="15.083134450657393"><ele>27.833333333333336</ele><time>2026-04-11T14:07:33.998Z</time></trkpt><trkpt lat="36.81821029168771" lon="15.083136348724386"><ele>27.666666666666668</ele><time>2026-04-11T14:07:34.998Z</time></trkpt><trkpt lat="36.818145164911584" lon="15.083136556670091"><ele>27.5</ele><time>2026-04-11T14:07:35.998Z</time></trkpt><trkpt lat="36.81806879954308" lon="15.083140377081257"><ele>27.333333333333336</ele><time>2026-04-11T14:07:36.998Z</time></trkpt><trkpt lat="36.81800079202431" lon="15.083143374494814"><ele>27.166666666666668</ele><time>2026-04-11T14:07:38Z</time></trkpt><trkpt lat="36.817903687316914" lon="15.083148523817652"><ele>27.0</ele><time>2026-04-11T14:07:40Z</time></trkpt><trkpt lat="36.81781914814138" lon="15.083141340204328"><ele>27.0</ele><time>2026-04-11T14:07:42Z</time></trkpt><trkpt lat="36.817744790965165" lon="15.083133398448794"><ele>27.000000000000004</ele><time>2026-04-11T14:07:44Z</time></trkpt><trkpt lat="36.817648754223114" lon="15.083145519278307"><ele>27.000000000000004</ele><time>2026-04-11T14:07:46Z</time></trkpt><trkpt lat="36.81757514674811" lon="15.08315260703014"><ele>27.0</ele><time>2026-04-11T14:07:48Z</time></trkpt><trkpt lat="36.81749317535792" lon="15.083161068739578"><ele>27.0</ele><time>2026-04-11T14:07:50Z</time></trkpt><trkpt lat="36.81736246309482" lon="15.083174887005757"><ele>26.75</ele><time>2026-04-11T14:07:52Z</time></trkpt><trkpt lat="36.81725249600424" lon="15.083186059951185"><ele>26.5</ele><time>2026-04-11T14:07:53Z</time></trkpt><trkpt lat="36.81710435086684" lon="15.083195290695361"><ele>26.25</ele><time>2026-04-11T14:07:54Z</time></trkpt><trkpt lat="36.816933313458165" lon="15.083203987775812"><ele>26.0</ele><time>2026-04-11T14:07:55Z</time></trkpt><trkpt lat="36.81678637958979" lon="15.083206704668402"><ele>25.75</ele><time>2026-04-11T14:07:56Z</time></trkpt><trkpt lat="36.816644061977435" lon="15.083215885776024"><ele>25.5</ele><time>2026-04-11T14:07:57Z</time></trkpt><trkpt lat="36.816513205858456" lon="15.083223805420268"><ele>25.25</ele><time>2026-04-11T14:07:58Z</time></trkpt><trkpt lat="36.81638246368943" lon="15.083226877348876"><ele>25.0</ele><time>2026-04-11T14:07:59Z</time></trkpt><trkpt lat="36.81625836695705" lon="15.083233096414126"><ele>25.0</ele><time>2026-04-11T14:08:00Z</time></trkpt><trkpt lat="36.81612894466991" lon="15.083236407343634"><ele>25.0</ele><time>2026-04-11T14:08:01Z</time></trkpt><trkpt lat="36.81599672993231" lon="15.083243220190818"><ele>25.0</ele><time>2026-04-11T14:08:02Z</time></trkpt><trkpt lat="36.81586483429468" lon="15.083253478831308"><ele>25.0</ele><time>2026-04-11T14:08:03Z</time></trkpt><trkpt lat="36.815727962968026" lon="15.083262390171049"><ele>24.75</ele><time>2026-04-11T14:08:04Z</time></trkpt><trkpt lat="36.815592587681785" lon="15.083267002841577"><ele>24.5</ele><time>2026-04-11T14:08:05Z</time></trkpt><trkpt lat="36.815454267509566" lon="15.083273949912199"><ele>24.25</ele><time>2026-04-11T14:08:06Z</time></trkpt><trkpt lat="36.81531816213393" lon="15.083280439967906"><ele>24.0</ele><time>2026-04-11T14:08:07Z</time></trkpt><trkpt lat="36.81518748751647" lon="15.083283048332977"><ele>23.5</ele><time>2026-04-11T14:08:08Z</time></trkpt><trkpt lat="36.815059540554934" lon="15.083291405500107"><ele>23.0</ele><time>2026-04-11T14:08:09Z</time></trkpt><trkpt lat="36.81494112361682" lon="15.083295041624524"><ele>22.5</ele><time>2026-04-11T14:08:10Z</time></trkpt><trkpt lat="36.81482939273543" lon="15.083304031597956"><ele>22.0</ele><time>2026-04-11T14:08:11Z</time></trkpt><trkpt lat="36.81472452538207" lon="15.083315636531648"><ele>22.0</ele><time>2026-04-11T14:08:12Z</time></trkpt><trkpt lat="36.814626259774066" lon="15.083325341498483"><ele>22.0</ele><time>2026-04-11T14:08:13Z</time></trkpt><trkpt lat="36.81453840356098" lon="15.083327791928976"><ele>22.0</ele><time>2026-04-11T14:08:14Z</time></trkpt><trkpt lat="36.81445979499274" lon="15.083328193453235"><ele>22.0</ele><time>2026-04-11T14:08:15Z</time></trkpt><trkpt lat="36.814394514670084" lon="15.083328792481487"><ele>22.0</ele><time>2026-04-11T14:08:16Z</time></trkpt><trkpt lat="36.814282412883834" lon="15.083337260816732"><ele>22.0</ele><time>2026-04-11T14:08:18Z</time></trkpt><trkpt lat="36.81420856560445" lon="15.08334127751086"><ele>21.8</ele><time>2026-04-11T14:08:19Z</time></trkpt><trkpt lat="36.81412748970051" lon="15.08334646128419"><ele>21.6</ele><time>2026-04-11T14:08:20Z</time></trkpt><trkpt lat="36.81404877745181" lon="15.08334606676676"><ele>21.400000000000002</ele><time>2026-04-11T14:08:21Z</time></trkpt><trkpt lat="36.813931762295304" lon="15.083354905310985"><ele>21.200000000000003</ele><time>2026-04-11T14:08:23Z</time></trkpt><trkpt lat="36.813803676906836" lon="15.083357130135987"><ele>21.0</ele><time>2026-04-11T14:08:25Z</time></trkpt><trkpt lat="36.81373031177818" lon="15.083363367478018"><ele>21.0</ele><time>2026-04-11T14:08:25.999Z</time></trkpt><trkpt lat="36.81366653528166" lon="15.083368989952021"><ele>21.0</ele><time>2026-04-11T14:08:26.999Z</time></trkpt><trkpt lat="36.8135957056172" lon="15.08338070318902"><ele>21.0</ele><time>2026-04-11T14:08:28.999Z</time></trkpt><trkpt lat="36.81350056225877" lon="15.083372717256426"><ele>21.0</ele><time>2026-04-11T14:08:30.999Z</time></trkpt><trkpt lat="36.81343346217217" lon="15.083375663357009"><ele>21.0</ele><time>2026-04-11T14:08:31.999Z</time></trkpt><trkpt lat="36.81331278612714" lon="15.083378842097835"><ele>21.0</ele><time>2026-04-11T14:08:33.999Z</time></trkpt><trkpt lat="36.813186834841126" lon="15.083387730910177"><ele>20.714285714285715</ele><time>2026-04-11T14:08:35.999Z</time></trkpt><trkpt lat="36.81311921071519" lon="15.083392692797364"><ele>20.42857142857143</ele><time>2026-04-11T14:08:36.999Z</time></trkpt><trkpt lat="36.81305193180712" lon="15.08340039919797"><ele>20.142857142857142</ele><time>2026-04-11T14:08:37.999Z</time></trkpt><trkpt lat="36.812986385943816" lon="15.083402023851137"><ele>19.857142857142858</ele><time>2026-04-11T14:08:38.999Z</time></trkpt><trkpt lat="36.812883273405774" lon="15.08340700504011"><ele>19.571428571428573</ele><time>2026-04-11T14:08:40.999Z</time></trkpt><trkpt lat="36.812812984678075" lon="15.08340296739189"><ele>19.285714285714285</ele><time>2026-04-11T14:08:42.999Z</time></trkpt><trkpt lat="36.812742629618924" lon="15.083412636728644"><ele>19.0</ele><time>2026-04-11T14:08:45.999Z</time></trkpt><trkpt lat="36.812678646727825" lon="15.083419383501782"><ele>19.2</ele><time>2026-04-11T14:08:47.999Z</time></trkpt><trkpt lat="36.8125711638005" lon="15.083425487737971"><ele>19.4</ele><time>2026-04-11T14:08:49.999Z</time></trkpt><trkpt lat="36.81247038776353" lon="15.083427805053812"><ele>19.6</ele><time>2026-04-11T14:08:51.999Z</time></trkpt><trkpt lat="36.81238304404806" lon="15.083435885099865"><ele>19.8</ele><time>2026-04-11T14:08:53.999Z</time></trkpt><trkpt lat="36.81229947920212" lon="15.083442630266417"><ele>20.0</ele><time>2026-04-11T14:08:55.999Z</time></trkpt><trkpt lat="36.81222032906212" lon="15.083443851296854"><ele>20.0</ele><time>2026-04-11T14:08:57.999Z</time></trkpt><trkpt lat="36.81215422728949" lon="15.083448424735673"><ele>20.0</ele><time>2026-04-11T14:09:00.999Z</time></trkpt><trkpt lat="36.812071907824574" lon="15.08345124715269"><ele>20.0</ele><time>2026-04-11T14:09:02.999Z</time></trkpt><trkpt lat="36.811969363986" lon="15.08346303831237"><ele>20.0</ele><time>2026-04-11T14:09:04.999Z</time></trkpt><trkpt lat="36.81185710117538" lon="15.083468416535206"><ele>20.0</ele><time>2026-04-11T14:09:06.999Z</time></trkpt><trkpt lat="36.81179342361105" lon="15.083475187777939"><ele>20.0</ele><time>2026-04-11T14:09:08.999Z</time></trkpt><trkpt lat="36.81171233222039" lon="15.083482670294707"><ele>19.833333333333336</ele><time>2026-04-11T14:09:11.999Z</time></trkpt><trkpt lat="36.81162752379842" lon="15.083479716062374"><ele>19.666666666666668</ele><time>2026-04-11T14:09:13.999Z</time></trkpt><trkpt lat="36.81154723989255" lon="15.083483757609995"><ele>19.5</ele><time>2026-04-11T14:09:14.999Z</time></trkpt><trkpt lat="36.81147098016845" lon="15.083487565542057"><ele>19.333333333333332</ele><time>2026-04-11T14:09:15.999Z</time></trkpt><trkpt lat="36.81140659068204" lon="15.083485245280826"><ele>19.166666666666664</ele><time>2026-04-11T14:09:16.999Z</time></trkpt><trkpt lat="36.81133558012566" lon="15.08349217838785"><ele>19.0</ele><time>2026-04-11T14:09:17.999Z</time></trkpt><trkpt lat="36.81126311533105" lon="15.08348746078348"><ele>19.0</ele><time>2026-04-11T14:09:18.999Z</time></trkpt><trkpt lat="36.81119271675962" lon="15.083479122282334"><ele>19.0</ele><time>2026-04-11T14:09:19.999Z</time></trkpt><trkpt lat="36.811122629507814" lon="15.083477933275738"><ele>19.0</ele><time>2026-04-11T14:09:20.999Z</time></trkpt><trkpt lat="36.81105161148302" lon="15.083480476132692"><ele>19.0</ele><time>2026-04-11T14:09:21.999Z</time></trkpt><trkpt lat="36.810979728551054" lon="15.083482629046959"><ele>19.0</ele><time>2026-04-11T14:09:22.999Z</time></trkpt><trkpt lat="36.810891049238116" lon="15.08348114170739"><ele>19.0</ele><time>2026-04-11T14:09:23.999Z</time></trkpt><trkpt lat="36.81079472558463" lon="15.083484230230244"><ele>18.8</ele><time>2026-04-11T14:09:24.999Z</time></trkpt><trkpt lat="36.8107043408145" lon="15.083484411031025"><ele>18.599999999999998</ele><time>2026-04-11T14:09:25.999Z</time></trkpt><trkpt lat="36.81060632823887" lon="15.083487064327704"><ele>18.4</ele><time>2026-04-11T14:09:26.999Z</time></trkpt><trkpt lat="36.81047386592538" lon="15.083496285551147"><ele>18.2</ele><time>2026-04-11T14:09:27.999Z</time></trkpt><trkpt lat="36.81035589844941" lon="15.083492700232698"><ele>18.0</ele><time>2026-04-11T14:09:28.999Z</time></trkpt><trkpt lat="36.810249056254605" lon="15.083489512010736"><ele>17.8</ele><time>2026-04-11T14:09:29.999Z</time></trkpt><trkpt lat="36.81014467717836" lon="15.083482533845492"><ele>17.6</ele><time>2026-04-11T14:09:30.999Z</time></trkpt><trkpt lat="36.81004164464228" lon="15.083478241323132"><ele>17.4</ele><time>2026-04-11T14:09:31.999Z</time></trkpt><trkpt lat="36.809949302660804" lon="15.083478440070657"><ele>17.2</ele><time>2026-04-11T14:09:32.999Z</time></trkpt><trkpt lat="36.80985272584807" lon="15.083472951108241"><ele>17.0</ele><time>2026-04-11T14:09:33.999Z</time></trkpt><trkpt lat="36.809757392279984" lon="15.083470140673716"><ele>17.0</ele><time>2026-04-11T14:09:34.999Z</time></trkpt><trkpt lat="36.80966240624552" lon="15.083455929032642"><ele>17.0</ele><time>2026-04-11T14:09:35.999Z</time></trkpt><trkpt lat="36.80956625487252" lon="15.083453906371933"><ele>17.0</ele><time>2026-04-11T14:09:36.999Z</time></trkpt><trkpt lat="36.80947076227779" lon="15.083443795297875"><ele>17.0</ele><time>2026-04-11T14:09:37.999Z</time></trkpt><trkpt lat="36.80938506955638" lon="15.083432818054282"><ele>17.0</ele><time>2026-04-11T14:09:38.998Z</time></trkpt><trkpt lat="36.809307473901235" lon="15.083419714836628"><ele>16.5</ele><time>2026-04-11T14:09:39.998Z</time></trkpt><trkpt lat="36.80923589127753" lon="15.083420354827075"><ele>16.0</ele><time>2026-04-11T14:09:40.998Z</time></trkpt><trkpt lat="36.80915638173844" lon="15.083409874576045"><ele>15.5</ele><time>2026-04-11T14:09:41.998Z</time></trkpt><trkpt lat="36.80907618452582" lon="15.083401612834972"><ele>15.0</ele><time>2026-04-11T14:09:42.998Z</time></trkpt><trkpt lat="36.808983330872316" lon="15.083389866080305"><ele>14.500000000000002</ele><time>2026-04-11T14:09:44Z</time></trkpt><trkpt lat="36.80890873944292" lon="15.083381679082695"><ele>14.0</ele><time>2026-04-11T14:09:45Z</time></trkpt><trkpt lat="36.80883487836531" lon="15.083368471094145"><ele>14.000000000000002</ele><time>2026-04-11T14:09:46Z</time></trkpt><trkpt lat="36.80876213483824" lon="15.083360620258086"><ele>14.0</ele><time>2026-04-11T14:09:47Z</time></trkpt><trkpt lat="36.80868567234268" lon="15.083354734622969"><ele>14.0</ele><time>2026-04-11T14:09:48Z</time></trkpt><trkpt lat="36.80860110481514" lon="15.083340903768255"><ele>14.0</ele><time>2026-04-11T14:09:49Z</time></trkpt><trkpt lat="36.808514926490766" lon="15.08332638517114"><ele>14.000000000000002</ele><time>2026-04-11T14:09:50Z</time></trkpt><trkpt lat="36.80842553877603" lon="15.083312228184903"><ele>14.0</ele><time>2026-04-11T14:09:51Z</time></trkpt><trkpt lat="36.808325057787876" lon="15.083294519641152"><ele>13.75</ele><time>2026-04-11T14:09:52Z</time></trkpt><trkpt lat="36.80822285981567" lon="15.083272236085373"><ele>13.5</ele><time>2026-04-11T14:09:53Z</time></trkpt><trkpt lat="36.80810346074095" lon="15.08325293712783"><ele>13.25</ele><time>2026-04-11T14:09:54Z</time></trkpt><trkpt lat="36.80798718876253" lon="15.083228888454746"><ele>13.0</ele><time>2026-04-11T14:09:55Z</time></trkpt><trkpt lat="36.80787526164513" lon="15.083208524810734"><ele>13.0</ele><time>2026-04-11T14:09:56Z</time></trkpt><trkpt lat="36.80779869215214" lon="15.083196637016657"><ele>13.0</ele><time>2026-04-11T14:09:57Z</time></trkpt><trkpt lat="36.807671711394654" lon="15.08316735666603"><ele>13.0</ele><time>2026-04-11T14:10:58.999Z</time></trkpt><trkpt lat="36.80757357577983" lon="15.08314221295305"><ele>13.0</ele><time>2026-04-11T14:10:59.999Z</time></trkpt><trkpt lat="36.807465981712696" lon="15.083117547915043"><ele>13.0</ele><time>2026-04-11T14:11:00.999Z</time></trkpt><trkpt lat="36.80736108735393" lon="15.083088899750246"><ele>13.25</ele><time>2026-04-11T14:11:01.999Z</time></trkpt><trkpt lat="36.807250955236256" lon="15.083065069335152"><ele>13.5</ele><time>2026-04-11T14:11:02.999Z</time></trkpt><trkpt lat="36.80713638966286" lon="15.083035241716415"><ele>13.75</ele><time>2026-04-11T14:11:03.999Z</time></trkpt><trkpt lat="36.80703063641089" lon="15.083003116496004"><ele>14.0</ele><time>2026-04-11T14:11:04.999Z</time></trkpt><trkpt lat="36.80691843845083" lon="15.082972273405945"><ele>14.666666666666668</ele><time>2026-04-11T14:11:05.999Z</time></trkpt><trkpt lat="36.80681423443064" lon="15.082942276654084"><ele>15.333333333333334</ele><time>2026-04-11T14:11:06.999Z</time></trkpt><trkpt lat="36.80672701107044" lon="15.08291898875753"><ele>16.0</ele><time>2026-04-11T14:11:07.999Z</time></trkpt><trkpt lat="36.806641090465625" lon="15.082897078264834"><ele>16.666666666666668</ele><time>2026-04-11T14:11:08.999Z</time></trkpt><trkpt lat="36.806573700177964" lon="15.082875777921787"><ele>17.333333333333332</ele><time>2026-04-11T14:11:09.999Z</time></trkpt><trkpt lat="36.80650201405463" lon="15.082856069320115"><ele>18.0</ele><time>2026-04-11T14:11:10.999Z</time></trkpt><trkpt lat="36.806414360006" lon="15.082832474130509"><ele>18.0</ele><time>2026-04-11T14:11:11.999Z</time></trkpt><trkpt lat="36.80632970307324" lon="15.082809168048316"><ele>18.0</ele><time>2026-04-11T14:11:12.999Z</time></trkpt><trkpt lat="36.806259083766136" lon="15.082784548061516"><ele>18.0</ele><time>2026-04-11T14:11:13.999Z</time></trkpt><trkpt lat="36.80619392526431" lon="15.082765480696597"><ele>18.0</ele><time>2026-04-11T14:11:14.999Z</time></trkpt><trkpt lat="36.80612513633032" lon="15.082744980448782"><ele>18.0</ele><time>2026-04-11T14:11:15.999Z</time></trkpt><trkpt lat="36.80604709919664" lon="15.082716287477092"><ele>18.0</ele><time>2026-04-11T14:11:16.999Z</time></trkpt><trkpt lat="36.80597548896614" lon="15.082693636602972"><ele>17.833333333333332</ele><time>2026-04-11T14:11:17.999Z</time></trkpt><trkpt lat="36.805903307637045" lon="15.08266746194879"><ele>17.666666666666668</ele><time>2026-04-11T14:11:18.999Z</time></trkpt><trkpt lat="36.805820447964386" lon="15.08263614324265"><ele>17.5</ele><time>2026-04-11T14:11:19.999Z</time></trkpt><trkpt lat="36.805742362875264" lon="15.082608561855393"><ele>17.333333333333336</ele><time>2026-04-11T14:11:20.999Z</time></trkpt><trkpt lat="36.80567668451068" lon="15.08257903489783"><ele>17.166666666666668</ele><time>2026-04-11T14:11:21.999Z</time></trkpt><trkpt lat="36.80560600273013" lon="15.082559045648292"><ele>17.0</ele><time>2026-04-11T14:11:22.999Z</time></trkpt><trkpt lat="36.80552055123307" lon="15.082532177233928"><ele>17.0</ele><time>2026-04-11T14:11:23.999Z</time></trkpt><trkpt lat="36.8054341660041" lon="15.08249811924986"><ele>17.0</ele><time>2026-04-11T14:11:24.999Z</time></trkpt><trkpt lat="36.80534905339347" lon="15.082458957361952"><ele>17.0</ele><time>2026-04-11T14:11:25.999Z</time></trkpt><trkpt lat="36.80526474102624" lon="15.082425522889958"><ele>17.0</ele><time>2026-04-11T14:11:26.999Z</time></trkpt><trkpt lat="36.805188259690055" lon="15.082389486870774"><ele>17.0</ele><time>2026-04-11T14:11:27.999Z</time></trkpt><trkpt lat="36.80511641388705" lon="15.082362128443204"><ele>17.0</ele><time>2026-04-11T14:11:28.999Z</time></trkpt><trkpt lat="36.805044619353026" lon="15.0823367785442"><ele>16.6</ele><time>2026-04-11T14:11:29.999Z</time></trkpt><trkpt lat="36.804975351708265" lon="15.082305417836086"><ele>16.2</ele><time>2026-04-11T14:11:30.999Z</time></trkpt><trkpt lat="36.80491369675476" lon="15.082274358439573"><ele>15.8</ele><time>2026-04-11T14:11:31.999Z</time></trkpt><trkpt lat="36.804811361876375" lon="15.082232222123112"><ele>15.4</ele><time>2026-04-11T14:11:33.999Z</time></trkpt><trkpt lat="36.80470157393517" lon="15.082185367067886"><ele>15.0</ele><time>2026-04-11T14:11:35.999Z</time></trkpt><trkpt lat="36.804601474668694" lon="15.082141142026838"><ele>15.0</ele><time>2026-04-11T14:11:37.999Z</time></trkpt><trkpt lat="36.80449544086584" lon="15.082089674260347"><ele>15.0</ele><time>2026-04-11T14:11:39.999Z</time></trkpt><trkpt lat="36.80442238673882" lon="15.082054459616886"><ele>15.0</ele><time>2026-04-11T14:11:40.999Z</time></trkpt><trkpt lat="36.80436197343891" lon="15.082020728845308"><ele>15.0</ele><time>2026-04-11T14:11:41.999Z</time></trkpt><trkpt lat="36.804252297062035" lon="15.081975996214322"><ele>15.0</ele><time>2026-04-11T14:11:43.999Z</time></trkpt><trkpt lat="36.80417023943673" lon="15.081930367773731"><ele>15.2</ele><time>2026-04-11T14:11:45.998Z</time></trkpt><trkpt lat="36.80407829847031" lon="15.081862758379684"><ele>15.4</ele><time>2026-04-11T14:11:47.998Z</time></trkpt><trkpt lat="36.80395653985898" lon="15.081827091627465"><ele>15.600000000000001</ele><time>2026-04-11T14:11:50Z</time></trkpt><trkpt lat="36.80389489031623" lon="15.081805055760219"><ele>15.8</ele><time>2026-04-11T14:11:51Z</time></trkpt><trkpt lat="36.80379622017498" lon="15.081748168127172"><ele>16.0</ele><time>2026-04-11T14:11:53Z</time></trkpt><trkpt lat="36.803738346997896" lon="15.081712780820851"><ele>16.0</ele><time>2026-04-11T14:11:54Z</time></trkpt><trkpt lat="36.803644585790735" lon="15.081666824458548"><ele>16.0</ele><time>2026-04-11T14:11:56Z</time></trkpt><trkpt lat="36.803555718160816" lon="15.08161716080746"><ele>16.0</ele><time>2026-04-11T14:11:58Z</time></trkpt><trkpt lat="36.80344056798604" lon="15.08155403052794"><ele>16.0</ele><time>2026-04-11T14:12:00Z</time></trkpt><trkpt lat="36.80337918146882" lon="15.08151946256844"><ele>16.0</ele><time>2026-04-11T14:12:01Z</time></trkpt><trkpt lat="36.80327277289013" lon="15.08146148518856"><ele>16.166666666666664</ele><time>2026-04-11T14:12:03Z</time></trkpt><trkpt lat="36.803182828481745" lon="15.081389820505063"><ele>16.333333333333332</ele><time>2026-04-11T14:12:05Z</time></trkpt><trkpt lat="36.80309270135455" lon="15.081332531960257"><ele>16.5</ele><time>2026-04-11T14:12:07Z</time></trkpt><trkpt lat="36.80301037400432" lon="15.08128717925727"><ele>16.666666666666668</ele><time>2026-04-11T14:12:09Z</time></trkpt><trkpt lat="36.802946651674254" lon="15.081246049293346"><ele>16.833333333333336</ele><time>2026-04-11T14:12:11Z</time></trkpt><trkpt lat="36.80287790336396" lon="15.081221517431821"><ele>17.0</ele><time>2026-04-11T14:12:29Z</time></trkpt><trkpt lat="36.80277637051514" lon="15.081174849877904"><ele>17.0</ele><time>2026-04-11T14:12:31Z</time></trkpt><trkpt lat="36.802707349259265" lon="15.081127536167225"><ele>17.0</ele><time>2026-04-11T14:12:33Z</time></trkpt><trkpt lat="36.80259796180066" lon="15.08106530682679"><ele>17.0</ele><time>2026-04-11T14:12:35Z</time></trkpt><trkpt lat="36.80259085285447" lon="15.080769150601137"><ele>17.0</ele><time>2026-04-11T14:12:37Z</time></trkpt><trkpt lat="36.802527104209254" lon="15.080732871010701"><ele>17.2</ele><time>2026-04-11T14:12:38Z</time></trkpt><trkpt lat="36.80245809671724" lon="15.0806935986211"><ele>17.4</ele><time>2026-04-11T14:12:39Z</time></trkpt><trkpt lat="36.80235921645269" lon="15.080637326705313"><ele>17.6</ele><time>2026-04-11T14:12:40.999Z</time></trkpt><trkpt lat="36.80227521217836" lon="15.080589519521304"><ele>17.8</ele><time>2026-04-11T14:12:42.999Z</time></trkpt><trkpt lat="36.80218037144272" lon="15.080534197917565"><ele>18.0</ele><time>2026-04-11T14:12:44.999Z</time></trkpt><trkpt lat="36.80204191553519" lon="15.080737206146152"><ele>18.0</ele><time>2026-04-11T14:12:45.999Z</time></trkpt><trkpt lat="36.8019764738025" lon="15.080695391256768"><ele>18.0</ele><time>2026-04-11T14:12:47.999Z</time></trkpt><trkpt lat="36.80190614189171" lon="15.080654706867875"><ele>18.0</ele><time>2026-04-11T14:12:49.999Z</time></trkpt><trkpt lat="36.80183722826779" lon="15.080618221161732"><ele>18.0</ele><time>2026-04-11T14:12:51.999Z</time></trkpt><trkpt lat="36.80176787767617" lon="15.080577222718798"><ele>18.0</ele><time>2026-04-11T14:12:54.999Z</time></trkpt><trkpt lat="36.801699683943" lon="15.08053428192895"><ele>18.0</ele><time>2026-04-11T14:12:57.999Z</time></trkpt><trkpt lat="36.80160991165308" lon="15.080493922531886"><ele>18.2</ele><time>2026-04-11T14:13:00.999Z</time></trkpt><trkpt lat="36.801528150585675" lon="15.080447467772967"><ele>18.4</ele><time>2026-04-11T14:13:02.999Z</time></trkpt><trkpt lat="36.80142766956132" lon="15.080386085037123"><ele>18.599999999999998</ele><time>2026-04-11T14:13:04.999Z</time></trkpt><trkpt lat="36.80136563127724" lon="15.08035086917007"><ele>18.8</ele><time>2026-04-11T14:13:05.999Z</time></trkpt><trkpt lat="36.80130654906547" lon="15.080317485784237"><ele>19.0</ele><time>2026-04-11T14:13:06.999Z</time></trkpt><trkpt lat="36.801202505598" lon="15.08025486539844"><ele>19.0</ele><time>2026-04-11T14:13:08.999Z</time></trkpt><trkpt lat="36.80108303316531" lon="15.080186660172219"><ele>19.0</ele><time>2026-04-11T14:13:10.999Z</time></trkpt><trkpt lat="36.80102246030972" lon="15.080150741270032"><ele>19.0</ele><time>2026-04-11T14:13:11.999Z</time></trkpt><trkpt lat="36.80096091030009" lon="15.080110570310419"><ele>19.0</ele><time>2026-04-11T14:13:12.999Z</time></trkpt><trkpt lat="36.80089798653053" lon="15.080078455763207"><ele>19.0</ele><time>2026-04-11T14:13:13.999Z</time></trkpt><trkpt lat="36.80083483914128" lon="15.080040346070868"><ele>19.0</ele><time>2026-04-11T14:13:14.999Z</time></trkpt><trkpt lat="36.800775069341476" lon="15.080005699817848"><ele>19.0</ele><time>2026-04-11T14:13:15.999Z</time></trkpt><trkpt lat="36.8006702132226" lon="15.079946354806452"><ele>19.0</ele><time>2026-04-11T14:13:17.999Z</time></trkpt><trkpt lat="36.80057332903647" lon="15.079889784680349"><ele>19.0</ele><time>2026-04-11T14:13:19.999Z</time></trkpt><trkpt lat="36.800492890949855" lon="15.079845984312069"><ele>19.0</ele><time>2026-04-11T14:13:21.999Z</time></trkpt><trkpt lat="36.800417269696624" lon="15.079803002388116"><ele>19.0</ele><time>2026-04-11T14:13:23.999Z</time></trkpt><trkpt lat="36.80031547993649" lon="15.079745303666499"><ele>19.0</ele><time>2026-04-11T14:13:25.999Z</time></trkpt><trkpt lat="36.800244913797606" lon="15.07970318494668"><ele>19.0</ele><time>2026-04-11T14:13:26.999Z</time></trkpt><trkpt lat="36.80017602978648" lon="15.079664065066707"><ele>19.0</ele><time>2026-04-11T14:13:27.999Z</time></trkpt><trkpt lat="36.8001076228351" lon="15.079621117602048"><ele>19.0</ele><time>2026-04-11T14:13:28.999Z</time></trkpt><trkpt lat="36.80003999178866" lon="15.079585063944048"><ele>19.0</ele><time>2026-04-11T14:13:29.999Z</time></trkpt><trkpt lat="36.79997706156471" lon="15.079550937450378"><ele>19.0</ele><time>2026-04-11T14:13:30.999Z</time></trkpt><trkpt lat="36.799918913468204" lon="15.07951511197445"><ele>19.0</ele><time>2026-04-11T14:13:31.999Z</time></trkpt><trkpt lat="36.799817107263884" lon="15.079446600707483"><ele>19.2</ele><time>2026-04-11T14:13:33.999Z</time></trkpt><trkpt lat="36.79972089356042" lon="15.079380264166014"><ele>19.4</ele><time>2026-04-11T14:13:35.999Z</time></trkpt><trkpt lat="36.799613431672036" lon="15.079317756727125"><ele>19.6</ele><time>2026-04-11T14:13:37.999Z</time></trkpt><trkpt lat="36.79949694466986" lon="15.07924297673943"><ele>19.8</ele><time>2026-04-11T14:13:39.999Z</time></trkpt><trkpt lat="36.79942684661362" lon="15.079201715143906"><ele>20.0</ele><time>2026-04-11T14:13:40.999Z</time></trkpt><trkpt lat="36.799444662198624" lon="15.078950661256092"><ele>20.0</ele><time>2026-04-11T14:13:41.999Z</time></trkpt><trkpt lat="36.79938218058471" lon="15.078914282475685"><ele>20.0</ele><time>2026-04-11T14:13:42.999Z</time></trkpt><trkpt lat="36.79931798734509" lon="15.078876907040115"><ele>20.0</ele><time>2026-04-11T14:13:43.999Z</time></trkpt><trkpt lat="36.79925151261746" lon="15.078838203263395"><ele>20.0</ele><time>2026-04-11T14:13:44.999Z</time></trkpt><trkpt lat="36.799187207198585" lon="15.078800762525606"><ele>20.0</ele><time>2026-04-11T14:13:45.999Z</time></trkpt><trkpt lat="36.79912039751183" lon="15.078761863799965"><ele>20.0</ele><time>2026-04-11T14:13:46.999Z</time></trkpt><trkpt lat="36.799046881592126" lon="15.078719060405282"><ele>20.0</ele><time>2026-04-11T14:13:47.999Z</time></trkpt><trkpt lat="36.79897131535835" lon="15.078675063350323"><ele>20.0</ele><time>2026-04-11T14:13:48.999Z</time></trkpt><trkpt lat="36.79890892379166" lon="15.078638736902619"><ele>20.0</ele><time>2026-04-11T14:13:49.999Z</time></trkpt><trkpt lat="36.798848362854294" lon="15.078603476379593"><ele>20.0</ele><time>2026-04-11T14:13:50.999Z</time></trkpt><trkpt lat="36.79871193934213" lon="15.078769431846998"><ele>20.0</ele><time>2026-04-11T14:13:51.999Z</time></trkpt><trkpt lat="36.79864477173593" lon="15.078736603799973"><ele>20.0</ele><time>2026-04-11T14:13:52.998Z</time></trkpt><trkpt lat="36.7985768367274" lon="15.078703907455543"><ele>20.0</ele><time>2026-04-11T14:13:53.998Z</time></trkpt><trkpt lat="36.798507652335964" lon="15.078674052174492"><ele>20.0</ele><time>2026-04-11T14:13:54.998Z</time></trkpt><trkpt lat="36.798432809654415" lon="15.078635662334687"><ele>20.0</ele><time>2026-04-11T14:13:56Z</time></trkpt><trkpt lat="36.79835734760945" lon="15.078595550946735"><ele>20.0</ele><time>2026-04-11T14:13:57Z</time></trkpt><trkpt lat="36.79825480055163" lon="15.078541578304172"><ele>20.0</ele><time>2026-04-11T14:13:58Z</time></trkpt><trkpt lat="36.79816290370053" lon="15.078480560433542"><ele>20.0</ele><time>2026-04-11T14:13:59Z</time></trkpt><trkpt lat="36.79807778820427" lon="15.078431846058065"><ele>20.0</ele><time>2026-04-11T14:14:00Z</time></trkpt><trkpt lat="36.79800527264776" lon="15.07838983233813"><ele>20.0</ele><time>2026-04-11T14:14:01Z</time></trkpt><trkpt lat="36.79792435698237" lon="15.0783482609235"><ele>20.0</ele><time>2026-04-11T14:14:02Z</time></trkpt><trkpt lat="36.7978464451759" lon="15.078305355989453"><ele>20.0</ele><time>2026-04-11T14:14:03Z</time></trkpt><trkpt lat="36.79776934952296" lon="15.078256710370956"><ele>20.0</ele><time>2026-04-11T14:14:04Z</time></trkpt><trkpt lat="36.79768668855873" lon="15.078207600235736"><ele>20.166666666666668</ele><time>2026-04-11T14:14:05Z</time></trkpt><trkpt lat="36.79760248750078" lon="15.078158468951338"><ele>20.333333333333336</ele><time>2026-04-11T14:14:06Z</time></trkpt><trkpt lat="36.79751873705256" lon="15.078108875550786"><ele>20.5</ele><time>2026-04-11T14:14:07Z</time></trkpt><trkpt lat="36.79743567918853" lon="15.078062564816385"><ele>20.666666666666668</ele><time>2026-04-11T14:14:08Z</time></trkpt><trkpt lat="36.797359588699074" lon="15.078014970145448"><ele>20.833333333333332</ele><time>2026-04-11T14:14:09Z</time></trkpt><trkpt lat="36.797283470046935" lon="15.077971696173977"><ele>21.0</ele><time>2026-04-11T14:14:10Z</time></trkpt><trkpt lat="36.797204248077755" lon="15.077923454712602"><ele>21.0</ele><time>2026-04-11T14:14:11Z</time></trkpt><trkpt lat="36.79712057138711" lon="15.077874110388638"><ele>21.0</ele><time>2026-04-11T14:14:12Z</time></trkpt><trkpt lat="36.797045912640314" lon="15.077832002308748"><ele>21.0</ele><time>2026-04-11T14:14:13Z</time></trkpt><trkpt lat="36.79696408383415" lon="15.077788202294386"><ele>21.0</ele><time>2026-04-11T14:14:14Z</time></trkpt><trkpt lat="36.79689362234773" lon="15.077747292553832"><ele>21.0</ele><time>2026-04-11T14:14:15Z</time></trkpt><trkpt lat="36.79681904697667" lon="15.077703229530812"><ele>21.0</ele><time>2026-04-11T14:14:16Z</time></trkpt><trkpt lat="36.7967461275684" lon="15.077661838433695"><ele>21.0</ele><time>2026-04-11T14:14:17Z</time></trkpt><trkpt lat="36.796667670907304" lon="15.077616836901809"><ele>21.0</ele><time>2026-04-11T14:14:18Z</time></trkpt><trkpt lat="36.79658442559122" lon="15.077566672661417"><ele>21.0</ele><time>2026-04-11T14:14:19Z</time></trkpt><trkpt lat="36.796511155209785" lon="15.077523187506127"><ele>21.0</ele><time>2026-04-11T14:14:20Z</time></trkpt><trkpt lat="36.796436463485385" lon="15.07748077830723"><ele>21.0</ele><time>2026-04-11T14:14:21Z</time></trkpt><trkpt lat="36.796463203436865" lon="15.077220748763033"><ele>21.142857142857142</ele><time>2026-04-11T14:14:22Z</time></trkpt><trkpt lat="36.79639117054947" lon="15.07717870648091"><ele>21.285714285714285</ele><time>2026-04-11T14:14:23Z</time></trkpt><trkpt lat="36.79632666641475" lon="15.077141058285827"><ele>21.42857142857143</ele><time>2026-04-11T14:14:24Z</time></trkpt><trkpt lat="36.796267342921794" lon="15.077106433860408"><ele>21.57142857142857</ele><time>2026-04-11T14:14:25Z</time></trkpt><trkpt lat="36.79619672271524" lon="15.077065216042195"><ele>21.714285714285715</ele><time>2026-04-11T14:14:26Z</time></trkpt><trkpt lat="36.796133099916574" lon="15.077028082303888"><ele>21.857142857142858</ele><time>2026-04-11T14:14:27Z</time></trkpt><trkpt lat="36.79607017537146" lon="15.076991525642297"><ele>22.0</ele><time>2026-04-11T14:14:28Z</time></trkpt><trkpt lat="36.79601088512183" lon="15.076957326577533"><ele>22.0</ele><time>2026-04-11T14:14:29Z</time></trkpt><trkpt lat="36.795945187567206" lon="15.07691943160103"><ele>22.0</ele><time>2026-04-11T14:14:30Z</time></trkpt><trkpt lat="36.79587808279866" lon="15.076880724928303"><ele>22.0</ele><time>2026-04-11T14:14:31Z</time></trkpt><trkpt lat="36.79581019555058" lon="15.07684156694728"><ele>22.0</ele><time>2026-04-11T14:14:32Z</time></trkpt><trkpt lat="36.79574592964586" lon="15.07680449797584"><ele>22.0</ele><time>2026-04-11T14:14:33Z</time></trkpt><trkpt lat="36.7956312937411" lon="15.076738056751912"><ele>22.0</ele><time>2026-04-11T14:14:35Z</time></trkpt><trkpt lat="36.79557196299939" lon="15.07670368503908"><ele>22.0</ele><time>2026-04-11T14:14:36Z</time></trkpt><trkpt lat="36.79550379261099" lon="15.076664192319647"><ele>22.0</ele><time>2026-04-11T14:14:37Z</time></trkpt><trkpt lat="36.795442321295866" lon="15.076628580481483"><ele>22.0</ele><time>2026-04-11T14:14:38Z</time></trkpt><trkpt lat="36.79537922243675" lon="15.07659202577204"><ele>22.0</ele><time>2026-04-11T14:14:39Z</time></trkpt><trkpt lat="36.79531775267042" lon="15.07655641485537"><ele>22.0</ele><time>2026-04-11T14:14:40Z</time></trkpt><trkpt lat="36.79525164751196" lon="15.076517957728024"><ele>22.0</ele><time>2026-04-11T14:14:41Z</time></trkpt><trkpt lat="36.79518188501446" lon="15.076477353167686"><ele>22.0</ele><time>2026-04-11T14:14:42Z</time></trkpt><trkpt lat="36.79511751631007" lon="15.07643988797547"><ele>22.6</ele><time>2026-04-11T14:14:43Z</time></trkpt><trkpt lat="36.79504719469116" lon="15.076398957984072"><ele>23.200000000000003</ele><time>2026-04-11T14:14:44Z</time></trkpt><trkpt lat="36.79495294836487" lon="15.076344102874991"><ele>23.8</ele><time>2026-04-11T14:14:46Z</time></trkpt><trkpt lat="36.79484110990816" lon="15.07653855846273"><ele>24.4</ele><time>2026-04-11T14:14:47.999Z</time></trkpt><trkpt lat="36.79483149368374" lon="15.076455400323148"><ele>25.0</ele><time>2026-04-11T14:15:59.998Z</time></trkpt><trkpt lat="36.794774321121906" lon="15.076421925986839"><ele>25.000000000000004</ele><time>2026-04-11T14:16:13Z</time></trkpt><trkpt lat="36.79484290803327" lon="15.076379705541989"><ele>25.0</ele><time>2026-04-11T14:18:32Z</time></trkpt><trkpt lat="36.794797770671444" lon="15.07643594334125"><ele>25.0</ele><time>2026-04-11T14:19:01.999Z</time></trkpt><trkpt lat="36.794846294916475" lon="15.076379567826343"><ele>25.0</ele><time>2026-04-11T14:19:30.999Z</time></trkpt><trkpt lat="36.794827260845565" lon="15.076458342580256"><ele>25.0</ele><time>2026-04-11T14:19:51.999Z</time></trkpt><trkpt lat="36.794878690234974" lon="15.076520257465097"><ele>25.000000000000004</ele><time>2026-04-11T14:20:49.999Z</time></trkpt><trkpt lat="36.79478357867728" lon="15.07650755670397"><ele>25.0</ele><time>2026-04-11T14:24:04.999Z</time></trkpt><trkpt lat="36.7946894636726" lon="15.076445519611028"><ele>25.0</ele><time>2026-04-11T14:24:06.999Z</time></trkpt><trkpt lat="36.79459305200009" lon="15.076393108465206"><ele>25.0</ele><time>2026-04-11T14:24:08.999Z</time></trkpt><trkpt lat="36.794484580323314" lon="15.076337694274454"><ele>25.0</ele><time>2026-04-11T14:24:10.999Z</time></trkpt><trkpt lat="36.794391132626224" lon="15.07629355724371"><ele>25.0</ele><time>2026-04-11T14:24:11.999Z</time></trkpt><trkpt lat="36.79438845566065" lon="15.076016271256451"><ele>25.000000000000004</ele><time>2026-04-11T14:24:12.999Z</time></trkpt><trkpt lat="36.79430255620444" lon="15.075966515348941"><ele>25.0</ele><time>2026-04-11T14:24:13.999Z</time></trkpt><trkpt lat="36.794220858252594" lon="15.075919193157267"><ele>25.0</ele><time>2026-04-11T14:24:14.999Z</time></trkpt><trkpt lat="36.79415443441911" lon="15.075880718147326"><ele>25.0</ele><time>2026-04-11T14:24:15.999Z</time></trkpt><trkpt lat="36.79408549509558" lon="15.075840786133545"><ele>25.000000000000004</ele><time>2026-04-11T14:24:16.999Z</time></trkpt><trkpt lat="36.79402087856962" lon="15.075803358002549"><ele>25.0</ele><time>2026-04-11T14:24:17.999Z</time></trkpt><trkpt lat="36.79396319944616" lon="15.075769948237713"><ele>25.0</ele><time>2026-04-11T14:24:18.999Z</time></trkpt><trkpt lat="36.79378012403793" lon="15.07593980991511"><ele>25.0</ele><time>2026-04-11T14:24:20.999Z</time></trkpt><trkpt lat="36.793726167229494" lon="15.075897177956685"><ele>25.0</ele><time>2026-04-11T14:24:21.999Z</time></trkpt><trkpt lat="36.79365445986069" lon="15.075848218252107"><ele>25.0</ele><time>2026-04-11T14:24:22.999Z</time></trkpt><trkpt lat="36.79358124761594" lon="15.075808787811704"><ele>25.0</ele><time>2026-04-11T14:24:24Z</time></trkpt><trkpt lat="36.793518263203055" lon="15.075772964568008"><ele>25.0</ele><time>2026-04-11T14:24:25Z</time></trkpt><trkpt lat="36.79339607605774" lon="15.075697264497375"><ele>25.0</ele><time>2026-04-11T14:24:27Z</time></trkpt><trkpt lat="36.79331529034478" lon="15.07565047194145"><ele>25.0</ele><time>2026-04-11T14:24:28Z</time></trkpt><trkpt lat="36.79323709742515" lon="15.075609807510373"><ele>25.0</ele><time>2026-04-11T14:24:29Z</time></trkpt><trkpt lat="36.79316785326975" lon="15.075576388735918"><ele>25.2</ele><time>2026-04-11T14:24:30Z</time></trkpt><trkpt lat="36.7930695856562" lon="15.075526198715446"><ele>25.4</ele><time>2026-04-11T14:24:32Z</time></trkpt><trkpt lat="36.79296807187946" lon="15.075469273329151"><ele>25.6</ele><time>2026-04-11T14:24:34Z</time></trkpt><trkpt lat="36.79290682931984" lon="15.075439186150057"><ele>25.8</ele><time>2026-04-11T14:24:35Z</time></trkpt><trkpt lat="36.792805777098344" lon="15.07539278788503"><ele>26.0</ele><time>2026-04-11T14:24:37Z</time></trkpt><trkpt lat="36.7926908620647" lon="15.07534895098348"><ele>25.6</ele><time>2026-04-11T14:24:39Z</time></trkpt><trkpt lat="36.79257864862238" lon="15.07531514103279"><ele>25.200000000000003</ele><time>2026-04-11T14:24:40Z</time></trkpt><trkpt lat="36.79246749240134" lon="15.07528800940599"><ele>24.799999999999997</ele><time>2026-04-11T14:24:41Z</time></trkpt><trkpt lat="36.79238117084123" lon="15.075266026699802"><ele>24.4</ele><time>2026-04-11T14:24:42Z</time></trkpt><trkpt lat="36.79230820793311" lon="15.075244020439525"><ele>24.0</ele><time>2026-04-11T14:24:43Z</time></trkpt><trkpt lat="36.792235823973265" lon="15.075234358026727"><ele>24.0</ele><time>2026-04-11T14:24:44Z</time></trkpt><trkpt lat="36.79216301943371" lon="15.075228558834594"><ele>24.0</ele><time>2026-04-11T14:24:45Z</time></trkpt><trkpt lat="36.792054363446866" lon="15.075228033490221"><ele>24.0</ele><time>2026-04-11T14:24:47Z</time></trkpt><trkpt lat="36.79193997877306" lon="15.07522131437507"><ele>24.0</ele><time>2026-04-11T14:24:49Z</time></trkpt><trkpt lat="36.791866865794944" lon="15.075217759776955"><ele>24.0</ele><time>2026-04-11T14:24:50Z</time></trkpt><trkpt lat="36.79178526016867" lon="15.075209712359067"><ele>23.833333333333332</ele><time>2026-04-11T14:24:51Z</time></trkpt><trkpt lat="36.79169981129257" lon="15.075208444605638"><ele>23.666666666666668</ele><time>2026-04-11T14:24:52Z</time></trkpt><trkpt lat="36.79160708937634" lon="15.075213770038893"><ele>23.5</ele><time>2026-04-11T14:24:53Z</time></trkpt><trkpt lat="36.791525920461574" lon="15.075221613711562"><ele>23.333333333333336</ele><time>2026-04-11T14:24:54Z</time></trkpt><trkpt lat="36.79146205827997" lon="15.075230933222636"><ele>23.166666666666668</ele><time>2026-04-11T14:24:55Z</time></trkpt><trkpt lat="36.791354169360794" lon="15.075240645553814"><ele>23.0</ele><time>2026-04-11T14:24:57Z</time></trkpt><trkpt lat="36.79125537071532" lon="15.075252735206309"><ele>23.0</ele><time>2026-04-11T14:24:59Z</time></trkpt><trkpt lat="36.79118974720133" lon="15.075259341946994"><ele>23.0</ele><time>2026-04-11T14:25:00Z</time></trkpt><trkpt lat="36.791113421680784" lon="15.075275143785278"><ele>23.0</ele><time>2026-04-11T14:25:01Z</time></trkpt><trkpt lat="36.79104531529844" lon="15.075294494251345"><ele>23.0</ele><time>2026-04-11T14:25:02Z</time></trkpt><trkpt lat="36.79092094514332" lon="15.075320881630464"><ele>23.0</ele><time>2026-04-11T14:25:04Z</time></trkpt><trkpt lat="36.79084937363695" lon="15.075339149276248"><ele>23.0</ele><time>2026-04-11T14:25:05Z</time></trkpt><trkpt lat="36.79077685542848" lon="15.07536146867317"><ele>22.333333333333336</ele><time>2026-04-11T14:25:06Z</time></trkpt><trkpt lat="36.79069763282733" lon="15.075389093189774"><ele>21.666666666666668</ele><time>2026-04-11T14:25:07Z</time></trkpt><trkpt lat="36.79062688917949" lon="15.075423967457889"><ele>21.0</ele><time>2026-04-11T14:25:08Z</time></trkpt><trkpt lat="36.79055117721963" lon="15.07545574174367"><ele>20.333333333333332</ele><time>2026-04-11T14:25:09Z</time></trkpt><trkpt lat="36.79047439683065" lon="15.075489740784063"><ele>19.666666666666664</ele><time>2026-04-11T14:25:10Z</time></trkpt><trkpt lat="36.79039408846973" lon="15.075525010937705"><ele>19.0</ele><time>2026-04-11T14:25:11Z</time></trkpt><trkpt lat="36.790319234444446" lon="15.075561408098265"><ele>19.0</ele><time>2026-04-11T14:25:12Z</time></trkpt><trkpt lat="36.79024294010559" lon="15.07559852370533"><ele>19.0</ele><time>2026-04-11T14:25:13Z</time></trkpt><trkpt lat="36.79017200528253" lon="15.07564053542779"><ele>19.0</ele><time>2026-04-11T14:25:14Z</time></trkpt><trkpt lat="36.79009303856115" lon="15.075691046933356"><ele>19.0</ele><time>2026-04-11T14:25:15Z</time></trkpt><trkpt lat="36.79002241004728" lon="15.075739897897579"><ele>19.0</ele><time>2026-04-11T14:25:16Z</time></trkpt><trkpt lat="36.78995105809362" lon="15.075782577958337"><ele>19.0</ele><time>2026-04-11T14:25:17Z</time></trkpt><trkpt lat="36.78987045800916" lon="15.075832464201952"><ele>18.333333333333332</ele><time>2026-04-11T14:25:18Z</time></trkpt><trkpt lat="36.78980522713617" lon="15.075875061156351"><ele>17.666666666666664</ele><time>2026-04-11T14:25:19Z</time></trkpt><trkpt lat="36.78973258333829" lon="15.075934113342964"><ele>17.0</ele><time>2026-04-11T14:25:20Z</time></trkpt><trkpt lat="36.78965131069664" lon="15.075998805721555"><ele>16.333333333333332</ele><time>2026-04-11T14:25:21Z</time></trkpt><trkpt lat="36.78958073409711" lon="15.076055887788918"><ele>15.666666666666666</ele><time>2026-04-11T14:25:22Z</time></trkpt><trkpt lat="36.78949914976407" lon="15.076119469394788"><ele>15.0</ele><time>2026-04-11T14:25:23Z</time></trkpt><trkpt lat="36.78942718449435" lon="15.076180684115197"><ele>15.0</ele><time>2026-04-11T14:25:24Z</time></trkpt><trkpt lat="36.789345397412845" lon="15.076246968486327"><ele>15.0</ele><time>2026-04-11T14:25:25Z</time></trkpt><trkpt lat="36.7892590734065" lon="15.076309098735983"><ele>15.0</ele><time>2026-04-11T14:25:26Z</time></trkpt><trkpt lat="36.78918537174456" lon="15.076371166502927"><ele>15.0</ele><time>2026-04-11T14:25:27Z</time></trkpt><trkpt lat="36.78910559325438" lon="15.076431319702408"><ele>15.0</ele><time>2026-04-11T14:25:28Z</time></trkpt><trkpt lat="36.78902536054142" lon="15.076491185960288"><ele>15.166666666666666</ele><time>2026-04-11T14:25:29Z</time></trkpt><trkpt lat="36.78894768872767" lon="15.076549606500757"><ele>15.333333333333332</ele><time>2026-04-11T14:25:30Z</time></trkpt><trkpt lat="36.788871706792634" lon="15.076607035571975"><ele>15.5</ele><time>2026-04-11T14:25:31Z</time></trkpt><trkpt lat="36.78880016404631" lon="15.076661671519439"><ele>15.666666666666666</ele><time>2026-04-11T14:25:32Z</time></trkpt><trkpt lat="36.78873246395492" lon="15.076711240888718"><ele>15.833333333333332</ele><time>2026-04-11T14:25:33Z</time></trkpt><trkpt lat="36.78866197506225" lon="15.076764654236898"><ele>16.0</ele><time>2026-04-11T14:25:34Z</time></trkpt><trkpt lat="36.78859272360773" lon="15.07682127766786"><ele>16.166666666666664</ele><time>2026-04-11T14:25:35Z</time></trkpt><trkpt lat="36.78852556015064" lon="15.076872807565332"><ele>16.333333333333332</ele><time>2026-04-11T14:25:36Z</time></trkpt><trkpt lat="36.78845422088473" lon="15.076924849395416"><ele>16.5</ele><time>2026-04-11T14:25:37Z</time></trkpt><trkpt lat="36.78838035605003" lon="15.07698571061084"><ele>16.666666666666668</ele><time>2026-04-11T14:25:38Z</time></trkpt><trkpt lat="36.78830960083187" lon="15.077051291565825"><ele>16.833333333333336</ele><time>2026-04-11T14:25:39Z</time></trkpt><trkpt lat="36.78823078319061" lon="15.077112357975844"><ele>17.0</ele><time>2026-04-11T14:25:40Z</time></trkpt><trkpt lat="36.788152037433576" lon="15.077176232544234"><ele>17.0</ele><time>2026-04-11T14:25:41Z</time></trkpt><trkpt lat="36.788072060587865" lon="15.077238294872362"><ele>17.0</ele><time>2026-04-11T14:25:42Z</time></trkpt><trkpt lat="36.787990011460884" lon="15.077301073351768"><ele>17.0</ele><time>2026-04-11T14:25:43Z</time></trkpt><trkpt lat="36.78791455720887" lon="15.077361924430866"><ele>17.0</ele><time>2026-04-11T14:25:44Z</time></trkpt><trkpt lat="36.78784452624093" lon="15.077415441791047"><ele>17.0</ele><time>2026-04-11T14:25:45Z</time></trkpt><trkpt lat="36.787785463922404" lon="15.07746232181833"><ele>17.0</ele><time>2026-04-11T14:25:46Z</time></trkpt><trkpt lat="36.787728078304546" lon="15.07750271780431"><ele>16.57142857142857</ele><time>2026-04-11T14:25:47Z</time></trkpt><trkpt lat="36.787671980270765" lon="15.077548589125419"><ele>16.142857142857142</ele><time>2026-04-11T14:25:48Z</time></trkpt><trkpt lat="36.7876157102896" lon="15.077590119843155"><ele>15.714285714285714</ele><time>2026-04-11T14:25:49Z</time></trkpt><trkpt lat="36.78755502246051" lon="15.077637768206104"><ele>15.285714285714285</ele><time>2026-04-11T14:25:50Z</time></trkpt><trkpt lat="36.78746580400718" lon="15.077704096468146"><ele>14.857142857142858</ele><time>2026-04-11T14:25:52Z</time></trkpt><trkpt lat="36.787433157740196" lon="15.077782717232276"><ele>14.428571428571429</ele><time>2026-04-11T14:25:56Z</time></trkpt><trkpt lat="36.78744353394366" lon="15.077869668020314"><ele>14.0</ele><time>2026-04-11T14:25:59Z</time></trkpt><trkpt lat="36.787505503480524" lon="15.07785357307464"><ele>14.0</ele><time>2026-04-11T14:26:03Z</time></trkpt><trkpt lat="36.78759422138719" lon="15.077758234393137"><ele>13.999999999999998</ele><time>2026-04-11T14:26:38.001Z</time></trkpt><trkpt lat="36.78766977535807" lon="15.077692575939812"><ele>13.999999999999998</ele><time>2026-04-11T14:26:39.001Z</time></trkpt><trkpt lat="36.78776213529489" lon="15.077622340552972"><ele>14.0</ele><time>2026-04-11T14:26:40.001Z</time></trkpt><trkpt lat="36.78782809927445" lon="15.07757109625835"><ele>14.0</ele><time>2026-04-11T14:26:41.001Z</time></trkpt><trkpt lat="36.787904773559255" lon="15.077495617620984"><ele>13.399999999999999</ele><time>2026-04-11T14:26:43.001Z</time></trkpt><trkpt lat="36.78799015495691" lon="15.077445126353574"><ele>12.799999999999999</ele><time>2026-04-11T14:26:45.001Z</time></trkpt><trkpt lat="36.788078954937646" lon="15.077396293682613"><ele>12.2</ele><time>2026-04-11T14:26:47.001Z</time></trkpt><trkpt lat="36.78816714596934" lon="15.07731915905191"><ele>11.600000000000001</ele><time>2026-04-11T14:26:49.001Z</time></trkpt><trkpt lat="36.78825660246667" lon="15.077238895551101"><ele>11.0</ele><time>2026-04-11T14:26:51.001Z</time></trkpt><trkpt lat="36.788331626577694" lon="15.077174892058952"><ele>11.333333333333332</ele><time>2026-04-11T14:26:53.001Z</time></trkpt><trkpt lat="36.78839601275361" lon="15.077158182675104"><ele>11.666666666666666</ele><time>2026-04-11T14:26:55.001Z</time></trkpt><trkpt lat="36.788507065078065" lon="15.07720201432625"><ele>12.0</ele><time>2026-04-11T14:26:57.001Z</time></trkpt><trkpt lat="36.788575265951316" lon="15.077222203235499"><ele>12.333333333333332</ele><time>2026-04-11T14:26:58.001Z</time></trkpt><trkpt lat="36.788645922952604" lon="15.077240597933441"><ele>12.666666666666666</ele><time>2026-04-11T14:26:59.001Z</time></trkpt><trkpt lat="36.788719429526466" lon="15.077261186603168"><ele>13.0</ele><time>2026-04-11T14:27:00.001Z</time></trkpt><trkpt lat="36.7888148705511" lon="15.077285014287268"><ele>13.0</ele><time>2026-04-11T14:27:01.001Z</time></trkpt><trkpt lat="36.78892040820959" lon="15.077315874383373"><ele>13.0</ele><time>2026-04-11T14:27:02.001Z</time></trkpt><trkpt lat="36.78902365798717" lon="15.077340866742823"><ele>13.0</ele><time>2026-04-11T14:27:03.001Z</time></trkpt><trkpt lat="36.7891138706243" lon="15.077365848983195"><ele>13.0</ele><time>2026-04-11T14:27:04.001Z</time></trkpt><trkpt lat="36.78920144032704" lon="15.077383864439375"><ele>13.0</ele><time>2026-04-11T14:27:05.001Z</time></trkpt><trkpt lat="36.789271229782116" lon="15.07739839594872"><ele>12.999999999999998</ele><time>2026-04-11T14:27:06.001Z</time></trkpt><trkpt lat="36.789336007638624" lon="15.077410724701052"><ele>13.0</ele><time>2026-04-11T14:27:07.001Z</time></trkpt><trkpt lat="36.78939974138955" lon="15.077399441937875"><ele>13.0</ele><time>2026-04-11T14:27:09.001Z</time></trkpt><trkpt lat="36.78941817541691" lon="15.077315635369473"><ele>13.0</ele><time>2026-04-11T14:27:12.001Z</time></trkpt><trkpt lat="36.78944528096449" lon="15.077193857851936"><ele>12.999999999999998</ele><time>2026-04-11T14:27:14.001Z</time></trkpt><trkpt lat="36.789470683125444" lon="15.077112621866885"><ele>13.0</ele><time>2026-04-11T14:27:15.001Z</time></trkpt><trkpt lat="36.78950580207511" lon="15.077006099290957"><ele>13.0</ele><time>2026-04-11T14:27:16.001Z</time></trkpt><trkpt lat="36.789546770138884" lon="15.076843173710241"><ele>13.0</ele><time>2026-04-11T14:27:17.001Z</time></trkpt><trkpt lat="36.7895836657665" lon="15.07670498645389"><ele>13.0</ele><time>2026-04-11T14:27:18.001Z</time></trkpt><trkpt lat="36.7896220733152" lon="15.07659182904738"><ele>13.0</ele><time>2026-04-11T14:27:19.001Z</time></trkpt><trkpt lat="36.78964963746433" lon="15.076520106248603"><ele>13.0</ele><time>2026-04-11T14:27:20.001Z</time></trkpt><trkpt lat="36.78968781914101" lon="15.076400369888493"><ele>13.333333333333332</ele><time>2026-04-11T14:27:22.001Z</time></trkpt><trkpt lat="36.789716726655875" lon="15.076287972068835"><ele>13.666666666666666</ele><time>2026-04-11T14:27:24.001Z</time></trkpt><trkpt lat="36.78976929542372" lon="15.076233112332881"><ele>14.0</ele><time>2026-04-11T14:27:28.001Z</time></trkpt><trkpt lat="36.78971057235029" lon="15.076296701187857"><ele>14.333333333333332</ele><time>2026-04-11T14:27:36.001Z</time></trkpt><trkpt lat="36.78967254949387" lon="15.07639842603801"><ele>14.666666666666666</ele><time>2026-04-11T14:27:38.001Z</time></trkpt><trkpt lat="36.78959244361852" lon="15.076503046986222"><ele>15.0</ele><time>2026-04-11T14:27:40.001Z</time></trkpt><trkpt lat="36.78950276849591" lon="15.076565271447107"><ele>15.0</ele><time>2026-04-11T14:27:42.001Z</time></trkpt><trkpt lat="36.78941141039477" lon="15.076524724450913"><ele>15.0</ele><time>2026-04-11T14:27:44.001Z</time></trkpt><trkpt lat="36.7893046835066" lon="15.076452876634278"><ele>15.0</ele><time>2026-04-11T14:27:46Z</time></trkpt><trkpt lat="36.78923366542216" lon="15.0764555130792"><ele>15.0</ele><time>2026-04-11T14:27:47Z</time></trkpt><trkpt lat="36.78916772276691" lon="15.076517161840986"><ele>15.0</ele><time>2026-04-11T14:27:48Z</time></trkpt><trkpt lat="36.78908319062043" lon="15.076592137692046"><ele>15.166666666666666</ele><time>2026-04-11T14:27:49Z</time></trkpt><trkpt lat="36.789031278827" lon="15.076644137380663"><ele>15.333333333333332</ele><time>2026-04-11T14:27:50Z</time></trkpt><trkpt lat="36.78895292150451" lon="15.076657205872833"><ele>15.5</ele><time>2026-04-11T14:27:52Z</time></trkpt><trkpt lat="36.788904178504204" lon="15.076606045705931"><ele>15.666666666666666</ele><time>2026-04-11T14:27:54Z</time></trkpt><trkpt lat="36.78886169842249" lon="15.076498841566112"><ele>15.833333333333332</ele><time>2026-04-11T14:27:56Z</time></trkpt><trkpt lat="36.78882103911721" lon="15.076405995734925"><ele>16.0</ele><time>2026-04-11T14:27:58Z</time></trkpt><trkpt lat="36.78878607274415" lon="15.076316574973045"><ele>15.999999999999998</ele><time>2026-04-11T14:28:00Z</time></trkpt><trkpt lat="36.788742188741836" lon="15.076232501841421"><ele>16.0</ele><time>2026-04-11T14:28:02Z</time></trkpt><trkpt lat="36.788748225074805" lon="15.076109573889417"><ele>16.0</ele><time>2026-04-11T14:28:04Z</time></trkpt><trkpt lat="36.7887635363635" lon="15.076012353902655"><ele>16.0</ele><time>2026-04-11T14:28:05Z</time></trkpt><trkpt lat="36.78879068498991" lon="15.075919707176785"><ele>15.999999999999998</ele><time>2026-04-11T14:28:06Z</time></trkpt><trkpt lat="36.78881444104248" lon="15.075839944834652"><ele>16.0</ele><time>2026-04-11T14:28:07Z</time></trkpt><trkpt lat="36.788826761236166" lon="15.075725447662807"><ele>16.166666666666664</ele><time>2026-04-11T14:28:09Z</time></trkpt><trkpt lat="36.78883469938969" lon="15.075603602908926"><ele>16.333333333333332</ele><time>2026-04-11T14:28:11Z</time></trkpt><trkpt lat="36.788800744014324" lon="15.075460792324128"><ele>16.5</ele><time>2026-04-11T14:28:13Z</time></trkpt><trkpt lat="36.78876863738025" lon="15.075392845142972"><ele>16.666666666666668</ele><time>2026-04-11T14:28:14Z</time></trkpt><trkpt lat="36.78871998367054" lon="15.075333049129746"><ele>16.833333333333336</ele><time>2026-04-11T14:28:15Z</time></trkpt><trkpt lat="36.78865458791565" lon="15.075275471380687"><ele>17.0</ele><time>2026-04-11T14:28:16Z</time></trkpt><trkpt lat="36.78859284873581" lon="15.075209040708351"><ele>17.0</ele><time>2026-04-11T14:28:17Z</time></trkpt><trkpt lat="36.788522166356415" lon="15.07516570398851"><ele>17.0</ele><time>2026-04-11T14:28:18Z</time></trkpt><trkpt lat="36.78840423366472" lon="15.075114003657335"><ele>17.0</ele><time>2026-04-11T14:28:20Z</time></trkpt><trkpt lat="36.78833799120488" lon="15.075086136294427"><ele>17.0</ele><time>2026-04-11T14:28:21Z</time></trkpt><trkpt lat="36.78825573396854" lon="15.075056872114464"><ele>17.0</ele><time>2026-04-11T14:28:22Z</time></trkpt><trkpt lat="36.78817550092485" lon="15.075039988822583"><ele>17.0</ele><time>2026-04-11T14:28:23Z</time></trkpt><trkpt lat="36.78809904288108" lon="15.075038909299602"><ele>18.0</ele><time>2026-04-11T14:28:24Z</time></trkpt><trkpt lat="36.78803901360286" lon="15.075069526843203"><ele>19.0</ele><time>2026-04-11T14:28:25Z</time></trkpt><trkpt lat="36.787972535059396" lon="15.075145894614915"><ele>20.0</ele><time>2026-04-11T14:28:26Z</time></trkpt><trkpt lat="36.787901865880144" lon="15.075212507531102"><ele>21.0</ele><time>2026-04-11T14:28:27Z</time></trkpt><trkpt lat="36.78783081368704" lon="15.075245905282687"><ele>22.0</ele><time>2026-04-11T14:28:28Z</time></trkpt><trkpt lat="36.787774175283" lon="15.075297078165882"><ele>23.0</ele><time>2026-04-11T14:28:29Z</time></trkpt><trkpt lat="36.787744906940034" lon="15.075378314122721"><ele>23.0</ele><time>2026-04-11T14:28:30Z</time></trkpt><trkpt lat="36.78771390673952" lon="15.075480865217031"><ele>23.0</ele><time>2026-04-11T14:28:31Z</time></trkpt><trkpt lat="36.78768359467082" lon="15.075596796473288"><ele>23.0</ele><time>2026-04-11T14:28:32Z</time></trkpt><trkpt lat="36.787659398553636" lon="15.075706981283835"><ele>23.0</ele><time>2026-04-11T14:28:33Z</time></trkpt><trkpt lat="36.78764741314815" lon="15.075788169797384"><ele>23.0</ele><time>2026-04-11T14:28:34Z</time></trkpt><trkpt lat="36.7876786228292" lon="15.075870546178125"><ele>23.0</ele><time>2026-04-11T14:28:36.002Z</time></trkpt><trkpt lat="36.78776113923712" lon="15.075907265024975"><ele>22.833333333333336</ele><time>2026-04-11T14:28:38.002Z</time></trkpt><trkpt lat="36.787903041245315" lon="15.07597888837174"><ele>22.666666666666668</ele><time>2026-04-11T14:28:40.002Z</time></trkpt><trkpt lat="36.787969591821465" lon="15.076018305347164"><ele>22.5</ele><time>2026-04-11T14:28:41.002Z</time></trkpt><trkpt lat="36.78803536726673" lon="15.076055612923795"><ele>22.333333333333332</ele><time>2026-04-11T14:28:42.002Z</time></trkpt><trkpt lat="36.78810435542717" lon="15.076098230261298"><ele>22.166666666666664</ele><time>2026-04-11T14:28:43.002Z</time></trkpt><trkpt lat="36.788149463393935" lon="15.076154288854246"><ele>22.0</ele><time>2026-04-11T14:28:44.002Z</time></trkpt><trkpt lat="36.788196154740305" lon="15.076269556324627"><ele>22.0</ele><time>2026-04-11T14:28:46.001Z</time></trkpt><trkpt lat="36.7881606350378" lon="15.076335215645184"><ele>22.0</ele><time>2026-04-11T14:28:48.001Z</time></trkpt><trkpt lat="36.788142674435655" lon="15.076420560116796"><ele>22.0</ele><time>2026-04-11T14:28:52.001Z</time></trkpt><trkpt lat="36.78813136418091" lon="15.076518450443386"><ele>22.0</ele><time>2026-04-11T14:28:55.001Z</time></trkpt><trkpt lat="36.788068245963956" lon="15.076514664483657"><ele>22.0</ele><time>2026-04-11T14:29:25.001Z</time></trkpt><trkpt lat="36.78802886035343" lon="15.076609836430105"><ele>22.0</ele><time>2026-04-11T14:29:27.001Z</time></trkpt><trkpt lat="36.788090779081536" lon="15.076653611090938"><ele>22.0</ele><time>2026-04-11T14:29:30Z</time></trkpt><trkpt lat="36.78815987407352" lon="15.07666429132518"><ele>21.166666666666664</ele><time>2026-04-11T14:29:32Z</time></trkpt><trkpt lat="36.788139264426704" lon="15.07674123273305"><ele>20.333333333333332</ele><time>2026-04-11T14:33:01.999Z</time></trkpt><trkpt lat="36.78819955991537" lon="15.07670177522063"><ele>19.5</ele><time>2026-04-11T14:37:42.999Z</time></trkpt><trkpt lat="36.788174328554284" lon="15.076795279871387"><ele>18.666666666666668</ele><time>2026-04-11T14:39:04.999Z</time></trkpt><trkpt lat="36.788119294452905" lon="15.07684298344859"><ele>17.833333333333336</ele><time>2026-04-11T14:39:05.999Z</time></trkpt><trkpt lat="36.788038997404435" lon="15.076893434922372"><ele>17.0</ele><time>2026-04-11T14:39:06.999Z</time></trkpt><trkpt lat="36.78792699729996" lon="15.076970801598648"><ele>17.0</ele><time>2026-04-11T14:39:07.999Z</time></trkpt><trkpt lat="36.787777741968014" lon="15.077085751244185"><ele>17.0</ele><time>2026-04-11T14:39:08.999Z</time></trkpt><trkpt lat="36.78759865852958" lon="15.07722458763337"><ele>17.0</ele><time>2026-04-11T14:39:09.999Z</time></trkpt><trkpt lat="36.787394188704376" lon="15.077382550965504"><ele>15.5</ele><time>2026-04-11T14:39:10.999Z</time></trkpt><trkpt lat="36.787178583690924" lon="15.077551247516057"><ele>14.0</ele><time>2026-04-11T14:39:11.999Z</time></trkpt><trkpt lat="36.78696264665401" lon="15.077735797953776"><ele>16.5</ele><time>2026-04-11T14:39:12.999Z</time></trkpt><trkpt lat="36.78675734059639" lon="15.077900129138625"><ele>19.0</ele><time>2026-04-11T14:39:13.999Z</time></trkpt><trkpt lat="36.78656684278372" lon="15.078043533628456"><ele>19.0</ele><time>2026-04-11T14:39:14.999Z</time></trkpt><trkpt lat="36.786376817946376" lon="15.078185281896914"><ele>19.0</ele><time>2026-04-11T14:39:15.999Z</time></trkpt><trkpt lat="36.78619216212821" lon="15.078329173235137"><ele>19.0</ele><time>2026-04-11T14:39:16.999Z</time></trkpt><trkpt lat="36.78602089991768" lon="15.078459926300074"><ele>16.666666666666664</ele><time>2026-04-11T14:39:17.999Z</time></trkpt><trkpt lat="36.78586192327632" lon="15.078585351210753"><ele>14.333333333333332</ele><time>2026-04-11T14:39:18.999Z</time></trkpt><trkpt lat="36.785697531036526" lon="15.078715509793437"><ele>12.0</ele><time>2026-04-11T14:39:19.999Z</time></trkpt><trkpt lat="36.78552376769155" lon="15.078845180052221"><ele>12.0</ele><time>2026-04-11T14:39:20.999Z</time></trkpt><trkpt lat="36.785347368307626" lon="15.078968723424111"><ele>12.0</ele><time>2026-04-11T14:39:21.999Z</time></trkpt><trkpt lat="36.785175601283186" lon="15.079079031429997"><ele>12.0</ele><time>2026-04-11T14:39:23Z</time></trkpt><trkpt lat="36.785000547429625" lon="15.07918711433876"><ele>10.666666666666666</ele><time>2026-04-11T14:39:24Z</time></trkpt><trkpt lat="36.784819766244404" lon="15.079295435179699"><ele>9.333333333333332</ele><time>2026-04-11T14:39:25Z</time></trkpt><trkpt lat="36.78463611261092" lon="15.079395019949743"><ele>8.0</ele><time>2026-04-11T14:39:26Z</time></trkpt><trkpt lat="36.78445170408006" lon="15.079485683270645"><ele>7.666666666666666</ele><time>2026-04-11T14:39:27Z</time></trkpt><trkpt lat="36.784283130041956" lon="15.079559988559453"><ele>7.333333333333334</ele><time>2026-04-11T14:39:28Z</time></trkpt><trkpt lat="36.78412198242459" lon="15.079622047810451"><ele>7.0</ele><time>2026-04-11T14:39:29Z</time></trkpt><trkpt lat="36.78396105793939" lon="15.079683698629138"><ele>7.0</ele><time>2026-04-11T14:39:30Z</time></trkpt><trkpt lat="36.78378638200072" lon="15.079749746026431"><ele>7.0</ele><time>2026-04-11T14:39:31Z</time></trkpt><trkpt lat="36.78360754405257" lon="15.079809377023345"><ele>7.0</ele><time>2026-04-11T14:39:32Z</time></trkpt><trkpt lat="36.7834274992985" lon="15.079864291657964"><ele>7.333333333333334</ele><time>2026-04-11T14:39:33Z</time></trkpt><trkpt lat="36.78324901007347" lon="15.079907947674101"><ele>7.666666666666666</ele><time>2026-04-11T14:39:34Z</time></trkpt><trkpt lat="36.78307506951109" lon="15.07994476460474"><ele>8.0</ele><time>2026-04-11T14:39:35Z</time></trkpt><trkpt lat="36.782910091800844" lon="15.079975874602109"><ele>8.0</ele><time>2026-04-11T14:39:36Z</time></trkpt><trkpt lat="36.782740380853696" lon="15.08000308747686"><ele>8.0</ele><time>2026-04-11T14:39:37Z</time></trkpt><trkpt lat="36.782570659359216" lon="15.080026540082912"><ele>8.0</ele><time>2026-04-11T14:39:38Z</time></trkpt><trkpt lat="36.78240092952701" lon="15.08003971043983"><ele>8.0</ele><time>2026-04-11T14:39:39Z</time></trkpt><trkpt lat="36.782228254075754" lon="15.080052014027737"><ele>8.0</ele><time>2026-04-11T14:39:40Z</time></trkpt><trkpt lat="36.78205974227301" lon="15.080055246893771"><ele>8.0</ele><time>2026-04-11T14:39:41Z</time></trkpt><trkpt lat="36.78189095122523" lon="15.080057345623864"><ele>7.666666666666666</ele><time>2026-04-11T14:39:42Z</time></trkpt><trkpt lat="36.78171882702779" lon="15.080057973865978"><ele>7.333333333333334</ele><time>2026-04-11T14:39:43Z</time></trkpt><trkpt lat="36.781547785629286" lon="15.080050833360946"><ele>7.0</ele><time>2026-04-11T14:39:44Z</time></trkpt><trkpt lat="36.781375305052855" lon="15.080039080432718"><ele>7.0</ele><time>2026-04-11T14:39:45Z</time></trkpt><trkpt lat="36.78120308053563" lon="15.080026187269077"><ele>7.0</ele><time>2026-04-11T14:39:46Z</time></trkpt><trkpt lat="36.78102422516912" lon="15.080005278476872"><ele>7.0</ele><time>2026-04-11T14:39:47Z</time></trkpt><trkpt lat="36.78081861734668" lon="15.079981931759379"><ele>7.333333333333334</ele><time>2026-04-11T14:39:48Z</time></trkpt><trkpt lat="36.78060877049715" lon="15.079941661234963"><ele>7.666666666666666</ele><time>2026-04-11T14:39:49Z</time></trkpt><trkpt lat="36.78039146051945" lon="15.079901064643314"><ele>8.0</ele><time>2026-04-11T14:39:50Z</time></trkpt><trkpt lat="36.78016806114402" lon="15.079857665229802"><ele>10.5</ele><time>2026-04-11T14:39:51Z</time></trkpt><trkpt lat="36.77994827092571" lon="15.079810517467083"><ele>13.0</ele><time>2026-04-11T14:39:52Z</time></trkpt><trkpt lat="36.77972479122978" lon="15.079758999746307"><ele>13.0</ele><time>2026-04-11T14:39:53Z</time></trkpt><trkpt lat="36.77949977162582" lon="15.079710055447222"><ele>13.0</ele><time>2026-04-11T14:39:54Z</time></trkpt><trkpt lat="36.779245885657794" lon="15.079656480086147"><ele>14.0</ele><time>2026-04-11T14:39:55Z</time></trkpt><trkpt lat="36.778953816804716" lon="15.07960113999609"><ele>15.0</ele><time>2026-04-11T14:39:56Z</time></trkpt><trkpt lat="36.77862370547402" lon="15.079527393471455"><ele>14.666666666666668</ele><time>2026-04-11T14:39:57Z</time></trkpt><trkpt lat="36.77828233046076" lon="15.079458951458312"><ele>14.333333333333334</ele><time>2026-04-11T14:39:58Z</time></trkpt><trkpt lat="36.77819426479218" lon="15.07943279283431"><ele>14.0</ele><time>2026-04-11T14:39:59Z</time></trkpt><trkpt lat="36.77792034576217" lon="15.079370311687374"><ele>14.5</ele><time>2026-04-11T14:40:00Z</time></trkpt><trkpt lat="36.77764364770617" lon="15.079309596825764"><ele>15.0</ele><time>2026-04-11T14:40:01Z</time></trkpt><trkpt lat="36.777372428051905" lon="15.079251071402327"><ele>15.0</ele><time>2026-04-11T14:40:02Z</time></trkpt><trkpt lat="36.777110995374336" lon="15.079183160302785"><ele>15.0</ele><time>2026-04-11T14:40:03Z</time></trkpt><trkpt lat="36.77685244348069" lon="15.079115852542246"><ele>17.0</ele><time>2026-04-11T14:40:04Z</time></trkpt><trkpt lat="36.776602781742746" lon="15.079044022134758"><ele>19.0</ele><time>2026-04-11T14:40:05Z</time></trkpt><trkpt lat="36.77634543942854" lon="15.078962393357603"><ele>19.0</ele><time>2026-04-11T14:40:06Z</time></trkpt><trkpt lat="36.776091846840785" lon="15.07887730996803"><ele>19.0</ele><time>2026-04-11T14:40:07Z</time></trkpt><trkpt lat="36.77585077180531" lon="15.078794717985865"><ele>18.0</ele><time>2026-04-11T14:40:08Z</time></trkpt><trkpt lat="36.77561294358011" lon="15.078690546974892"><ele>17.0</ele><time>2026-04-11T14:40:09Z</time></trkpt><trkpt lat="36.77538052423687" lon="15.078595602232726"><ele>15.5</ele><time>2026-04-11T14:40:10Z</time></trkpt><trkpt lat="36.77515411071118" lon="15.07851434049972"><ele>14.0</ele><time>2026-04-11T14:40:11Z</time></trkpt><trkpt lat="36.77493917542274" lon="15.078413146393878"><ele>14.0</ele><time>2026-04-11T14:40:12Z</time></trkpt><trkpt lat="36.77471458631293" lon="15.07830307552841"><ele>14.0</ele><time>2026-04-11T14:40:13Z</time></trkpt><trkpt lat="36.774492190901874" lon="15.078198393505048"><ele>11.5</ele><time>2026-04-11T14:40:14Z</time></trkpt><trkpt lat="36.77427920006528" lon="15.078093811059173"><ele>9.0</ele><time>2026-04-11T14:40:15Z</time></trkpt><trkpt lat="36.77406078431589" lon="15.077989612287956"><ele>9.0</ele><time>2026-04-11T14:40:16Z</time></trkpt><trkpt lat="36.773847030003516" lon="15.077889878843465"><ele>9.0</ele><time>2026-04-11T14:40:17Z</time></trkpt><trkpt lat="36.773629443902465" lon="15.077792997742014"><ele>10.0</ele><time>2026-04-11T14:40:18Z</time></trkpt><trkpt lat="36.7734138224791" lon="15.077698118865754"><ele>11.0</ele><time>2026-04-11T14:40:19Z</time></trkpt><trkpt lat="36.77319929859546" lon="15.077603040851955"><ele>11.0</ele><time>2026-04-11T14:40:20Z</time></trkpt><trkpt lat="36.77299534565331" lon="15.077512673750991"><ele>11.0</ele><time>2026-04-11T14:40:21Z</time></trkpt><trkpt lat="36.772791336938056" lon="15.077430974916528"><ele>11.0</ele><time>2026-04-11T14:40:22Z</time></trkpt><trkpt lat="36.772573868249545" lon="15.077340687671985"><ele>10.333333333333332</ele><time>2026-04-11T14:40:23Z</time></trkpt><trkpt lat="36.77236370000677" lon="15.07725805009764"><ele>9.666666666666666</ele><time>2026-04-11T14:40:24Z</time></trkpt><trkpt lat="36.77214535049765" lon="15.07718772508335"><ele>9.0</ele><time>2026-04-11T14:40:25Z</time></trkpt><trkpt lat="36.77193659402183" lon="15.077135315734367"><ele>8.666666666666666</ele><time>2026-04-11T14:40:26Z</time></trkpt><trkpt lat="36.77173067216727" lon="15.077089405542246"><ele>8.333333333333332</ele><time>2026-04-11T14:40:27Z</time></trkpt><trkpt lat="36.77151985556715" lon="15.077057617299964"><ele>8.0</ele><time>2026-04-11T14:40:28.001Z</time></trkpt><trkpt lat="36.77130391883471" lon="15.077041828891854"><ele>8.0</ele><time>2026-04-11T14:40:29.001Z</time></trkpt><trkpt lat="36.77108466856449" lon="15.077046806034197"><ele>8.0</ele><time>2026-04-11T14:40:30.001Z</time></trkpt><trkpt lat="36.77087130516092" lon="15.077061977440916"><ele>8.0</ele><time>2026-04-11T14:40:31.001Z</time></trkpt><trkpt lat="36.77064459718193" lon="15.07708774774875"><ele>7.333333333333333</ele><time>2026-04-11T14:40:32.001Z</time></trkpt><trkpt lat="36.7704240672403" lon="15.07712452874573"><ele>6.666666666666666</ele><time>2026-04-11T14:40:33.001Z</time></trkpt><trkpt lat="36.770208507599264" lon="15.077180693320198"><ele>6.0</ele><time>2026-04-11T14:40:34.001Z</time></trkpt><trkpt lat="36.7699666112608" lon="15.077251852591086"><ele>5.5</ele><time>2026-04-11T14:40:35.001Z</time></trkpt><trkpt lat="36.769739485043615" lon="15.077330206124811"><ele>5.0</ele><time>2026-04-11T14:40:36.001Z</time></trkpt><trkpt lat="36.76953247813507" lon="15.07741269798331"><ele>5.333333333333334</ele><time>2026-04-11T14:40:37.001Z</time></trkpt><trkpt lat="36.769327135216" lon="15.077494058118065"><ele>5.666666666666667</ele><time>2026-04-11T14:40:38.001Z</time></trkpt><trkpt lat="36.7691084096242" lon="15.077572920925352"><ele>6.0</ele><time>2026-04-11T14:40:39.001Z</time></trkpt><trkpt lat="36.76888836581654" lon="15.077652872230562"><ele>6.0</ele><time>2026-04-11T14:40:40.001Z</time></trkpt><trkpt lat="36.76866684510104" lon="15.07773857888473"><ele>6.0</ele><time>2026-04-11T14:40:41.001Z</time></trkpt><trkpt lat="36.76845119353602" lon="15.077820133445865"><ele>6.0</ele><time>2026-04-11T14:40:42.001Z</time></trkpt><trkpt lat="36.768240554809225" lon="15.077908341954993"><ele>6.0</ele><time>2026-04-11T14:40:43.001Z</time></trkpt><trkpt lat="36.76802883408855" lon="15.077992053573304"><ele>6.0</ele><time>2026-04-11T14:40:44.001Z</time></trkpt><trkpt lat="36.7678109129611" lon="15.078074198460866"><ele>5.0</ele><time>2026-04-11T14:40:45.001Z</time></trkpt><trkpt lat="36.767589829122194" lon="15.078156735451735"><ele>4.0</ele><time>2026-04-11T14:40:46.001Z</time></trkpt><trkpt lat="36.767366719120865" lon="15.078238126525015"><ele>4.5</ele><time>2026-04-11T14:40:47.001Z</time></trkpt><trkpt lat="36.76713688343597" lon="15.078323528562558"><ele>5.0</ele><time>2026-04-11T14:40:48.001Z</time></trkpt><trkpt lat="36.76690126228922" lon="15.078419863571554"><ele>6.0</ele><time>2026-04-11T14:40:49.001Z</time></trkpt><trkpt lat="36.76665217676457" lon="15.078510009736558"><ele>7.0</ele><time>2026-04-11T14:40:50.001Z</time></trkpt><trkpt lat="36.766381804563636" lon="15.078611191689276"><ele>7.0</ele><time>2026-04-11T14:40:51.001Z</time></trkpt><trkpt lat="36.766113606544884" lon="15.078707132011946"><ele>7.0</ele><time>2026-04-11T14:40:52.001Z</time></trkpt><trkpt lat="36.76582351150096" lon="15.078814007522011"><ele>7.0</ele><time>2026-04-11T14:40:53.001Z</time></trkpt><trkpt lat="36.765551976541644" lon="15.078931626927982"><ele>7.0</ele><time>2026-04-11T14:40:54.001Z</time></trkpt><trkpt lat="36.765264880999496" lon="15.079038705790111"><ele>9.5</ele><time>2026-04-11T14:40:55.001Z</time></trkpt><trkpt lat="36.76498287341428" lon="15.079146810166376"><ele>12.0</ele><time>2026-04-11T14:40:56.001Z</time></trkpt><trkpt lat="36.76470264046909" lon="15.079254384531595"><ele>12.0</ele><time>2026-04-11T14:40:57.001Z</time></trkpt><trkpt lat="36.76442665650626" lon="15.079357065258922"><ele>12.0</ele><time>2026-04-11T14:40:58.001Z</time></trkpt><trkpt lat="36.764170658269734" lon="15.07945217411533"><ele>12.5</ele><time>2026-04-11T14:40:59.001Z</time></trkpt><trkpt lat="36.76390712304681" lon="15.079553422906745"><ele>13.0</ele><time>2026-04-11T14:41:00.001Z</time></trkpt><trkpt lat="36.76365306699813" lon="15.07964778294408"><ele>15.0</ele><time>2026-04-11T14:41:01.001Z</time></trkpt><trkpt lat="36.763405896022284" lon="15.079740771160328"><ele>17.0</ele><time>2026-04-11T14:41:02.001Z</time></trkpt><trkpt lat="36.76316250493501" lon="15.079833592767645"><ele>17.0</ele><time>2026-04-11T14:41:03.001Z</time></trkpt><trkpt lat="36.762920251513144" lon="15.079923172555318"><ele>17.0</ele><time>2026-04-11T14:41:04.001Z</time></trkpt><trkpt lat="36.76267953790305" lon="15.080007855774383"><ele>20.0</ele><time>2026-04-11T14:41:05.001Z</time></trkpt><trkpt lat="36.76243374343701" lon="15.080081730382583"><ele>23.0</ele><time>2026-04-11T14:41:06.001Z</time></trkpt><trkpt lat="36.76219927112748" lon="15.08014702167473"><ele>23.0</ele><time>2026-04-11T14:41:07.001Z</time></trkpt><trkpt lat="36.76197849486247" lon="15.080204990114668"><ele>23.0</ele><time>2026-04-11T14:41:08.001Z</time></trkpt><trkpt lat="36.76177931467586" lon="15.08025259684399"><ele>23.0</ele><time>2026-04-11T14:41:09.001Z</time></trkpt><trkpt lat="36.76157530166708" lon="15.080286729309545"><ele>22.333333333333336</ele><time>2026-04-11T14:41:10.002Z</time></trkpt><trkpt lat="36.761374082371894" lon="15.08031783567873"><ele>21.666666666666668</ele><time>2026-04-11T14:41:11.002Z</time></trkpt><trkpt lat="36.76116987094313" lon="15.080340364057811"><ele>21.0</ele><time>2026-04-11T14:41:12.002Z</time></trkpt><trkpt lat="36.760964525180306" lon="15.080357122573568"><ele>19.333333333333332</ele><time>2026-04-11T14:41:13.002Z</time></trkpt><trkpt lat="36.76076131213767" lon="15.080370386460707"><ele>17.666666666666664</ele><time>2026-04-11T14:41:14.002Z</time></trkpt><trkpt lat="36.76055790809957" lon="15.080379943083313"><ele>16.0</ele><time>2026-04-11T14:41:15.002Z</time></trkpt><trkpt lat="36.760350606190656" lon="15.080383581730691"><ele>15.666666666666666</ele><time>2026-04-11T14:41:16.002Z</time></trkpt><trkpt lat="36.76014289973088" lon="15.080388868217154"><ele>15.333333333333332</ele><time>2026-04-11T14:41:17.002Z</time></trkpt><trkpt lat="36.75993906816354" lon="15.080397028531342"><ele>15.0</ele><time>2026-04-11T14:41:18.002Z</time></trkpt><trkpt lat="36.75973183402149" lon="15.080400785398417"><ele>15.0</ele><time>2026-04-11T14:41:19.002Z</time></trkpt><trkpt lat="36.75952363193978" lon="15.080404911002693"><ele>15.0</ele><time>2026-04-11T14:41:20.002Z</time></trkpt><trkpt lat="36.75931284816247" lon="15.080410069191153"><ele>15.0</ele><time>2026-04-11T14:41:21.001Z</time></trkpt><trkpt lat="36.759106475322234" lon="15.08041540761007"><ele>14.333333333333332</ele><time>2026-04-11T14:41:22.001Z</time></trkpt><trkpt lat="36.75889697872926" lon="15.080417142437046"><ele>13.666666666666666</ele><time>2026-04-11T14:41:23.001Z</time></trkpt><trkpt lat="36.758692265234664" lon="15.080420026277066"><ele>13.0</ele><time>2026-04-11T14:41:24.001Z</time></trkpt><trkpt lat="36.7584781202412" lon="15.080429453595888"><ele>13.0</ele><time>2026-04-11T14:41:25.001Z</time></trkpt><trkpt lat="36.758265918532324" lon="15.080434452844862"><ele>13.0</ele><time>2026-04-11T14:41:26.001Z</time></trkpt><trkpt lat="36.75806106912727" lon="15.080438394000195"><ele>13.0</ele><time>2026-04-11T14:41:27.001Z</time></trkpt><trkpt lat="36.757864991884524" lon="15.080441507671503"><ele>14.666666666666666</ele><time>2026-04-11T14:41:28.001Z</time></trkpt><trkpt lat="36.7576766433902" lon="15.080447029942997"><ele>16.333333333333332</ele><time>2026-04-11T14:41:29.001Z</time></trkpt><trkpt lat="36.7575065682749" lon="15.080445646268837"><ele>18.0</ele><time>2026-04-11T14:41:30.001Z</time></trkpt><trkpt lat="36.75733786822462" lon="15.080445769023095"><ele>18.0</ele><time>2026-04-11T14:41:31.001Z</time></trkpt><trkpt lat="36.75716690853765" lon="15.080451792897922"><ele>18.0</ele><time>2026-04-11T14:41:32.001Z</time></trkpt><trkpt lat="36.756998495080225" lon="15.08045360631598"><ele>18.0</ele><time>2026-04-11T14:41:33.001Z</time></trkpt><trkpt lat="36.75682826123924" lon="15.080457102480173"><ele>18.333333333333332</ele><time>2026-04-11T14:41:34.001Z</time></trkpt><trkpt lat="36.75666813593262" lon="15.080464804636758"><ele>18.666666666666664</ele><time>2026-04-11T14:41:35.001Z</time></trkpt><trkpt lat="36.7565010838375" lon="15.080465233784121"><ele>19.0</ele><time>2026-04-11T14:41:36.001Z</time></trkpt><trkpt lat="36.75633702123009" lon="15.080469782266826"><ele>19.0</ele><time>2026-04-11T14:41:37.001Z</time></trkpt><trkpt lat="36.7561774354054" lon="15.08047391178059"><ele>19.0</ele><time>2026-04-11T14:41:38.001Z</time></trkpt><trkpt lat="36.756024418414356" lon="15.080476156458328"><ele>19.0</ele><time>2026-04-11T14:41:39.001Z</time></trkpt><trkpt lat="36.755865348674476" lon="15.080480686643055"><ele>18.333333333333332</ele><time>2026-04-11T14:41:40.001Z</time></trkpt><trkpt lat="36.75570504749521" lon="15.080486624533584"><ele>17.666666666666668</ele><time>2026-04-11T14:41:41.001Z</time></trkpt><trkpt lat="36.75554293346529" lon="15.080497671397005"><ele>17.0</ele><time>2026-04-11T14:41:42.001Z</time></trkpt><trkpt lat="36.75538345120819" lon="15.080503529280698"><ele>17.0</ele><time>2026-04-11T14:41:43.001Z</time></trkpt><trkpt lat="36.75521597630614" lon="15.08050309871455"><ele>17.0</ele><time>2026-04-11T14:41:44.001Z</time></trkpt><trkpt lat="36.755052256848295" lon="15.080509088454336"><ele>17.0</ele><time>2026-04-11T14:41:45.001Z</time></trkpt><trkpt lat="36.754879330149265" lon="15.080511383278324"><ele>18.666666666666668</ele><time>2026-04-11T14:41:46.001Z</time></trkpt><trkpt lat="36.75470955877085" lon="15.080512958372127"><ele>20.333333333333332</ele><time>2026-04-11T14:41:47.001Z</time></trkpt><trkpt lat="36.754545115316425" lon="15.080516334137382"><ele>22.0</ele><time>2026-04-11T14:41:48.001Z</time></trkpt><trkpt lat="36.75437069563721" lon="15.080531310289834"><ele>22.333333333333332</ele><time>2026-04-11T14:41:49.001Z</time></trkpt><trkpt lat="36.75420274054315" lon="15.080531980007944"><ele>22.666666666666668</ele><time>2026-04-11T14:41:50.001Z</time></trkpt><trkpt lat="36.754031376259" lon="15.0805401843888"><ele>23.0</ele><time>2026-04-11T14:41:51.001Z</time></trkpt><trkpt lat="36.753855339529764" lon="15.080544092481738"><ele>23.0</ele><time>2026-04-11T14:41:52.001Z</time></trkpt><trkpt lat="36.75367495636575" lon="15.0805452956232"><ele>23.0</ele><time>2026-04-11T14:41:53.001Z</time></trkpt><trkpt lat="36.75350059165574" lon="15.080552562975113"><ele>23.0</ele><time>2026-04-11T14:41:54.001Z</time></trkpt><trkpt lat="36.75332983320689" lon="15.080553930307435"><ele>22.333333333333336</ele><time>2026-04-11T14:41:55.001Z</time></trkpt><trkpt lat="36.75315432200589" lon="15.080560137721978"><ele>21.666666666666668</ele><time>2026-04-11T14:41:56.001Z</time></trkpt><trkpt lat="36.7529901664382" lon="15.080564043362978"><ele>21.0</ele><time>2026-04-11T14:41:57.001Z</time></trkpt><trkpt lat="36.752822654410394" lon="15.080577653951048"><ele>21.0</ele><time>2026-04-11T14:41:58.001Z</time></trkpt><trkpt lat="36.75265626839136" lon="15.080582814590102"><ele>21.0</ele><time>2026-04-11T14:41:59.001Z</time></trkpt><trkpt lat="36.75248988054076" lon="15.080587219393653"><ele>21.0</ele><time>2026-04-11T14:42:00.001Z</time></trkpt><trkpt lat="36.75232616832493" lon="15.080592953225795"><ele>21.0</ele><time>2026-04-11T14:42:01.001Z</time></trkpt><trkpt lat="36.75216313438518" lon="15.080577345390266"><ele>21.0</ele><time>2026-04-11T14:42:02.001Z</time></trkpt><trkpt lat="36.75200015753432" lon="15.080581744047171"><ele>21.0</ele><time>2026-04-11T14:42:03.001Z</time></trkpt><trkpt lat="36.75183733364931" lon="15.080606610196824"><ele>20.333333333333332</ele><time>2026-04-11T14:42:04.001Z</time></trkpt><trkpt lat="36.75167425941188" lon="15.080609880306511"><ele>19.666666666666664</ele><time>2026-04-11T14:42:05.001Z</time></trkpt><trkpt lat="36.751506793121834" lon="15.080613753676941"><ele>19.0</ele><time>2026-04-11T14:42:06.001Z</time></trkpt><trkpt lat="36.75133810368184" lon="15.080617199177192"><ele>19.0</ele><time>2026-04-11T14:42:07.001Z</time></trkpt><trkpt lat="36.751168808590435" lon="15.0806239955364"><ele>19.0</ele><time>2026-04-11T14:42:08.001Z</time></trkpt><trkpt lat="36.750994355707945" lon="15.08062678555389"><ele>19.0</ele><time>2026-04-11T14:42:09.001Z</time></trkpt><trkpt lat="36.750818986442845" lon="15.080630249580471"><ele>18.333333333333332</ele><time>2026-04-11T14:42:10.001Z</time></trkpt><trkpt lat="36.7506352591252" lon="15.080635879170275"><ele>17.666666666666668</ele><time>2026-04-11T14:42:11.001Z</time></trkpt><trkpt lat="36.75044990075518" lon="15.08063885376221"><ele>17.0</ele><time>2026-04-11T14:42:12.001Z</time></trkpt><trkpt lat="36.75026204061715" lon="15.080641444083735"><ele>17.333333333333336</ele><time>2026-04-11T14:42:13.001Z</time></trkpt><trkpt lat="36.75006589244437" lon="15.080643275200453"><ele>17.666666666666668</ele><time>2026-04-11T14:42:14.001Z</time></trkpt><trkpt lat="36.74986279008473" lon="15.080647981259073"><ele>18.0</ele><time>2026-04-11T14:42:15.001Z</time></trkpt><trkpt lat="36.74966218561028" lon="15.080651407357637"><ele>18.0</ele><time>2026-04-11T14:42:16.001Z</time></trkpt><trkpt lat="36.74946011525175" lon="15.080658474739232"><ele>18.0</ele><time>2026-04-11T14:42:17.001Z</time></trkpt><trkpt lat="36.749261670922614" lon="15.08066241402439"><ele>18.0</ele><time>2026-04-11T14:42:18.001Z</time></trkpt><trkpt lat="36.74906450643132" lon="15.080668239094335"><ele>18.333333333333332</ele><time>2026-04-11T14:42:19.001Z</time></trkpt><trkpt lat="36.74886671920729" lon="15.080675590685104"><ele>18.666666666666664</ele><time>2026-04-11T14:42:20.001Z</time></trkpt><trkpt lat="36.74867117360727" lon="15.08067890748488"><ele>19.0</ele><time>2026-04-11T14:42:21.001Z</time></trkpt><trkpt lat="36.74847555069336" lon="15.080682252772277"><ele>19.666666666666664</ele><time>2026-04-11T14:42:22.001Z</time></trkpt><trkpt lat="36.7482825597737" lon="15.080684742875905"><ele>20.333333333333332</ele><time>2026-04-11T14:42:23.001Z</time></trkpt><trkpt lat="36.748091927490364" lon="15.08068962963768"><ele>21.0</ele><time>2026-04-11T14:42:24.001Z</time></trkpt><trkpt lat="36.74789870079278" lon="15.080695164445581"><ele>21.666666666666668</ele><time>2026-04-11T14:42:25.001Z</time></trkpt><trkpt lat="36.74770848791296" lon="15.080696947854204"><ele>22.333333333333336</ele><time>2026-04-11T14:42:26.001Z</time></trkpt><trkpt lat="36.74752683837416" lon="15.080702014865517"><ele>23.0</ele><time>2026-04-11T14:42:27.001Z</time></trkpt><trkpt lat="36.7473564111411" lon="15.080708700783042"><ele>23.0</ele><time>2026-04-11T14:42:28.001Z</time></trkpt><trkpt lat="36.74719423321529" lon="15.080714565480422"><ele>23.0</ele><time>2026-04-11T14:42:29.001Z</time></trkpt><trkpt lat="36.747042681993996" lon="15.080717694428014"><ele>23.0</ele><time>2026-04-11T14:42:30.001Z</time></trkpt><trkpt lat="36.74690012454992" lon="15.08072070309719"><ele>23.75</ele><time>2026-04-11T14:42:31.001Z</time></trkpt><trkpt lat="36.74677055741726" lon="15.080727584852449"><ele>24.5</ele><time>2026-04-11T14:42:32.001Z</time></trkpt><trkpt lat="36.746642481994115" lon="15.080729596681149"><ele>25.25</ele><time>2026-04-11T14:42:33.001Z</time></trkpt><trkpt lat="36.7465122388305" lon="15.080732236174086"><ele>26.0</ele><time>2026-04-11T14:42:34.001Z</time></trkpt><trkpt lat="36.74637286043733" lon="15.080735052774527"><ele>26.0</ele><time>2026-04-11T14:42:35.001Z</time></trkpt><trkpt lat="36.74622658422045" lon="15.080737818624574"><ele>26.0</ele><time>2026-04-11T14:42:36.001Z</time></trkpt><trkpt lat="36.746083580881866" lon="15.080740436223646"><ele>26.0</ele><time>2026-04-11T14:42:37.001Z</time></trkpt><trkpt lat="36.745929563205884" lon="15.080747230608859"><ele>26.0</ele><time>2026-04-11T14:42:38.001Z</time></trkpt><trkpt lat="36.74577547538927" lon="15.080754333822394"><ele>26.666666666666664</ele><time>2026-04-11T14:42:39.001Z</time></trkpt><trkpt lat="36.745613730381216" lon="15.080759698818927"><ele>27.333333333333336</ele><time>2026-04-11T14:42:40.001Z</time></trkpt><trkpt lat="36.74545278382806" lon="15.080764786350082"><ele>28.0</ele><time>2026-04-11T14:42:41.001Z</time></trkpt><trkpt lat="36.745282246431046" lon="15.080768569605729"><ele>28.333333333333336</ele><time>2026-04-11T14:42:42.001Z</time></trkpt><trkpt lat="36.745107349907926" lon="15.080776208423929"><ele>28.666666666666664</ele><time>2026-04-11T14:42:43.001Z</time></trkpt><trkpt lat="36.744929674499524" lon="15.080780909433845"><ele>29.0</ele><time>2026-04-11T14:42:44.001Z</time></trkpt><trkpt lat="36.74474420643411" lon="15.080786333733002"><ele>29.0</ele><time>2026-04-11T14:42:45.001Z</time></trkpt><trkpt lat="36.744559577159286" lon="15.080771979753884"><ele>29.0</ele><time>2026-04-11T14:42:46.001Z</time></trkpt><trkpt lat="36.744376248380824" lon="15.080776020673182"><ele>29.0</ele><time>2026-04-11T14:42:47.001Z</time></trkpt><trkpt lat="36.74421446715049" lon="15.080780493606683"><ele>28.25</ele><time>2026-04-11T14:42:48.001Z</time></trkpt><trkpt lat="36.74407923995928" lon="15.080784232371236"><ele>27.5</ele><time>2026-04-11T14:42:49.001Z</time></trkpt><trkpt lat="36.743947406070255" lon="15.080787877321418"><ele>26.75</ele><time>2026-04-11T14:42:50.001Z</time></trkpt><trkpt lat="36.74382064633826" lon="15.080791381993384"><ele>26.0</ele><time>2026-04-11T14:42:51.001Z</time></trkpt><trkpt lat="36.74369408243997" lon="15.080794511849287"><ele>26.0</ele><time>2026-04-11T14:42:52.001Z</time></trkpt><trkpt lat="36.74357172385153" lon="15.080797622660846"><ele>26.0</ele><time>2026-04-11T14:42:53.001Z</time></trkpt><trkpt lat="36.74344404599372" lon="15.080800868706476"><ele>26.0</ele><time>2026-04-11T14:42:54.001Z</time></trkpt><trkpt lat="36.743314085249374" lon="15.080804172793686"><ele>26.0</ele><time>2026-04-11T14:42:55.001Z</time></trkpt><trkpt lat="36.7431778313039" lon="15.080806087380532"><ele>25.0</ele><time>2026-04-11T14:42:56.001Z</time></trkpt><trkpt lat="36.7430354964691" lon="15.080809644548042"><ele>24.0</ele><time>2026-04-11T14:42:57.001Z</time></trkpt><trkpt lat="36.74289156184131" lon="15.08081324169754"><ele>23.0</ele><time>2026-04-11T14:42:58.001Z</time></trkpt><trkpt lat="36.74274003042933" lon="15.080817028701691"><ele>22.0</ele><time>2026-04-11T14:42:59.001Z</time></trkpt><trkpt lat="36.74258025266017" lon="15.080821021813474"><ele>21.333333333333332</ele><time>2026-04-11T14:43:00.001Z</time></trkpt><trkpt lat="36.74240937892248" lon="15.080824031240027"><ele>20.666666666666668</ele><time>2026-04-11T14:43:01.001Z</time></trkpt><trkpt lat="36.74223471576278" lon="15.080828484092462"><ele>20.0</ele><time>2026-04-11T14:43:02.001Z</time></trkpt><trkpt lat="36.74206266204688" lon="15.080832870439513"><ele>20.0</ele><time>2026-04-11T14:43:03.001Z</time></trkpt><trkpt lat="36.74189192920141" lon="15.080858766423713"><ele>20.0</ele><time>2026-04-11T14:43:04.001Z</time></trkpt><trkpt lat="36.741720705377965" lon="15.08085903048318"><ele>20.0</ele><time>2026-04-11T14:43:05.001Z</time></trkpt><trkpt lat="36.741546422262594" lon="15.08086406231615"><ele>19.666666666666668</ele><time>2026-04-11T14:43:06.001Z</time></trkpt><trkpt lat="36.74137238456539" lon="15.080866367981757"><ele>19.333333333333332</ele><time>2026-04-11T14:43:07.001Z</time></trkpt><trkpt lat="36.7412016554436" lon="15.080870143199657"><ele>19.0</ele><time>2026-04-11T14:43:08.001Z</time></trkpt><trkpt lat="36.74102972157846" lon="15.080875839100447"><ele>19.666666666666664</ele><time>2026-04-11T14:43:09.002Z</time></trkpt><trkpt lat="36.74085048074424" lon="15.08087994327968"><ele>20.333333333333332</ele><time>2026-04-11T14:43:10.002Z</time></trkpt><trkpt lat="36.740666735062135" lon="15.080883012329961"><ele>21.0</ele><time>2026-04-11T14:43:11.002Z</time></trkpt><trkpt lat="36.740481403669754" lon="15.080885476548403"><ele>21.0</ele><time>2026-04-11T14:43:12.002Z</time></trkpt><trkpt lat="36.74029495157699" lon="15.0808887217133"><ele>21.0</ele><time>2026-04-11T14:43:13.002Z</time></trkpt><trkpt lat="36.740109265044374" lon="15.080893356003065"><ele>21.0</ele><time>2026-04-11T14:43:14.002Z</time></trkpt><trkpt lat="36.73992783461146" lon="15.08089750283948"><ele>21.0</ele><time>2026-04-11T14:43:15.002Z</time></trkpt><trkpt lat="36.73974187417837" lon="15.08090124696899"><ele>21.0</ele><time>2026-04-11T14:43:16.003Z</time></trkpt><trkpt lat="36.73955259975311" lon="15.080906238380198"><ele>21.0</ele><time>2026-04-11T14:43:17.003Z</time></trkpt><trkpt lat="36.73936237594085" lon="15.080911784864066"><ele>21.0</ele><time>2026-04-11T14:43:18.003Z</time></trkpt><trkpt lat="36.73916698314659" lon="15.080915723546552"><ele>21.0</ele><time>2026-04-11T14:43:19.003Z</time></trkpt><trkpt lat="36.738974871138474" lon="15.080920436336365"><ele>21.0</ele><time>2026-04-11T14:43:20.003Z</time></trkpt><trkpt lat="36.73878320738132" lon="15.080924719670488"><ele>21.0</ele><time>2026-04-11T14:43:21.003Z</time></trkpt><trkpt lat="36.73859222326179" lon="15.080928942802243"><ele>21.0</ele><time>2026-04-11T14:43:22.003Z</time></trkpt><trkpt lat="36.73840353960152" lon="15.080934086232796"><ele>21.0</ele><time>2026-04-11T14:43:23.003Z</time></trkpt><trkpt lat="36.7382139086543" lon="15.080940556878728"><ele>21.666666666666668</ele><time>2026-04-11T14:43:24.003Z</time></trkpt><trkpt lat="36.73802408030658" lon="15.080946662199716"><ele>22.333333333333336</ele><time>2026-04-11T14:43:25.003Z</time></trkpt><trkpt lat="36.73783724232027" lon="15.080951088884818"><ele>23.0</ele><time>2026-04-11T14:43:26.003Z</time></trkpt><trkpt lat="36.73764954828726" lon="15.080953048203867"><ele>24.0</ele><time>2026-04-11T14:43:27.002Z</time></trkpt><trkpt lat="36.73746203837961" lon="15.080955942348742"><ele>25.0</ele><time>2026-04-11T14:43:28.002Z</time></trkpt><trkpt lat="36.73727334224707" lon="15.080959530211679"><ele>26.0</ele><time>2026-04-11T14:43:29.002Z</time></trkpt><trkpt lat="36.73708668732893" lon="15.08096491223129"><ele>26.0</ele><time>2026-04-11T14:43:30.002Z</time></trkpt><trkpt lat="36.736904806304324" lon="15.080970081529168"><ele>26.0</ele><time>2026-04-11T14:43:31.002Z</time></trkpt><trkpt lat="36.736720705263494" lon="15.080975537156823"><ele>26.0</ele><time>2026-04-11T14:43:32.002Z</time></trkpt><trkpt lat="36.73653666743042" lon="15.080978577915653"><ele>27.0</ele><time>2026-04-11T14:43:33.002Z</time></trkpt><trkpt lat="36.736366810602" lon="15.080988064214194"><ele>28.0</ele><time>2026-04-11T14:43:34.002Z</time></trkpt><trkpt lat="36.736208323771606" lon="15.081000047870813"><ele>29.0</ele><time>2026-04-11T14:43:35.002Z</time></trkpt><trkpt lat="36.73605564890423" lon="15.081016757544699"><ele>30.0</ele><time>2026-04-11T14:43:36.002Z</time></trkpt><trkpt lat="36.735904658063674" lon="15.081032236820896"><ele>31.0</ele><time>2026-04-11T14:43:37.002Z</time></trkpt><trkpt lat="36.73576680257251" lon="15.08104674052767"><ele>32.0</ele><time>2026-04-11T14:43:38.002Z</time></trkpt><trkpt lat="36.735641906964894" lon="15.081053343878462"><ele>33.0</ele><time>2026-04-11T14:43:39.002Z</time></trkpt><trkpt lat="36.7355322198283" lon="15.081053709522891"><ele>33.0</ele><time>2026-04-11T14:43:40.002Z</time></trkpt><trkpt lat="36.735438922020876" lon="15.081043807095885"><ele>33.0</ele><time>2026-04-11T14:43:41.002Z</time></trkpt><trkpt lat="36.73535390408581" lon="15.081009041438842"><ele>33.0</ele><time>2026-04-11T14:43:42.002Z</time></trkpt><trkpt lat="36.73531306552615" lon="15.080925583247764"><ele>33.0</ele><time>2026-04-11T14:43:43.002Z</time></trkpt><trkpt lat="36.73530243020578" lon="15.080834586585087"><ele>33.0</ele><time>2026-04-11T14:43:44.002Z</time></trkpt><trkpt lat="36.735321376833326" lon="15.08074873409508"><ele>33.0</ele><time>2026-04-11T14:43:45.002Z</time></trkpt><trkpt lat="36.73534227828011" lon="15.080667629988048"><ele>33.166666666666664</ele><time>2026-04-11T14:43:46.002Z</time></trkpt><trkpt lat="36.73536590468637" lon="15.080577157908817"><ele>33.333333333333336</ele><time>2026-04-11T14:43:47.002Z</time></trkpt><trkpt lat="36.73539167308884" lon="15.080470496238972"><ele>33.5</ele><time>2026-04-11T14:43:48.001Z</time></trkpt><trkpt lat="36.73541092979414" lon="15.080367101536872"><ele>33.66666666666667</ele><time>2026-04-11T14:43:49.001Z</time></trkpt><trkpt lat="36.735430065338555" lon="15.08027562407768"><ele>33.833333333333336</ele><time>2026-04-11T14:43:50.001Z</time></trkpt><trkpt lat="36.7354505063408" lon="15.080187761487545"><ele>34.0</ele><time>2026-04-11T14:43:51.001Z</time></trkpt><trkpt lat="36.735469372423765" lon="15.080088845426635"><ele>34.0</ele><time>2026-04-11T14:43:52.001Z</time></trkpt><trkpt lat="36.73549122379608" lon="15.079984818853061"><ele>34.0</ele><time>2026-04-11T14:43:53.001Z</time></trkpt><trkpt lat="36.735515003615824" lon="15.0798772146422"><ele>34.0</ele><time>2026-04-11T14:43:54.001Z</time></trkpt><trkpt lat="36.73553455004613" lon="15.07976688260401"><ele>34.0</ele><time>2026-04-11T14:43:55.001Z</time></trkpt><trkpt lat="36.73555819939748" lon="15.079658077583105"><ele>34.0</ele><time>2026-04-11T14:43:56.001Z</time></trkpt><trkpt lat="36.73558420319216" lon="15.079534953115656"><ele>34.333333333333336</ele><time>2026-04-11T14:43:57.001Z</time></trkpt><trkpt lat="36.73561673401356" lon="15.079356161890827"><ele>34.666666666666664</ele><time>2026-04-11T14:43:58.001Z</time></trkpt><trkpt lat="36.73567184194968" lon="15.079134549871759"><ele>35.0</ele><time>2026-04-11T14:43:59.001Z</time></trkpt><trkpt lat="36.73572017000289" lon="15.078878923665217"><ele>35.33333333333333</ele><time>2026-04-11T14:44:00.001Z</time></trkpt><trkpt lat="36.73576910850914" lon="15.07860236927718"><ele>35.666666666666664</ele><time>2026-04-11T14:44:01.001Z</time></trkpt><trkpt lat="36.73581958636935" lon="15.078346564934387"><ele>36.0</ele><time>2026-04-11T14:44:02.001Z</time></trkpt><trkpt lat="36.73586786170426" lon="15.078114444537405"><ele>36.333333333333336</ele><time>2026-04-11T14:44:03.001Z</time></trkpt><trkpt lat="36.73591042161861" lon="15.07789693800235"><ele>36.66666666666667</ele><time>2026-04-11T14:44:04.001Z</time></trkpt><trkpt lat="36.73596021605351" lon="15.07768206739416"><ele>37.0</ele><time>2026-04-11T14:44:05.001Z</time></trkpt><trkpt lat="36.73601427925588" lon="15.077444863382876"><ele>34.0</ele><time>2026-04-11T14:44:06.001Z</time></trkpt><trkpt lat="36.73607679938681" lon="15.077145480740423"><ele>31.0</ele><time>2026-04-11T14:44:07.001Z</time></trkpt><trkpt lat="36.73613334003025" lon="15.076855688445084"><ele>30.0</ele><time>2026-04-11T14:44:08.001Z</time></trkpt><trkpt lat="36.73619456404757" lon="15.076566280982297"><ele>29.0</ele><time>2026-04-11T14:44:09.001Z</time></trkpt><trkpt lat="36.73626669345848" lon="15.076244215135421"><ele>29.0</ele><time>2026-04-11T14:44:10.001Z</time></trkpt><trkpt lat="36.736334172747696" lon="15.075903594290187"><ele>29.0</ele><time>2026-04-11T14:44:11.001Z</time></trkpt><trkpt lat="36.73639981173679" lon="15.075578525401982"><ele>31.0</ele><time>2026-04-11T14:44:12.001Z</time></trkpt><trkpt lat="36.73646416036404" lon="15.075290105584266"><ele>33.0</ele><time>2026-04-11T14:44:13.001Z</time></trkpt><trkpt lat="36.73651864335291" lon="15.075030783350178"><ele>33.666666666666664</ele><time>2026-04-11T14:44:14.001Z</time></trkpt><trkpt lat="36.73657308105955" lon="15.074796443217718"><ele>34.33333333333333</ele><time>2026-04-11T14:44:15.001Z</time></trkpt><trkpt lat="36.73661473662402" lon="15.074579250446433"><ele>35.0</ele><time>2026-04-11T14:44:16.001Z</time></trkpt><trkpt lat="36.73665952554805" lon="15.074360709305745"><ele>35.0</ele><time>2026-04-11T14:44:17.001Z</time></trkpt><trkpt lat="36.736700969688755" lon="15.074156482543897"><ele>35.0</ele><time>2026-04-11T14:44:18.001Z</time></trkpt><trkpt lat="36.73673480434311" lon="15.073945862113549"><ele>35.0</ele><time>2026-04-11T14:44:19.001Z</time></trkpt><trkpt lat="36.73675118517854" lon="15.07373494669583"><ele>35.0</ele><time>2026-04-11T14:44:20.001Z</time></trkpt><trkpt lat="36.73675686194346" lon="15.073523847444921"><ele>35.0</ele><time>2026-04-11T14:44:21.001Z</time></trkpt><trkpt lat="36.73675630221142" lon="15.07330802985651"><ele>35.0</ele><time>2026-04-11T14:44:22.001Z</time></trkpt><trkpt lat="36.736751384952456" lon="15.073095177035958"><ele>35.0</ele><time>2026-04-11T14:44:23.001Z</time></trkpt><trkpt lat="36.73674911269545" lon="15.072887135475588"><ele>35.0</ele><time>2026-04-11T14:44:24.001Z</time></trkpt><trkpt lat="36.736745238340625" lon="15.0726730522687"><ele>35.0</ele><time>2026-04-11T14:44:25.001Z</time></trkpt><trkpt lat="36.73674291169088" lon="15.072460580984126"><ele>35.0</ele><time>2026-04-11T14:44:26.001Z</time></trkpt><trkpt lat="36.736739250011425" lon="15.072239877671223"><ele>35.0</ele><time>2026-04-11T14:44:27.001Z</time></trkpt><trkpt lat="36.73673571374868" lon="15.072007515247646"><ele>35.0</ele><time>2026-04-11T14:44:28.001Z</time></trkpt><trkpt lat="36.73672805246074" lon="15.071764882196772"><ele>35.0</ele><time>2026-04-11T14:44:29.001Z</time></trkpt><trkpt lat="36.73672933298899" lon="15.071526768722272"><ele>35.0</ele><time>2026-04-11T14:44:30.001Z</time></trkpt><trkpt lat="36.73674920247163" lon="15.071276992124075"><ele>35.0</ele><time>2026-04-11T14:44:31.001Z</time></trkpt><trkpt lat="36.73677906481839" lon="15.07102288855094"><ele>35.666666666666664</ele><time>2026-04-11T14:44:32.001Z</time></trkpt><trkpt lat="36.736816951332486" lon="15.070772228907074"><ele>36.333333333333336</ele><time>2026-04-11T14:44:33.001Z</time></trkpt><trkpt lat="36.73686002668312" lon="15.070531159383604"><ele>37.0</ele><time>2026-04-11T14:44:34.001Z</time></trkpt><trkpt lat="36.73688392133191" lon="15.07029257601066"><ele>36.0</ele><time>2026-04-11T14:44:35.001Z</time></trkpt><trkpt lat="36.736911910760696" lon="15.07007168330912"><ele>35.0</ele><time>2026-04-11T14:44:36.001Z</time></trkpt><trkpt lat="36.73693892170629" lon="15.069856778916806"><ele>34.0</ele><time>2026-04-11T14:44:37.001Z</time></trkpt><trkpt lat="36.736966091577614" lon="15.06964389769255"><ele>34.0</ele><time>2026-04-11T14:44:38.001Z</time></trkpt><trkpt lat="36.73699100086492" lon="15.069441305567638"><ele>34.0</ele><time>2026-04-11T14:44:39.001Z</time></trkpt><trkpt lat="36.73702064336082" lon="15.069225753481682"><ele>34.0</ele><time>2026-04-11T14:44:40.001Z</time></trkpt><trkpt lat="36.73705331294814" lon="15.069009309990797"><ele>34.0</ele><time>2026-04-11T14:44:41.001Z</time></trkpt><trkpt lat="36.73709036363074" lon="15.068801515271348"><ele>34.0</ele><time>2026-04-11T14:44:42.001Z</time></trkpt><trkpt lat="36.73713686365896" lon="15.068603379642243"><ele>34.0</ele><time>2026-04-11T14:44:43.001Z</time></trkpt><trkpt lat="36.737190110605624" lon="15.068409363174284"><ele>34.25</ele><time>2026-04-11T14:44:44.001Z</time></trkpt><trkpt lat="36.73724456537502" lon="15.068224565762183"><ele>34.5</ele><time>2026-04-11T14:44:45.001Z</time></trkpt><trkpt lat="36.73729711130818" lon="15.068056433707945"><ele>34.75</ele><time>2026-04-11T14:44:46.001Z</time></trkpt><trkpt lat="36.73734978994333" lon="15.067894156470855"><ele>35.0</ele><time>2026-04-11T14:44:47.001Z</time></trkpt><trkpt lat="36.73739596202102" lon="15.067738487845482"><ele>35.0</ele><time>2026-04-11T14:44:48.001Z</time></trkpt><trkpt lat="36.73744273700869" lon="15.067591747809871"><ele>35.0</ele><time>2026-04-11T14:44:49.001Z</time></trkpt><trkpt lat="36.737487616030705" lon="15.0674508515258"><ele>35.0</ele><time>2026-04-11T14:44:50.001Z</time></trkpt><trkpt lat="36.73752947418872" lon="15.067315035836078"><ele>35.0</ele><time>2026-04-11T14:44:51.001Z</time></trkpt><trkpt lat="36.73757071029379" lon="15.067182765162833"><ele>34.6</ele><time>2026-04-11T14:44:52.001Z</time></trkpt><trkpt lat="36.73761375686096" lon="15.067054994943167"><ele>34.2</ele><time>2026-04-11T14:44:53.001Z</time></trkpt><trkpt lat="36.73765511315298" lon="15.06693357928686"><ele>33.8</ele><time>2026-04-11T14:44:54.001Z</time></trkpt><trkpt lat="36.73769405581018" lon="15.06681021196231"><ele>33.4</ele><time>2026-04-11T14:44:55.001Z</time></trkpt><trkpt lat="36.73773602286896" lon="15.066676573684411"><ele>33.0</ele><time>2026-04-11T14:44:56.001Z</time></trkpt><trkpt lat="36.73778078320408" lon="15.066537568602728"><ele>32.4</ele><time>2026-04-11T14:44:57.001Z</time></trkpt><trkpt lat="36.73782362889692" lon="15.066411938465645"><ele>31.799999999999997</ele><time>2026-04-11T14:44:58.001Z</time></trkpt><trkpt lat="36.73785635668976" lon="15.066305750738668"><ele>31.2</ele><time>2026-04-11T14:44:59.001Z</time></trkpt><trkpt lat="36.73788116704704" lon="15.066209321342372"><ele>30.6</ele><time>2026-04-11T14:45:00.001Z</time></trkpt><trkpt lat="36.73783049723341" lon="15.066061705606057"><ele>30.0</ele><time>2026-04-11T14:45:02.001Z</time></trkpt><trkpt lat="36.73777660678555" lon="15.066007345096551"><ele>30.5</ele><time>2026-04-11T14:45:03.001Z</time></trkpt><trkpt lat="36.73770509279454" lon="15.065924537503355"><ele>31.0</ele><time>2026-04-11T14:45:04.001Z</time></trkpt><trkpt lat="36.737604991250564" lon="15.065802398911616"><ele>31.5</ele><time>2026-04-11T14:45:05.001Z</time></trkpt><trkpt lat="36.737480153225164" lon="15.06564696169232"><ele>32.0</ele><time>2026-04-11T14:45:06.001Z</time></trkpt><trkpt lat="36.73734660980375" lon="15.065487074500158"><ele>32.0</ele><time>2026-04-11T14:45:07.001Z</time></trkpt><trkpt lat="36.73720198346017" lon="15.065308316812665"><ele>32.0</ele><time>2026-04-11T14:45:08.001Z</time></trkpt><trkpt lat="36.737061339538286" lon="15.06508850485752"><ele>32.0</ele><time>2026-04-11T14:45:09.001Z</time></trkpt><trkpt lat="36.736929897431466" lon="15.064890635045236"><ele>33.33333333333333</ele><time>2026-04-11T14:45:10.001Z</time></trkpt><trkpt lat="36.73680012253777" lon="15.064686660974127"><ele>34.666666666666664</ele><time>2026-04-11T14:45:11.001Z</time></trkpt><trkpt lat="36.73669191815042" lon="15.064490549263649"><ele>36.0</ele><time>2026-04-11T14:45:12.001Z</time></trkpt><trkpt lat="36.73658812952281" lon="15.064315610584863"><ele>36.0</ele><time>2026-04-11T14:45:13.001Z</time></trkpt><trkpt lat="36.73650093046955" lon="15.064179741160114"><ele>36.0</ele><time>2026-04-11T14:45:14.001Z</time></trkpt><trkpt lat="36.73644791210919" lon="15.064100839915278"><ele>36.0</ele><time>2026-04-11T14:45:15.001Z</time></trkpt><trkpt lat="36.73640176212455" lon="15.064043192653953"><ele>36.0</ele><time>2026-04-11T14:45:16.001Z</time></trkpt><trkpt lat="36.73634924571661" lon="15.063984577685101"><ele>36.0</ele><time>2026-04-11T14:45:17.001Z</time></trkpt><trkpt lat="36.73629706524113" lon="15.063926438207114"><ele>36.0</ele><time>2026-04-11T14:45:18.001Z</time></trkpt><trkpt lat="36.73622938632725" lon="15.063854362050357"><ele>36.0</ele><time>2026-04-11T14:45:19.001Z</time></trkpt><trkpt lat="36.736155013435926" lon="15.063774070473421"><ele>36.0</ele><time>2026-04-11T14:45:20.001Z</time></trkpt><trkpt lat="36.73607721100622" lon="15.06368790856081"><ele>36.0</ele><time>2026-04-11T14:45:21.001Z</time></trkpt><trkpt lat="36.735995782880174" lon="15.063590613684742"><ele>36.0</ele><time>2026-04-11T14:45:22.003Z</time></trkpt><trkpt lat="36.73591113164056" lon="15.063489138013685"><ele>36.0</ele><time>2026-04-11T14:45:23.003Z</time></trkpt><trkpt lat="36.735827961484" lon="15.063376303104308"><ele>36.0</ele><time>2026-04-11T14:45:24.003Z</time></trkpt><trkpt lat="36.73574294522297" lon="15.063264985797998"><ele>36.0</ele><time>2026-04-11T14:45:25.003Z</time></trkpt><trkpt lat="36.73565998513475" lon="15.063167552584547"><ele>36.0</ele><time>2026-04-11T14:45:26.003Z</time></trkpt><trkpt lat="36.735575169780546" lon="15.063064431618445"><ele>36.0</ele><time>2026-04-11T14:45:27.003Z</time></trkpt><trkpt lat="36.735489564689836" lon="15.062960809685675"><ele>36.0</ele><time>2026-04-11T14:45:28.003Z</time></trkpt><trkpt lat="36.73540020914329" lon="15.062859407741419"><ele>36.0</ele><time>2026-04-11T14:45:29.002Z</time></trkpt><trkpt lat="36.73530580320949" lon="15.062748364184111"><ele>36.0</ele><time>2026-04-11T14:45:30.002Z</time></trkpt><trkpt lat="36.735209486392264" lon="15.062637275585377"><ele>36.0</ele><time>2026-04-11T14:45:31.002Z</time></trkpt><trkpt lat="36.73511126504993" lon="15.06252542214392"><ele>36.75</ele><time>2026-04-11T14:45:32.002Z</time></trkpt><trkpt lat="36.73501440611813" lon="15.062414059273394"><ele>37.5</ele><time>2026-04-11T14:45:33.002Z</time></trkpt><trkpt lat="36.73491685405486" lon="15.062305072236587"><ele>38.25</ele><time>2026-04-11T14:45:34.002Z</time></trkpt><trkpt lat="36.73481861485232" lon="15.06220227676964"><ele>39.0</ele><time>2026-04-11T14:45:35.002Z</time></trkpt><trkpt lat="36.73472554301443" lon="15.062103863249451"><ele>39.0</ele><time>2026-04-11T14:45:36.002Z</time></trkpt><trkpt lat="36.734638861097416" lon="15.062008746513516"><ele>39.0</ele><time>2026-04-11T14:45:37.002Z</time></trkpt><trkpt lat="36.73456075385293" lon="15.061923398663597"><ele>39.0</ele><time>2026-04-11T14:45:38.002Z</time></trkpt><trkpt lat="36.73447447135536" lon="15.061839926957191"><ele>39.0</ele><time>2026-04-11T14:45:39.002Z</time></trkpt><trkpt lat="36.734382097690236" lon="15.06175921330413"><ele>39.0</ele><time>2026-04-11T14:45:40.002Z</time></trkpt><trkpt lat="36.73427317774481" lon="15.061678360658322"><ele>38.666666666666664</ele><time>2026-04-11T14:45:41.002Z</time></trkpt><trkpt lat="36.734149652967865" lon="15.061557165034637"><ele>38.33333333333333</ele><time>2026-04-11T14:45:42.002Z</time></trkpt><trkpt lat="36.733989418275975" lon="15.061431379082224"><ele>38.0</ele><time>2026-04-11T14:45:43.002Z</time></trkpt><trkpt lat="36.733809837713956" lon="15.061292832349478"><ele>38.0</ele><time>2026-04-11T14:45:44.002Z</time></trkpt><trkpt lat="36.73362192698502" lon="15.061148011197368"><ele>38.0</ele><time>2026-04-11T14:45:45.002Z</time></trkpt><trkpt lat="36.733418640044995" lon="15.0609999515091"><ele>38.666666666666664</ele><time>2026-04-11T14:45:46.001Z</time></trkpt><trkpt lat="36.73324422629543" lon="15.060842133735626"><ele>39.333333333333336</ele><time>2026-04-11T14:45:47.001Z</time></trkpt><trkpt lat="36.73308042885368" lon="15.060694211787675"><ele>40.0</ele><time>2026-04-11T14:45:48.001Z</time></trkpt><trkpt lat="36.73293556849936" lon="15.060552871703893"><ele>40.0</ele><time>2026-04-11T14:45:49.001Z</time></trkpt><trkpt lat="36.73278877984754" lon="15.060396548829043"><ele>40.0</ele><time>2026-04-11T14:45:50.001Z</time></trkpt><trkpt lat="36.73265193752153" lon="15.060232677324024"><ele>40.0</ele><time>2026-04-11T14:45:51.001Z</time></trkpt><trkpt lat="36.732508392972974" lon="15.060072063603787"><ele>39.333333333333336</ele><time>2026-04-11T14:45:52.001Z</time></trkpt><trkpt lat="36.73236714921512" lon="15.059913311417871"><ele>38.666666666666664</ele><time>2026-04-11T14:45:53.001Z</time></trkpt><trkpt lat="36.732222300093014" lon="15.059753075126341"><ele>38.0</ele><time>2026-04-11T14:45:54.001Z</time></trkpt><trkpt lat="36.73207199559746" lon="15.059589106577402"><ele>38.0</ele><time>2026-04-11T14:45:55.001Z</time></trkpt><trkpt lat="36.731919656271934" lon="15.059423736933836"><ele>38.0</ele><time>2026-04-11T14:45:56.001Z</time></trkpt><trkpt lat="36.73176684685466" lon="15.05925751771434"><ele>38.0</ele><time>2026-04-11T14:45:57.001Z</time></trkpt><trkpt lat="36.73161450145196" lon="15.059090902044012"><ele>37.33333333333333</ele><time>2026-04-11T14:45:58.001Z</time></trkpt><trkpt lat="36.73145958908102" lon="15.058919996808045"><ele>36.666666666666664</ele><time>2026-04-11T14:45:59.001Z</time></trkpt><trkpt lat="36.731310150662225" lon="15.058752836712276"><ele>36.0</ele><time>2026-04-11T14:46:00.001Z</time></trkpt><trkpt lat="36.731164324266345" lon="15.058585633047"><ele>36.666666666666664</ele><time>2026-04-11T14:46:01.001Z</time></trkpt><trkpt lat="36.73102453106676" lon="15.058419206696147"><ele>37.33333333333333</ele><time>2026-04-11T14:46:02.001Z</time></trkpt><trkpt lat="36.7308860597918" lon="15.058261454316648"><ele>38.0</ele><time>2026-04-11T14:46:03.001Z</time></trkpt><trkpt lat="36.73074792494517" lon="15.058111735839283"><ele>36.666666666666664</ele><time>2026-04-11T14:46:04.001Z</time></trkpt><trkpt lat="36.730608562976386" lon="15.057967854820056"><ele>35.333333333333336</ele><time>2026-04-11T14:46:05.001Z</time></trkpt><trkpt lat="36.730469662404374" lon="15.057828922898842"><ele>34.0</ele><time>2026-04-11T14:46:06.001Z</time></trkpt><trkpt lat="36.730326597930016" lon="15.057697913770136"><ele>34.0</ele><time>2026-04-11T14:46:07.001Z</time></trkpt><trkpt lat="36.73016612466794" lon="15.05757858989176"><ele>34.0</ele><time>2026-04-11T14:46:08.001Z</time></trkpt><trkpt lat="36.72999174007844" lon="15.05746530222947"><ele>34.0</ele><time>2026-04-11T14:46:09.001Z</time></trkpt><trkpt lat="36.72980548097256" lon="15.057352044750145"><ele>34.0</ele><time>2026-04-11T14:46:10.001Z</time></trkpt><trkpt lat="36.72961785513802" lon="15.057241140525466"><ele>34.0</ele><time>2026-04-11T14:46:11.001Z</time></trkpt><trkpt lat="36.72943127081906" lon="15.057127788173856"><ele>34.0</ele><time>2026-04-11T14:46:12.001Z</time></trkpt><trkpt lat="36.729243857308155" lon="15.057014959005759"><ele>35.0</ele><time>2026-04-11T14:46:13.001Z</time></trkpt><trkpt lat="36.729059627940494" lon="15.056897595954583"><ele>36.0</ele><time>2026-04-11T14:46:14.001Z</time></trkpt><trkpt lat="36.72887673210687" lon="15.05677835788653"><ele>37.0</ele><time>2026-04-11T14:46:15.001Z</time></trkpt><trkpt lat="36.7287036933382" lon="15.056668286508842"><ele>36.333333333333336</ele><time>2026-04-11T14:46:16.001Z</time></trkpt><trkpt lat="36.72853715485201" lon="15.056573431694334"><ele>35.666666666666664</ele><time>2026-04-11T14:46:17.001Z</time></trkpt><trkpt lat="36.728363804737754" lon="15.05648470219413"><ele>35.0</ele><time>2026-04-11T14:46:18.001Z</time></trkpt><trkpt lat="36.72818733167751" lon="15.056399727541047"><ele>35.0</ele><time>2026-04-11T14:46:19.001Z</time></trkpt><trkpt lat="36.72799853221111" lon="15.056319928018823"><ele>35.0</ele><time>2026-04-11T14:46:20.001Z</time></trkpt><trkpt lat="36.727812995520935" lon="15.05622663345083"><ele>35.0</ele><time>2026-04-11T14:46:21.001Z</time></trkpt><trkpt lat="36.72762738394666" lon="15.056171080370103"><ele>34.33333333333333</ele><time>2026-04-11T14:46:22.001Z</time></trkpt><trkpt lat="36.72744545984649" lon="15.056107803462249"><ele>33.666666666666664</ele><time>2026-04-11T14:46:23.001Z</time></trkpt><trkpt lat="36.727259840482226" lon="15.056041841785348"><ele>33.0</ele><time>2026-04-11T14:46:24.001Z</time></trkpt><trkpt lat="36.727067612420704" lon="15.055985961053054"><ele>32.333333333333336</ele><time>2026-04-11T14:46:25.001Z</time></trkpt><trkpt lat="36.72687544335492" lon="15.05590731324674"><ele>31.666666666666668</ele><time>2026-04-11T14:46:26.001Z</time></trkpt><trkpt lat="36.72668397133425" lon="15.05582343797188"><ele>31.0</ele><time>2026-04-11T14:46:27.001Z</time></trkpt><trkpt lat="36.726492082686704" lon="15.055740100949958"><ele>31.0</ele><time>2026-04-11T14:46:28.001Z</time></trkpt><trkpt lat="36.72630030996517" lon="15.05565540874699"><ele>31.0</ele><time>2026-04-11T14:46:29.001Z</time></trkpt><trkpt lat="36.72610555558458" lon="15.055572543383827"><ele>31.0</ele><time>2026-04-11T14:46:30.001Z</time></trkpt><trkpt lat="36.725906123777975" lon="15.055490102125212"><ele>32.0</ele><time>2026-04-11T14:46:31.001Z</time></trkpt><trkpt lat="36.72570821694726" lon="15.05540800221384"><ele>33.0</ele><time>2026-04-11T14:46:32.001Z</time></trkpt><trkpt lat="36.72551545520882" lon="15.05532908565194"><ele>34.0</ele><time>2026-04-11T14:46:33.001Z</time></trkpt><trkpt lat="36.72533583399122" lon="15.055255324631261"><ele>34.0</ele><time>2026-04-11T14:46:34.001Z</time></trkpt><trkpt lat="36.72517245830456" lon="15.0551854696547"><ele>34.0</ele><time>2026-04-11T14:46:35.001Z</time></trkpt><trkpt lat="36.72502128820388" lon="15.055116538765759"><ele>34.0</ele><time>2026-04-11T14:46:36.001Z</time></trkpt><trkpt lat="36.72488075209809" lon="15.055055524838519"><ele>34.0</ele><time>2026-04-11T14:46:37.001Z</time></trkpt><trkpt lat="36.7247589391681" lon="15.054990112913766"><ele>34.0</ele><time>2026-04-11T14:46:38.001Z</time></trkpt><trkpt lat="36.72464941715129" lon="15.054921860902043"><ele>34.0</ele><time>2026-04-11T14:46:39.001Z</time></trkpt><trkpt lat="36.72455303166383" lon="15.054840109399475"><ele>34.0</ele><time>2026-04-11T14:46:40.001Z</time></trkpt><trkpt lat="36.724467632450796" lon="15.054741400998207"><ele>34.0</ele><time>2026-04-11T14:46:41.001Z</time></trkpt><trkpt lat="36.72436501366125" lon="15.054620004723025"><ele>34.0</ele><time>2026-04-11T14:46:42.001Z</time></trkpt><trkpt lat="36.72426707647322" lon="15.054486498581864"><ele>34.0</ele><time>2026-04-11T14:46:43.001Z</time></trkpt><trkpt lat="36.7241730274768" lon="15.054339021795803"><ele>34.0</ele><time>2026-04-11T14:46:44.001Z</time></trkpt><trkpt lat="36.72409135591091" lon="15.054203340080408"><ele>33.25</ele><time>2026-04-11T14:46:45.001Z</time></trkpt><trkpt lat="36.72400681697888" lon="15.054080041333293"><ele>32.5</ele><time>2026-04-11T14:46:46.001Z</time></trkpt><trkpt lat="36.723919537809614" lon="15.05396439749127"><ele>31.75</ele><time>2026-04-11T14:46:47.001Z</time></trkpt><trkpt lat="36.72383767000174" lon="15.053849184340095"><ele>31.0</ele><time>2026-04-11T14:46:48.001Z</time></trkpt><trkpt lat="36.723758195652366" lon="15.053737163561337"><ele>31.0</ele><time>2026-04-11T14:46:49.001Z</time></trkpt><trkpt lat="36.72368334022058" lon="15.053628634380104"><ele>31.0</ele><time>2026-04-11T14:46:50.001Z</time></trkpt><trkpt lat="36.72360863368077" lon="15.053528137693405"><ele>31.0</ele><time>2026-04-11T14:46:51.001Z</time></trkpt><trkpt lat="36.72354287593548" lon="15.05343940497351"><ele>31.0</ele><time>2026-04-11T14:46:52.001Z</time></trkpt><trkpt lat="36.723477160343585" lon="15.053354096434157"><ele>31.0</ele><time>2026-04-11T14:46:53Z</time></trkpt><trkpt lat="36.72341712399698" lon="15.053272467409412"><ele>30.000000000000004</ele><time>2026-04-11T14:46:54Z</time></trkpt><trkpt lat="36.723363162636105" lon="15.053200773266367"><ele>29.0</ele><time>2026-04-11T14:46:55Z</time></trkpt><trkpt lat="36.72331941507046" lon="15.053143706250195"><ele>28.0</ele><time>2026-04-11T14:46:56Z</time></trkpt><trkpt lat="36.723254623999786" lon="15.053059511637377"><ele>27.0</ele><time>2026-04-11T14:46:58Z</time></trkpt><trkpt lat="36.723206478239305" lon="15.052997257486952"><ele>26.000000000000004</ele><time>2026-04-11T14:47:19Z</time></trkpt><trkpt lat="36.72314991400898" lon="15.052934255997284"><ele>25.0</ele><time>2026-04-11T14:47:20Z</time></trkpt><trkpt lat="36.72309057241854" lon="15.052868611375754"><ele>25.0</ele><time>2026-04-11T14:47:21Z</time></trkpt><trkpt lat="36.72304685089364" lon="15.052789296777771"><ele>25.0</ele><time>2026-04-11T14:47:22Z</time></trkpt><trkpt lat="36.722975722265424" lon="15.052705974884649"><ele>25.0</ele><time>2026-04-11T14:47:23Z</time></trkpt><trkpt lat="36.722887601141615" lon="15.052625824089523"><ele>25.0</ele><time>2026-04-11T14:47:24Z</time></trkpt><trkpt lat="36.72279665136466" lon="15.052510486762337"><ele>25.0</ele><time>2026-04-11T14:47:25Z</time></trkpt><trkpt lat="36.722670501762614" lon="15.05235724968697"><ele>26.333333333333336</ele><time>2026-04-11T14:47:26Z</time></trkpt><trkpt lat="36.72252172372388" lon="15.05217905181468"><ele>27.666666666666664</ele><time>2026-04-11T14:47:27Z</time></trkpt><trkpt lat="36.72237516098365" lon="15.051982170115535"><ele>29.0</ele><time>2026-04-11T14:47:28.002Z</time></trkpt><trkpt lat="36.722225686880535" lon="15.051814410479738"><ele>29.0</ele><time>2026-04-11T14:47:29.002Z</time></trkpt><trkpt lat="36.72205675317814" lon="15.051651351295325"><ele>29.0</ele><time>2026-04-11T14:47:30.002Z</time></trkpt><trkpt lat="36.72187635797873" lon="15.051471310749493"><ele>29.0</ele><time>2026-04-11T14:47:31.002Z</time></trkpt><trkpt lat="36.72169356425597" lon="15.051275976030952"><ele>29.0</ele><time>2026-04-11T14:47:32.002Z</time></trkpt><trkpt lat="36.72152431514871" lon="15.051078396071265"><ele>29.0</ele><time>2026-04-11T14:47:33.002Z</time></trkpt><trkpt lat="36.721363525076434" lon="15.050863211740964"><ele>27.5</ele><time>2026-04-11T14:47:34.002Z</time></trkpt><trkpt lat="36.7212242033903" lon="15.05063182606504"><ele>26.0</ele><time>2026-04-11T14:47:35.002Z</time></trkpt><trkpt lat="36.721089577260116" lon="15.050400128052175"><ele>25.666666666666664</ele><time>2026-04-11T14:47:36.002Z</time></trkpt><trkpt lat="36.7209521855072" lon="15.050171378507184"><ele>25.333333333333336</ele><time>2026-04-11T14:47:37.002Z</time></trkpt><trkpt lat="36.72083111064064" lon="15.049952627921739"><ele>25.0</ele><time>2026-04-11T14:47:38.002Z</time></trkpt><trkpt lat="36.720707072217905" lon="15.049731633664893"><ele>25.0</ele><time>2026-04-11T14:47:39.002Z</time></trkpt><trkpt lat="36.72058340179266" lon="15.04952073560616"><ele>25.0</ele><time>2026-04-11T14:47:40.002Z</time></trkpt><trkpt lat="36.72045738033805" lon="15.049315118951451"><ele>25.0</ele><time>2026-04-11T14:47:41.001Z</time></trkpt><trkpt lat="36.72031547141738" lon="15.049099685346514"><ele>25.0</ele><time>2026-04-11T14:47:42.001Z</time></trkpt><trkpt lat="36.720157648397084" lon="15.048897104755847"><ele>25.0</ele><time>2026-04-11T14:47:43.001Z</time></trkpt><trkpt lat="36.719974854678405" lon="15.048711620828387"><ele>25.0</ele><time>2026-04-11T14:47:44.001Z</time></trkpt><trkpt lat="36.71978674500738" lon="15.048541398205776"><ele>25.0</ele><time>2026-04-11T14:47:45.001Z</time></trkpt><trkpt lat="36.71960048239949" lon="15.048368714550412"><ele>23.5</ele><time>2026-04-11T14:47:46.001Z</time></trkpt><trkpt lat="36.71941663679657" lon="15.048195576581563"><ele>22.0</ele><time>2026-04-11T14:47:47.001Z</time></trkpt><trkpt lat="36.71922904129892" lon="15.048034896304792"><ele>22.0</ele><time>2026-04-11T14:47:48.001Z</time></trkpt><trkpt lat="36.719031426648556" lon="15.04789430266197"><ele>22.0</ele><time>2026-04-11T14:47:49.001Z</time></trkpt><trkpt lat="36.718816764773415" lon="15.047768281233738"><ele>22.0</ele><time>2026-04-11T14:47:50.001Z</time></trkpt><trkpt lat="36.71858068970344" lon="15.047635020943055"><ele>22.0</ele><time>2026-04-11T14:47:51.001Z</time></trkpt><trkpt lat="36.71834542438534" lon="15.047495962622731"><ele>22.0</ele><time>2026-04-11T14:47:52.001Z</time></trkpt><trkpt lat="36.71813236054497" lon="15.047358785708155"><ele>22.0</ele><time>2026-04-11T14:47:53.001Z</time></trkpt><trkpt lat="36.717943232442266" lon="15.047220641354048"><ele>22.0</ele><time>2026-04-11T14:47:54.001Z</time></trkpt><trkpt lat="36.71777642492208" lon="15.047093204830958"><ele>22.0</ele><time>2026-04-11T14:47:55.001Z</time></trkpt><trkpt lat="36.71763672809813" lon="15.04695926360981"><ele>22.0</ele><time>2026-04-11T14:47:56.001Z</time></trkpt><trkpt lat="36.71752173223458" lon="15.046801846188519"><ele>22.333333333333332</ele><time>2026-04-11T14:47:57.001Z</time></trkpt><trkpt lat="36.71740622810123" lon="15.04663578769054"><ele>22.666666666666668</ele><time>2026-04-11T14:47:58.001Z</time></trkpt><trkpt lat="36.71730194915567" lon="15.04642438272542"><ele>23.0</ele><time>2026-04-11T14:47:59.001Z</time></trkpt><trkpt lat="36.717211624889345" lon="15.046188003518632"><ele>21.5</ele><time>2026-04-11T14:48:00.001Z</time></trkpt><trkpt lat="36.717118462453236" lon="15.045923463394315"><ele>20.0</ele><time>2026-04-11T14:48:01.001Z</time></trkpt><trkpt lat="36.717004637712414" lon="15.045677512244467"><ele>17.0</ele><time>2026-04-11T14:48:02.001Z</time></trkpt><trkpt lat="36.71684518167577" lon="15.045421940074037"><ele>14.0</ele><time>2026-04-11T14:48:03.001Z</time></trkpt><trkpt lat="36.71668274659996" lon="15.04517058221265"><ele>13.0</ele><time>2026-04-11T14:48:04.001Z</time></trkpt><trkpt lat="36.71653532126074" lon="15.044931280799272"><ele>12.0</ele><time>2026-04-11T14:48:05.001Z</time></trkpt><trkpt lat="36.71640642567223" lon="15.044704111049066"><ele>12.0</ele><time>2026-04-11T14:48:06.001Z</time></trkpt><trkpt lat="36.71629143914536" lon="15.044484155533892"><ele>12.0</ele><time>2026-04-11T14:48:07.001Z</time></trkpt><trkpt lat="36.716197295101" lon="15.044261443851063"><ele>12.0</ele><time>2026-04-11T14:48:08.001Z</time></trkpt><trkpt lat="36.71610950328474" lon="15.044023882692274"><ele>11.5</ele><time>2026-04-11T14:48:09.001Z</time></trkpt><trkpt lat="36.71603461462524" lon="15.043762508017085"><ele>11.0</ele><time>2026-04-11T14:48:10Z</time></trkpt><trkpt lat="36.7159801780754" lon="15.043477743724413"><ele>10.5</ele><time>2026-04-11T14:48:11Z</time></trkpt><trkpt lat="36.71594288582936" lon="15.043180916865783"><ele>10.0</ele><time>2026-04-11T14:48:12Z</time></trkpt><trkpt lat="36.71589662588335" lon="15.042895974634597"><ele>10.0</ele><time>2026-04-11T14:48:13Z</time></trkpt><trkpt lat="36.715836856713686" lon="15.042624444369642"><ele>10.0</ele><time>2026-04-11T14:48:14Z</time></trkpt><trkpt lat="36.71575615705468" lon="15.042354741992366"><ele>10.0</ele><time>2026-04-11T14:48:15Z</time></trkpt><trkpt lat="36.71567699751165" lon="15.042092002711826"><ele>10.0</ele><time>2026-04-11T14:48:16Z</time></trkpt><trkpt lat="36.715598387744336" lon="15.041838517076183"><ele>10.0</ele><time>2026-04-11T14:48:17Z</time></trkpt><trkpt lat="36.715494873581434" lon="15.041589585888119"><ele>10.0</ele><time>2026-04-11T14:48:18Z</time></trkpt><trkpt lat="36.715436595848466" lon="15.041335748635781"><ele>10.0</ele><time>2026-04-11T14:48:19Z</time></trkpt><trkpt lat="36.715363570635894" lon="15.041102263077256"><ele>10.0</ele><time>2026-04-11T14:48:20Z</time></trkpt><trkpt lat="36.71509222518734" lon="15.040962593830187"><ele>9.666666666666668</ele><time>2026-04-11T14:48:21Z</time></trkpt><trkpt lat="36.714947750698514" lon="15.040759139809555"><ele>9.333333333333334</ele><time>2026-04-11T14:48:22Z</time></trkpt><trkpt lat="36.71482671270159" lon="15.040543964085947"><ele>9.0</ele><time>2026-04-11T14:48:23Z</time></trkpt><trkpt lat="36.714746650291126" lon="15.040306954714907"><ele>9.0</ele><time>2026-04-11T14:48:24Z</time></trkpt><trkpt lat="36.71470845943782" lon="15.04006274028434"><ele>9.0</ele><time>2026-04-11T14:48:25Z</time></trkpt><trkpt lat="36.7146938150086" lon="15.039815212371883"><ele>9.0</ele><time>2026-04-11T14:48:26Z</time></trkpt><trkpt lat="36.714685605101046" lon="15.039590079899398"><ele>8.666666666666666</ele><time>2026-04-11T14:48:27Z</time></trkpt><trkpt lat="36.714667961959705" lon="15.039387208887307"><ele>8.333333333333332</ele><time>2026-04-11T14:48:28Z</time></trkpt><trkpt lat="36.714640951709846" lon="15.039197597943028"><ele>8.0</ele><time>2026-04-11T14:48:29Z</time></trkpt><trkpt lat="36.71458628723138" lon="15.039005642144515"><ele>8.0</ele><time>2026-04-11T14:48:30Z</time></trkpt><trkpt lat="36.71450731998749" lon="15.0388235591735"><ele>8.0</ele><time>2026-04-11T14:48:31Z</time></trkpt><trkpt lat="36.7144212780391" lon="15.038648972944065"><ele>8.0</ele><time>2026-04-11T14:48:32Z</time></trkpt><trkpt lat="36.71432875436453" lon="15.038481134675504"><ele>8.25</ele><time>2026-04-11T14:48:33Z</time></trkpt><trkpt lat="36.714238682864924" lon="15.038326666176184"><ele>8.5</ele><time>2026-04-11T14:48:34Z</time></trkpt><trkpt lat="36.71415491573494" lon="15.038176167063943"><ele>8.75</ele><time>2026-04-11T14:48:35Z</time></trkpt><trkpt lat="36.714076740003335" lon="15.038040132644362"><ele>9.0</ele><time>2026-04-11T14:48:36Z</time></trkpt><trkpt lat="36.714004060497594" lon="15.037919111695864"><ele>9.0</ele><time>2026-04-11T14:48:37Z</time></trkpt><trkpt lat="36.71394695355094" lon="15.037811525645335"><ele>9.0</ele><time>2026-04-11T14:48:38Z</time></trkpt><trkpt lat="36.71391436478353" lon="15.037715148425892"><ele>9.0</ele><time>2026-04-11T14:48:39Z</time></trkpt><trkpt lat="36.71391188082365" lon="15.037631614062784"><ele>9.0</ele><time>2026-04-11T14:48:40Z</time></trkpt><trkpt lat="36.71397523458038" lon="15.037500441234672"><ele>9.0</ele><time>2026-04-11T14:48:42Z</time></trkpt><trkpt lat="36.71403574443684" lon="15.037435483110627"><ele>8.75</ele><time>2026-04-11T14:48:43Z</time></trkpt><trkpt lat="36.7141174418474" lon="15.037365183056815"><ele>8.5</ele><time>2026-04-11T14:48:44Z</time></trkpt><trkpt lat="36.71420782236866" lon="15.037293963062458"><ele>8.25</ele><time>2026-04-11T14:48:45Z</time></trkpt><trkpt lat="36.71430826489691" lon="15.037218283042613"><ele>8.0</ele><time>2026-04-11T14:48:46Z</time></trkpt><trkpt lat="36.71442067350719" lon="15.037136339476032"><ele>7.25</ele><time>2026-04-11T14:48:47Z</time></trkpt><trkpt lat="36.714540529422194" lon="15.037045754817985"><ele>6.5</ele><time>2026-04-11T14:48:48Z</time></trkpt><trkpt lat="36.71466731815981" lon="15.036952713092276"><ele>5.75</ele><time>2026-04-11T14:48:49Z</time></trkpt><trkpt lat="36.71478996910528" lon="15.036863724892552"><ele>5.0</ele><time>2026-04-11T14:48:50Z</time></trkpt><trkpt lat="36.71488974885709" lon="15.036778280018606"><ele>5.0</ele><time>2026-04-11T14:48:51Z</time></trkpt><trkpt lat="36.71493974598533" lon="15.036676990719455"><ele>5.0</ele><time>2026-04-11T14:48:52Z</time></trkpt><trkpt lat="36.714949883836255" lon="15.036547624899345"><ele>5.0</ele><time>2026-04-11T14:48:53Z</time></trkpt><trkpt lat="36.71491620454609" lon="15.036418298973972"><ele>5.0</ele><time>2026-04-11T14:48:54Z</time></trkpt><trkpt lat="36.714853950436535" lon="15.036300004214171"><ele>5.0</ele><time>2026-04-11T14:48:55Z</time></trkpt><trkpt lat="36.71478063816569" lon="15.03615043352152"><ele>5.333333333333334</ele><time>2026-04-11T14:48:56Z</time></trkpt><trkpt lat="36.71471012438125" lon="15.035976885324267"><ele>5.666666666666667</ele><time>2026-04-11T14:48:57Z</time></trkpt><trkpt lat="36.71463794140457" lon="15.035807048369142"><ele>6.0</ele><time>2026-04-11T14:48:58Z</time></trkpt><trkpt lat="36.71456786353153" lon="15.035625625517657"><ele>5.666666666666667</ele><time>2026-04-11T14:48:59Z</time></trkpt><trkpt lat="36.71449724117804" lon="15.03543112353798"><ele>5.333333333333334</ele><time>2026-04-11T14:49:00Z</time></trkpt><trkpt lat="36.71442532631203" lon="15.035221783188613"><ele>5.0</ele><time>2026-04-11T14:49:01Z</time></trkpt><trkpt lat="36.7143584178033" lon="15.03500356408681"><ele>5.0</ele><time>2026-04-11T14:49:02Z</time></trkpt><trkpt lat="36.714297457415455" lon="15.034771298165301"><ele>5.0</ele><time>2026-04-11T14:49:03Z</time></trkpt><trkpt lat="36.714246172177766" lon="15.034533079892277"><ele>5.0</ele><time>2026-04-11T14:49:04Z</time></trkpt><trkpt lat="36.71420250124755" lon="15.034304164452235"><ele>4.666666666666667</ele><time>2026-04-11T14:49:05Z</time></trkpt><trkpt lat="36.714158459404565" lon="15.03407026220876"><ele>4.333333333333333</ele><time>2026-04-11T14:49:06Z</time></trkpt><trkpt lat="36.71411629236495" lon="15.033830805738146"><ele>4.0</ele><time>2026-04-11T14:49:07Z</time></trkpt><trkpt lat="36.7140764195128" lon="15.033585683053795"><ele>4.0</ele><time>2026-04-11T14:49:08Z</time></trkpt><trkpt lat="36.714035305098605" lon="15.033339249796235"><ele>4.0</ele><time>2026-04-11T14:49:09Z</time></trkpt><trkpt lat="36.71398770716535" lon="15.033092029841697"><ele>4.0</ele><time>2026-04-11T14:49:10Z</time></trkpt><trkpt lat="36.71393985083774" lon="15.03284503733593"><ele>4.0</ele><time>2026-04-11T14:49:11Z</time></trkpt><trkpt lat="36.71390342157227" lon="15.032612404971244"><ele>4.0</ele><time>2026-04-11T14:49:12Z</time></trkpt><trkpt lat="36.71386963627045" lon="15.032368052328945"><ele>4.0</ele><time>2026-04-11T14:49:13Z</time></trkpt><trkpt lat="36.71384967935911" lon="15.032120375425416"><ele>4.0</ele><time>2026-04-11T14:49:14Z</time></trkpt><trkpt lat="36.71384224401314" lon="15.031867320142055"><ele>4.0</ele><time>2026-04-11T14:49:15Z</time></trkpt><trkpt lat="36.71384956892487" lon="15.031608407525107"><ele>4.0</ele><time>2026-04-11T14:49:16Z</time></trkpt><trkpt lat="36.71386487758061" lon="15.031347976331823"><ele>3.6666666666666665</ele><time>2026-04-11T14:49:17Z</time></trkpt><trkpt lat="36.71387997596772" lon="15.031084496525493"><ele>3.333333333333333</ele><time>2026-04-11T14:49:18Z</time></trkpt><trkpt lat="36.71389458165534" lon="15.030818560237341"><ele>3.0</ele><time>2026-04-11T14:49:19Z</time></trkpt><trkpt lat="36.71391113980566" lon="15.030547015635578"><ele>2.6666666666666665</ele><time>2026-04-11T14:49:20Z</time></trkpt><trkpt lat="36.713927807068224" lon="15.030288122426363"><ele>2.333333333333333</ele><time>2026-04-11T14:49:21Z</time></trkpt><trkpt lat="36.71394394416255" lon="15.030050247010427"><ele>2.0</ele><time>2026-04-11T14:49:22Z</time></trkpt><trkpt lat="36.7139651093311" lon="15.029819263878522"><ele>1.6666666666666665</ele><time>2026-04-11T14:49:23Z</time></trkpt><trkpt lat="36.71400118687495" lon="15.029582067131727"><ele>1.3333333333333333</ele><time>2026-04-11T14:49:23.999Z</time></trkpt><trkpt lat="36.71405741270715" lon="15.029356632165701"><ele>1.0</ele><time>2026-04-11T14:49:24.999Z</time></trkpt><trkpt lat="36.71411500503636" lon="15.029153328383089"><ele>1.6666666666666665</ele><time>2026-04-11T14:49:25.999Z</time></trkpt><trkpt lat="36.714146956877684" lon="15.028948446193725"><ele>2.3333333333333335</ele><time>2026-04-11T14:49:26.999Z</time></trkpt><trkpt lat="36.71415189898293" lon="15.028730859149125"><ele>3.0</ele><time>2026-04-11T14:49:27.999Z</time></trkpt><trkpt lat="36.714121335270114" lon="15.028518346111607"><ele>3.0</ele><time>2026-04-11T14:49:28.999Z</time></trkpt><trkpt lat="36.71405751350988" lon="15.028330951334384"><ele>3.0</ele><time>2026-04-11T14:49:29.999Z</time></trkpt><trkpt lat="36.71396330692829" lon="15.028161116386269"><ele>3.0</ele><time>2026-04-11T14:49:30.999Z</time></trkpt><trkpt lat="36.71385378547434" lon="15.027975837289778"><ele>2.6666666666666665</ele><time>2026-04-11T14:49:31.999Z</time></trkpt><trkpt lat="36.71374699982128" lon="15.02778529856268"><ele>2.333333333333333</ele><time>2026-04-11T14:49:32.999Z</time></trkpt><trkpt lat="36.71364132445005" lon="15.027594729199274"><ele>2.0</ele><time>2026-04-11T14:49:34.001Z</time></trkpt><trkpt lat="36.71353589957815" lon="15.027406630767064"><ele>2.0</ele><time>2026-04-11T14:49:35.001Z</time></trkpt><trkpt lat="36.713430564330295" lon="15.027215950015643"><ele>2.0</ele><time>2026-04-11T14:49:36.001Z</time></trkpt><trkpt lat="36.71332413462566" lon="15.02702515687408"><ele>2.0</ele><time>2026-04-11T14:49:37.001Z</time></trkpt><trkpt lat="36.713215166545325" lon="15.026832932882138"><ele>2.0</ele><time>2026-04-11T14:49:38.001Z</time></trkpt><trkpt lat="36.71310808800371" lon="15.026638335851016"><ele>2.0</ele><time>2026-04-11T14:49:39.001Z</time></trkpt><trkpt lat="36.71299813412694" lon="15.026445397434799"><ele>2.0</ele><time>2026-04-11T14:49:40.001Z</time></trkpt><trkpt lat="36.712887841359496" lon="15.026248929430091"><ele>2.0</ele><time>2026-04-11T14:49:41.001Z</time></trkpt><trkpt lat="36.712780722629745" lon="15.02605835231195"><ele>2.0</ele><time>2026-04-11T14:49:42.001Z</time></trkpt><trkpt lat="36.71267548234807" lon="15.025869042635655"><ele>2.0</ele><time>2026-04-11T14:49:43.001Z</time></trkpt><trkpt lat="36.712569188931326" lon="15.025678610749864"><ele>1.6666666666666665</ele><time>2026-04-11T14:49:44.001Z</time></trkpt><trkpt lat="36.712461016653016" lon="15.025486146090975"><ele>1.3333333333333333</ele><time>2026-04-11T14:49:45.001Z</time></trkpt><trkpt lat="36.7123564603613" lon="15.025286714435717"><ele>1.0</ele><time>2026-04-11T14:49:46.001Z</time></trkpt><trkpt lat="36.712255821431626" lon="15.025084815009588"><ele>1.6666666666666665</ele><time>2026-04-11T14:49:47.001Z</time></trkpt><trkpt lat="36.712158003218136" lon="15.024883187060363"><ele>2.3333333333333335</ele><time>2026-04-11T14:49:48.001Z</time></trkpt><trkpt lat="36.71206611035265" lon="15.024695805541944"><ele>3.0</ele><time>2026-04-11T14:49:49.001Z</time></trkpt><trkpt lat="36.71198030845293" lon="15.02451123694595"><ele>3.0</ele><time>2026-04-11T14:49:50.001Z</time></trkpt><trkpt lat="36.711902230495696" lon="15.024300345875274"><ele>3.0</ele><time>2026-04-11T14:49:51.001Z</time></trkpt><trkpt lat="36.711849034506166" lon="15.024047574229398"><ele>3.0</ele><time>2026-04-11T14:49:52.001Z</time></trkpt><trkpt lat="36.711805929315034" lon="15.023788673003518"><ele>3.0</ele><time>2026-04-11T14:49:53.001Z</time></trkpt><trkpt lat="36.71175963021214" lon="15.023525830535469"><ele>3.0</ele><time>2026-04-11T14:49:54.001Z</time></trkpt><trkpt lat="36.71171311822917" lon="15.02326184056125"><ele>3.0</ele><time>2026-04-11T14:49:55.001Z</time></trkpt><trkpt lat="36.711667502184575" lon="15.022995537598089"><ele>2.6666666666666665</ele><time>2026-04-11T14:49:56Z</time></trkpt><trkpt lat="36.711628551862006" lon="15.022729130508027"><ele>2.333333333333333</ele><time>2026-04-11T14:49:57Z</time></trkpt><trkpt lat="36.711594681950146" lon="15.022464739418321"><ele>2.0</ele><time>2026-04-11T14:49:58Z</time></trkpt><trkpt lat="36.711558952133686" lon="15.022214670559679"><ele>2.0</ele><time>2026-04-11T14:49:59Z</time></trkpt><trkpt lat="36.71152610720102" lon="15.021969471726432"><ele>2.0</ele><time>2026-04-11T14:50:00Z</time></trkpt><trkpt lat="36.71149754859739" lon="15.02174698207108"><ele>2.0</ele><time>2026-04-11T14:50:01Z</time></trkpt><trkpt lat="36.711485730187114" lon="15.021565079081867"><ele>2.4000000000000004</ele><time>2026-04-11T14:50:02Z</time></trkpt><trkpt lat="36.71147882262255" lon="15.021409177882571"><ele>2.8000000000000003</ele><time>2026-04-11T14:50:03Z</time></trkpt><trkpt lat="36.7114427777808" lon="15.02127448727412"><ele>3.2</ele><time>2026-04-11T14:50:04Z</time></trkpt><trkpt lat="36.711372049214866" lon="15.021175538568938"><ele>3.6</ele><time>2026-04-11T14:50:05Z</time></trkpt><trkpt lat="36.71128441427228" lon="15.021118812774267"><ele>4.0</ele><time>2026-04-11T14:50:06Z</time></trkpt><trkpt lat="36.711167035359956" lon="15.021088536415272"><ele>3.333333333333333</ele><time>2026-04-11T14:50:07Z</time></trkpt><trkpt lat="36.71102854545432" lon="15.021049168716567"><ele>2.6666666666666665</ele><time>2026-04-11T14:50:08Z</time></trkpt><trkpt lat="36.710868720744415" lon="15.020999697069994"><ele>2.0</ele><time>2026-04-11T14:50:09Z</time></trkpt><trkpt lat="36.71068648924947" lon="15.0209504529813"><ele>2.0</ele><time>2026-04-11T14:50:10Z</time></trkpt><trkpt lat="36.710488512324154" lon="15.020881963240628"><ele>2.0</ele><time>2026-04-11T14:50:11Z</time></trkpt><trkpt lat="36.710298134714115" lon="15.02081224395162"><ele>2.0</ele><time>2026-04-11T14:50:12Z</time></trkpt><trkpt lat="36.71010515644985" lon="15.020741811762182"><ele>2.333333333333333</ele><time>2026-04-11T14:50:13Z</time></trkpt><trkpt lat="36.70991760784116" lon="15.020674676945436"><ele>2.6666666666666665</ele><time>2026-04-11T14:50:14Z</time></trkpt><trkpt lat="36.70973659925079" lon="15.02060699843861"><ele>3.0</ele><time>2026-04-11T14:50:15Z</time></trkpt><trkpt lat="36.70954653993337" lon="15.020538154253133"><ele>3.0</ele><time>2026-04-11T14:50:16Z</time></trkpt><trkpt lat="36.70935839082771" lon="15.020468003999884"><ele>3.0</ele><time>2026-04-11T14:50:17Z</time></trkpt><trkpt lat="36.70917381744299" lon="15.020399960197132"><ele>3.0</ele><time>2026-04-11T14:50:18Z</time></trkpt><trkpt lat="36.70898662710637" lon="15.02033003113323"><ele>3.0</ele><time>2026-04-11T14:50:19Z</time></trkpt><trkpt lat="36.708810405368894" lon="15.020265369391"><ele>3.0</ele><time>2026-04-11T14:50:20Z</time></trkpt><trkpt lat="36.70863306735784" lon="15.020202502787662"><ele>3.0</ele><time>2026-04-11T14:50:21Z</time></trkpt><trkpt lat="36.708475095643934" lon="15.020140575307714"><ele>2.75</ele><time>2026-04-11T14:50:22Z</time></trkpt><trkpt lat="36.70832958981205" lon="15.020074182442027"><ele>2.5</ele><time>2026-04-11T14:50:23Z</time></trkpt><trkpt lat="36.708200259810596" lon="15.019990536993179"><ele>2.25</ele><time>2026-04-11T14:50:24Z</time></trkpt><trkpt lat="36.708090861903045" lon="15.019877733426242"><ele>2.0</ele><time>2026-04-11T14:50:25Z</time></trkpt><trkpt lat="36.70797479709556" lon="15.01973514079868"><ele>2.0</ele><time>2026-04-11T14:50:26Z</time></trkpt><trkpt lat="36.707861874550275" lon="15.0195815969295"><ele>2.0</ele><time>2026-04-11T14:50:27Z</time></trkpt><trkpt lat="36.70776739080191" lon="15.01943544092436"><ele>2.0</ele><time>2026-04-11T14:50:28Z</time></trkpt><trkpt lat="36.707695848805706" lon="15.019256714187547"><ele>2.0</ele><time>2026-04-11T14:50:29Z</time></trkpt><trkpt lat="36.70762516961665" lon="15.01904966509784"><ele>2.0</ele><time>2026-04-11T14:50:30Z</time></trkpt><trkpt lat="36.70756474064389" lon="15.018857577915107"><ele>2.0</ele><time>2026-04-11T14:50:31Z</time></trkpt><trkpt lat="36.707510129322465" lon="15.018682163026355"><ele>2.0</ele><time>2026-04-11T14:50:32Z</time></trkpt><trkpt lat="36.70745150295624" lon="15.018516903780139"><ele>2.0</ele><time>2026-04-11T14:50:33Z</time></trkpt><trkpt lat="36.70739138147234" lon="15.018351153717846"><ele>2.0</ele><time>2026-04-11T14:50:34Z</time></trkpt><trkpt lat="36.707331882725576" lon="15.0181855363689"><ele>2.0</ele><time>2026-04-11T14:50:35Z</time></trkpt><trkpt lat="36.7072752116556" lon="15.01801794232759"><ele>2.0</ele><time>2026-04-11T14:50:36Z</time></trkpt><trkpt lat="36.707217635473" lon="15.017849676746339"><ele>2.0</ele><time>2026-04-11T14:50:37Z</time></trkpt><trkpt lat="36.70716245929429" lon="15.017676347900347"><ele>2.0</ele><time>2026-04-11T14:50:38Z</time></trkpt><trkpt lat="36.707109145668674" lon="15.017507715745651"><ele>2.0</ele><time>2026-04-11T14:50:39Z</time></trkpt><trkpt lat="36.707055358972156" lon="15.017333385710703"><ele>2.0</ele><time>2026-04-11T14:50:40Z</time></trkpt><trkpt lat="36.70699625481022" lon="15.017160668226335"><ele>2.0</ele><time>2026-04-11T14:50:41Z</time></trkpt><trkpt lat="36.70693501961325" lon="15.016985038790414"><ele>2.0</ele><time>2026-04-11T14:50:42Z</time></trkpt><trkpt lat="36.706874779039275" lon="15.016808262666741"><ele>2.333333333333333</ele><time>2026-04-11T14:50:43Z</time></trkpt><trkpt lat="36.70681468000379" lon="15.016626243739418"><ele>2.6666666666666665</ele><time>2026-04-11T14:50:44Z</time></trkpt><trkpt lat="36.70675435415474" lon="15.016441989016982"><ele>3.0</ele><time>2026-04-11T14:50:45Z</time></trkpt><trkpt lat="36.70669452681281" lon="15.01625891497388"><ele>3.0</ele><time>2026-04-11T14:50:46Z</time></trkpt><trkpt lat="36.70663427250733" lon="15.016078244388156"><ele>3.0</ele><time>2026-04-11T14:50:47Z</time></trkpt><trkpt lat="36.70657124150632" lon="15.015895632612981"><ele>3.0</ele><time>2026-04-11T14:50:47.999Z</time></trkpt><trkpt lat="36.70650778478313" lon="15.015715808796905"><ele>2.6666666666666665</ele><time>2026-04-11T14:50:48.999Z</time></trkpt><trkpt lat="36.70644529300429" lon="15.015542155988202"><ele>2.333333333333333</ele><time>2026-04-11T14:50:49.999Z</time></trkpt><trkpt lat="36.70638366904801" lon="15.01536810525072"><ele>2.0</ele><time>2026-04-11T14:50:50.999Z</time></trkpt><trkpt lat="36.706321377675515" lon="15.0151903103845"><ele>2.0</ele><time>2026-04-11T14:50:51.999Z</time></trkpt><trkpt lat="36.7062618476357" lon="15.015011708153251"><ele>2.0</ele><time>2026-04-11T14:50:52.999Z</time></trkpt><trkpt lat="36.70620190610666" lon="15.014827461091699"><ele>2.0</ele><time>2026-04-11T14:50:53.999Z</time></trkpt><trkpt lat="36.70614107091443" lon="15.014647061511125"><ele>2.0</ele><time>2026-04-11T14:50:54.999Z</time></trkpt><trkpt lat="36.70607936838805" lon="15.014470262164155"><ele>2.0</ele><time>2026-04-11T14:50:55.999Z</time></trkpt><trkpt lat="36.706027759663115" lon="15.014280584139653"><ele>2.0</ele><time>2026-04-11T14:50:56.999Z</time></trkpt><trkpt lat="36.70599854221912" lon="15.014106645184448"><ele>2.0</ele><time>2026-04-11T14:50:57.999Z</time></trkpt><trkpt lat="36.705976922520556" lon="15.013933854694352"><ele>2.0</ele><time>2026-04-11T14:50:58.999Z</time></trkpt><trkpt lat="36.705962873784806" lon="15.013768693033425"><ele>2.0</ele><time>2026-04-11T14:50:59.999Z</time></trkpt><trkpt lat="36.705956431747026" lon="15.013611301330984"><ele>2.0</ele><time>2026-04-11T14:51:00.999Z</time></trkpt><trkpt lat="36.70595370726647" lon="15.013458293970082"><ele>2.0</ele><time>2026-04-11T14:51:01.999Z</time></trkpt><trkpt lat="36.70595376575824" lon="15.013313826223115"><ele>2.0</ele><time>2026-04-11T14:51:02.999Z</time></trkpt><trkpt lat="36.70595154947574" lon="15.01316245926263"><ele>2.0</ele><time>2026-04-11T14:51:03.999Z</time></trkpt><trkpt lat="36.70594459141194" lon="15.013023076711796"><ele>2.0</ele><time>2026-04-11T14:51:04.999Z</time></trkpt><trkpt lat="36.70594158287213" lon="15.012893465179614"><ele>2.0</ele><time>2026-04-11T14:51:05.999Z</time></trkpt><trkpt lat="36.70593992837264" lon="15.012761309562846"><ele>2.0</ele><time>2026-04-11T14:51:06.999Z</time></trkpt><trkpt lat="36.70594340338743" lon="15.012614945050572"><ele>2.0</ele><time>2026-04-11T14:51:07.999Z</time></trkpt><trkpt lat="36.70595649854508" lon="15.012448812449303"><ele>2.0</ele><time>2026-04-11T14:51:08.999Z</time></trkpt><trkpt lat="36.70599156539327" lon="15.012276106029244"><ele>2.0</ele><time>2026-04-11T14:51:09.999Z</time></trkpt><trkpt lat="36.70603358436469" lon="15.012100336417726"><ele>2.0</ele><time>2026-04-11T14:51:10.999Z</time></trkpt><trkpt lat="36.70607670162118" lon="15.011910755710625"><ele>2.0</ele><time>2026-04-11T14:51:11.999Z</time></trkpt><trkpt lat="36.70611913293856" lon="15.01171625510277"><ele>2.333333333333333</ele><time>2026-04-11T14:51:12.999Z</time></trkpt><trkpt lat="36.706165661464446" lon="15.011514850227886"><ele>2.6666666666666665</ele><time>2026-04-11T14:51:13.999Z</time></trkpt><trkpt lat="36.706211869136474" lon="15.011322454278654"><ele>3.0</ele><time>2026-04-11T14:51:14.999Z</time></trkpt><trkpt lat="36.706254244525276" lon="15.011129449618801"><ele>3.0</ele><time>2026-04-11T14:51:15.999Z</time></trkpt><trkpt lat="36.70629128771698" lon="15.010951340376568"><ele>3.0</ele><time>2026-04-11T14:51:16.999Z</time></trkpt><trkpt lat="36.7063205572587" lon="15.010786629289447"><ele>3.0</ele><time>2026-04-11T14:51:17.999Z</time></trkpt><trkpt lat="36.70635384464137" lon="15.01063555023963"><ele>3.0</ele><time>2026-04-11T14:51:18.999Z</time></trkpt><trkpt lat="36.70638514238312" lon="15.010496742598"><ele>3.0</ele><time>2026-04-11T14:51:19.999Z</time></trkpt><trkpt lat="36.70641582501773" lon="15.010361351264207"><ele>3.0</ele><time>2026-04-11T14:51:20.999Z</time></trkpt><trkpt lat="36.706448156971454" lon="15.0102312227871"><ele>3.0</ele><time>2026-04-11T14:51:21.999Z</time></trkpt><trkpt lat="36.70649061292407" lon="15.010095493709404"><ele>3.0</ele><time>2026-04-11T14:51:22.999Z</time></trkpt><trkpt lat="36.70654408731236" lon="15.009946202399341"><ele>2.75</ele><time>2026-04-11T14:51:23.999Z</time></trkpt><trkpt lat="36.706601301479" lon="15.009794497320746"><ele>2.5</ele><time>2026-04-11T14:51:24.999Z</time></trkpt><trkpt lat="36.706664898364544" lon="15.009651776554188"><ele>2.25</ele><time>2026-04-11T14:51:25.999Z</time></trkpt><trkpt lat="36.706728069124615" lon="15.009520481533723"><ele>2.0</ele><time>2026-04-11T14:51:26.999Z</time></trkpt><trkpt lat="36.7067898119228" lon="15.009385810535163"><ele>2.0</ele><time>2026-04-11T14:51:27.999Z</time></trkpt><trkpt lat="36.70685286523753" lon="15.009252415880976"><ele>2.0</ele><time>2026-04-11T14:51:28.999Z</time></trkpt><trkpt lat="36.706915889603536" lon="15.009115007047493"><ele>2.0</ele><time>2026-04-11T14:51:29.999Z</time></trkpt><trkpt lat="36.706978360283806" lon="15.008972055132222"><ele>2.0</ele><time>2026-04-11T14:51:30.999Z</time></trkpt><trkpt lat="36.707039541587186" lon="15.008821737900444"><ele>2.0</ele><time>2026-04-11T14:51:31.999Z</time></trkpt><trkpt lat="36.70709841452666" lon="15.008666231201483"><ele>2.0</ele><time>2026-04-11T14:51:32.999Z</time></trkpt><trkpt lat="36.70715234333631" lon="15.008508080183459"><ele>2.0</ele><time>2026-04-11T14:51:33.999Z</time></trkpt><trkpt lat="36.70719788951684" lon="15.0083416179144"><ele>2.0</ele><time>2026-04-11T14:51:34.999Z</time></trkpt><trkpt lat="36.70723595985792" lon="15.008169405473154"><ele>1.75</ele><time>2026-04-11T14:51:35.999Z</time></trkpt><trkpt lat="36.70727584092116" lon="15.007998996321357"><ele>1.5</ele><time>2026-04-11T14:51:36.999Z</time></trkpt><trkpt lat="36.70730940085206" lon="15.007825236095565"><ele>1.25</ele><time>2026-04-11T14:51:37.999Z</time></trkpt><trkpt lat="36.70733689432915" lon="15.007647226611068"><ele>1.0</ele><time>2026-04-11T14:51:38.999Z</time></trkpt><trkpt lat="36.70735599425063" lon="15.007463664840154"><ele>1.6666666666666665</ele><time>2026-04-11T14:51:40Z</time></trkpt><trkpt lat="36.70736120148528" lon="15.00725659433631"><ele>2.3333333333333335</ele><time>2026-04-11T14:51:41Z</time></trkpt><trkpt lat="36.70736599347837" lon="15.007020731533972"><ele>3.0</ele><time>2026-04-11T14:51:42Z</time></trkpt><trkpt lat="36.70738682736785" lon="15.006742274423049"><ele>2.5</ele><time>2026-04-11T14:51:43Z</time></trkpt><trkpt lat="36.70742867400644" lon="15.00643922471509"><ele>2.0</ele><time>2026-04-11T14:51:44Z</time></trkpt><trkpt lat="36.70747286261859" lon="15.006094012190571"><ele>2.0</ele><time>2026-04-11T14:51:45Z</time></trkpt><trkpt lat="36.70749762815005" lon="15.005706646707441"><ele>2.0</ele><time>2026-04-11T14:51:46Z</time></trkpt><trkpt lat="36.70751069303973" lon="15.00531985598391"><ele>2.0</ele><time>2026-04-11T14:51:47Z</time></trkpt><trkpt lat="36.70754407959173" lon="15.005205781669257"><ele>2.0</ele><time>2026-04-11T14:51:48Z</time></trkpt><trkpt lat="36.70756964405756" lon="15.004840449204186"><ele>2.0</ele><time>2026-04-11T14:51:49Z</time></trkpt><trkpt lat="36.70759883121592" lon="15.004465811901426"><ele>2.5</ele><time>2026-04-11T14:51:50Z</time></trkpt><trkpt lat="36.7076260629324" lon="15.00410029634316"><ele>3.0</ele><time>2026-04-11T14:51:51Z</time></trkpt><trkpt lat="36.707649738788774" lon="15.00377455382075"><ele>3.0</ele><time>2026-04-11T14:51:52Z</time></trkpt><trkpt lat="36.70767103738204" lon="15.003502624646844"><ele>3.0</ele><time>2026-04-11T14:51:53Z</time></trkpt><trkpt lat="36.707689802394206" lon="15.003270563279637"><ele>3.0</ele><time>2026-04-11T14:51:54Z</time></trkpt><trkpt lat="36.70772027976185" lon="15.003055125772422"><ele>2.3333333333333335</ele><time>2026-04-11T14:51:55Z</time></trkpt><trkpt lat="36.707795169809366" lon="15.002828491504975"><ele>1.6666666666666665</ele><time>2026-04-11T14:51:56Z</time></trkpt><trkpt lat="36.707873458838876" lon="15.00262648812449"><ele>1.0</ele><time>2026-04-11T14:51:57Z</time></trkpt><trkpt lat="36.707941964597495" lon="15.002443242121657"><ele>1.0</ele><time>2026-04-11T14:51:58Z</time></trkpt><trkpt lat="36.70800161644613" lon="15.002283686215375"><ele>1.0</ele><time>2026-04-11T14:51:59Z</time></trkpt><trkpt lat="36.70804515558544" lon="15.002139957278471"><ele>1.0</ele><time>2026-04-11T14:52:00Z</time></trkpt><trkpt lat="36.70807985331962" lon="15.002001253230711"><ele>1.0</ele><time>2026-04-11T14:52:01Z</time></trkpt><trkpt lat="36.70810337490921" lon="15.001867751300923"><ele>0.9999999999999999</ele><time>2026-04-11T14:52:02Z</time></trkpt><trkpt lat="36.70811357001135" lon="15.00174785216104"><ele>1.0</ele><time>2026-04-11T14:52:03Z</time></trkpt><trkpt lat="36.70811574004059" lon="15.001630981364034"><ele>1.0</ele><time>2026-04-11T14:52:04Z</time></trkpt><trkpt lat="36.70810533056236" lon="15.001524611374583"><ele>1.0</ele><time>2026-04-11T14:52:05Z</time></trkpt><trkpt lat="36.7080908018316" lon="15.001423001227652"><ele>0.9999999999999999</ele><time>2026-04-11T14:52:06Z</time></trkpt><trkpt lat="36.708074502252614" lon="15.001330921870235"><ele>1.0</ele><time>2026-04-11T14:52:07Z</time></trkpt><trkpt lat="36.708051148859404" lon="15.001245007962307"><ele>0.6666666666666666</ele><time>2026-04-11T14:52:08Z</time></trkpt><trkpt lat="36.7080221096393" lon="15.001159422258997"><ele>0.3333333333333333</ele><time>2026-04-11T14:52:09Z</time></trkpt><trkpt lat="36.70798452237584" lon="15.001081878366504"><ele>0.0</ele><time>2026-04-11T14:52:10Z</time></trkpt><trkpt lat="36.70794165672119" lon="15.001005731361209"><ele>-0.3333333333333333</ele><time>2026-04-11T14:52:11Z</time></trkpt><trkpt lat="36.707903687469276" lon="15.00093955754982"><ele>-0.6666666666666666</ele><time>2026-04-11T14:52:12Z</time></trkpt><trkpt lat="36.707835479747125" lon="15.00081900560351"><ele>-1.0</ele><time>2026-04-11T14:52:14Z</time></trkpt><trkpt lat="36.70777707769559" lon="15.000708403772482"><ele>-1.3333333333333333</ele><time>2026-04-11T14:52:16Z</time></trkpt><trkpt lat="36.70772843337397" lon="15.00061704595187"><ele>-1.6666666666666665</ele><time>2026-04-11T14:52:18Z</time></trkpt><trkpt lat="36.70768428897259" lon="15.000542370993335"><ele>-2.0</ele><time>2026-04-11T14:52:20Z</time></trkpt><trkpt lat="36.70764858271529" lon="15.000470111467344"><ele>-2.3333333333333335</ele><time>2026-04-11T14:52:22Z</time></trkpt><trkpt lat="36.707604585741045" lon="15.000407777930777"><ele>-2.6666666666666665</ele><time>2026-04-11T14:52:24Z</time></trkpt><trkpt lat="36.70752736536248" lon="15.000275998515502"><ele>-3.0</ele><time>2026-04-11T14:52:27Z</time></trkpt><trkpt lat="36.707470489346164" lon="15.000160431436512"><ele>-3.0</ele><time>2026-04-11T14:52:28Z</time></trkpt><trkpt lat="36.70740050789917" lon="15.000028091267634"><ele>-3.0</ele><time>2026-04-11T14:52:29Z</time></trkpt><trkpt lat="36.70729317419007" lon="14.999823912440458"><ele>-3.0</ele><time>2026-04-11T14:52:30Z</time></trkpt><trkpt lat="36.7071697123815" lon="14.99957772693156"><ele>-3.0</ele><time>2026-04-11T14:52:31Z</time></trkpt><trkpt lat="36.70704522261706" lon="14.999335518974421"><ele>-3.0</ele><time>2026-04-11T14:52:32Z</time></trkpt><trkpt lat="36.70693508029014" lon="14.999071652608176"><ele>-1.0</ele><time>2026-04-11T14:52:33Z</time></trkpt><trkpt lat="36.706807063313235" lon="14.998795407868355"><ele>1.0</ele><time>2026-04-11T14:52:34Z</time></trkpt><trkpt lat="36.70667389455947" lon="14.998531619220046"><ele>1.5</ele><time>2026-04-11T14:52:35Z</time></trkpt><trkpt lat="36.7065434952082" lon="14.998288659362226"><ele>2.0</ele><time>2026-04-11T14:52:36Z</time></trkpt><trkpt lat="36.706419031446075" lon="14.99805104387662"><ele>2.0</ele><time>2026-04-11T14:52:37Z</time></trkpt><trkpt lat="36.70629310776766" lon="14.997810775430542"><ele>2.0</ele><time>2026-04-11T14:52:37.999Z</time></trkpt><trkpt lat="36.706166542787535" lon="14.99756949966527"><ele>2.0</ele><time>2026-04-11T14:52:38.999Z</time></trkpt><trkpt lat="36.70605671537463" lon="14.997363596943508"><ele>2.0</ele><time>2026-04-11T14:52:39.999Z</time></trkpt><trkpt lat="36.705970820396175" lon="14.997196116009135"><ele>2.0</ele><time>2026-04-11T14:52:40.999Z</time></trkpt><trkpt lat="36.70591073580073" lon="14.997053731871704"><ele>2.0</ele><time>2026-04-11T14:52:41.999Z</time></trkpt><trkpt lat="36.70587188526523" lon="14.996920156144178"><ele>2.0</ele><time>2026-04-11T14:52:42.999Z</time></trkpt><trkpt lat="36.70584357416009" lon="14.996772591572062"><ele>2.0</ele><time>2026-04-11T14:52:43.999Z</time></trkpt><trkpt lat="36.705827411384526" lon="14.996581544158012"><ele>2.0</ele><time>2026-04-11T14:52:44.999Z</time></trkpt><trkpt lat="36.70582507048141" lon="14.996358092008903"><ele>2.0</ele><time>2026-04-11T14:52:45.999Z</time></trkpt><trkpt lat="36.70583540239349" lon="14.996116200787577"><ele>2.0</ele><time>2026-04-11T14:52:46.999Z</time></trkpt><trkpt lat="36.70585797676576" lon="14.995878592521775"><ele>2.0</ele><time>2026-04-11T14:52:47.999Z</time></trkpt><trkpt lat="36.705900229867" lon="14.995654577205434"><ele>3.0</ele><time>2026-04-11T14:52:48.999Z</time></trkpt><trkpt lat="36.705965262995896" lon="14.99544584797123"><ele>4.0</ele><time>2026-04-11T14:52:49.999Z</time></trkpt><trkpt lat="36.70605294225227" lon="14.995252742866922"><ele>5.0</ele><time>2026-04-11T14:52:50.999Z</time></trkpt><trkpt lat="36.706178396855" lon="14.995044107982686"><ele>7.5</ele><time>2026-04-11T14:52:51.999Z</time></trkpt><trkpt lat="36.70632254437749" lon="14.994811329898457"><ele>10.0</ele><time>2026-04-11T14:52:52.999Z</time></trkpt><trkpt lat="36.70645764907387" lon="14.994575508914338"><ele>10.0</ele><time>2026-04-11T14:52:53.999Z</time></trkpt><trkpt lat="36.70658623306734" lon="14.994338383101452"><ele>10.0</ele><time>2026-04-11T14:52:54.999Z</time></trkpt><trkpt lat="36.70671817425296" lon="14.994097339297232"><ele>11.0</ele><time>2026-04-11T14:52:55.999Z</time></trkpt><trkpt lat="36.70684185379799" lon="14.99387025870897"><ele>12.0</ele><time>2026-04-11T14:52:56.999Z</time></trkpt><trkpt lat="36.70695606077272" lon="14.993654939459594"><ele>13.0</ele><time>2026-04-11T14:52:57.999Z</time></trkpt><trkpt lat="36.70707065588592" lon="14.993445872083809"><ele>13.666666666666666</ele><time>2026-04-11T14:52:58.999Z</time></trkpt><trkpt lat="36.70718320795046" lon="14.993238999561003"><ele>14.333333333333332</ele><time>2026-04-11T14:52:59.999Z</time></trkpt><trkpt lat="36.70729391809978" lon="14.993031151008894"><ele>15.0</ele><time>2026-04-11T14:53:00.999Z</time></trkpt><trkpt lat="36.70739864034287" lon="14.992842901007386"><ele>15.0</ele><time>2026-04-11T14:53:01.999Z</time></trkpt><trkpt lat="36.707499516330195" lon="14.992657260803362"><ele>15.0</ele><time>2026-04-11T14:53:02.999Z</time></trkpt><trkpt lat="36.70759453464667" lon="14.992473030772274"><ele>15.0</ele><time>2026-04-11T14:53:03.999Z</time></trkpt><trkpt lat="36.7076794835637" lon="14.99229999415046"><ele>14.666666666666668</ele><time>2026-04-11T14:53:04.999Z</time></trkpt><trkpt lat="36.707768754191804" lon="14.992128417352358"><ele>14.333333333333334</ele><time>2026-04-11T14:53:05.999Z</time></trkpt><trkpt lat="36.70787414315234" lon="14.991954712639957"><ele>14.0</ele><time>2026-04-11T14:53:06.999Z</time></trkpt><trkpt lat="36.707988256701825" lon="14.99178303563408"><ele>15.333333333333334</ele><time>2026-04-11T14:53:07.999Z</time></trkpt><trkpt lat="36.708085943030824" lon="14.991621912498788"><ele>16.666666666666668</ele><time>2026-04-11T14:53:08.999Z</time></trkpt><trkpt lat="36.7081662503498" lon="14.991469988455135"><ele>18.0</ele><time>2026-04-11T14:53:09.999Z</time></trkpt><trkpt lat="36.70824389790151" lon="14.991321925358374"><ele>18.0</ele><time>2026-04-11T14:53:10.999Z</time></trkpt><trkpt lat="36.70831494066599" lon="14.991188885838344"><ele>18.0</ele><time>2026-04-11T14:53:11.999Z</time></trkpt><trkpt lat="36.70838914670049" lon="14.991065546216406"><ele>18.0</ele><time>2026-04-11T14:53:12.999Z</time></trkpt><trkpt lat="36.7084483735646" lon="14.990959720084101"><ele>18.0</ele><time>2026-04-11T14:53:13.999Z</time></trkpt><trkpt lat="36.708488356139775" lon="14.990872295152554"><ele>18.0</ele><time>2026-04-11T14:53:14.999Z</time></trkpt><trkpt lat="36.708502098578975" lon="14.990795209981314"><ele>18.0</ele><time>2026-04-11T14:53:15.999Z</time></trkpt><trkpt lat="36.708413384987544" lon="14.990697060781743"><ele>18.0</ele><time>2026-04-11T14:53:17.999Z</time></trkpt><trkpt lat="36.708346854042645" lon="14.990697134158387"><ele>18.0</ele><time>2026-04-11T14:53:18.999Z</time></trkpt><trkpt lat="36.7082578764715" lon="14.990700029302886"><ele>18.0</ele><time>2026-04-11T14:53:19.999Z</time></trkpt><trkpt lat="36.70815280391443" lon="14.990681279758553"><ele>18.0</ele><time>2026-04-11T14:53:20.999Z</time></trkpt><trkpt lat="36.708030917019705" lon="14.990672239344146"><ele>18.0</ele><time>2026-04-11T14:53:21.999Z</time></trkpt><trkpt lat="36.70791788314533" lon="14.990686502128451"><ele>18.0</ele><time>2026-04-11T14:53:22.999Z</time></trkpt><trkpt lat="36.707805343978166" lon="14.990686387528644"><ele>18.0</ele><time>2026-04-11T14:53:23.999Z</time></trkpt><trkpt lat="36.707686567136875" lon="14.99068563342548"><ele>18.0</ele><time>2026-04-11T14:53:24.999Z</time></trkpt><trkpt lat="36.70756656224185" lon="14.990694528447177"><ele>18.333333333333332</ele><time>2026-04-11T14:53:25.999Z</time></trkpt><trkpt lat="36.707461483770174" lon="14.990692168346547"><ele>18.666666666666668</ele><time>2026-04-11T14:53:26.999Z</time></trkpt><trkpt lat="36.70736892572615" lon="14.990689356799985"><ele>19.0</ele><time>2026-04-11T14:53:27.999Z</time></trkpt><trkpt lat="36.70728811380515" lon="14.990687780139774"><ele>19.333333333333336</ele><time>2026-04-11T14:53:28.999Z</time></trkpt><trkpt lat="36.707213291549365" lon="14.990687473842131"><ele>19.666666666666668</ele><time>2026-04-11T14:53:29.999Z</time></trkpt><trkpt lat="36.70714600463313" lon="14.990689910751179"><ele>20.0</ele><time>2026-04-11T14:53:30.999Z</time></trkpt><trkpt lat="36.70702744206978" lon="14.990692632774955"><ele>20.0</ele><time>2026-04-11T14:53:32.999Z</time></trkpt><trkpt lat="36.70696178146325" lon="14.99069204962783"><ele>20.0</ele><time>2026-04-11T14:53:33.999Z</time></trkpt><trkpt lat="36.70687729976049" lon="14.990691492233632"><ele>20.0</ele><time>2026-04-11T14:53:34.999Z</time></trkpt><trkpt lat="36.706783462856045" lon="14.990696079516168"><ele>20.0</ele><time>2026-04-11T14:53:35.999Z</time></trkpt><trkpt lat="36.70668176269611" lon="14.990700280926035"><ele>20.0</ele><time>2026-04-11T14:53:36.999Z</time></trkpt><trkpt lat="36.70656862385584" lon="14.990698760678173"><ele>20.0</ele><time>2026-04-11T14:53:37.999Z</time></trkpt><trkpt lat="36.706445799767664" lon="14.990696326009857"><ele>20.0</ele><time>2026-04-11T14:53:38.999Z</time></trkpt><trkpt lat="36.70631675656808" lon="14.990692890081405"><ele>20.0</ele><time>2026-04-11T14:53:39.999Z</time></trkpt><trkpt lat="36.706179945652636" lon="14.990694307894362"><ele>20.0</ele><time>2026-04-11T14:53:40.998Z</time></trkpt><trkpt lat="36.70604602010564" lon="14.990693101286432"><ele>19.75</ele><time>2026-04-11T14:53:41.998Z</time></trkpt><trkpt lat="36.70591199477398" lon="14.990693614591976"><ele>19.5</ele><time>2026-04-11T14:53:42.998Z</time></trkpt><trkpt lat="36.7057769389371" lon="14.990693273596944"><ele>19.25</ele><time>2026-04-11T14:53:43.998Z</time></trkpt><trkpt lat="36.70565214831546" lon="14.990693627786605"><ele>19.0</ele><time>2026-04-11T14:53:44.998Z</time></trkpt><trkpt lat="36.70553750759983" lon="14.990691119316136"><ele>19.0</ele><time>2026-04-11T14:53:46Z</time></trkpt><trkpt lat="36.705428960055485" lon="14.990698283059153"><ele>19.0</ele><time>2026-04-11T14:53:47Z</time></trkpt><trkpt lat="36.70532555407717" lon="14.990700548218772"><ele>19.0</ele><time>2026-04-11T14:53:48Z</time></trkpt><trkpt lat="36.705227228533985" lon="14.990703132594554"><ele>19.0</ele><time>2026-04-11T14:53:49Z</time></trkpt><trkpt lat="36.70513086663134" lon="14.990702408501297"><ele>19.0</ele><time>2026-04-11T14:53:50Z</time></trkpt><trkpt lat="36.70504088328677" lon="14.990701834024025"><ele>19.5</ele><time>2026-04-11T14:53:51Z</time></trkpt><trkpt lat="36.70495877130438" lon="14.99070330684516"><ele>20.0</ele><time>2026-04-11T14:53:52Z</time></trkpt><trkpt lat="36.704869907400884" lon="14.990704302520081"><ele>20.5</ele><time>2026-04-11T14:53:53Z</time></trkpt><trkpt lat="36.70478320158648" lon="14.990709269298739"><ele>21.0</ele><time>2026-04-11T14:53:54Z</time></trkpt><trkpt lat="36.70470217350629" lon="14.990712151631007"><ele>21.5</ele><time>2026-04-11T14:53:55Z</time></trkpt><trkpt lat="36.70462730642672" lon="14.990707732486364"><ele>22.0</ele><time>2026-04-11T14:53:56Z</time></trkpt><trkpt lat="36.70454477070648" lon="14.990714532604335"><ele>22.0</ele><time>2026-04-11T14:53:57Z</time></trkpt><trkpt lat="36.70446267405298" lon="14.990721740501998"><ele>22.0</ele><time>2026-04-11T14:53:58Z</time></trkpt><trkpt lat="36.704385387140285" lon="14.990725564809576"><ele>22.0</ele><time>2026-04-11T14:53:59Z</time></trkpt><trkpt lat="36.70430950823107" lon="14.99070682589047"><ele>22.0</ele><time>2026-04-11T14:54:00Z</time></trkpt><trkpt lat="36.70423088520982" lon="14.990708588070847"><ele>22.0</ele><time>2026-04-11T14:54:01Z</time></trkpt><trkpt lat="36.70414364805656" lon="14.990710543317247"><ele>22.0</ele><time>2026-04-11T14:54:02Z</time></trkpt><trkpt lat="36.704040064653796" lon="14.990712864935247"><ele>21.8</ele><time>2026-04-11T14:54:03Z</time></trkpt><trkpt lat="36.70392905009375" lon="14.99071535310494"><ele>21.6</ele><time>2026-04-11T14:54:04Z</time></trkpt><trkpt lat="36.70382789281613" lon="14.990717620343297"><ele>21.400000000000002</ele><time>2026-04-11T14:54:05Z</time></trkpt><trkpt lat="36.70371782799291" lon="14.99072008723197"><ele>21.200000000000003</ele><time>2026-04-11T14:54:06Z</time></trkpt><trkpt lat="36.703605632046475" lon="14.99072129509757"><ele>21.0</ele><time>2026-04-11T14:54:07Z</time></trkpt><trkpt lat="36.70349043932857" lon="14.990723497274196"><ele>20.25</ele><time>2026-04-11T14:54:08Z</time></trkpt><trkpt lat="36.703360810833274" lon="14.990725975418686"><ele>19.5</ele><time>2026-04-11T14:54:09Z</time></trkpt><trkpt lat="36.70322624140304" lon="14.99072854802279"><ele>18.75</ele><time>2026-04-11T14:54:10Z</time></trkpt><trkpt lat="36.703091313234495" lon="14.990731195814254"><ele>18.0</ele><time>2026-04-11T14:54:11Z</time></trkpt><trkpt lat="36.70294747870597" lon="14.990734060863629"><ele>18.0</ele><time>2026-04-11T14:54:12Z</time></trkpt><trkpt lat="36.702772766716336" lon="14.990737540965211"><ele>18.0</ele><time>2026-04-11T14:54:13Z</time></trkpt><trkpt lat="36.702555091552846" lon="14.990741876850969"><ele>18.0</ele><time>2026-04-11T14:54:14Z</time></trkpt><trkpt lat="36.702297726775754" lon="14.9907470033238"><ele>16.0</ele><time>2026-04-11T14:54:15Z</time></trkpt><trkpt lat="36.70204602743116" lon="14.990752016947328"><ele>14.0</ele><time>2026-04-11T14:54:16Z</time></trkpt><trkpt lat="36.70176913997429" lon="14.990757532291832"><ele>11.5</ele><time>2026-04-11T14:54:17Z</time></trkpt><trkpt lat="36.70146682457542" lon="14.990763555475965"><ele>9.0</ele><time>2026-04-11T14:54:18Z</time></trkpt><trkpt lat="36.70115348975177" lon="14.990770194934816"><ele>8.5</ele><time>2026-04-11T14:54:19Z</time></trkpt><trkpt lat="36.700821850946" lon="14.990778683489504"><ele>8.0</ele><time>2026-04-11T14:54:20Z</time></trkpt><trkpt lat="36.70047784522716" lon="14.990787489321967"><ele>8.0</ele><time>2026-04-11T14:54:21Z</time></trkpt><trkpt lat="36.70019023699417" lon="14.99079485149496"><ele>8.0</ele><time>2026-04-11T14:54:22Z</time></trkpt><trkpt lat="36.69996793440008" lon="14.990800541979462"><ele>8.0</ele><time>2026-04-11T14:54:23Z</time></trkpt><trkpt lat="36.69979690430971" lon="14.990801896268787"><ele>8.0</ele><time>2026-04-11T14:54:24Z</time></trkpt><trkpt lat="36.69963994569726" lon="14.990798032201551"><ele>8.0</ele><time>2026-04-11T14:54:25Z</time></trkpt><trkpt lat="36.699485875136446" lon="14.990778842180344"><ele>7.666666666666666</ele><time>2026-04-11T14:54:26Z</time></trkpt><trkpt lat="36.69934159501966" lon="14.99072822945271"><ele>7.333333333333334</ele><time>2026-04-11T14:54:27Z</time></trkpt><trkpt lat="36.69919459181917" lon="14.990676711890293"><ele>7.0</ele><time>2026-04-11T14:54:28Z</time></trkpt><trkpt lat="36.69905725456767" lon="14.990594509735162"><ele>7.0</ele><time>2026-04-11T14:54:29Z</time></trkpt><trkpt lat="36.69892580492435" lon="14.990478548808749"><ele>7.0</ele><time>2026-04-11T14:54:30Z</time></trkpt><trkpt lat="36.69881019756441" lon="14.990326169077438"><ele>7.0</ele><time>2026-04-11T14:54:31Z</time></trkpt><trkpt lat="36.69870936970092" lon="14.990180247806103"><ele>7.0</ele><time>2026-04-11T14:54:32Z</time></trkpt><trkpt lat="36.698621197170255" lon="14.990022384144787"><ele>7.0</ele><time>2026-04-11T14:54:33Z</time></trkpt><trkpt lat="36.69854579714527" lon="14.98986130065989"><ele>7.0</ele><time>2026-04-11T14:54:33.999Z</time></trkpt><trkpt lat="36.698479567614925" lon="14.989687605756199"><ele>7.25</ele><time>2026-04-11T14:54:34.999Z</time></trkpt><trkpt lat="36.69843017828711" lon="14.989523379631109"><ele>7.5</ele><time>2026-04-11T14:54:35.999Z</time></trkpt><trkpt lat="36.69838221822075" lon="14.989362157580985"><ele>7.75</ele><time>2026-04-11T14:54:36.999Z</time></trkpt><trkpt lat="36.69833613494501" lon="14.989200238901546"><ele>8.0</ele><time>2026-04-11T14:54:37.999Z</time></trkpt><trkpt lat="36.69829260596188" lon="14.989029888511482"><ele>8.0</ele><time>2026-04-11T14:54:38.999Z</time></trkpt><trkpt lat="36.698248245457926" lon="14.988857224972099"><ele>8.0</ele><time>2026-04-11T14:54:39.999Z</time></trkpt><trkpt lat="36.69819676012535" lon="14.988684294262374"><ele>8.0</ele><time>2026-04-11T14:54:40.999Z</time></trkpt><trkpt lat="36.69814096996391" lon="14.98851912923946"><ele>8.0</ele><time>2026-04-11T14:54:41.999Z</time></trkpt><trkpt lat="36.69808986728833" lon="14.988367730886296"><ele>7.0</ele><time>2026-04-11T14:54:42.999Z</time></trkpt><trkpt lat="36.6980451326175" lon="14.988216658965522"><ele>6.0</ele><time>2026-04-11T14:54:43.999Z</time></trkpt><trkpt lat="36.69799795841704" lon="14.988057605673594"><ele>5.0</ele><time>2026-04-11T14:54:44.999Z</time></trkpt><trkpt lat="36.69795680490825" lon="14.98790857775871"><ele>4.0</ele><time>2026-04-11T14:54:45.999Z</time></trkpt><trkpt lat="36.69791907403611" lon="14.987760754194767"><ele>4.0</ele><time>2026-04-11T14:54:46.999Z</time></trkpt><trkpt lat="36.69788405480405" lon="14.987616765943555"><ele>4.0</ele><time>2026-04-11T14:54:47.999Z</time></trkpt><trkpt lat="36.69785484668359" lon="14.987463607182239"><ele>4.0</ele><time>2026-04-11T14:54:48.999Z</time></trkpt><trkpt lat="36.69782464274339" lon="14.987310194242726"><ele>4.0</ele><time>2026-04-11T14:54:49.999Z</time></trkpt><trkpt lat="36.697796164520504" lon="14.987153007869164"><ele>4.0</ele><time>2026-04-11T14:54:50.999Z</time></trkpt><trkpt lat="36.69776541098056" lon="14.98698644845004"><ele>4.0</ele><time>2026-04-11T14:54:51.999Z</time></trkpt><trkpt lat="36.69773333064651" lon="14.986793055253477"><ele>4.0</ele><time>2026-04-11T14:54:52.999Z</time></trkpt><trkpt lat="36.697696200765876" lon="14.986570531355452"><ele>4.0</ele><time>2026-04-11T14:54:53.999Z</time></trkpt><trkpt lat="36.697653680811456" lon="14.986313015255277"><ele>4.0</ele><time>2026-04-11T14:54:54.999Z</time></trkpt><trkpt lat="36.69760738806872" lon="14.986061478672658"><ele>4.0</ele><time>2026-04-11T14:54:55.999Z</time></trkpt><trkpt lat="36.69755892950936" lon="14.985796825062959"><ele>4.5</ele><time>2026-04-11T14:54:56.999Z</time></trkpt><trkpt lat="36.69750786917323" lon="14.985520228764024"><ele>5.0</ele><time>2026-04-11T14:54:57.999Z</time></trkpt><trkpt lat="36.69744595745879" lon="14.985237397186204"><ele>4.5</ele><time>2026-04-11T14:54:58.999Z</time></trkpt><trkpt lat="36.69737075803146" lon="14.984948868390006"><ele>4.0</ele><time>2026-04-11T14:54:59.999Z</time></trkpt><trkpt lat="36.697276442230375" lon="14.984651369524336"><ele>4.0</ele><time>2026-04-11T14:55:00.999Z</time></trkpt><trkpt lat="36.69717201366979" lon="14.984336166789937"><ele>4.0</ele><time>2026-04-11T14:55:01.999Z</time></trkpt><trkpt lat="36.69706148876498" lon="14.98399079867282"><ele>4.0</ele><time>2026-04-11T14:55:02.999Z</time></trkpt><trkpt lat="36.69694117455961" lon="14.983643692773354"><ele>4.0</ele><time>2026-04-11T14:55:03.999Z</time></trkpt><trkpt lat="36.6968135145694" lon="14.98327178951164"><ele>5.5</ele><time>2026-04-11T14:55:04.999Z</time></trkpt><trkpt lat="36.69668916545392" lon="14.982894546201896"><ele>7.0</ele><time>2026-04-11T14:55:05.999Z</time></trkpt><trkpt lat="36.696567275924636" lon="14.98252023006021"><ele>6.666666666666667</ele><time>2026-04-11T14:55:06.999Z</time></trkpt><trkpt lat="36.696439183639306" lon="14.982165691898894"><ele>6.333333333333334</ele><time>2026-04-11T14:55:07.999Z</time></trkpt><trkpt lat="36.69640281000007" lon="14.982034499709352"><ele>6.0</ele><time>2026-04-11T14:55:08.999Z</time></trkpt><trkpt lat="36.6962939589946" lon="14.981712234575612"><ele>6.0</ele><time>2026-04-11T14:55:09.999Z</time></trkpt><trkpt lat="36.69618506703694" lon="14.981391892862801"><ele>6.0</ele><time>2026-04-11T14:55:10.999Z</time></trkpt><trkpt lat="36.69608032671974" lon="14.981080433020054"><ele>7.5</ele><time>2026-04-11T14:55:11.999Z</time></trkpt><trkpt lat="36.69597152274152" lon="14.980778617943937"><ele>9.0</ele><time>2026-04-11T14:55:12.999Z</time></trkpt><trkpt lat="36.69585542892883" lon="14.980480910483353"><ele>9.0</ele><time>2026-04-11T14:55:13.999Z</time></trkpt><trkpt lat="36.69573815547805" lon="14.980189470908375"><ele>9.0</ele><time>2026-04-11T14:55:14.999Z</time></trkpt><trkpt lat="36.69561235563355" lon="14.97989886630162"><ele>9.5</ele><time>2026-04-11T14:55:15.999Z</time></trkpt><trkpt lat="36.695480717238596" lon="14.97960583489791"><ele>10.0</ele><time>2026-04-11T14:55:16.999Z</time></trkpt><trkpt lat="36.69535794659991" lon="14.9793241223717"><ele>9.0</ele><time>2026-04-11T14:55:17.999Z</time></trkpt><trkpt lat="36.69524697687389" lon="14.979064471452267"><ele>8.0</ele><time>2026-04-11T14:55:18.999Z</time></trkpt><trkpt lat="36.69514403529195" lon="14.978816445461456"><ele>8.0</ele><time>2026-04-11T14:55:19.999Z</time></trkpt><trkpt lat="36.69505662088093" lon="14.978557959047961"><ele>8.0</ele><time>2026-04-11T14:55:20.999Z</time></trkpt><trkpt lat="36.69498838031037" lon="14.978265462618669"><ele>8.0</ele><time>2026-04-11T14:55:21.999Z</time></trkpt><trkpt lat="36.694930260032095" lon="14.977951675362343"><ele>8.0</ele><time>2026-04-11T14:55:22.999Z</time></trkpt><trkpt lat="36.69487695919818" lon="14.977650413244739"><ele>7.0</ele><time>2026-04-11T14:55:23.999Z</time></trkpt><trkpt lat="36.69481659668872" lon="14.977335676135638"><ele>6.0</ele><time>2026-04-11T14:55:24.999Z</time></trkpt><trkpt lat="36.6947554527802" lon="14.977013765380187"><ele>6.0</ele><time>2026-04-11T14:55:25.999Z</time></trkpt><trkpt lat="36.694695677346665" lon="14.976701512138067"><ele>6.0</ele><time>2026-04-11T14:55:26.999Z</time></trkpt><trkpt lat="36.69463377093383" lon="14.976389146232403"><ele>6.0</ele><time>2026-04-11T14:55:27.999Z</time></trkpt><trkpt lat="36.69456702262519" lon="14.97607805600401"><ele>6.0</ele><time>2026-04-11T14:55:28.999Z</time></trkpt><trkpt lat="36.694506147992264" lon="14.975771258276216"><ele>5.5</ele><time>2026-04-11T14:55:29.999Z</time></trkpt><trkpt lat="36.694445276797495" lon="14.975467314625261"><ele>5.0</ele><time>2026-04-11T14:55:30.999Z</time></trkpt><trkpt lat="36.694387418952616" lon="14.975158605156464"><ele>5.0</ele><time>2026-04-11T14:55:31.999Z</time></trkpt><trkpt lat="36.694324899248905" lon="14.9748484815502"><ele>5.0</ele><time>2026-04-11T14:55:32.999Z</time></trkpt><trkpt lat="36.69426278626748" lon="14.974549738865258"><ele>5.0</ele><time>2026-04-11T14:55:33.999Z</time></trkpt><trkpt lat="36.694207189949154" lon="14.974272207594852"><ele>5.0</ele><time>2026-04-11T14:55:34.999Z</time></trkpt><trkpt lat="36.694155152233684" lon="14.974007872463444"><ele>5.0</ele><time>2026-04-11T14:55:35.998Z</time></trkpt><trkpt lat="36.6941097291383" lon="14.973751110469319"><ele>5.0</ele><time>2026-04-11T14:55:36.998Z</time></trkpt><trkpt lat="36.69406631689315" lon="14.973488187142685"><ele>5.0</ele><time>2026-04-11T14:55:37.998Z</time></trkpt><trkpt lat="36.69403600221272" lon="14.973227088046322"><ele>5.0</ele><time>2026-04-11T14:55:38.998Z</time></trkpt><trkpt lat="36.69402167798028" lon="14.972966520776502"><ele>5.0</ele><time>2026-04-11T14:55:39.998Z</time></trkpt><trkpt lat="36.69402207457235" lon="14.972700535206668"><ele>5.0</ele><time>2026-04-11T14:55:40.998Z</time></trkpt><trkpt lat="36.69403350649955" lon="14.9724304221079"><ele>5.0</ele><time>2026-04-11T14:55:41.998Z</time></trkpt><trkpt lat="36.69405713498853" lon="14.972163618600336"><ele>5.0</ele><time>2026-04-11T14:55:42.998Z</time></trkpt><trkpt lat="36.69409188976955" lon="14.971919596782582"><ele>5.0</ele><time>2026-04-11T14:55:43.998Z</time></trkpt><trkpt lat="36.6941320837727" lon="14.971690542290926"><ele>5.0</ele><time>2026-04-11T14:55:44.998Z</time></trkpt><trkpt lat="36.694165167414134" lon="14.971468128793424"><ele>4.666666666666667</ele><time>2026-04-11T14:55:45.998Z</time></trkpt><trkpt lat="36.69419353654995" lon="14.971244557684592"><ele>4.333333333333333</ele><time>2026-04-11T14:55:46.998Z</time></trkpt><trkpt lat="36.694222310530094" lon="14.971023207844334"><ele>4.0</ele><time>2026-04-11T14:55:47.998Z</time></trkpt><trkpt lat="36.69424968797699" lon="14.970804560398433"><ele>4.666666666666666</ele><time>2026-04-11T14:55:48.998Z</time></trkpt><trkpt lat="36.694277138338094" lon="14.970584006729478"><ele>5.333333333333333</ele><time>2026-04-11T14:55:49.998Z</time></trkpt><trkpt lat="36.69430212723784" lon="14.970375061531394"><ele>6.0</ele><time>2026-04-11T14:55:50.998Z</time></trkpt><trkpt lat="36.69432637866302" lon="14.97018307714289"><ele>6.25</ele><time>2026-04-11T14:55:52Z</time></trkpt><trkpt lat="36.69434483671744" lon="14.969999060213128"><ele>6.5</ele><time>2026-04-11T14:55:53Z</time></trkpt><trkpt lat="36.694362320801524" lon="14.969832885026452"><ele>6.75</ele><time>2026-04-11T14:55:54Z</time></trkpt><trkpt lat="36.69437414169246" lon="14.96967364187265"><ele>7.0</ele><time>2026-04-11T14:55:55Z</time></trkpt><trkpt lat="36.694382002329775" lon="14.969525207887118"><ele>7.0</ele><time>2026-04-11T14:55:56Z</time></trkpt><trkpt lat="36.694391695257835" lon="14.969412190712537"><ele>6.999999999999999</ele><time>2026-04-11T14:55:57Z</time></trkpt><trkpt lat="36.694391495003416" lon="14.969285848424466"><ele>6.999999999999999</ele><time>2026-04-11T14:55:59Z</time></trkpt><trkpt lat="36.69430708618167" lon="14.969252293180853"><ele>7.0</ele><time>2026-04-11T14:56:10Z</time></trkpt><trkpt lat="36.69419035000511" lon="14.969243574643954"><ele>7.0</ele><time>2026-04-11T14:56:12Z</time></trkpt><trkpt lat="36.694115897041236" lon="14.969228600936125"><ele>7.000000000000001</ele><time>2026-04-11T14:56:14Z</time></trkpt><trkpt lat="36.6940583194741" lon="14.969296002649653"><ele>7.0</ele><time>2026-04-11T14:56:16Z</time></trkpt><trkpt lat="36.69399656948349" lon="14.96931876408263"><ele>7.0</ele><time>2026-04-11T14:56:17Z</time></trkpt><trkpt lat="36.69387078839555" lon="14.969279076362787"><ele>7.0</ele><time>2026-04-11T14:56:19Z</time></trkpt><trkpt lat="36.693817918387325" lon="14.969235785280622"><ele>7.000000000000001</ele><time>2026-04-11T14:56:20Z</time></trkpt><trkpt lat="36.6937565401152" lon="14.969218125261401"><ele>7.0</ele><time>2026-04-11T14:56:21Z</time></trkpt><trkpt lat="36.693693777138016" lon="14.969236021196878"><ele>7.000000000000001</ele><time>2026-04-11T14:56:22Z</time></trkpt><trkpt lat="36.6936184303568" lon="14.969293994086962"><ele>7.0</ele><time>2026-04-11T14:56:24Z</time></trkpt><trkpt lat="36.6935407033684" lon="14.969284504135516"><ele>7.0</ele><time>2026-04-11T14:56:27Z</time></trkpt><trkpt lat="36.69349479337017" lon="14.969211920620287"><ele>7.0</ele><time>2026-04-11T14:56:29Z</time></trkpt><trkpt lat="36.69343504622981" lon="14.969161332506118"><ele>7.000000000000001</ele><time>2026-04-11T14:56:31Z</time></trkpt><trkpt lat="36.69333341303026" lon="14.969160888745959"><ele>7.0</ele><time>2026-04-11T14:56:33Z</time></trkpt><trkpt lat="36.693240314726246" lon="14.969109551393137"><ele>7.0</ele><time>2026-04-11T14:56:36Z</time></trkpt><trkpt lat="36.69316577923056" lon="14.96915859093148"><ele>6.999999999999999</ele><time>2026-04-11T14:56:38.999Z</time></trkpt><trkpt lat="36.6931435824672" lon="14.96928919995614"><ele>6.999999999999999</ele><time>2026-04-11T14:56:40.999Z</time></trkpt><trkpt lat="36.69313591816171" lon="14.969436522017427"><ele>7.0</ele><time>2026-04-11T14:56:42.999Z</time></trkpt><trkpt lat="36.69314651307451" lon="14.969586350650781"><ele>7.0</ele><time>2026-04-11T14:56:44.999Z</time></trkpt><trkpt lat="36.69318674846274" lon="14.969677206859068"><ele>7.199999999999999</ele><time>2026-04-11T14:56:45.999Z</time></trkpt><trkpt lat="36.69318427667556" lon="14.969837340995875"><ele>7.3999999999999995</ele><time>2026-04-11T14:56:47.999Z</time></trkpt><trkpt lat="36.693133112649974" lon="14.969937029634805"><ele>7.6000000000000005</ele><time>2026-04-11T14:56:49.999Z</time></trkpt><trkpt lat="36.69310225503429" lon="14.970026053460362"><ele>7.800000000000001</ele><time>2026-04-11T14:56:54.999Z</time></trkpt><trkpt lat="36.69305404095083" lon="14.970098521854169"><ele>8.0</ele><time>2026-04-11T14:56:57.999Z</time></trkpt><trkpt lat="36.69303160779873" lon="14.97018837877144"><ele>7.666666666666666</ele><time>2026-04-11T14:56:59.999Z</time></trkpt><trkpt lat="36.69298296822885" lon="14.970279976337356"><ele>7.333333333333333</ele><time>2026-04-11T14:57:01.999Z</time></trkpt><trkpt lat="36.69291203753998" lon="14.970295006492774"><ele>7.0</ele><time>2026-04-11T14:57:03.999Z</time></trkpt><trkpt lat="36.69281407188237" lon="14.970301658797212"><ele>6.666666666666666</ele><time>2026-04-11T14:57:05.999Z</time></trkpt><trkpt lat="36.692731111165145" lon="14.970279833551215"><ele>6.333333333333333</ele><time>2026-04-11T14:57:08.999Z</time></trkpt><trkpt lat="36.6927623067559" lon="14.970202640471749"><ele>6.0</ele><time>2026-04-11T15:10:59Z</time></trkpt><trkpt lat="36.692820542402934" lon="14.97023369490189"><ele>6.0</ele><time>2026-04-11T15:11:04Z</time></trkpt><trkpt lat="36.69289010114262" lon="14.97028669356362"><ele>6.0</ele><time>2026-04-11T15:11:08Z</time></trkpt><trkpt lat="36.6929680320364" lon="14.970255764249753"><ele>6.0</ele><time>2026-04-11T15:11:12Z</time></trkpt><trkpt lat="36.693002765191494" lon="14.970183636284906"><ele>6.0</ele><time>2026-04-11T15:11:16Z</time></trkpt><trkpt lat="36.69303631822195" lon="14.970076774948716"><ele>6.0</ele><time>2026-04-11T15:11:19Z</time></trkpt><trkpt lat="36.69305787134198" lon="14.969986680407692"><ele>6.0</ele><time>2026-04-11T15:11:21Z</time></trkpt><trkpt lat="36.693100087464174" lon="14.96989037490548"><ele>6.333333333333333</ele><time>2026-04-11T15:11:23.999Z</time></trkpt><trkpt lat="36.69314377220333" lon="14.969797648765905"><ele>6.666666666666666</ele><time>2026-04-11T15:11:26.999Z</time></trkpt><trkpt lat="36.6931617352969" lon="14.969673832739963"><ele>7.0</ele><time>2026-04-11T15:11:29.999Z</time></trkpt><trkpt lat="36.6931539064177" lon="14.969582475183064"><ele>7.333333333333333</ele><time>2026-04-11T15:11:30.999Z</time></trkpt><trkpt lat="36.69312605741993" lon="14.9695052049605"><ele>7.666666666666666</ele><time>2026-04-11T15:11:31.999Z</time></trkpt><trkpt lat="36.693088774387824" lon="14.969397202723583"><ele>8.0</ele><time>2026-04-11T15:11:33.999Z</time></trkpt><trkpt lat="36.693111145354365" lon="14.969292653207026"><ele>7.999999999999999</ele><time>2026-04-11T15:11:35.999Z</time></trkpt><trkpt lat="36.693123862892676" lon="14.969196546332782"><ele>8.0</ele><time>2026-04-11T15:11:37.999Z</time></trkpt><trkpt lat="36.69312135838022" lon="14.969095724163623"><ele>8.0</ele><time>2026-04-11T15:11:39.999Z</time></trkpt><trkpt lat="36.69317625941888" lon="14.969036939730145"><ele>8.0</ele><time>2026-04-11T15:11:43.999Z</time></trkpt><trkpt lat="36.693242720687934" lon="14.969072694693843"><ele>7.999999999999999</ele><time>2026-04-11T15:11:47.999Z</time></trkpt><trkpt lat="36.693288707382024" lon="14.969142232084536"><ele>8.0</ele><time>2026-04-11T15:11:50.999Z</time></trkpt><trkpt lat="36.693368622658035" lon="14.969166030514094"><ele>7.999999999999999</ele><time>2026-04-11T15:11:53.999Z</time></trkpt><trkpt lat="36.69343074559677" lon="14.969193012270548"><ele>8.0</ele><time>2026-04-11T15:11:56.999Z</time></trkpt><trkpt lat="36.693465856738925" lon="14.969127516721965"><ele>8.0</ele><time>2026-04-11T15:12:01.999Z</time></trkpt><trkpt lat="36.69341357875298" lon="14.969187250771965"><ele>8.0</ele><time>2026-04-11T15:12:05.999Z</time></trkpt><trkpt lat="36.6934891384063" lon="14.969248101163954"><ele>7.999999999999999</ele><time>2026-04-11T15:12:08.999Z</time></trkpt><trkpt lat="36.69357695330856" lon="14.969300775504212"><ele>8.0</ele><time>2026-04-11T15:12:10.999Z</time></trkpt><trkpt lat="36.69364572331306" lon="14.969278479428068"><ele>7.833333333333333</ele><time>2026-04-11T15:12:12.999Z</time></trkpt><trkpt lat="36.69370413272982" lon="14.96922523715889"><ele>7.666666666666666</ele><time>2026-04-11T15:12:15.999Z</time></trkpt><trkpt lat="36.69377401095447" lon="14.96922961729609"><ele>7.5</ele><time>2026-04-11T15:12:18.999Z</time></trkpt><trkpt lat="36.69384630431888" lon="14.96917806606677"><ele>7.333333333333334</ele><time>2026-04-11T15:12:24.999Z</time></trkpt><trkpt lat="36.69390872991703" lon="14.969233129212896"><ele>7.166666666666667</ele><time>2026-04-11T15:12:55Z</time></trkpt><trkpt lat="36.693970733198924" lon="14.969252999373452"><ele>7.0</ele><time>2026-04-11T15:12:58Z</time></trkpt><trkpt lat="36.69406168077988" lon="14.969266938592124"><ele>7.0</ele><time>2026-04-11T15:13:00Z</time></trkpt><trkpt lat="36.69413848497567" lon="14.969227710801926"><ele>6.999999999999999</ele><time>2026-04-11T15:13:01Z</time></trkpt><trkpt lat="36.69423128808176" lon="14.96923622363725"><ele>6.999999999999999</ele><time>2026-04-11T15:13:03Z</time></trkpt><trkpt lat="36.694297168712936" lon="14.969239021819273"><ele>7.0</ele><time>2026-04-11T15:13:05Z</time></trkpt><trkpt lat="36.694359304400294" lon="14.969171325875745"><ele>7.0</ele><time>2026-04-11T15:13:10Z</time></trkpt><trkpt lat="36.694389877554386" lon="14.969010517113894"><ele>7.285714285714286</ele><time>2026-04-11T15:13:12Z</time></trkpt><trkpt lat="36.69439180716609" lon="14.96891926989427"><ele>7.571428571428571</ele><time>2026-04-11T15:13:13Z</time></trkpt><trkpt lat="36.69439482557905" lon="14.968834979163686"><ele>7.857142857142858</ele><time>2026-04-11T15:13:14Z</time></trkpt><trkpt lat="36.6943995705118" lon="14.968753606539595"><ele>8.142857142857142</ele><time>2026-04-11T15:13:15Z</time></trkpt><trkpt lat="36.694405303496566" lon="14.968674064726962"><ele>8.428571428571429</ele><time>2026-04-11T15:13:16Z</time></trkpt><trkpt lat="36.694422556236624" lon="14.968575641459388"><ele>8.714285714285715</ele><time>2026-04-11T15:13:17Z</time></trkpt><trkpt lat="36.694420994660156" lon="14.96847084248346"><ele>9.0</ele><time>2026-04-11T15:13:18Z</time></trkpt><trkpt lat="36.69442607677838" lon="14.968373270934688"><ele>9.0</ele><time>2026-04-11T15:13:19Z</time></trkpt><trkpt lat="36.69443527594559" lon="14.968272854951195"><ele>9.0</ele><time>2026-04-11T15:13:20Z</time></trkpt><trkpt lat="36.694444402415456" lon="14.968106379217225"><ele>9.0</ele><time>2026-04-11T15:13:21Z</time></trkpt><trkpt lat="36.69445573961046" lon="14.9678863014627"><ele>9.0</ele><time>2026-04-11T15:13:22Z</time></trkpt><trkpt lat="36.69446625484898" lon="14.967663487257953"><ele>8.0</ele><time>2026-04-11T15:13:23Z</time></trkpt><trkpt lat="36.69448357664525" lon="14.967429085120768"><ele>7.0</ele><time>2026-04-11T15:13:24Z</time></trkpt><trkpt lat="36.69450890943435" lon="14.967166478793658"><ele>6.0</ele><time>2026-04-11T15:13:25Z</time></trkpt><trkpt lat="36.69453591194059" lon="14.96686566924227"><ele>5.0</ele><time>2026-04-11T15:13:26Z</time></trkpt><trkpt lat="36.69455545127419" lon="14.966571880039117"><ele>4.0</ele><time>2026-04-11T15:13:27Z</time></trkpt><trkpt lat="36.69457469557701" lon="14.966291837915003"><ele>4.0</ele><time>2026-04-11T15:13:28Z</time></trkpt><trkpt lat="36.694594635995834" lon="14.966018329137322"><ele>4.0</ele><time>2026-04-11T15:13:29Z</time></trkpt><trkpt lat="36.694613234022476" lon="14.965742655441645"><ele>4.0</ele><time>2026-04-11T15:13:29.999Z</time></trkpt><trkpt lat="36.69463188678898" lon="14.965484575810034"><ele>4.0</ele><time>2026-04-11T15:13:30.999Z</time></trkpt><trkpt lat="36.6946492187205" lon="14.96523722618648"><ele>4.0</ele><time>2026-04-11T15:13:31.999Z</time></trkpt><trkpt lat="36.6946633688313" lon="14.964985338378233"><ele>4.0</ele><time>2026-04-11T15:13:32.999Z</time></trkpt><trkpt lat="36.69468016640874" lon="14.964737619669323"><ele>4.0</ele><time>2026-04-11T15:13:33.999Z</time></trkpt><trkpt lat="36.69469905999022" lon="14.96448407747509"><ele>4.0</ele><time>2026-04-11T15:13:34.999Z</time></trkpt><trkpt lat="36.69471366202516" lon="14.964237278146348"><ele>4.0</ele><time>2026-04-11T15:13:35.999Z</time></trkpt><trkpt lat="36.6947259927825" lon="14.963979100367972"><ele>3.6666666666666665</ele><time>2026-04-11T15:13:36.999Z</time></trkpt><trkpt lat="36.69474486205359" lon="14.963719732166954"><ele>3.333333333333333</ele><time>2026-04-11T15:13:37.999Z</time></trkpt><trkpt lat="36.694765927234585" lon="14.963466602904022"><ele>3.0</ele><time>2026-04-11T15:13:38.999Z</time></trkpt><trkpt lat="36.69478429834016" lon="14.963212790317785"><ele>2.6666666666666665</ele><time>2026-04-11T15:13:39.999Z</time></trkpt><trkpt lat="36.694801153264656" lon="14.962966627907015"><ele>2.333333333333333</ele><time>2026-04-11T15:13:40.999Z</time></trkpt><trkpt lat="36.69482275732524" lon="14.962730617087136"><ele>2.0</ele><time>2026-04-11T15:13:41.999Z</time></trkpt><trkpt lat="36.694835985023566" lon="14.96249784003282"><ele>2.0</ele><time>2026-04-11T15:13:42.999Z</time></trkpt><trkpt lat="36.69483574051501" lon="14.962263281080142"><ele>2.0</ele><time>2026-04-11T15:13:43.999Z</time></trkpt><trkpt lat="36.69482250975135" lon="14.962033594791594"><ele>2.0</ele><time>2026-04-11T15:13:44.999Z</time></trkpt><trkpt lat="36.69480762104824" lon="14.961802078069567"><ele>2.333333333333333</ele><time>2026-04-11T15:13:45.999Z</time></trkpt><trkpt lat="36.694794519683995" lon="14.961588981633854"><ele>2.6666666666666665</ele><time>2026-04-11T15:13:46.999Z</time></trkpt><trkpt lat="36.69478139725691" lon="14.961380940730429"><ele>3.0</ele><time>2026-04-11T15:13:47.999Z</time></trkpt><trkpt lat="36.69476893531353" lon="14.961170021178058"><ele>3.0</ele><time>2026-04-11T15:13:48.999Z</time></trkpt><trkpt lat="36.69475873494003" lon="14.960983454363115"><ele>3.0</ele><time>2026-04-11T15:13:49.999Z</time></trkpt><trkpt lat="36.694750969817285" lon="14.960820307568259"><ele>3.0</ele><time>2026-04-11T15:13:50.999Z</time></trkpt><trkpt lat="36.694742407913395" lon="14.960679934053179"><ele>3.0</ele><time>2026-04-11T15:13:51.999Z</time></trkpt><trkpt lat="36.69473448831556" lon="14.960564695047978"><ele>3.3333333333333335</ele><time>2026-04-11T15:13:52.999Z</time></trkpt><trkpt lat="36.694727197333926" lon="14.96047882328048"><ele>3.666666666666667</ele><time>2026-04-11T15:13:53.999Z</time></trkpt><trkpt lat="36.69470977457573" lon="14.960393465180406"><ele>4.0</ele><time>2026-04-11T15:13:55.999Z</time></trkpt><trkpt lat="36.69470128083181" lon="14.960308591616815"><ele>4.333333333333334</ele><time>2026-04-11T15:13:58.999Z</time></trkpt><trkpt lat="36.69473214781903" lon="14.960382491199121"><ele>4.666666666666667</ele><time>2026-04-11T15:14:43.999Z</time></trkpt><trkpt lat="36.69473876585018" lon="14.960521652544037"><ele>5.0</ele><time>2026-04-11T15:14:47Z</time></trkpt><trkpt lat="36.69474237707365" lon="14.96061544728144"><ele>5.0</ele><time>2026-04-11T15:14:48Z</time></trkpt><trkpt lat="36.6947456571684" lon="14.960791426729047"><ele>5.0</ele><time>2026-04-11T15:14:49Z</time></trkpt><trkpt lat="36.69475026922171" lon="14.960872709673541"><ele>5.0</ele><time>2026-04-11T15:14:50Z</time></trkpt><trkpt lat="36.69475091056576" lon="14.960981351051357"><ele>5.0</ele><time>2026-04-11T15:14:52Z</time></trkpt><trkpt lat="36.694755155878035" lon="14.961110107103368"><ele>5.0</ele><time>2026-04-11T15:14:54Z</time></trkpt><trkpt lat="36.694761398436235" lon="14.961250686855571"><ele>4.666666666666667</ele><time>2026-04-11T15:14:56Z</time></trkpt><trkpt lat="36.69475857562615" lon="14.961357357604706"><ele>4.333333333333334</ele><time>2026-04-11T15:14:58Z</time></trkpt><trkpt lat="36.69475535213854" lon="14.961445318062879"><ele>4.0</ele><time>2026-04-11T15:15:00Z</time></trkpt><trkpt lat="36.6947670239321" lon="14.961547095766516"><ele>3.666666666666667</ele><time>2026-04-11T15:15:02Z</time></trkpt><trkpt lat="36.69476941608307" lon="14.961663481996558"><ele>3.3333333333333335</ele><time>2026-04-11T15:15:04Z</time></trkpt><trkpt lat="36.69477502487081" lon="14.961758388795982"><ele>3.0</ele><time>2026-04-11T15:15:06Z</time></trkpt><trkpt lat="36.694785113201114" lon="14.961857188253854"><ele>2.8</ele><time>2026-04-11T15:15:08Z</time></trkpt><trkpt lat="36.694788491319066" lon="14.96195912378055"><ele>2.5999999999999996</ele><time>2026-04-11T15:15:10Z</time></trkpt><trkpt lat="36.69478814852402" lon="14.962066518227026"><ele>2.4000000000000004</ele><time>2026-04-11T15:15:12Z</time></trkpt><trkpt lat="36.69479450046004" lon="14.9621987176304"><ele>2.2</ele><time>2026-04-11T15:15:14Z</time></trkpt><trkpt lat="36.69477192912738" lon="14.962352879664527"><ele>2.0</ele><time>2026-04-11T15:15:16Z</time></trkpt><trkpt lat="36.69477192912728" lon="14.962496194004082"><ele>1.9999999999999998</ele><time>2026-04-11T15:15:18Z</time></trkpt><trkpt lat="36.6947685333945" lon="14.962646470512887"><ele>2.0</ele><time>2026-04-11T15:15:20Z</time></trkpt><trkpt lat="36.69476135746086" lon="14.962796737584686"><ele>2.0</ele><time>2026-04-11T15:15:22Z</time></trkpt><trkpt lat="36.694756313510226" lon="14.962877691393652"><ele>2.0</ele><time>2026-04-11T15:15:23Z</time></trkpt><trkpt lat="36.69475102894852" lon="14.96296142294489"><ele>1.9999999999999998</ele><time>2026-04-11T15:15:24Z</time></trkpt><trkpt lat="36.69474553270917" lon="14.96304850843062"><ele>2.0</ele><time>2026-04-11T15:15:25Z</time></trkpt><trkpt lat="36.69474015529595" lon="14.963131911462444"><ele>1.9999999999999998</ele><time>2026-04-11T15:15:26Z</time></trkpt><trkpt lat="36.69473445498794" lon="14.963216294709614"><ele>2.0</ele><time>2026-04-11T15:15:27Z</time></trkpt><trkpt lat="36.69472781834616" lon="14.963314538761546"><ele>2.0</ele><time>2026-04-11T15:15:28Z</time></trkpt><trkpt lat="36.69472072696476" lon="14.9634226155427"><ele>2.0</ele><time>2026-04-11T15:15:29Z</time></trkpt><trkpt lat="36.69471335880564" lon="14.963534488242772"><ele>1.9999999999999998</ele><time>2026-04-11T15:15:30Z</time></trkpt><trkpt lat="36.69470491913486" lon="14.963659490463112"><ele>2.0</ele><time>2026-04-11T15:15:31Z</time></trkpt><trkpt lat="36.69469349737845" lon="14.963828661157306"><ele>2.333333333333333</ele><time>2026-04-11T15:15:32Z</time></trkpt><trkpt lat="36.69467756758136" lon="14.964064601713837"><ele>2.6666666666666665</ele><time>2026-04-11T15:15:33Z</time></trkpt><trkpt lat="36.69465907018218" lon="14.964342763439191"><ele>3.0</ele><time>2026-04-11T15:15:34Z</time></trkpt><trkpt lat="36.694637542357846" lon="14.964665438915889"><ele>3.5</ele><time>2026-04-11T15:15:35Z</time></trkpt><trkpt lat="36.69461351381948" lon="14.965025596998508"><ele>4.0</ele><time>2026-04-11T15:15:35.999Z</time></trkpt><trkpt lat="36.6945881497869" lon="14.96540577248676"><ele>4.0</ele><time>2026-04-11T15:15:36.999Z</time></trkpt><trkpt lat="36.694561345835105" lon="14.965791827954426"><ele>4.0</ele><time>2026-04-11T15:15:37.999Z</time></trkpt><trkpt lat="36.69453105900025" lon="14.966225503239002"><ele>4.0</ele><time>2026-04-11T15:15:38.999Z</time></trkpt><trkpt lat="36.69450035844439" lon="14.966665102557114"><ele>4.0</ele><time>2026-04-11T15:15:39.999Z</time></trkpt><trkpt lat="36.69446896314368" lon="14.967113767905376"><ele>5.5</ele><time>2026-04-11T15:15:40.999Z</time></trkpt><trkpt lat="36.6944395212886" lon="14.967534326798248"><ele>7.0</ele><time>2026-04-11T15:15:41.999Z</time></trkpt><trkpt lat="36.694413029056804" lon="14.96792448092068"><ele>7.0</ele><time>2026-04-11T15:15:42.999Z</time></trkpt><trkpt lat="36.694387211209154" lon="14.96830422037549"><ele>7.0</ele><time>2026-04-11T15:15:43.999Z</time></trkpt><trkpt lat="36.69436386157471" lon="14.968662076798557"><ele>7.0</ele><time>2026-04-11T15:15:44.999Z</time></trkpt><trkpt lat="36.694343567970385" lon="14.968974549396036"><ele>7.0</ele><time>2026-04-11T15:15:45.999Z</time></trkpt><trkpt lat="36.69432589824281" lon="14.969246620619616"><ele>7.0</ele><time>2026-04-11T15:15:46.999Z</time></trkpt><trkpt lat="36.694309018842276" lon="14.969494557901813"><ele>7.0</ele><time>2026-04-11T15:15:47.999Z</time></trkpt><trkpt lat="36.694291484091416" lon="14.96973269912263"><ele>7.0</ele><time>2026-04-11T15:15:48.999Z</time></trkpt><trkpt lat="36.69427205254674" lon="14.969950818003362"><ele>6.666666666666667</ele><time>2026-04-11T15:15:49.999Z</time></trkpt><trkpt lat="36.694250255909544" lon="14.97016043305784"><ele>6.333333333333334</ele><time>2026-04-11T15:15:50.999Z</time></trkpt><trkpt lat="36.69422716653793" lon="14.97035876102266"><ele>6.0</ele><time>2026-04-11T15:15:51.999Z</time></trkpt><trkpt lat="36.69420379772686" lon="14.970554981770842"><ele>6.0</ele><time>2026-04-11T15:15:52.999Z</time></trkpt><trkpt lat="36.69417981193648" lon="14.970747046939294"><ele>6.0</ele><time>2026-04-11T15:15:53.999Z</time></trkpt><trkpt lat="36.69415662916334" lon="14.970929686680451"><ele>6.0</ele><time>2026-04-11T15:15:54.999Z</time></trkpt><trkpt lat="36.694133292578144" lon="14.971113538192537"><ele>5.666666666666667</ele><time>2026-04-11T15:15:55.999Z</time></trkpt><trkpt lat="36.694106867887804" lon="14.971321718576112"><ele>5.333333333333334</ele><time>2026-04-11T15:15:56.999Z</time></trkpt><trkpt lat="36.694080782690044" lon="14.971528645235251"><ele>5.0</ele><time>2026-04-11T15:15:57.999Z</time></trkpt><trkpt lat="36.6940563255844" lon="14.971725003352468"><ele>5.0</ele><time>2026-04-11T15:15:58.999Z</time></trkpt><trkpt lat="36.69403207095038" lon="14.971920335247058"><ele>5.0</ele><time>2026-04-11T15:15:59.999Z</time></trkpt><trkpt lat="36.69402603924271" lon="14.972106968940585"><ele>5.0</ele><time>2026-04-11T15:16:00.999Z</time></trkpt><trkpt lat="36.69400491447672" lon="14.972277116429016"><ele>5.0</ele><time>2026-04-11T15:16:01.999Z</time></trkpt><trkpt lat="36.69399000946611" lon="14.972430438980195"><ele>5.0</ele><time>2026-04-11T15:16:02.999Z</time></trkpt><trkpt lat="36.69396024655374" lon="14.97256958736129"><ele>5.0</ele><time>2026-04-11T15:16:03.999Z</time></trkpt><trkpt lat="36.69395141803737" lon="14.972701555307689"><ele>5.0</ele><time>2026-04-11T15:16:04.999Z</time></trkpt><trkpt lat="36.69394962758512" lon="14.972824091705025"><ele>5.0</ele><time>2026-04-11T15:16:05.999Z</time></trkpt><trkpt lat="36.69395093537263" lon="14.97292786051374"><ele>5.0</ele><time>2026-04-11T15:16:06.999Z</time></trkpt><trkpt lat="36.69395349031881" lon="14.973017105380023"><ele>5.0</ele><time>2026-04-11T15:16:07.999Z</time></trkpt><trkpt lat="36.69395693299239" lon="14.97313735862518"><ele>5.0</ele><time>2026-04-11T15:16:09.999Z</time></trkpt><trkpt lat="36.69412328510873" lon="14.973139518844317"><ele>5.0</ele><time>2026-04-11T15:16:10.999Z</time></trkpt><trkpt lat="36.694195412695585" lon="14.97310906049403"><ele>5.0</ele><time>2026-04-11T15:16:11.999Z</time></trkpt><trkpt lat="36.6942948506429" lon="14.973074168255652"><ele>5.0</ele><time>2026-04-11T15:16:12.999Z</time></trkpt><trkpt lat="36.694399807907416" lon="14.973075169633729"><ele>4.5</ele><time>2026-04-11T15:16:13.999Z</time></trkpt><trkpt lat="36.69452036030614" lon="14.973083466097467"><ele>4.0</ele><time>2026-04-11T15:16:14.999Z</time></trkpt><trkpt lat="36.694647151271475" lon="14.973091883795226"><ele>3.5</ele><time>2026-04-11T15:16:15.999Z</time></trkpt><trkpt lat="36.694782730421124" lon="14.973080036811565"><ele>3.0</ele><time>2026-04-11T15:16:16.999Z</time></trkpt><trkpt lat="36.69493794275346" lon="14.973046925909065"><ele>3.0</ele><time>2026-04-11T15:16:17.999Z</time></trkpt><trkpt lat="36.69508008069112" lon="14.973010989806314"><ele>3.0</ele><time>2026-04-11T15:16:18.999Z</time></trkpt><trkpt lat="36.69523669838522" lon="14.972976672840348"><ele>3.0</ele><time>2026-04-11T15:16:19.999Z</time></trkpt><trkpt lat="36.695392860148345" lon="14.972942261243906"><ele>3.75</ele><time>2026-04-11T15:16:20.999Z</time></trkpt><trkpt lat="36.69554351224023" lon="14.972912906453331"><ele>4.5</ele><time>2026-04-11T15:16:21.999Z</time></trkpt><trkpt lat="36.69568403876391" lon="14.972884591157513"><ele>5.25</ele><time>2026-04-11T15:16:22.999Z</time></trkpt><trkpt lat="36.695808986358195" lon="14.972857303933296"><ele>6.0</ele><time>2026-04-11T15:16:23.999Z</time></trkpt><trkpt lat="36.695926808019905" lon="14.97283075648161"><ele>6.0</ele><time>2026-04-11T15:16:24.999Z</time></trkpt><trkpt lat="36.696045827423134" lon="14.972808227430408"><ele>6.0</ele><time>2026-04-11T15:16:25.999Z</time></trkpt><trkpt lat="36.69616763743561" lon="14.972798298719479"><ele>6.0</ele><time>2026-04-11T15:16:26.999Z</time></trkpt><trkpt lat="36.69630222211295" lon="14.97280040201568"><ele>6.0</ele><time>2026-04-11T15:16:27.999Z</time></trkpt><trkpt lat="36.696438034033605" lon="14.97281280383687"><ele>7.25</ele><time>2026-04-11T15:16:28.999Z</time></trkpt><trkpt lat="36.69656837147344" lon="14.972821183228442"><ele>8.5</ele><time>2026-04-11T15:16:29.999Z</time></trkpt><trkpt lat="36.69669312178299" lon="14.972827515232574"><ele>9.75</ele><time>2026-04-11T15:16:30.999Z</time></trkpt><trkpt lat="36.696808523662085" lon="14.972832578152707"><ele>11.0</ele><time>2026-04-11T15:16:31.999Z</time></trkpt><trkpt lat="36.69693100062524" lon="14.97283218529446"><ele>11.0</ele><time>2026-04-11T15:16:32.999Z</time></trkpt><trkpt lat="36.69705448728866" lon="14.972829840429203"><ele>11.0</ele><time>2026-04-11T15:16:33.999Z</time></trkpt><trkpt lat="36.69718274738284" lon="14.972829246079344"><ele>11.0</ele><time>2026-04-11T15:16:34.999Z</time></trkpt><trkpt lat="36.69731966826731" lon="14.972826557940639"><ele>11.0</ele><time>2026-04-11T15:16:35.999Z</time></trkpt><trkpt lat="36.69745947306984" lon="14.97282311634375"><ele>11.0</ele><time>2026-04-11T15:16:36.999Z</time></trkpt><trkpt lat="36.69759244274273" lon="14.972821687239762"><ele>11.0</ele><time>2026-04-11T15:16:37.999Z</time></trkpt><trkpt lat="36.697732619498325" lon="14.972823959014358"><ele>11.0</ele><time>2026-04-11T15:16:38.999Z</time></trkpt><trkpt lat="36.69788425599641" lon="14.972824063615167"><ele>11.0</ele><time>2026-04-11T15:16:39.999Z</time></trkpt><trkpt lat="36.698036071674515" lon="14.97282447458075"><ele>10.0</ele><time>2026-04-11T15:16:40.999Z</time></trkpt><trkpt lat="36.69819748144242" lon="14.972819007619028"><ele>9.0</ele><time>2026-04-11T15:16:41.999Z</time></trkpt><trkpt lat="36.69835976233994" lon="14.972813094706481"><ele>8.0</ele><time>2026-04-11T15:16:42.999Z</time></trkpt><trkpt lat="36.698513780161974" lon="14.972810149569971"><ele>9.333333333333332</ele><time>2026-04-11T15:16:43.999Z</time></trkpt><trkpt lat="36.69867139026035" lon="14.9728053225357"><ele>10.666666666666666</ele><time>2026-04-11T15:16:44.999Z</time></trkpt><trkpt lat="36.69882273384256" lon="14.972804009916207"><ele>12.0</ele><time>2026-04-11T15:16:45.999Z</time></trkpt><trkpt lat="36.6989828650485" lon="14.972798583437212"><ele>12.0</ele><time>2026-04-11T15:16:46.999Z</time></trkpt><trkpt lat="36.699149860877526" lon="14.97278798851532"><ele>12.0</ele><time>2026-04-11T15:16:47.999Z</time></trkpt><trkpt lat="36.69931177381359" lon="14.97278387872569"><ele>12.0</ele><time>2026-04-11T15:16:48.999Z</time></trkpt><trkpt lat="36.6994602193471" lon="14.97277983290192"><ele>12.75</ele><time>2026-04-11T15:16:49.999Z</time></trkpt><trkpt lat="36.69959803011851" lon="14.9727740056627"><ele>13.5</ele><time>2026-04-11T15:16:50.999Z</time></trkpt><trkpt lat="36.699725101891445" lon="14.972778823970224"><ele>14.25</ele><time>2026-04-11T15:16:52Z</time></trkpt><trkpt lat="36.6998536962627" lon="14.972780237235991"><ele>15.0</ele><time>2026-04-11T15:16:53Z</time></trkpt><trkpt lat="36.69998383625077" lon="14.972774489164081"><ele>15.0</ele><time>2026-04-11T15:16:54Z</time></trkpt><trkpt lat="36.70012686064448" lon="14.972776831731318"><ele>15.0</ele><time>2026-04-11T15:16:55Z</time></trkpt><trkpt lat="36.70027106853529" lon="14.972768156824062"><ele>15.0</ele><time>2026-04-11T15:16:56Z</time></trkpt><trkpt lat="36.70040986727703" lon="14.972760428430366"><ele>15.0</ele><time>2026-04-11T15:16:57Z</time></trkpt><trkpt lat="36.70052906458251" lon="14.97275515871882"><ele>15.0</ele><time>2026-04-11T15:16:58Z</time></trkpt><trkpt lat="36.70063009966741" lon="14.972748459504519"><ele>15.0</ele><time>2026-04-11T15:16:59Z</time></trkpt><trkpt lat="36.70071292996464" lon="14.972747092422638"><ele>15.0</ele><time>2026-04-11T15:17:00Z</time></trkpt><trkpt lat="36.700790546952796" lon="14.972736403697102"><ele>15.0</ele><time>2026-04-11T15:17:01Z</time></trkpt><trkpt lat="36.700887120367994" lon="14.972734358029916"><ele>15.0</ele><time>2026-04-11T15:17:03Z</time></trkpt><trkpt lat="36.700873809950046" lon="14.972465702413679"><ele>15.0</ele><time>2026-04-11T15:17:05Z</time></trkpt><trkpt lat="36.70085408157945" lon="14.972330893253874"><ele>15.0</ele><time>2026-04-11T15:17:06Z</time></trkpt><trkpt lat="36.70084825278125" lon="14.972145509911462"><ele>15.0</ele><time>2026-04-11T15:17:07Z</time></trkpt><trkpt lat="36.70084656422603" lon="14.971934264292782"><ele>15.0</ele><time>2026-04-11T15:17:08Z</time></trkpt><trkpt lat="36.70084675854853" lon="14.971681274700748"><ele>14.666666666666668</ele><time>2026-04-11T15:17:09Z</time></trkpt><trkpt lat="36.70084913929753" lon="14.971426099646031"><ele>14.333333333333334</ele><time>2026-04-11T15:17:10Z</time></trkpt><trkpt lat="36.700841600856414" lon="14.971215256902644"><ele>14.0</ele><time>2026-04-11T15:17:11Z</time></trkpt><trkpt lat="36.700828567835345" lon="14.971034098397785"><ele>14.0</ele><time>2026-04-11T15:17:12Z</time></trkpt><trkpt lat="36.700808818718265" lon="14.970874515362514"><ele>14.0</ele><time>2026-04-11T15:17:13Z</time></trkpt><trkpt lat="36.70085814555929" lon="14.970711816965032"><ele>14.0</ele><time>2026-04-11T15:17:14Z</time></trkpt><trkpt lat="36.700858914504025" lon="14.970569389121167"><ele>14.0</ele><time>2026-04-11T15:17:15Z</time></trkpt><trkpt lat="36.70085198615131" lon="14.970143466129006"><ele>15.666666666666668</ele><time>2026-04-11T15:17:16Z</time></trkpt><trkpt lat="36.70086765022925" lon="14.969933355491941"><ele>17.333333333333332</ele><time>2026-04-11T15:17:17Z</time></trkpt><trkpt lat="36.700883042597454" lon="14.969721267794238"><ele>19.0</ele><time>2026-04-11T15:17:18Z</time></trkpt><trkpt lat="36.70090051340965" lon="14.969521386644628"><ele>19.0</ele><time>2026-04-11T15:17:19Z</time></trkpt><trkpt lat="36.70092033990017" lon="14.969321773194547"><ele>19.0</ele><time>2026-04-11T15:17:20Z</time></trkpt><trkpt lat="36.70094319586279" lon="14.969121589415703"><ele>19.0</ele><time>2026-04-11T15:17:21Z</time></trkpt><trkpt lat="36.70096623182844" lon="14.968931951008146"><ele>20.5</ele><time>2026-04-11T15:17:22Z</time></trkpt><trkpt lat="36.700968553206174" lon="14.96876657811918"><ele>22.0</ele><time>2026-04-11T15:17:23Z</time></trkpt><trkpt lat="36.700986437387066" lon="14.968619833540476"><ele>23.5</ele><time>2026-04-11T15:17:24Z</time></trkpt><trkpt lat="36.70100143552487" lon="14.968484202625682"><ele>25.0</ele><time>2026-04-11T15:17:25Z</time></trkpt><trkpt lat="36.70101592886125" lon="14.968352464096753"><ele>25.75</ele><time>2026-04-11T15:17:26Z</time></trkpt><trkpt lat="36.701032976295096" lon="14.968214412109253"><ele>26.5</ele><time>2026-04-11T15:17:27Z</time></trkpt><trkpt lat="36.70104934437973" lon="14.968064238126983"><ele>27.25</ele><time>2026-04-11T15:17:28Z</time></trkpt><trkpt lat="36.70106649469124" lon="14.9679077160082"><ele>28.0</ele><time>2026-04-11T15:17:29Z</time></trkpt><trkpt lat="36.701077069433794" lon="14.967753319892417"><ele>28.0</ele><time>2026-04-11T15:17:30Z</time></trkpt><trkpt lat="36.70108667781852" lon="14.96759791636568"><ele>28.0</ele><time>2026-04-11T15:17:31Z</time></trkpt><trkpt lat="36.70108659256467" lon="14.967436491109275"><ele>28.0</ele><time>2026-04-11T15:17:32Z</time></trkpt><trkpt lat="36.70108413369612" lon="14.967274715670639"><ele>28.0</ele><time>2026-04-11T15:17:33Z</time></trkpt><trkpt lat="36.701078894076865" lon="14.96711344485672"><ele>27.5</ele><time>2026-04-11T15:17:34Z</time></trkpt><trkpt lat="36.701085321579015" lon="14.966967546032736"><ele>27.0</ele><time>2026-04-11T15:17:35Z</time></trkpt><trkpt lat="36.70108440239441" lon="14.966830411078895"><ele>26.5</ele><time>2026-04-11T15:17:36Z</time></trkpt><trkpt lat="36.701080177755415" lon="14.966691355471156"><ele>26.0</ele><time>2026-04-11T15:17:37Z</time></trkpt><trkpt lat="36.701065730316635" lon="14.966551294470374"><ele>26.0</ele><time>2026-04-11T15:17:38Z</time></trkpt><trkpt lat="36.70107389778027" lon="14.966400374152672"><ele>26.0</ele><time>2026-04-11T15:17:38.999Z</time></trkpt><trkpt lat="36.70106760696008" lon="14.966250658603588"><ele>26.0</ele><time>2026-04-11T15:17:39.999Z</time></trkpt><trkpt lat="36.701063086409526" lon="14.96611918679012"><ele>26.0</ele><time>2026-04-11T15:17:40.999Z</time></trkpt><trkpt lat="36.70106136104127" lon="14.966010519614215"><ele>26.0</ele><time>2026-04-11T15:17:41.999Z</time></trkpt><trkpt lat="36.70104850531708" lon="14.965883911561427"><ele>25.6</ele><time>2026-04-11T15:17:43.999Z</time></trkpt><trkpt lat="36.70105873517127" lon="14.965764031844152"><ele>25.200000000000003</ele><time>2026-04-11T15:17:45.999Z</time></trkpt><trkpt lat="36.701063392014426" lon="14.965624397164817"><ele>24.799999999999997</ele><time>2026-04-11T15:17:47.999Z</time></trkpt><trkpt lat="36.70106078176748" lon="14.96553667169335"><ele>24.4</ele><time>2026-04-11T15:17:48.999Z</time></trkpt><trkpt lat="36.7010635971643" lon="14.965417491348816"><ele>24.0</ele><time>2026-04-11T15:17:49.999Z</time></trkpt><trkpt lat="36.70106178634913" lon="14.965282039495829"><ele>24.0</ele><time>2026-04-11T15:17:50.999Z</time></trkpt><trkpt lat="36.70106218858185" lon="14.965163960829077"><ele>24.0</ele><time>2026-04-11T15:17:51.999Z</time></trkpt><trkpt lat="36.70105374399224" lon="14.965054493766418"><ele>24.0</ele><time>2026-04-11T15:17:52.999Z</time></trkpt><trkpt lat="36.70104648887878" lon="14.964953626959565"><ele>24.0</ele><time>2026-04-11T15:17:53.999Z</time></trkpt><trkpt lat="36.70104350093887" lon="14.964860875788442"><ele>24.0</ele><time>2026-04-11T15:17:54.999Z</time></trkpt><trkpt lat="36.70103933179503" lon="14.964772158258793"><ele>24.0</ele><time>2026-04-11T15:17:55.999Z</time></trkpt><trkpt lat="36.70103387154355" lon="14.964687536851143"><ele>23.799999999999997</ele><time>2026-04-11T15:17:56.999Z</time></trkpt><trkpt lat="36.70102779586689" lon="14.964607037411767"><ele>23.599999999999998</ele><time>2026-04-11T15:17:57.999Z</time></trkpt><trkpt lat="36.70102262072699" lon="14.96452865342196"><ele>23.4</ele><time>2026-04-11T15:17:58.999Z</time></trkpt><trkpt lat="36.70100794785106" lon="14.9643644289676"><ele>23.2</ele><time>2026-04-11T15:18:00.999Z</time></trkpt><trkpt lat="36.70099997378363" lon="14.96427852331881"><ele>23.0</ele><time>2026-04-11T15:18:01.999Z</time></trkpt><trkpt lat="36.700992993997964" lon="14.964127385389764"><ele>22.25</ele><time>2026-04-11T15:18:03.999Z</time></trkpt><trkpt lat="36.70097455710302" lon="14.963982941782065"><ele>21.5</ele><time>2026-04-11T15:18:05.999Z</time></trkpt><trkpt lat="36.70094712231969" lon="14.963844134546397"><ele>20.75</ele><time>2026-04-11T15:18:07.999Z</time></trkpt><trkpt lat="36.7009208788704" lon="14.96371216972726"><ele>20.0</ele><time>2026-04-11T15:18:09.999Z</time></trkpt><trkpt lat="36.70089665408838" lon="14.963562878897296"><ele>20.0</ele><time>2026-04-11T15:18:11.999Z</time></trkpt><trkpt lat="36.700883155336285" lon="14.963472880564504"><ele>20.0</ele><time>2026-04-11T15:18:12.999Z</time></trkpt><trkpt lat="36.700867282412666" lon="14.963370035399993"><ele>20.0</ele><time>2026-04-11T15:18:13.999Z</time></trkpt><trkpt lat="36.70085001349849" lon="14.963264162412674"><ele>20.0</ele><time>2026-04-11T15:18:14.999Z</time></trkpt><trkpt lat="36.70083244200955" lon="14.963149007242242"><ele>20.0</ele><time>2026-04-11T15:18:15.999Z</time></trkpt><trkpt lat="36.70081574429335" lon="14.96302009484088"><ele>20.0</ele><time>2026-04-11T15:18:16.999Z</time></trkpt><trkpt lat="36.700796875036986" lon="14.962845322952251"><ele>18.666666666666668</ele><time>2026-04-11T15:18:17.999Z</time></trkpt><trkpt lat="36.70079289729141" lon="14.962637724840429"><ele>17.333333333333332</ele><time>2026-04-11T15:18:18.999Z</time></trkpt><trkpt lat="36.700815224827096" lon="14.96244077264241"><ele>16.0</ele><time>2026-04-11T15:18:19.999Z</time></trkpt><trkpt lat="36.700851490186864" lon="14.962242771250818"><ele>15.333333333333332</ele><time>2026-04-11T15:18:20.999Z</time></trkpt><trkpt lat="36.700877023927525" lon="14.962038443515755"><ele>14.666666666666668</ele><time>2026-04-11T15:18:21.999Z</time></trkpt><trkpt lat="36.70093013574172" lon="14.961848329692042"><ele>14.0</ele><time>2026-04-11T15:18:22.999Z</time></trkpt><trkpt lat="36.70097533709251" lon="14.961663525548005"><ele>14.25</ele><time>2026-04-11T15:18:23.999Z</time></trkpt><trkpt lat="36.70101349947792" lon="14.961494192784661"><ele>14.5</ele><time>2026-04-11T15:18:24.999Z</time></trkpt><trkpt lat="36.70105782658317" lon="14.961326497722407"><ele>14.75</ele><time>2026-04-11T15:18:25.999Z</time></trkpt><trkpt lat="36.7011065007314" lon="14.961150030236627"><ele>15.0</ele><time>2026-04-11T15:18:26.999Z</time></trkpt><trkpt lat="36.70116170490648" lon="14.96098185009925"><ele>14.0</ele><time>2026-04-11T15:18:27.999Z</time></trkpt><trkpt lat="36.70121397861773" lon="14.960828607270884"><ele>13.0</ele><time>2026-04-11T15:18:28.999Z</time></trkpt><trkpt lat="36.701259836087665" lon="14.96068686473382"><ele>12.0</ele><time>2026-04-11T15:18:29.999Z</time></trkpt><trkpt lat="36.7013036038078" lon="14.960543030346539"><ele>11.0</ele><time>2026-04-11T15:18:30.999Z</time></trkpt><trkpt lat="36.701336107324096" lon="14.960379627914064"><ele>11.0</ele><time>2026-04-11T15:18:31.999Z</time></trkpt><trkpt lat="36.70133532451698" lon="14.96019525469392"><ele>11.0</ele><time>2026-04-11T15:18:32.999Z</time></trkpt><trkpt lat="36.70132285580918" lon="14.9600017889629"><ele>11.0</ele><time>2026-04-11T15:18:33.999Z</time></trkpt><trkpt lat="36.70130280744035" lon="14.959790691135638"><ele>9.666666666666666</ele><time>2026-04-11T15:18:34.999Z</time></trkpt><trkpt lat="36.701277775862145" lon="14.959560462461829"><ele>8.333333333333334</ele><time>2026-04-11T15:18:35.999Z</time></trkpt><trkpt lat="36.70124536066014" lon="14.959330987360437"><ele>7.0</ele><time>2026-04-11T15:18:36.999Z</time></trkpt><trkpt lat="36.70121730191335" lon="14.959131896830307"><ele>6.666666666666667</ele><time>2026-04-11T15:18:37.999Z</time></trkpt><trkpt lat="36.70118834858807" lon="14.95894267404637"><ele>6.333333333333334</ele><time>2026-04-11T15:18:38.999Z</time></trkpt><trkpt lat="36.7011592572164" lon="14.958745961034943"><ele>6.0</ele><time>2026-04-11T15:18:39.999Z</time></trkpt><trkpt lat="36.70113016816244" lon="14.958534366581636"><ele>6.0</ele><time>2026-04-11T15:18:40.999Z</time></trkpt><trkpt lat="36.7010883503004" lon="14.958284282387055"><ele>6.0</ele><time>2026-04-11T15:18:41.999Z</time></trkpt><trkpt lat="36.70104507239139" lon="14.958036432463489"><ele>6.0</ele><time>2026-04-11T15:18:42.999Z</time></trkpt><trkpt lat="36.7010155516147" lon="14.957844431037062"><ele>6.0</ele><time>2026-04-11T15:18:43.999Z</time></trkpt><trkpt lat="36.70099199699219" lon="14.957664176838742"><ele>6.0</ele><time>2026-04-11T15:18:44.999Z</time></trkpt><trkpt lat="36.7009724894445" lon="14.957466518790364"><ele>6.0</ele><time>2026-04-11T15:18:45.999Z</time></trkpt><trkpt lat="36.70094847444104" lon="14.957250427236717"><ele>5.666666666666667</ele><time>2026-04-11T15:18:46.999Z</time></trkpt><trkpt lat="36.700926200609494" lon="14.957029992856214"><ele>5.333333333333334</ele><time>2026-04-11T15:18:47.999Z</time></trkpt><trkpt lat="36.70089955370611" lon="14.95681882659976"><ele>5.0</ele><time>2026-04-11T15:18:48.999Z</time></trkpt><trkpt lat="36.700864019632675" lon="14.956622292130087"><ele>5.0</ele><time>2026-04-11T15:18:49.999Z</time></trkpt><trkpt lat="36.70082247396797" lon="14.95640480343736"><ele>5.0</ele><time>2026-04-11T15:18:50.999Z</time></trkpt><trkpt lat="36.70077344457618" lon="14.956177333114436"><ele>5.0</ele><time>2026-04-11T15:18:51.999Z</time></trkpt><trkpt lat="36.70073065220501" lon="14.955961725793355"><ele>5.0</ele><time>2026-04-11T15:18:52.999Z</time></trkpt><trkpt lat="36.70070412292965" lon="14.95576424688804"><ele>5.0</ele><time>2026-04-11T15:18:53.999Z</time></trkpt><trkpt lat="36.700681346559385" lon="14.955601455518265"><ele>5.0</ele><time>2026-04-11T15:18:54.999Z</time></trkpt><trkpt lat="36.7006571596509" lon="14.955492684893557"><ele>5.0</ele><time>2026-04-11T15:18:55.999Z</time></trkpt><trkpt lat="36.70063271566019" lon="14.955400425637624"><ele>5.0</ele><time>2026-04-11T15:18:56.999Z</time></trkpt><trkpt lat="36.70061014408082" lon="14.955322067418617"><ele>5.0</ele><time>2026-04-11T15:18:58Z</time></trkpt><trkpt lat="36.70057916628208" lon="14.955216789268775"><ele>5.0</ele><time>2026-04-11T15:19:00Z</time></trkpt><trkpt lat="36.700536441127355" lon="14.955121618212155"><ele>5.0</ele><time>2026-04-11T15:19:04Z</time></trkpt><trkpt lat="36.70049507010379" lon="14.955017330530689"><ele>5.0</ele><time>2026-04-11T15:19:07Z</time></trkpt><trkpt lat="36.70036901743675" lon="14.955035515690401"><ele>5.0</ele><time>2026-04-11T15:19:08Z</time></trkpt><trkpt lat="36.70026621138301" lon="14.954980017145488"><ele>5.0</ele><time>2026-04-11T15:19:09Z</time></trkpt><trkpt lat="36.70014690491315" lon="14.954937070851198"><ele>5.0</ele><time>2026-04-11T15:19:10Z</time></trkpt><trkpt lat="36.7000137887828" lon="14.954909709356402"><ele>5.0</ele><time>2026-04-11T15:19:11Z</time></trkpt><trkpt lat="36.69988737607739" lon="14.954857243833688"><ele>4.666666666666667</ele><time>2026-04-11T15:19:12Z</time></trkpt><trkpt lat="36.699743306415165" lon="14.954809388281811"><ele>4.333333333333333</ele><time>2026-04-11T15:19:13Z</time></trkpt><trkpt lat="36.699588433435295" lon="14.95476144073981"><ele>4.0</ele><time>2026-04-11T15:19:14Z</time></trkpt><trkpt lat="36.69943788198604" lon="14.954703023815616"><ele>4.333333333333333</ele><time>2026-04-11T15:19:15Z</time></trkpt><trkpt lat="36.69927430521684" lon="14.954648143801347"><ele>4.666666666666667</ele><time>2026-04-11T15:19:16Z</time></trkpt><trkpt lat="36.69910203091703" lon="14.954585206667595"><ele>5.0</ele><time>2026-04-11T15:19:17Z</time></trkpt><trkpt lat="36.698923958951156" lon="14.954520947782115"><ele>5.0</ele><time>2026-04-11T15:19:18Z</time></trkpt><trkpt lat="36.69874329082821" lon="14.954453052479838"><ele>5.0</ele><time>2026-04-11T15:19:19Z</time></trkpt><trkpt lat="36.698556904268656" lon="14.954384006968972"><ele>5.0</ele><time>2026-04-11T15:19:20Z</time></trkpt><trkpt lat="36.69836590688383" lon="14.954318786994731"><ele>4.666666666666667</ele><time>2026-04-11T15:19:21Z</time></trkpt><trkpt lat="36.69816800042473" lon="14.954251436485736"><ele>4.333333333333333</ele><time>2026-04-11T15:19:22Z</time></trkpt><trkpt lat="36.697969624167136" lon="14.954185526365912"><ele>4.0</ele><time>2026-04-11T15:19:23Z</time></trkpt><trkpt lat="36.69777980022823" lon="14.954100320431941"><ele>4.0</ele><time>2026-04-11T15:19:24Z</time></trkpt><trkpt lat="36.69760686355355" lon="14.954040927657678"><ele>4.0</ele><time>2026-04-11T15:19:25Z</time></trkpt><trkpt lat="36.69744353912674" lon="14.954000425094359"><ele>4.0</ele><time>2026-04-11T15:19:26Z</time></trkpt><trkpt lat="36.69728230515338" lon="14.953937599558166"><ele>4.0</ele><time>2026-04-11T15:19:27Z</time></trkpt><trkpt lat="36.69713256162209" lon="14.95388288128768"><ele>4.0</ele><time>2026-04-11T15:19:28Z</time></trkpt><trkpt lat="36.69700141170283" lon="14.95383736198503"><ele>4.0</ele><time>2026-04-11T15:19:29Z</time></trkpt><trkpt lat="36.69688291550722" lon="14.953794462872269"><ele>4.0</ele><time>2026-04-11T15:19:30Z</time></trkpt><trkpt lat="36.69678171053196" lon="14.95375300304277"><ele>4.0</ele><time>2026-04-11T15:19:31Z</time></trkpt><trkpt lat="36.69668477064287" lon="14.953714762956844"><ele>4.0</ele><time>2026-04-11T15:19:32Z</time></trkpt><trkpt lat="36.69660612205545" lon="14.953668925652122"><ele>4.0</ele><time>2026-04-11T15:19:33Z</time></trkpt><trkpt lat="36.6965430104522" lon="14.95359283597684"><ele>4.0</ele><time>2026-04-11T15:19:34Z</time></trkpt><trkpt lat="36.69646820511098" lon="14.953560444124255"><ele>4.0</ele><time>2026-04-11T15:19:35Z</time></trkpt><trkpt lat="36.69653031514972" lon="14.953295561368229"><ele>4.25</ele><time>2026-04-11T15:19:37Z</time></trkpt><trkpt lat="36.6965963095678" lon="14.953185646597557"><ele>4.5</ele><time>2026-04-11T15:19:38Z</time></trkpt><trkpt lat="36.696676762477885" lon="14.953056275464945"><ele>4.75</ele><time>2026-04-11T15:19:39Z</time></trkpt><trkpt lat="36.696754020403034" lon="14.952937105693286"><ele>5.0</ele><time>2026-04-11T15:19:40Z</time></trkpt><trkpt lat="36.696832034322846" lon="14.952817330866353"><ele>5.0</ele><time>2026-04-11T15:19:41Z</time></trkpt><trkpt lat="36.69691060830914" lon="14.95269516427341"><ele>5.0</ele><time>2026-04-11T15:19:42Z</time></trkpt><trkpt lat="36.696989708252346" lon="14.952570941435695"><ele>5.0</ele><time>2026-04-11T15:19:43Z</time></trkpt><trkpt lat="36.69707169159834" lon="14.952440969014717"><ele>5.0</ele><time>2026-04-11T15:19:44Z</time></trkpt><trkpt lat="36.697156462177475" lon="14.952303745693175"><ele>4.75</ele><time>2026-04-11T15:19:45Z</time></trkpt><trkpt lat="36.697243062247566" lon="14.952167781583578"><ele>4.5</ele><time>2026-04-11T15:19:46Z</time></trkpt><trkpt lat="36.69733291979997" lon="14.952025543179234"><ele>4.25</ele><time>2026-04-11T15:19:47Z</time></trkpt><trkpt lat="36.697422685088206" lon="14.951882833060488"><ele>4.0</ele><time>2026-04-11T15:19:48Z</time></trkpt><trkpt lat="36.69751452961089" lon="14.951740133927423"><ele>4.0</ele><time>2026-04-11T15:19:49Z</time></trkpt><trkpt lat="36.697610625183216" lon="14.95159177756975"><ele>4.0</ele><time>2026-04-11T15:19:49.999Z</time></trkpt><trkpt lat="36.69771611778673" lon="14.951424809757759"><ele>4.0</ele><time>2026-04-11T15:19:50.999Z</time></trkpt><trkpt lat="36.69783471230917" lon="14.951243106038095"><ele>5.0</ele><time>2026-04-11T15:19:51.999Z</time></trkpt><trkpt lat="36.69797052977217" lon="14.951031312276754"><ele>6.0</ele><time>2026-04-11T15:19:52.999Z</time></trkpt><trkpt lat="36.69812687295053" lon="14.950800624116438"><ele>6.0</ele><time>2026-04-11T15:19:53.999Z</time></trkpt><trkpt lat="36.698327127515576" lon="14.9505223995268"><ele>6.0</ele><time>2026-04-11T15:19:54.999Z</time></trkpt><trkpt lat="36.69855725636526" lon="14.950224259594199"><ele>5.0</ele><time>2026-04-11T15:19:55.999Z</time></trkpt><trkpt lat="36.69879402789292" lon="14.949923859203054"><ele>4.0</ele><time>2026-04-11T15:19:56.999Z</time></trkpt><trkpt lat="36.699056161182234" lon="14.949625948729777"><ele>4.0</ele><time>2026-04-11T15:19:57.999Z</time></trkpt><trkpt lat="36.69918088733938" lon="14.949465569429233"><ele>4.0</ele><time>2026-04-11T15:19:58.999Z</time></trkpt><trkpt lat="36.699405520504556" lon="14.949181992149214"><ele>4.0</ele><time>2026-04-11T15:19:59.999Z</time></trkpt><trkpt lat="36.69962762789155" lon="14.948910239268564"><ele>4.0</ele><time>2026-04-11T15:20:00.999Z</time></trkpt><trkpt lat="36.69985144769733" lon="14.948634658106098"><ele>4.0</ele><time>2026-04-11T15:20:01.999Z</time></trkpt><trkpt lat="36.70005234652218" lon="14.948384257804534"><ele>4.0</ele><time>2026-04-11T15:20:02.999Z</time></trkpt><trkpt lat="36.70023612908194" lon="14.948154625261298"><ele>4.666666666666666</ele><time>2026-04-11T15:20:03.999Z</time></trkpt><trkpt lat="36.70039097694478" lon="14.94796447579742"><ele>5.333333333333333</ele><time>2026-04-11T15:20:04.999Z</time></trkpt><trkpt lat="36.700530715089144" lon="14.947800165983228"><ele>6.0</ele><time>2026-04-11T15:20:05.999Z</time></trkpt><trkpt lat="36.70066342446094" lon="14.947644263876859"><ele>5.666666666666667</ele><time>2026-04-11T15:20:06.999Z</time></trkpt><trkpt lat="36.70078874993858" lon="14.947493499508486"><ele>5.333333333333334</ele><time>2026-04-11T15:20:07.999Z</time></trkpt><trkpt lat="36.70092129047131" lon="14.947331108502233"><ele>5.0</ele><time>2026-04-11T15:20:08.999Z</time></trkpt><trkpt lat="36.70107060289244" lon="14.947125567735663"><ele>5.0</ele><time>2026-04-11T15:20:09.999Z</time></trkpt><trkpt lat="36.70123977078362" lon="14.946898914942505"><ele>5.0</ele><time>2026-04-11T15:20:10.999Z</time></trkpt><trkpt lat="36.701445448042385" lon="14.946679939014226"><ele>5.0</ele><time>2026-04-11T15:20:11.999Z</time></trkpt><trkpt lat="36.70165456197176" lon="14.94643650481221"><ele>5.0</ele><time>2026-04-11T15:20:12.999Z</time></trkpt><trkpt lat="36.70185303889884" lon="14.946181620283589"><ele>5.0</ele><time>2026-04-11T15:20:13.999Z</time></trkpt><trkpt lat="36.702035924369895" lon="14.945953322470109"><ele>5.0</ele><time>2026-04-11T15:20:14.999Z</time></trkpt><trkpt lat="36.7022085576928" lon="14.94573676972263"><ele>5.0</ele><time>2026-04-11T15:20:15.999Z</time></trkpt><trkpt lat="36.70237342238726" lon="14.945525434374575"><ele>5.0</ele><time>2026-04-11T15:20:16.999Z</time></trkpt><trkpt lat="36.70253465390231" lon="14.945319997852934"><ele>5.0</ele><time>2026-04-11T15:20:17.999Z</time></trkpt><trkpt lat="36.70269610230723" lon="14.94511562744609"><ele>5.0</ele><time>2026-04-11T15:20:18.999Z</time></trkpt><trkpt lat="36.70285554666065" lon="14.944914714542772"><ele>4.666666666666667</ele><time>2026-04-11T15:20:19.999Z</time></trkpt><trkpt lat="36.70299977501867" lon="14.944731847749582"><ele>4.333333333333333</ele><time>2026-04-11T15:20:20.999Z</time></trkpt><trkpt lat="36.70314193894054" lon="14.94454774491287"><ele>4.0</ele><time>2026-04-11T15:20:21.999Z</time></trkpt><trkpt lat="36.703281337481435" lon="14.944362414194256"><ele>4.333333333333333</ele><time>2026-04-11T15:20:22.999Z</time></trkpt><trkpt lat="36.70341802707132" lon="14.94418144258894"><ele>4.666666666666667</ele><time>2026-04-11T15:20:23.999Z</time></trkpt><trkpt lat="36.70355312389792" lon="14.94400754649717"><ele>5.0</ele><time>2026-04-11T15:20:24.999Z</time></trkpt><trkpt lat="36.70369178965661" lon="14.943829827406148"><ele>5.0</ele><time>2026-04-11T15:20:25.999Z</time></trkpt><trkpt lat="36.70382918461106" lon="14.943647792257135"><ele>5.0</ele><time>2026-04-11T15:20:26.999Z</time></trkpt><trkpt lat="36.703966666597495" lon="14.943466809994208"><ele>5.0</ele><time>2026-04-11T15:20:27.999Z</time></trkpt><trkpt lat="36.704113951871925" lon="14.943297296666355"><ele>5.0</ele><time>2026-04-11T15:20:28.999Z</time></trkpt><trkpt lat="36.70425451503209" lon="14.943115798328439"><ele>5.0</ele><time>2026-04-11T15:20:29.999Z</time></trkpt><trkpt lat="36.70440316323745" lon="14.942923860412565"><ele>5.0</ele><time>2026-04-11T15:20:30.999Z</time></trkpt><trkpt lat="36.70455240473585" lon="14.94273115635694"><ele>4.5</ele><time>2026-04-11T15:20:31.999Z</time></trkpt><trkpt lat="36.70470538092719" lon="14.94253363003967"><ele>4.0</ele><time>2026-04-11T15:20:32.999Z</time></trkpt><trkpt lat="36.70487654677178" lon="14.942312616827152"><ele>4.0</ele><time>2026-04-11T15:20:33.999Z</time></trkpt><trkpt lat="36.7050581168258" lon="14.942078169417284"><ele>4.0</ele><time>2026-04-11T15:20:34.999Z</time></trkpt><trkpt lat="36.70523247455603" lon="14.94182813356405"><ele>4.5</ele><time>2026-04-11T15:20:35.999Z</time></trkpt><trkpt lat="36.705418435051364" lon="14.9416020647076"><ele>5.0</ele><time>2026-04-11T15:20:36.999Z</time></trkpt><trkpt lat="36.7055875268374" lon="14.941391130256266"><ele>5.0</ele><time>2026-04-11T15:20:37.999Z</time></trkpt><trkpt lat="36.70571277604351" lon="14.941237105555821"><ele>5.0</ele><time>2026-04-11T15:20:38.999Z</time></trkpt><trkpt lat="36.705819742304534" lon="14.941098743240532"><ele>5.0</ele><time>2026-04-11T15:20:39.999Z</time></trkpt><trkpt lat="36.70591392985941" lon="14.940973267887811"><ele>5.0</ele><time>2026-04-11T15:20:40.999Z</time></trkpt><trkpt lat="36.70600609053887" lon="14.94085501121923"><ele>5.0</ele><time>2026-04-11T15:20:41.999Z</time></trkpt><trkpt lat="36.7060935658335" lon="14.940744539237487"><ele>5.0</ele><time>2026-04-11T15:20:42.999Z</time></trkpt><trkpt lat="36.70617248844509" lon="14.940645568204223"><ele>5.0</ele><time>2026-04-11T15:20:43.999Z</time></trkpt><trkpt lat="36.70625242781379" lon="14.940542706939"><ele>5.0</ele><time>2026-04-11T15:20:44.999Z</time></trkpt><trkpt lat="36.70634721529695" lon="14.940419114059814"><ele>5.0</ele><time>2026-04-11T15:20:45.999Z</time></trkpt><trkpt lat="36.70644291237732" lon="14.940282286499961"><ele>5.0</ele><time>2026-04-11T15:20:46.999Z</time></trkpt><trkpt lat="36.706527526792364" lon="14.940149866185713"><ele>5.0</ele><time>2026-04-11T15:20:47.999Z</time></trkpt><trkpt lat="36.70660206275866" lon="14.940059858858072"><ele>5.0</ele><time>2026-04-11T15:20:48.999Z</time></trkpt><trkpt lat="36.70667118161028" lon="14.94002160849772"><ele>5.0</ele><time>2026-04-11T15:20:49.999Z</time></trkpt><trkpt lat="36.70673578016095" lon="14.940021317672366"><ele>5.0</ele><time>2026-04-11T15:20:50.999Z</time></trkpt><trkpt lat="36.706848621452274" lon="14.940080371893806"><ele>5.0</ele><time>2026-04-11T15:20:52.999Z</time></trkpt><trkpt lat="36.70694049356803" lon="14.940158698782781"><ele>5.0</ele><time>2026-04-11T15:20:54.999Z</time></trkpt><trkpt lat="36.707004437864434" lon="14.94022907820168"><ele>5.0</ele><time>2026-04-11T15:20:56.999Z</time></trkpt><trkpt lat="36.70705416928848" lon="14.940293900522736"><ele>5.0</ele><time>2026-04-11T15:20:59.999Z</time></trkpt><trkpt lat="36.70710051720319" lon="14.940349185019235"><ele>5.0</ele><time>2026-04-11T15:21:02.999Z</time></trkpt><trkpt lat="36.70720600737753" lon="14.940456172536058"><ele>5.0</ele><time>2026-04-11T15:21:16Z</time></trkpt><trkpt lat="36.70729251603986" lon="14.940547048052535"><ele>5.0</ele><time>2026-04-11T15:21:17Z</time></trkpt><trkpt lat="36.70737172576875" lon="14.940628865781793"><ele>5.0</ele><time>2026-04-11T15:21:18Z</time></trkpt><trkpt lat="36.70743896422739" lon="14.940703365519756"><ele>5.0</ele><time>2026-04-11T15:21:19Z</time></trkpt><trkpt lat="36.707500750001216" lon="14.940767923715248"><ele>5.0</ele><time>2026-04-11T15:21:20Z</time></trkpt><trkpt lat="36.70756616783439" lon="14.940821195397636"><ele>5.0</ele><time>2026-04-11T15:21:21Z</time></trkpt><trkpt lat="36.7076487082067" lon="14.940866451138751"><ele>5.0</ele><time>2026-04-11T15:21:22Z</time></trkpt><trkpt lat="36.70773705416154" lon="14.940913058115378"><ele>5.0</ele><time>2026-04-11T15:21:23Z</time></trkpt><trkpt lat="36.70781695475275" lon="14.94094301842634"><ele>5.0</ele><time>2026-04-11T15:21:24Z</time></trkpt><trkpt lat="36.70787861178121" lon="14.940960086723477"><ele>5.0</ele><time>2026-04-11T15:21:25Z</time></trkpt><trkpt lat="36.707989836265725" lon="14.941009011034254"><ele>5.0</ele><time>2026-04-11T15:21:27Z</time></trkpt><trkpt lat="36.70805276849172" lon="14.941024479371535"><ele>5.0</ele><time>2026-04-11T15:21:28Z</time></trkpt><trkpt lat="36.708142189159304" lon="14.941057740085876"><ele>5.0</ele><time>2026-04-11T15:21:29Z</time></trkpt><trkpt lat="36.7082814711149" lon="14.941112644177771"><ele>5.0</ele><time>2026-04-11T15:21:30Z</time></trkpt><trkpt lat="36.708469266406034" lon="14.94118328842441"><ele>5.0</ele><time>2026-04-11T15:21:31Z</time></trkpt><trkpt lat="36.70866649236828" lon="14.941259938964244"><ele>5.0</ele><time>2026-04-11T15:21:32Z</time></trkpt><trkpt lat="36.70884491814854" lon="14.94132136403528"><ele>5.0</ele><time>2026-04-11T15:21:33Z</time></trkpt><trkpt lat="36.70899123975946" lon="14.941365644935836"><ele>5.0</ele><time>2026-04-11T15:21:34Z</time></trkpt><trkpt lat="36.709121157469866" lon="14.941407718130408"><ele>5.0</ele><time>2026-04-11T15:21:35Z</time></trkpt><trkpt lat="36.709240735968294" lon="14.941450275447725"><ele>5.0</ele><time>2026-04-11T15:21:36Z</time></trkpt><trkpt lat="36.709345616097806" lon="14.94149358393614"><ele>5.0</ele><time>2026-04-11T15:21:37Z</time></trkpt><trkpt lat="36.709443444167064" lon="14.941529426703442"><ele>5.0</ele><time>2026-04-11T15:21:38Z</time></trkpt><trkpt lat="36.709531891405085" lon="14.941560102060674"><ele>5.0</ele><time>2026-04-11T15:21:39Z</time></trkpt><trkpt lat="36.70960885717835" lon="14.941588037650531"><ele>5.0</ele><time>2026-04-11T15:21:40Z</time></trkpt><trkpt lat="36.70967877455517" lon="14.941612937378364"><ele>5.0</ele><time>2026-04-11T15:21:41Z</time></trkpt><trkpt lat="36.70974758553524" lon="14.941637387010335"><ele>5.0</ele><time>2026-04-11T15:21:42Z</time></trkpt><trkpt lat="36.709822932040616" lon="14.941661993610705"><ele>5.0</ele><time>2026-04-11T15:21:43Z</time></trkpt><trkpt lat="36.70991116675715" lon="14.941684627055809"><ele>5.0</ele><time>2026-04-11T15:21:44Z</time></trkpt><trkpt lat="36.70999458048033" lon="14.941711063601492"><ele>5.0</ele><time>2026-04-11T15:21:45Z</time></trkpt><trkpt lat="36.71008548491601" lon="14.941741662240666"><ele>5.0</ele><time>2026-04-11T15:21:46Z</time></trkpt><trkpt lat="36.710168118030836" lon="14.941771008689487"><ele>5.0</ele><time>2026-04-11T15:21:47Z</time></trkpt><trkpt lat="36.71023922329486" lon="14.941798307736757"><ele>5.0</ele><time>2026-04-11T15:21:48Z</time></trkpt><trkpt lat="36.710303482917865" lon="14.941823469060079"><ele>5.25</ele><time>2026-04-11T15:21:49Z</time></trkpt><trkpt lat="36.71038139940634" lon="14.941851275541831"><ele>5.5</ele><time>2026-04-11T15:21:51Z</time></trkpt><trkpt lat="36.71043381899519" lon="14.941697206960317"><ele>5.75</ele><time>2026-04-11T15:21:54Z</time></trkpt><trkpt lat="36.71046274190178" lon="14.94155287095642"><ele>6.0</ele><time>2026-04-11T15:21:56Z</time></trkpt><trkpt lat="36.71050063406435" lon="14.941404576757181"><ele>6.0</ele><time>2026-04-11T15:21:58Z</time></trkpt><trkpt lat="36.710515619026076" lon="14.941317776881034"><ele>6.0</ele><time>2026-04-11T15:21:59Z</time></trkpt><trkpt lat="36.710533470968805" lon="14.941225820997676"><ele>6.0</ele><time>2026-04-11T15:22:00Z</time></trkpt><trkpt lat="36.71055584665567" lon="14.941125758782283"><ele>6.0</ele><time>2026-04-11T15:22:01Z</time></trkpt><trkpt lat="36.710584883123" lon="14.94101665442201"><ele>6.0</ele><time>2026-04-11T15:22:02Z</time></trkpt><trkpt lat="36.71061581791677" lon="14.940872806875104"><ele>6.0</ele><time>2026-04-11T15:22:03Z</time></trkpt><trkpt lat="36.71066149131351" lon="14.940692360111031"><ele>5.666666666666667</ele><time>2026-04-11T15:22:04Z</time></trkpt><trkpt lat="36.710707603691816" lon="14.940508354976872"><ele>5.333333333333334</ele><time>2026-04-11T15:22:05Z</time></trkpt><trkpt lat="36.710742665511475" lon="14.94031845467069"><ele>5.0</ele><time>2026-04-11T15:22:06Z</time></trkpt><trkpt lat="36.710783055216964" lon="14.940126136952696"><ele>4.666666666666667</ele><time>2026-04-11T15:22:07Z</time></trkpt><trkpt lat="36.71083653803604" lon="14.939929791688105"><ele>4.333333333333333</ele><time>2026-04-11T15:22:08Z</time></trkpt><trkpt lat="36.71087948455385" lon="14.939726675227746"><ele>4.0</ele><time>2026-04-11T15:22:09Z</time></trkpt><trkpt lat="36.71092821700741" lon="14.939524815833131"><ele>4.0</ele><time>2026-04-11T15:22:09.999Z</time></trkpt><trkpt lat="36.71097460228421" lon="14.939327412456354"><ele>4.0</ele><time>2026-04-11T15:22:10.999Z</time></trkpt><trkpt lat="36.71102211527463" lon="14.939130141797744"><ele>4.0</ele><time>2026-04-11T15:22:11.999Z</time></trkpt><trkpt lat="36.711071199731116" lon="14.938930884656706"><ele>4.25</ele><time>2026-04-11T15:22:12.999Z</time></trkpt><trkpt lat="36.711111913844725" lon="14.938750722392651"><ele>4.5</ele><time>2026-04-11T15:22:13.999Z</time></trkpt><trkpt lat="36.71115104892541" lon="14.93858791348754"><ele>4.75</ele><time>2026-04-11T15:22:14.999Z</time></trkpt><trkpt lat="36.711186991870406" lon="14.938435383820714"><ele>5.0</ele><time>2026-04-11T15:22:15.999Z</time></trkpt><trkpt lat="36.71122168043371" lon="14.938288582764887"><ele>5.0</ele><time>2026-04-11T15:22:16.999Z</time></trkpt><trkpt lat="36.711255473998825" lon="14.938143905815139"><ele>5.0</ele><time>2026-04-11T15:22:17.999Z</time></trkpt><trkpt lat="36.71128592385876" lon="14.938005301214128"><ele>5.0</ele><time>2026-04-11T15:22:18.999Z</time></trkpt><trkpt lat="36.71131468871191" lon="14.93787517636588"><ele>5.0</ele><time>2026-04-11T15:22:19.999Z</time></trkpt><trkpt lat="36.71134400204247" lon="14.937742592521886"><ele>5.0</ele><time>2026-04-11T15:22:20.999Z</time></trkpt><trkpt lat="36.71137165318078" lon="14.937621618008667"><ele>5.0</ele><time>2026-04-11T15:22:21.999Z</time></trkpt><trkpt lat="36.711399344244334" lon="14.937501605453987"><ele>5.0</ele><time>2026-04-11T15:22:22.999Z</time></trkpt><trkpt lat="36.7114247958445" lon="14.937395280901924"><ele>5.0</ele><time>2026-04-11T15:22:23.999Z</time></trkpt><trkpt lat="36.71145105631743" lon="14.937293755929437"><ele>5.0</ele><time>2026-04-11T15:22:24.999Z</time></trkpt><trkpt lat="36.711476859302785" lon="14.937189970932861"><ele>5.0</ele><time>2026-04-11T15:22:25.999Z</time></trkpt><trkpt lat="36.71150247248936" lon="14.937080197420086"><ele>5.0</ele><time>2026-04-11T15:22:26.999Z</time></trkpt><trkpt lat="36.71152936006514" lon="14.936964260935506"><ele>5.0</ele><time>2026-04-11T15:22:27.999Z</time></trkpt><trkpt lat="36.711552775648734" lon="14.936844366925293"><ele>5.0</ele><time>2026-04-11T15:22:28.999Z</time></trkpt><trkpt lat="36.711583266418145" lon="14.936713475749702"><ele>5.0</ele><time>2026-04-11T15:22:29.999Z</time></trkpt><trkpt lat="36.71161364639142" lon="14.93659374742309"><ele>5.2</ele><time>2026-04-11T15:22:30.999Z</time></trkpt><trkpt lat="36.71163821381124" lon="14.936484045195273"><ele>5.4</ele><time>2026-04-11T15:22:31.999Z</time></trkpt><trkpt lat="36.711662191152435" lon="14.936378308185406"><ele>5.6</ele><time>2026-04-11T15:22:32.999Z</time></trkpt><trkpt lat="36.711686204069466" lon="14.936260935782908"><ele>5.8</ele><time>2026-04-11T15:22:33.999Z</time></trkpt><trkpt lat="36.711715326595176" lon="14.936134423163754"><ele>6.0</ele><time>2026-04-11T15:22:34.999Z</time></trkpt><trkpt lat="36.71174226154125" lon="14.936011536058652"><ele>6.0</ele><time>2026-04-11T15:22:35.999Z</time></trkpt><trkpt lat="36.71177085540273" lon="14.935888586131474"><ele>6.0</ele><time>2026-04-11T15:22:36.999Z</time></trkpt><trkpt lat="36.71180017253092" lon="14.935765819751117"><ele>6.0</ele><time>2026-04-11T15:22:37.999Z</time></trkpt><trkpt lat="36.711828708827554" lon="14.935643194693467"><ele>6.0</ele><time>2026-04-11T15:22:38.999Z</time></trkpt><trkpt lat="36.711855761652735" lon="14.935525566433189"><ele>6.0</ele><time>2026-04-11T15:22:39.999Z</time></trkpt><trkpt lat="36.711879041064336" lon="14.935416048010309"><ele>6.0</ele><time>2026-04-11T15:22:40.999Z</time></trkpt><trkpt lat="36.71190446249929" lon="14.935308634492536"><ele>6.0</ele><time>2026-04-11T15:22:41.999Z</time></trkpt><trkpt lat="36.71192825277561" lon="14.935197543371677"><ele>6.0</ele><time>2026-04-11T15:22:42.999Z</time></trkpt><trkpt lat="36.71195169713336" lon="14.93507670439614"><ele>6.0</ele><time>2026-04-11T15:22:43.999Z</time></trkpt><trkpt lat="36.71197996371982" lon="14.934959798012311"><ele>6.0</ele><time>2026-04-11T15:22:44.999Z</time></trkpt><trkpt lat="36.71200682160895" lon="14.934846684149889"><ele>6.0</ele><time>2026-04-11T15:22:45.999Z</time></trkpt><trkpt lat="36.71203448293989" lon="14.934738263694891"><ele>6.0</ele><time>2026-04-11T15:22:46.999Z</time></trkpt><trkpt lat="36.71206164014761" lon="14.934631086134182"><ele>6.0</ele><time>2026-04-11T15:22:47.999Z</time></trkpt><trkpt lat="36.712088251068295" lon="14.9345186378692"><ele>6.0</ele><time>2026-04-11T15:22:48.999Z</time></trkpt><trkpt lat="36.71211715146225" lon="14.934407037661506"><ele>6.0</ele><time>2026-04-11T15:22:49.999Z</time></trkpt><trkpt lat="36.712148264210164" lon="14.934294572311462"><ele>5.6</ele><time>2026-04-11T15:22:50.999Z</time></trkpt><trkpt lat="36.71218110607249" lon="14.934184331412588"><ele>5.199999999999999</ele><time>2026-04-11T15:22:51.999Z</time></trkpt><trkpt lat="36.71221793457689" lon="14.934082030042886"><ele>4.800000000000001</ele><time>2026-04-11T15:22:52.999Z</time></trkpt><trkpt lat="36.712237536261206" lon="14.933973388758474"><ele>4.4</ele><time>2026-04-11T15:22:53.999Z</time></trkpt><trkpt lat="36.712249541325995" lon="14.93381277749552"><ele>4.0</ele><time>2026-04-11T15:22:54.999Z</time></trkpt><trkpt lat="36.71227698856952" lon="14.933707217479439"><ele>4.0</ele><time>2026-04-11T15:22:55.999Z</time></trkpt><trkpt lat="36.71230073930082" lon="14.933597065829042"><ele>4.0</ele><time>2026-04-11T15:22:56.999Z</time></trkpt><trkpt lat="36.712322217051586" lon="14.933485321194594"><ele>4.0</ele><time>2026-04-11T15:22:57.999Z</time></trkpt><trkpt lat="36.71234411994065" lon="14.933369603622577"><ele>4.0</ele><time>2026-04-11T15:22:58.999Z</time></trkpt><trkpt lat="36.712363919301254" lon="14.933248163427058"><ele>4.0</ele><time>2026-04-11T15:22:59.999Z</time></trkpt><trkpt lat="36.71238736822239" lon="14.933132259630776"><ele>4.4</ele><time>2026-04-11T15:23:00.999Z</time></trkpt><trkpt lat="36.71240584597832" lon="14.933014130108884"><ele>4.800000000000001</ele><time>2026-04-11T15:23:01.999Z</time></trkpt><trkpt lat="36.71242870111277" lon="14.93289813361597"><ele>5.199999999999999</ele><time>2026-04-11T15:23:02.999Z</time></trkpt><trkpt lat="36.71245114343012" lon="14.93278346218546"><ele>5.6</ele><time>2026-04-11T15:23:03.999Z</time></trkpt><trkpt lat="36.71246753759258" lon="14.932670590246948"><ele>6.0</ele><time>2026-04-11T15:23:04.999Z</time></trkpt><trkpt lat="36.71248442286154" lon="14.932575173199979"><ele>5.833333333333333</ele><time>2026-04-11T15:23:05.999Z</time></trkpt><trkpt lat="36.7125040748791" lon="14.932472635849068"><ele>5.666666666666667</ele><time>2026-04-11T15:23:06.999Z</time></trkpt><trkpt lat="36.71252009382302" lon="14.932358960094584"><ele>5.5</ele><time>2026-04-11T15:23:07.999Z</time></trkpt><trkpt lat="36.71254346509469" lon="14.932265586568551"><ele>5.333333333333334</ele><time>2026-04-11T15:23:09Z</time></trkpt><trkpt lat="36.71256344238107" lon="14.932176544663044"><ele>5.166666666666667</ele><time>2026-04-11T15:23:10Z</time></trkpt><trkpt lat="36.712578155900175" lon="14.93209008115207"><ele>5.0</ele><time>2026-04-11T15:23:11Z</time></trkpt><trkpt lat="36.71258706741334" lon="14.932011184906965"><ele>5.0</ele><time>2026-04-11T15:23:12Z</time></trkpt><trkpt lat="36.712591526210744" lon="14.931910928515391"><ele>5.0</ele><time>2026-04-11T15:23:14Z</time></trkpt><trkpt lat="36.71258763845982" lon="14.931814344782328"><ele>5.0</ele><time>2026-04-11T15:23:17Z</time></trkpt><trkpt lat="36.71265511212729" lon="14.931680916023362"><ele>5.0</ele><time>2026-04-11T15:23:19Z</time></trkpt><trkpt lat="36.71270263352692" lon="14.93161193042954"><ele>5.0</ele><time>2026-04-11T15:23:20Z</time></trkpt><trkpt lat="36.71277407244522" lon="14.931506194449236"><ele>4.666666666666667</ele><time>2026-04-11T15:23:21Z</time></trkpt><trkpt lat="36.71288315310914" lon="14.931344995408185"><ele>4.333333333333333</ele><time>2026-04-11T15:23:22Z</time></trkpt><trkpt lat="36.71302029986543" lon="14.93115687976762"><ele>4.0</ele><time>2026-04-11T15:23:23Z</time></trkpt><trkpt lat="36.713152244350965" lon="14.930964427550963"><ele>5.5</ele><time>2026-04-11T15:23:24Z</time></trkpt><trkpt lat="36.71332896935342" lon="14.930712690240581"><ele>7.0</ele><time>2026-04-11T15:23:25Z</time></trkpt><trkpt lat="36.713488169452674" lon="14.930480889876344"><ele>6.5</ele><time>2026-04-11T15:23:26Z</time></trkpt><trkpt lat="36.713662174735745" lon="14.930231001071107"><ele>6.0</ele><time>2026-04-11T15:23:27Z</time></trkpt><trkpt lat="36.713850490619095" lon="14.929992724424435"><ele>6.0</ele><time>2026-04-11T15:23:28Z</time></trkpt><trkpt lat="36.71403201428929" lon="14.929754635940743"><ele>6.0</ele><time>2026-04-11T15:23:29Z</time></trkpt><trkpt lat="36.71421328196117" lon="14.929494263852787"><ele>6.0</ele><time>2026-04-11T15:23:30Z</time></trkpt><trkpt lat="36.71438603484339" lon="14.929234521968677"><ele>6.0</ele><time>2026-04-11T15:23:31Z</time></trkpt><trkpt lat="36.71456095185454" lon="14.928979560072785"><ele>5.0</ele><time>2026-04-11T15:23:32Z</time></trkpt><trkpt lat="36.71473810259781" lon="14.928722772259592"><ele>4.0</ele><time>2026-04-11T15:23:33Z</time></trkpt><trkpt lat="36.71490756769411" lon="14.928478058707107"><ele>5.0</ele><time>2026-04-11T15:23:34Z</time></trkpt><trkpt lat="36.7150731743101" lon="14.928234354449597"><ele>6.0</ele><time>2026-04-11T15:23:35Z</time></trkpt><trkpt lat="36.71523427434852" lon="14.927994103492601"><ele>5.5</ele><time>2026-04-11T15:23:36Z</time></trkpt><trkpt lat="36.71539559247625" lon="14.927755335948317"><ele>5.0</ele><time>2026-04-11T15:23:37Z</time></trkpt><trkpt lat="36.715557387668994" lon="14.927525467616103"><ele>5.0</ele><time>2026-04-11T15:23:38Z</time></trkpt><trkpt lat="36.715723960489605" lon="14.927298195642537"><ele>5.0</ele><time>2026-04-11T15:23:39Z</time></trkpt><trkpt lat="36.71589403067849" lon="14.927061476212328"><ele>5.0</ele><time>2026-04-11T15:23:40Z</time></trkpt><trkpt lat="36.716056244650844" lon="14.92682086341558"><ele>5.0</ele><time>2026-04-11T15:23:41Z</time></trkpt><trkpt lat="36.716214965423454" lon="14.926589929781112"><ele>5.5</ele><time>2026-04-11T15:23:42Z</time></trkpt><trkpt lat="36.71637528415639" lon="14.926359908673394"><ele>6.0</ele><time>2026-04-11T15:23:43Z</time></trkpt><trkpt lat="36.71653532046374" lon="14.926129355887815"><ele>6.0</ele><time>2026-04-11T15:23:44Z</time></trkpt><trkpt lat="36.716697794416234" lon="14.92589410283198"><ele>6.0</ele><time>2026-04-11T15:23:45Z</time></trkpt><trkpt lat="36.71686956851154" lon="14.925643100044432"><ele>6.0</ele><time>2026-04-11T15:23:46Z</time></trkpt><trkpt lat="36.717043461897525" lon="14.925394789715515"><ele>6.0</ele><time>2026-04-11T15:23:47Z</time></trkpt><trkpt lat="36.717213742793945" lon="14.925147586349993"><ele>6.5</ele><time>2026-04-11T15:23:48Z</time></trkpt><trkpt lat="36.71738413203409" lon="14.924901815738385"><ele>7.0</ele><time>2026-04-11T15:23:49Z</time></trkpt><trkpt lat="36.71754801069792" lon="14.924664739114206"><ele>7.0</ele><time>2026-04-11T15:23:50Z</time></trkpt><trkpt lat="36.717708368858105" lon="14.924437150099177"><ele>7.0</ele><time>2026-04-11T15:23:51Z</time></trkpt><trkpt lat="36.7178625862288" lon="14.92421709550923"><ele>5.5</ele><time>2026-04-11T15:23:52Z</time></trkpt><trkpt lat="36.718019648223766" lon="14.923992018812983"><ele>4.0</ele><time>2026-04-11T15:23:53Z</time></trkpt><trkpt lat="36.718174991416085" lon="14.923761521135862"><ele>4.0</ele><time>2026-04-11T15:23:54Z</time></trkpt><trkpt lat="36.71832165736436" lon="14.92351718144722"><ele>4.0</ele><time>2026-04-11T15:23:55Z</time></trkpt><trkpt lat="36.718457654959956" lon="14.92325738972625"><ele>5.0</ele><time>2026-04-11T15:23:56Z</time></trkpt><trkpt lat="36.718583010015976" lon="14.923006331241476"><ele>6.0</ele><time>2026-04-11T15:23:57Z</time></trkpt><trkpt lat="36.71870315113857" lon="14.922760665293062"><ele>5.666666666666667</ele><time>2026-04-11T15:23:58Z</time></trkpt><trkpt lat="36.718821076131675" lon="14.92251673454737"><ele>5.333333333333334</ele><time>2026-04-11T15:23:59Z</time></trkpt><trkpt lat="36.71893702039553" lon="14.922283107641352"><ele>5.0</ele><time>2026-04-11T15:24:00Z</time></trkpt><trkpt lat="36.71905508827051" lon="14.922051538605832"><ele>5.0</ele><time>2026-04-11T15:24:01Z</time></trkpt><trkpt lat="36.71916994031528" lon="14.92182237477587"><ele>5.0</ele><time>2026-04-11T15:24:02Z</time></trkpt><trkpt lat="36.719291714599485" lon="14.921573928970433"><ele>4.5</ele><time>2026-04-11T15:24:03Z</time></trkpt><trkpt lat="36.71941761219899" lon="14.921318869323326"><ele>4.0</ele><time>2026-04-11T15:24:04Z</time></trkpt><trkpt lat="36.719543964619916" lon="14.921065870734905"><ele>5.0</ele><time>2026-04-11T15:24:05Z</time></trkpt><trkpt lat="36.71966454854029" lon="14.92082463884794"><ele>6.0</ele><time>2026-04-11T15:24:06Z</time></trkpt><trkpt lat="36.71978436825723" lon="14.920588147742635"><ele>6.0</ele><time>2026-04-11T15:24:07Z</time></trkpt><trkpt lat="36.719903003488376" lon="14.92035604864693"><ele>6.0</ele><time>2026-04-11T15:24:08Z</time></trkpt><trkpt lat="36.720021020273286" lon="14.920126091801988"><ele>6.0</ele><time>2026-04-11T15:24:09Z</time></trkpt><trkpt lat="36.72013610482294" lon="14.919915445847714"><ele>5.333333333333333</ele><time>2026-04-11T15:24:10Z</time></trkpt><trkpt lat="36.720247598096336" lon="14.91972833397205"><ele>4.666666666666666</ele><time>2026-04-11T15:24:11Z</time></trkpt><trkpt lat="36.72035702311029" lon="14.919558293603435"><ele>4.0</ele><time>2026-04-11T15:24:12Z</time></trkpt><trkpt lat="36.72045314872355" lon="14.919399847987203"><ele>4.0</ele><time>2026-04-11T15:24:13Z</time></trkpt><trkpt lat="36.72054653547373" lon="14.919255366690917"><ele>4.0</ele><time>2026-04-11T15:24:13.999Z</time></trkpt><trkpt lat="36.72063398405335" lon="14.919115683319381"><ele>4.0</ele><time>2026-04-11T15:24:14.999Z</time></trkpt><trkpt lat="36.720715944611044" lon="14.918990241014217"><ele>4.0</ele><time>2026-04-11T15:24:15.999Z</time></trkpt><trkpt lat="36.720795813567385" lon="14.91886987178848"><ele>4.25</ele><time>2026-04-11T15:24:16.999Z</time></trkpt><trkpt lat="36.72088056746697" lon="14.918743894627523"><ele>4.5</ele><time>2026-04-11T15:24:17.999Z</time></trkpt><trkpt lat="36.72097509679521" lon="14.918593607739211"><ele>4.75</ele><time>2026-04-11T15:24:18.999Z</time></trkpt><trkpt lat="36.72106958183054" lon="14.918437414216976"><ele>5.0</ele><time>2026-04-11T15:24:19.999Z</time></trkpt><trkpt lat="36.721164107915676" lon="14.918283227440126"><ele>5.0</ele><time>2026-04-11T15:24:20.999Z</time></trkpt><trkpt lat="36.721256014744355" lon="14.918138942456844"><ele>5.0</ele><time>2026-04-11T15:24:21.999Z</time></trkpt><trkpt lat="36.721345930118" lon="14.917992165618857"><ele>5.0</ele><time>2026-04-11T15:24:22.999Z</time></trkpt><trkpt lat="36.72143556429164" lon="14.917845826966666"><ele>5.0</ele><time>2026-04-11T15:24:23.999Z</time></trkpt><trkpt lat="36.721527102956145" lon="14.917698943537241"><ele>5.333333333333334</ele><time>2026-04-11T15:24:24.999Z</time></trkpt><trkpt lat="36.72162384270081" lon="14.917547099264178"><ele>5.666666666666667</ele><time>2026-04-11T15:24:25.999Z</time></trkpt><trkpt lat="36.72172489500249" lon="14.917395398576604"><ele>6.0</ele><time>2026-04-11T15:24:26.999Z</time></trkpt><trkpt lat="36.72182415600913" lon="14.917237112444017"><ele>6.0</ele><time>2026-04-11T15:24:27.999Z</time></trkpt><trkpt lat="36.72191729576784" lon="14.917080860230726"><ele>6.0</ele><time>2026-04-11T15:24:28.999Z</time></trkpt><trkpt lat="36.72201274359091" lon="14.916925439189601"><ele>6.0</ele><time>2026-04-11T15:24:29.999Z</time></trkpt><trkpt lat="36.72210396840584" lon="14.916778590378573"><ele>6.0</ele><time>2026-04-11T15:24:30.999Z</time></trkpt><trkpt lat="36.72219069977191" lon="14.916642196511393"><ele>6.0</ele><time>2026-04-11T15:24:31.999Z</time></trkpt><trkpt lat="36.72226678727114" lon="14.916511170748555"><ele>6.0</ele><time>2026-04-11T15:24:32.999Z</time></trkpt><trkpt lat="36.72234560367567" lon="14.916386542469928"><ele>6.0</ele><time>2026-04-11T15:24:33.999Z</time></trkpt><trkpt lat="36.72242028946296" lon="14.91627039883014"><ele>6.0</ele><time>2026-04-11T15:24:34.999Z</time></trkpt><trkpt lat="36.72249316410183" lon="14.916158390534473"><ele>6.0</ele><time>2026-04-11T15:24:35.999Z</time></trkpt><trkpt lat="36.72255530692724" lon="14.916049978750534"><ele>6.0</ele><time>2026-04-11T15:24:36.999Z</time></trkpt><trkpt lat="36.72260767306283" lon="14.915945748773499"><ele>6.0</ele><time>2026-04-11T15:24:37.999Z</time></trkpt><trkpt lat="36.72266009402873" lon="14.91583573953908"><ele>6.0</ele><time>2026-04-11T15:24:38.999Z</time></trkpt><trkpt lat="36.722728859477265" lon="14.915718840318055"><ele>5.333333333333333</ele><time>2026-04-11T15:24:39.999Z</time></trkpt><trkpt lat="36.72282345693775" lon="14.915580394351833"><ele>4.666666666666666</ele><time>2026-04-11T15:24:40.999Z</time></trkpt><trkpt lat="36.722934635277475" lon="14.91541118687647"><ele>4.0</ele><time>2026-04-11T15:24:41.999Z</time></trkpt><trkpt lat="36.723065437797686" lon="14.915203263725667"><ele>4.5</ele><time>2026-04-11T15:24:42.999Z</time></trkpt><trkpt lat="36.72320801590682" lon="14.914972663380537"><ele>5.0</ele><time>2026-04-11T15:24:43.999Z</time></trkpt><trkpt lat="36.723362640622526" lon="14.914726160620479"><ele>5.0</ele><time>2026-04-11T15:24:44.999Z</time></trkpt><trkpt lat="36.72352199012468" lon="14.91448811878214"><ele>5.0</ele><time>2026-04-11T15:24:45.999Z</time></trkpt><trkpt lat="36.72368725124547" lon="14.914263520181693"><ele>6.0</ele><time>2026-04-11T15:24:46.999Z</time></trkpt><trkpt lat="36.723834640420236" lon="14.91401079716876"><ele>7.0</ele><time>2026-04-11T15:24:47.999Z</time></trkpt><trkpt lat="36.72396167271381" lon="14.913728533797448"><ele>7.0</ele><time>2026-04-11T15:24:48.999Z</time></trkpt><trkpt lat="36.72409465301042" lon="14.913423504313927"><ele>7.0</ele><time>2026-04-11T15:24:49.999Z</time></trkpt><trkpt lat="36.72422308948613" lon="14.91312894100781"><ele>7.0</ele><time>2026-04-11T15:24:50.999Z</time></trkpt><trkpt lat="36.724354658242376" lon="14.912831324856874"><ele>7.0</ele><time>2026-04-11T15:24:51.999Z</time></trkpt><trkpt lat="36.724487416349795" lon="14.912536422293496"><ele>6.5</ele><time>2026-04-11T15:24:52.999Z</time></trkpt><trkpt lat="36.72461786779934" lon="14.912241793530772"><ele>6.0</ele><time>2026-04-11T15:24:53.999Z</time></trkpt><trkpt lat="36.724746266054254" lon="14.911952572427197"><ele>6.0</ele><time>2026-04-11T15:24:54.999Z</time></trkpt><trkpt lat="36.72487226957167" lon="14.911673734311574"><ele>6.0</ele><time>2026-04-11T15:24:55.999Z</time></trkpt><trkpt lat="36.72499624638905" lon="14.911398915515637"><ele>6.0</ele><time>2026-04-11T15:24:56.999Z</time></trkpt><trkpt lat="36.72511957191849" lon="14.911122815151662"><ele>6.0</ele><time>2026-04-11T15:24:57.999Z</time></trkpt><trkpt lat="36.725239768839316" lon="14.910849862318534"><ele>5.5</ele><time>2026-04-11T15:24:58.999Z</time></trkpt><trkpt lat="36.7253589313443" lon="14.910580316268533"><ele>5.0</ele><time>2026-04-11T15:24:59.999Z</time></trkpt><trkpt lat="36.72547459873157" lon="14.910318898780082"><ele>5.0</ele><time>2026-04-11T15:25:00.999Z</time></trkpt><trkpt lat="36.72557948599452" lon="14.910079172683062"><ele>5.0</ele><time>2026-04-11T15:25:01.999Z</time></trkpt><trkpt lat="36.72567691991863" lon="14.909854170168845"><ele>5.0</ele><time>2026-04-11T15:25:02.999Z</time></trkpt><trkpt lat="36.72577195164418" lon="14.909638627810015"><ele>5.0</ele><time>2026-04-11T15:25:03.999Z</time></trkpt><trkpt lat="36.72585850819101" lon="14.909441094399686"><ele>5.0</ele><time>2026-04-11T15:25:04.999Z</time></trkpt><trkpt lat="36.72594239870832" lon="14.909254546628835"><ele>5.0</ele><time>2026-04-11T15:25:05.999Z</time></trkpt><trkpt lat="36.72603737119057" lon="14.909070548915142"><ele>4.666666666666667</ele><time>2026-04-11T15:25:06.999Z</time></trkpt><trkpt lat="36.72615243809971" lon="14.908910703968749"><ele>4.333333333333333</ele><time>2026-04-11T15:25:07.999Z</time></trkpt><trkpt lat="36.72628508913321" lon="14.908782657594605"><ele>4.0</ele><time>2026-04-11T15:25:08.999Z</time></trkpt><trkpt lat="36.72643047775294" lon="14.908651896196675"><ele>4.0</ele><time>2026-04-11T15:25:09.999Z</time></trkpt><trkpt lat="36.72658567874247" lon="14.908502741801996"><ele>4.0</ele><time>2026-04-11T15:25:10.999Z</time></trkpt><trkpt lat="36.726732406033236" lon="14.908353128036012"><ele>4.0</ele><time>2026-04-11T15:25:11.999Z</time></trkpt><trkpt lat="36.72686845392479" lon="14.908211900320719"><ele>4.0</ele><time>2026-04-11T15:25:12.999Z</time></trkpt><trkpt lat="36.72699175433744" lon="14.908081979588097"><ele>4.0</ele><time>2026-04-11T15:25:13.999Z</time></trkpt><trkpt lat="36.727109437206074" lon="14.907960948993953"><ele>4.0</ele><time>2026-04-11T15:25:15Z</time></trkpt><trkpt lat="36.727222040728805" lon="14.907843480919446"><ele>4.0</ele><time>2026-04-11T15:25:16Z</time></trkpt><trkpt lat="36.727337435426655" lon="14.907727141313366"><ele>4.0</ele><time>2026-04-11T15:25:17Z</time></trkpt><trkpt lat="36.72745672688146" lon="14.907590934835977"><ele>4.0</ele><time>2026-04-11T15:25:18Z</time></trkpt><trkpt lat="36.72756245971582" lon="14.907439827245557"><ele>4.0</ele><time>2026-04-11T15:25:19Z</time></trkpt><trkpt lat="36.72765422893639" lon="14.907277707662816"><ele>4.0</ele><time>2026-04-11T15:25:20Z</time></trkpt><trkpt lat="36.727736743417196" lon="14.907090693896459"><ele>4.0</ele><time>2026-04-11T15:25:21Z</time></trkpt><trkpt lat="36.72780503109536" lon="14.906886977396827"><ele>4.666666666666666</ele><time>2026-04-11T15:25:22Z</time></trkpt><trkpt lat="36.727858438659005" lon="14.90667455302408"><ele>5.333333333333333</ele><time>2026-04-11T15:25:23Z</time></trkpt><trkpt lat="36.72789814071704" lon="14.906450019670023"><ele>6.0</ele><time>2026-04-11T15:25:24Z</time></trkpt><trkpt lat="36.727935367367316" lon="14.906224472745107"><ele>6.0</ele><time>2026-04-11T15:25:25Z</time></trkpt><trkpt lat="36.72797134085511" lon="14.90598728651444"><ele>6.0</ele><time>2026-04-11T15:25:26Z</time></trkpt><trkpt lat="36.72800682952556" lon="14.905710502474557"><ele>6.0</ele><time>2026-04-11T15:25:27Z</time></trkpt><trkpt lat="36.7280770646" lon="14.905417327764175"><ele>6.0</ele><time>2026-04-11T15:25:28Z</time></trkpt><trkpt lat="36.72813808401438" lon="14.905096751329367"><ele>6.0</ele><time>2026-04-11T15:25:29Z</time></trkpt><trkpt lat="36.728212550575165" lon="14.904765523924047"><ele>6.0</ele><time>2026-04-11T15:25:30Z</time></trkpt><trkpt lat="36.72827537992535" lon="14.90443154318371"><ele>6.0</ele><time>2026-04-11T15:25:31Z</time></trkpt><trkpt lat="36.72833780494442" lon="14.904105492923136"><ele>5.5</ele><time>2026-04-11T15:25:32Z</time></trkpt><trkpt lat="36.728405732855435" lon="14.903766057115044"><ele>5.0</ele><time>2026-04-11T15:25:33Z</time></trkpt><trkpt lat="36.72847115652274" lon="14.903411987492358"><ele>5.0</ele><time>2026-04-11T15:25:34Z</time></trkpt><trkpt lat="36.7285386318639" lon="14.90304796750154"><ele>5.0</ele><time>2026-04-11T15:25:35Z</time></trkpt><trkpt lat="36.72861061642833" lon="14.902673428233516"><ele>5.5</ele><time>2026-04-11T15:25:36Z</time></trkpt><trkpt lat="36.728676669100714" lon="14.902309585896901"><ele>6.0</ele><time>2026-04-11T15:25:37Z</time></trkpt><trkpt lat="36.72874140861665" lon="14.901943395036891"><ele>5.5</ele><time>2026-04-11T15:25:38Z</time></trkpt><trkpt lat="36.728805132694575" lon="14.901572647889678"><ele>5.0</ele><time>2026-04-11T15:25:39Z</time></trkpt><trkpt lat="36.72886871634134" lon="14.901205142704734"><ele>5.0</ele><time>2026-04-11T15:25:40Z</time></trkpt><trkpt lat="36.72893426559517" lon="14.900843912057809"><ele>5.0</ele><time>2026-04-11T15:25:41Z</time></trkpt><trkpt lat="36.72899510371331" lon="14.900502715857135"><ele>5.0</ele><time>2026-04-11T15:25:42Z</time></trkpt><trkpt lat="36.72905134249545" lon="14.900177004037605"><ele>5.0</ele><time>2026-04-11T15:25:43Z</time></trkpt><trkpt lat="36.729103652189046" lon="14.89986097631363"><ele>5.0</ele><time>2026-04-11T15:25:44Z</time></trkpt><trkpt lat="36.729155442152766" lon="14.89955363556078"><ele>5.0</ele><time>2026-04-11T15:25:45Z</time></trkpt><trkpt lat="36.72920501893349" lon="14.899264029712336"><ele>5.0</ele><time>2026-04-11T15:25:46Z</time></trkpt><trkpt lat="36.729249668133754" lon="14.899005505347123"><ele>5.0</ele><time>2026-04-11T15:25:47Z</time></trkpt><trkpt lat="36.72928983095665" lon="14.898770225470283"><ele>5.0</ele><time>2026-04-11T15:25:48Z</time></trkpt><trkpt lat="36.729323131533974" lon="14.898574606730817"><ele>5.0</ele><time>2026-04-11T15:25:49Z</time></trkpt><trkpt lat="36.72935891594916" lon="14.898382769890562"><ele>5.0</ele><time>2026-04-11T15:25:50Z</time></trkpt><trkpt lat="36.72939565342676" lon="14.898199672776599"><ele>5.0</ele><time>2026-04-11T15:25:51Z</time></trkpt><trkpt lat="36.72942822834468" lon="14.898018737877887"><ele>5.0</ele><time>2026-04-11T15:25:52Z</time></trkpt><trkpt lat="36.729462140705735" lon="14.89783854985112"><ele>5.0</ele><time>2026-04-11T15:25:53Z</time></trkpt><trkpt lat="36.72949437603408" lon="14.897661802746576"><ele>5.0</ele><time>2026-04-11T15:25:54Z</time></trkpt><trkpt lat="36.72952446858707" lon="14.897491321371321"><ele>5.0</ele><time>2026-04-11T15:25:55Z</time></trkpt><trkpt lat="36.7295531995918" lon="14.897332490169905"><ele>5.0</ele><time>2026-04-11T15:25:56Z</time></trkpt><trkpt lat="36.72957800139822" lon="14.897176107880217"><ele>5.0</ele><time>2026-04-11T15:25:57Z</time></trkpt><trkpt lat="36.72960281327317" lon="14.89701666469162"><ele>5.0</ele><time>2026-04-11T15:25:58Z</time></trkpt><trkpt lat="36.729633062412624" lon="14.896861751035265"><ele>5.0</ele><time>2026-04-11T15:25:59Z</time></trkpt><trkpt lat="36.729663247217744" lon="14.896696360178808"><ele>5.25</ele><time>2026-04-11T15:26:00Z</time></trkpt><trkpt lat="36.72969392387019" lon="14.896523948852868"><ele>5.5</ele><time>2026-04-11T15:26:01Z</time></trkpt><trkpt lat="36.7297290815165" lon="14.89634261741485"><ele>5.75</ele><time>2026-04-11T15:26:02Z</time></trkpt><trkpt lat="36.72976250711617" lon="14.896154066461982"><ele>6.0</ele><time>2026-04-11T15:26:03Z</time></trkpt><trkpt lat="36.72978782778779" lon="14.895959330838553"><ele>6.0</ele><time>2026-04-11T15:26:04Z</time></trkpt><trkpt lat="36.729813337829995" lon="14.895764211195148"><ele>6.0</ele><time>2026-04-11T15:26:05Z</time></trkpt><trkpt lat="36.72983981956688" lon="14.895561352060655"><ele>6.0</ele><time>2026-04-11T15:26:06Z</time></trkpt><trkpt lat="36.72985686989183" lon="14.895351182371428"><ele>6.0</ele><time>2026-04-11T15:26:07Z</time></trkpt><trkpt lat="36.729869437723785" lon="14.895136489525331"><ele>6.0</ele><time>2026-04-11T15:26:08Z</time></trkpt><trkpt lat="36.729875812992404" lon="14.894921450877142"><ele>6.0</ele><time>2026-04-11T15:26:09Z</time></trkpt><trkpt lat="36.72986285025388" lon="14.894695418492454"><ele>7.333333333333334</ele><time>2026-04-11T15:26:10Z</time></trkpt><trkpt lat="36.7298284335183" lon="14.894479433256096"><ele>8.666666666666668</ele><time>2026-04-11T15:26:11Z</time></trkpt><trkpt lat="36.72977471540089" lon="14.894241735795548"><ele>10.0</ele><time>2026-04-11T15:26:12Z</time></trkpt><trkpt lat="36.729700556456514" lon="14.894008900232834"><ele>11.333333333333334</ele><time>2026-04-11T15:26:13Z</time></trkpt><trkpt lat="36.72961600007162" lon="14.893784292073313"><ele>12.666666666666668</ele><time>2026-04-11T15:26:14Z</time></trkpt><trkpt lat="36.729525912485315" lon="14.893563342047006"><ele>14.0</ele><time>2026-04-11T15:26:15Z</time></trkpt><trkpt lat="36.72944688661536" lon="14.89334395492537"><ele>11.666666666666668</ele><time>2026-04-11T15:26:15.999Z</time></trkpt><trkpt lat="36.72939204732498" lon="14.893124658374441"><ele>9.333333333333334</ele><time>2026-04-11T15:26:16.999Z</time></trkpt><trkpt lat="36.72934915914434" lon="14.892905654065617"><ele>7.0</ele><time>2026-04-11T15:26:17.999Z</time></trkpt><trkpt lat="36.729316079933625" lon="14.892696341569101"><ele>6.666666666666667</ele><time>2026-04-11T15:26:18.999Z</time></trkpt><trkpt lat="36.72929301007693" lon="14.892488970632078"><ele>6.333333333333334</ele><time>2026-04-11T15:26:19.999Z</time></trkpt><trkpt lat="36.72927742111976" lon="14.892287847191676"><ele>6.0</ele><time>2026-04-11T15:26:20.999Z</time></trkpt><trkpt lat="36.729271141091175" lon="14.892090910561445"><ele>6.0</ele><time>2026-04-11T15:26:21.999Z</time></trkpt><trkpt lat="36.72927182389757" lon="14.891895825638612"><ele>6.0</ele><time>2026-04-11T15:26:22.999Z</time></trkpt><trkpt lat="36.72927994668304" lon="14.891698294372704"><ele>6.0</ele><time>2026-04-11T15:26:23.999Z</time></trkpt><trkpt lat="36.72929765762241" lon="14.891509914817338"><ele>6.75</ele><time>2026-04-11T15:26:24.999Z</time></trkpt><trkpt lat="36.729318807144516" lon="14.891331522668297"><ele>7.5</ele><time>2026-04-11T15:26:25.999Z</time></trkpt><trkpt lat="36.72934559089583" lon="14.891150134800435"><ele>8.25</ele><time>2026-04-11T15:26:26.999Z</time></trkpt><trkpt lat="36.729377637107504" lon="14.890982260066446"><ele>9.0</ele><time>2026-04-11T15:26:27.999Z</time></trkpt><trkpt lat="36.72941449702272" lon="14.890826407675302"><ele>11.25</ele><time>2026-04-11T15:26:28.999Z</time></trkpt><trkpt lat="36.729454028272706" lon="14.890680763944761"><ele>13.5</ele><time>2026-04-11T15:26:29.999Z</time></trkpt><trkpt lat="36.72949569923962" lon="14.890540841151621"><ele>15.75</ele><time>2026-04-11T15:26:30.999Z</time></trkpt><trkpt lat="36.72954044188411" lon="14.89040779676005"><ele>18.0</ele><time>2026-04-11T15:26:31.999Z</time></trkpt><trkpt lat="36.72959011944776" lon="14.890272002714518"><ele>18.0</ele><time>2026-04-11T15:26:32.999Z</time></trkpt><trkpt lat="36.729643928493154" lon="14.890138597787947"><ele>18.0</ele><time>2026-04-11T15:26:33.999Z</time></trkpt><trkpt lat="36.72969944504592" lon="14.890000371251014"><ele>18.0</ele><time>2026-04-11T15:26:34.999Z</time></trkpt><trkpt lat="36.72975633843621" lon="14.889855674511674"><ele>18.0</ele><time>2026-04-11T15:26:35.999Z</time></trkpt><trkpt lat="36.72981439542385" lon="14.889704583837279"><ele>17.25</ele><time>2026-04-11T15:26:36.999Z</time></trkpt><trkpt lat="36.729871989236614" lon="14.889546127946153"><ele>16.5</ele><time>2026-04-11T15:26:37.999Z</time></trkpt><trkpt lat="36.729935198313285" lon="14.889383745204086"><ele>15.75</ele><time>2026-04-11T15:26:38.999Z</time></trkpt><trkpt lat="36.73000385903637" lon="14.8892139647012"><ele>15.0</ele><time>2026-04-11T15:26:39.999Z</time></trkpt><trkpt lat="36.730070704796645" lon="14.889044292670283"><ele>13.75</ele><time>2026-04-11T15:26:40.999Z</time></trkpt><trkpt lat="36.73013225107034" lon="14.888876385164954"><ele>12.5</ele><time>2026-04-11T15:26:41.999Z</time></trkpt><trkpt lat="36.730188827751064" lon="14.88871494663697"><ele>11.25</ele><time>2026-04-11T15:26:42.999Z</time></trkpt><trkpt lat="36.730249337333234" lon="14.888541013800488"><ele>10.0</ele><time>2026-04-11T15:26:43.999Z</time></trkpt><trkpt lat="36.73031904216914" lon="14.888335931209625"><ele>13.333333333333334</ele><time>2026-04-11T15:26:44.999Z</time></trkpt><trkpt lat="36.73040740215016" lon="14.888113595317902"><ele>16.666666666666668</ele><time>2026-04-11T15:26:45.999Z</time></trkpt><trkpt lat="36.73051606148631" lon="14.88786647990198"><ele>20.0</ele><time>2026-04-11T15:26:46.999Z</time></trkpt><trkpt lat="36.73063538674728" lon="14.887606120280656"><ele>18.0</ele><time>2026-04-11T15:26:47.999Z</time></trkpt><trkpt lat="36.73075745996751" lon="14.887312038623053"><ele>16.0</ele><time>2026-04-11T15:26:48.999Z</time></trkpt><trkpt lat="36.73087989486504" lon="14.886995642194883"><ele>14.0</ele><time>2026-04-11T15:26:49.999Z</time></trkpt><trkpt lat="36.730998230195155" lon="14.886650458229898"><ele>12.0</ele><time>2026-04-11T15:26:50.999Z</time></trkpt><trkpt lat="36.73109498877775" lon="14.886281009977838"><ele>19.0</ele><time>2026-04-11T15:26:51.999Z</time></trkpt><trkpt lat="36.731162161591214" lon="14.885898692576953"><ele>26.0</ele><time>2026-04-11T15:26:52.999Z</time></trkpt><trkpt lat="36.73123968540085" lon="14.885508890016908"><ele>22.0</ele><time>2026-04-11T15:26:53.999Z</time></trkpt><trkpt lat="36.73129327952704" lon="14.885093379595105"><ele>18.0</ele><time>2026-04-11T15:26:54.999Z</time></trkpt><trkpt lat="36.73132327688609" lon="14.88470125748345"><ele>18.0</ele><time>2026-04-11T15:26:55.999Z</time></trkpt><trkpt lat="36.73135483048971" lon="14.884303921371119"><ele>18.0</ele><time>2026-04-11T15:26:56.999Z</time></trkpt><trkpt lat="36.73141385234769" lon="14.88395036464183"><ele>16.0</ele><time>2026-04-11T15:26:57.999Z</time></trkpt><trkpt lat="36.731434716453215" lon="14.883604837638465"><ele>14.0</ele><time>2026-04-11T15:26:58.999Z</time></trkpt><trkpt lat="36.73145524677384" lon="14.88328216671388"><ele>13.0</ele><time>2026-04-11T15:26:59.999Z</time></trkpt><trkpt lat="36.7314791031487" lon="14.882978019491851"><ele>12.0</ele><time>2026-04-11T15:27:00.999Z</time></trkpt><trkpt lat="36.73149563466866" lon="14.88268336970178"><ele>11.5</ele><time>2026-04-11T15:27:01.999Z</time></trkpt><trkpt lat="36.731517271799156" lon="14.88239157639221"><ele>11.0</ele><time>2026-04-11T15:27:02.999Z</time></trkpt><trkpt lat="36.731542617386175" lon="14.882094015782927"><ele>11.0</ele><time>2026-04-11T15:27:03.999Z</time></trkpt><trkpt lat="36.731570602404496" lon="14.881795900551396"><ele>11.0</ele><time>2026-04-11T15:27:04.999Z</time></trkpt><trkpt lat="36.73159371793629" lon="14.881494069922155"><ele>9.5</ele><time>2026-04-11T15:27:05.999Z</time></trkpt><trkpt lat="36.731618058825084" lon="14.881186695131206"><ele>8.0</ele><time>2026-04-11T15:27:06.999Z</time></trkpt><trkpt lat="36.731643348843555" lon="14.880882338528941"><ele>7.5</ele><time>2026-04-11T15:27:07.999Z</time></trkpt><trkpt lat="36.73166839209035" lon="14.880574435446258"><ele>7.0</ele><time>2026-04-11T15:27:08.999Z</time></trkpt><trkpt lat="36.73169725185526" lon="14.88026610078712"><ele>6.5</ele><time>2026-04-11T15:27:09.999Z</time></trkpt><trkpt lat="36.731723942953096" lon="14.879958260458052"><ele>6.0</ele><time>2026-04-11T15:27:10.999Z</time></trkpt><trkpt lat="36.731747443987096" lon="14.879649769432158"><ele>6.0</ele><time>2026-04-11T15:27:11.999Z</time></trkpt><trkpt lat="36.731774559137534" lon="14.8793467804038"><ele>6.0</ele><time>2026-04-11T15:27:12.999Z</time></trkpt><trkpt lat="36.73179972681101" lon="14.879065227949905"><ele>6.0</ele><time>2026-04-11T15:27:13.999Z</time></trkpt><trkpt lat="36.73181764939661" lon="14.878800219581139"><ele>6.0</ele><time>2026-04-11T15:27:14.999Z</time></trkpt><trkpt lat="36.73183267417541" lon="14.878536736512952"><ele>6.0</ele><time>2026-04-11T15:27:15.999Z</time></trkpt><trkpt lat="36.73184091781865" lon="14.878275694530448"><ele>5.333333333333333</ele><time>2026-04-11T15:27:16.999Z</time></trkpt><trkpt lat="36.731846752943156" lon="14.87801344639785"><ele>4.666666666666666</ele><time>2026-04-11T15:27:17.999Z</time></trkpt><trkpt lat="36.7318602618351" lon="14.877740263302892"><ele>4.0</ele><time>2026-04-11T15:27:18.999Z</time></trkpt><trkpt lat="36.73187054086292" lon="14.877474138553122"><ele>4.0</ele><time>2026-04-11T15:27:19.999Z</time></trkpt><trkpt lat="36.73187848795961" lon="14.877215588832193"><ele>4.0</ele><time>2026-04-11T15:27:21Z</time></trkpt><trkpt lat="36.73188721950195" lon="14.876950088568849"><ele>4.0</ele><time>2026-04-11T15:27:22Z</time></trkpt><trkpt lat="36.731891927167105" lon="14.876688774193916"><ele>5.0</ele><time>2026-04-11T15:27:23Z</time></trkpt><trkpt lat="36.731895928598014" lon="14.876426880949253"><ele>6.0</ele><time>2026-04-11T15:27:24Z</time></trkpt><trkpt lat="36.73191100363957" lon="14.876161898445549"><ele>7.0</ele><time>2026-04-11T15:27:25Z</time></trkpt><trkpt lat="36.73192509673843" lon="14.875907237233921"><ele>7.0</ele><time>2026-04-11T15:27:26Z</time></trkpt><trkpt lat="36.731942061588796" lon="14.875650355441843"><ele>7.0</ele><time>2026-04-11T15:27:27Z</time></trkpt><trkpt lat="36.731962036246905" lon="14.875367019903285"><ele>7.0</ele><time>2026-04-11T15:27:28Z</time></trkpt><trkpt lat="36.731989566221316" lon="14.875088283720457"><ele>7.333333333333334</ele><time>2026-04-11T15:27:29Z</time></trkpt><trkpt lat="36.73202497531857" lon="14.874812682170747"><ele>7.666666666666666</ele><time>2026-04-11T15:27:30Z</time></trkpt><trkpt lat="36.73206039492591" lon="14.87454321128385"><ele>8.0</ele><time>2026-04-11T15:27:31Z</time></trkpt><trkpt lat="36.73209998884039" lon="14.87426876495694"><ele>9.0</ele><time>2026-04-11T15:27:32Z</time></trkpt><trkpt lat="36.73214403840474" lon="14.873998738287428"><ele>10.0</ele><time>2026-04-11T15:27:33Z</time></trkpt><trkpt lat="36.73218196946432" lon="14.873739602004962"><ele>11.0</ele><time>2026-04-11T15:27:34Z</time></trkpt><trkpt lat="36.732217373472395" lon="14.873499907047746"><ele>11.0</ele><time>2026-04-11T15:27:35Z</time></trkpt><trkpt lat="36.7322506494253" lon="14.873267379053445"><ele>11.0</ele><time>2026-04-11T15:27:36Z</time></trkpt><trkpt lat="36.73227924619228" lon="14.87303473797526"><ele>11.0</ele><time>2026-04-11T15:27:37Z</time></trkpt><trkpt lat="36.7322957455536" lon="14.872794775917956"><ele>10.333333333333332</ele><time>2026-04-11T15:27:38Z</time></trkpt><trkpt lat="36.7323032458477" lon="14.872549133417202"><ele>9.666666666666666</ele><time>2026-04-11T15:27:39Z</time></trkpt><trkpt lat="36.73230285312011" lon="14.872298294097927"><ele>9.0</ele><time>2026-04-11T15:27:40Z</time></trkpt><trkpt lat="36.73230220329405" lon="14.872042505386387"><ele>9.0</ele><time>2026-04-11T15:27:41Z</time></trkpt><trkpt lat="36.73230232422007" lon="14.871786048258704"><ele>9.0</ele><time>2026-04-11T15:27:42Z</time></trkpt><trkpt lat="36.73230655693653" lon="14.871522153168403"><ele>9.0</ele><time>2026-04-11T15:27:43Z</time></trkpt><trkpt lat="36.73230976208644" lon="14.871251384851687"><ele>8.0</ele><time>2026-04-11T15:27:44Z</time></trkpt><trkpt lat="36.73230930486951" lon="14.870977695904674"><ele>7.0</ele><time>2026-04-11T15:27:45Z</time></trkpt><trkpt lat="36.73230797060307" lon="14.870709265475513"><ele>6.0</ele><time>2026-04-11T15:27:46Z</time></trkpt><trkpt lat="36.732308837384046" lon="14.870435734913116"><ele>6.0</ele><time>2026-04-11T15:27:47Z</time></trkpt><trkpt lat="36.7323107343307" lon="14.870161540020163"><ele>6.0</ele><time>2026-04-11T15:27:48Z</time></trkpt><trkpt lat="36.73231292997011" lon="14.869890605141995"><ele>6.0</ele><time>2026-04-11T15:27:49Z</time></trkpt><trkpt lat="36.73231196593913" lon="14.869626423146965"><ele>6.0</ele><time>2026-04-11T15:27:50Z</time></trkpt><trkpt lat="36.73231204851252" lon="14.869361224821082"><ele>6.0</ele><time>2026-04-11T15:27:51Z</time></trkpt><trkpt lat="36.7323119702851" lon="14.869094044206449"><ele>6.0</ele><time>2026-04-11T15:27:52Z</time></trkpt><trkpt lat="36.7323130961938" lon="14.86882271280818"><ele>6.333333333333334</ele><time>2026-04-11T15:27:53Z</time></trkpt><trkpt lat="36.732312041206804" lon="14.868550819535015"><ele>6.666666666666667</ele><time>2026-04-11T15:27:54Z</time></trkpt><trkpt lat="36.73231404605976" lon="14.868283210210011"><ele>7.0</ele><time>2026-04-11T15:27:55Z</time></trkpt><trkpt lat="36.73231439048526" lon="14.868018391178193"><ele>7.0</ele><time>2026-04-11T15:27:56Z</time></trkpt><trkpt lat="36.73231304284179" lon="14.867748882718454"><ele>7.0</ele><time>2026-04-11T15:27:57Z</time></trkpt><trkpt lat="36.73231343196487" lon="14.867487939425278"><ele>7.0</ele><time>2026-04-11T15:27:58Z</time></trkpt><trkpt lat="36.73231586312158" lon="14.86724453174994"><ele>7.0</ele><time>2026-04-11T15:27:59Z</time></trkpt><trkpt lat="36.73231069330629" lon="14.867015359370951"><ele>7.0</ele><time>2026-04-11T15:28:00Z</time></trkpt><trkpt lat="36.73229949964445" lon="14.86679514835897"><ele>7.0</ele><time>2026-04-11T15:28:01Z</time></trkpt><trkpt lat="36.7322783073046" lon="14.866583844269142"><ele>7.0</ele><time>2026-04-11T15:28:02Z</time></trkpt><trkpt lat="36.73224251732282" lon="14.866375317551741"><ele>7.0</ele><time>2026-04-11T15:28:03Z</time></trkpt><trkpt lat="36.73219221845621" lon="14.866166019123288"><ele>7.0</ele><time>2026-04-11T15:28:04Z</time></trkpt><trkpt lat="36.73213358892119" lon="14.865955470124131"><ele>6.333333333333334</ele><time>2026-04-11T15:28:05Z</time></trkpt><trkpt lat="36.732077824789805" lon="14.865734079175093"><ele>5.666666666666667</ele><time>2026-04-11T15:28:06Z</time></trkpt><trkpt lat="36.732022157066204" lon="14.865512698943945"><ele>5.0</ele><time>2026-04-11T15:28:07Z</time></trkpt><trkpt lat="36.73196686346398" lon="14.865287497690321"><ele>4.333333333333334</ele><time>2026-04-11T15:28:08Z</time></trkpt><trkpt lat="36.731916303392666" lon="14.86505984292651"><ele>3.666666666666667</ele><time>2026-04-11T15:28:09Z</time></trkpt><trkpt lat="36.73186153378215" lon="14.864836685211651"><ele>3.0</ele><time>2026-04-11T15:28:10Z</time></trkpt><trkpt lat="36.73180860426771" lon="14.864615158889146"><ele>3.0</ele><time>2026-04-11T15:28:11Z</time></trkpt><trkpt lat="36.73176343192243" lon="14.8643994493756"><ele>3.0</ele><time>2026-04-11T15:28:12Z</time></trkpt><trkpt lat="36.731717593483566" lon="14.864197813747724"><ele>3.0</ele><time>2026-04-11T15:28:13Z</time></trkpt><trkpt lat="36.7316737908069" lon="14.864010369197707"><ele>3.0</ele><time>2026-04-11T15:28:14Z</time></trkpt><trkpt lat="36.73163269313628" lon="14.863837121688933"><ele>3.0</ele><time>2026-04-11T15:28:15Z</time></trkpt><trkpt lat="36.731597146262224" lon="14.86368289965218"><ele>3.0</ele><time>2026-04-11T15:28:16Z</time></trkpt><trkpt lat="36.73156100741719" lon="14.863549712846456"><ele>3.0</ele><time>2026-04-11T15:28:16.999Z</time></trkpt><trkpt lat="36.73152328532884" lon="14.863423836434874"><ele>3.5999999999999996</ele><time>2026-04-11T15:28:17.999Z</time></trkpt><trkpt lat="36.73149220707544" lon="14.863299735982093"><ele>4.199999999999999</ele><time>2026-04-11T15:28:18.999Z</time></trkpt><trkpt lat="36.73147414958828" lon="14.86318489195024"><ele>4.8</ele><time>2026-04-11T15:28:19.999Z</time></trkpt><trkpt lat="36.73145717728695" lon="14.863097140744857"><ele>5.3999999999999995</ele><time>2026-04-11T15:28:20.999Z</time></trkpt><trkpt lat="36.73143319350324" lon="14.862965525069473"><ele>6.0</ele><time>2026-04-11T15:28:22.999Z</time></trkpt><trkpt lat="36.73144175036275" lon="14.862813997756941"><ele>6.0</ele><time>2026-04-11T15:28:24.999Z</time></trkpt><trkpt lat="36.731448381808995" lon="14.862725621274324"><ele>6.0</ele><time>2026-04-11T15:28:25.999Z</time></trkpt><trkpt lat="36.731433987353725" lon="14.862632724640717"><ele>6.0</ele><time>2026-04-11T15:28:26.999Z</time></trkpt><trkpt lat="36.73139006736666" lon="14.862539489912024"><ele>6.0</ele><time>2026-04-11T15:28:27.999Z</time></trkpt><trkpt lat="36.731337899495614" lon="14.8624335229278"><ele>6.0</ele><time>2026-04-11T15:28:28.999Z</time></trkpt><trkpt lat="36.73129956000324" lon="14.862321818219042"><ele>6.0</ele><time>2026-04-11T15:28:29.999Z</time></trkpt><trkpt lat="36.7312671038184" lon="14.86219919154501"><ele>6.4</ele><time>2026-04-11T15:28:30.999Z</time></trkpt><trkpt lat="36.73123955893278" lon="14.862071510095623"><ele>6.8</ele><time>2026-04-11T15:28:31.999Z</time></trkpt><trkpt lat="36.731205068052866" lon="14.861940742191251"><ele>7.200000000000001</ele><time>2026-04-11T15:28:32.999Z</time></trkpt><trkpt lat="36.73117168138637" lon="14.861805575325757"><ele>7.6000000000000005</ele><time>2026-04-11T15:28:33.999Z</time></trkpt><trkpt lat="36.73114343860437" lon="14.861679318937709"><ele>8.0</ele><time>2026-04-11T15:28:34.999Z</time></trkpt><trkpt lat="36.73111674397659" lon="14.861572375743744"><ele>8.25</ele><time>2026-04-11T15:28:35.999Z</time></trkpt><trkpt lat="36.73109018061987" lon="14.861478151106473"><ele>8.5</ele><time>2026-04-11T15:28:36.999Z</time></trkpt><trkpt lat="36.731050128321506" lon="14.861341586045747"><ele>8.75</ele><time>2026-04-11T15:28:37.999Z</time></trkpt><trkpt lat="36.731000135725544" lon="14.861143120471496"><ele>9.0</ele><time>2026-04-11T15:28:38.999Z</time></trkpt><trkpt lat="36.73094337559923" lon="14.860888656897924"><ele>10.0</ele><time>2026-04-11T15:28:39.999Z</time></trkpt><trkpt lat="36.73087931330276" lon="14.860618856118785"><ele>11.0</ele><time>2026-04-11T15:28:40.999Z</time></trkpt><trkpt lat="36.730828067544245" lon="14.860375701997693"><ele>12.0</ele><time>2026-04-11T15:28:41.999Z</time></trkpt><trkpt lat="36.73077908399853" lon="14.86015429688239"><ele>13.333333333333332</ele><time>2026-04-11T15:28:42.999Z</time></trkpt><trkpt lat="36.73072640592892" lon="14.859956608457889"><ele>14.666666666666666</ele><time>2026-04-11T15:28:43.999Z</time></trkpt><trkpt lat="36.73068230569854" lon="14.859770587195161"><ele>16.0</ele><time>2026-04-11T15:28:44.999Z</time></trkpt><trkpt lat="36.73064056332022" lon="14.859599831453398"><ele>16.0</ele><time>2026-04-11T15:28:45.999Z</time></trkpt><trkpt lat="36.7306054499325" lon="14.8594400886925"><ele>16.0</ele><time>2026-04-11T15:28:46.999Z</time></trkpt><trkpt lat="36.730579913491624" lon="14.859281289465352"><ele>16.0</ele><time>2026-04-11T15:28:47.999Z</time></trkpt><trkpt lat="36.730558632312906" lon="14.859132875291007"><ele>16.0</ele><time>2026-04-11T15:28:48.999Z</time></trkpt><trkpt lat="36.73053553498676" lon="14.858979243284788"><ele>16.0</ele><time>2026-04-11T15:28:49.999Z</time></trkpt><trkpt lat="36.730511717668996" lon="14.858819379724173"><ele>16.0</ele><time>2026-04-11T15:28:50.999Z</time></trkpt><trkpt lat="36.730492769461854" lon="14.85865852384477"><ele>16.0</ele><time>2026-04-11T15:28:51.999Z</time></trkpt><trkpt lat="36.73047757251543" lon="14.858513840312552"><ele>16.0</ele><time>2026-04-11T15:28:52.999Z</time></trkpt><trkpt lat="36.73047044299354" lon="14.858380253735659"><ele>15.8</ele><time>2026-04-11T15:28:53.999Z</time></trkpt><trkpt lat="36.73047093339468" lon="14.858249945163124"><ele>15.600000000000001</ele><time>2026-04-11T15:28:54.999Z</time></trkpt><trkpt lat="36.730487577937915" lon="14.858114586185632"><ele>15.4</ele><time>2026-04-11T15:28:55.999Z</time></trkpt><trkpt lat="36.73051035738616" lon="14.857982218187713"><ele>15.2</ele><time>2026-04-11T15:28:56.999Z</time></trkpt><trkpt lat="36.73054540463409" lon="14.857864240806926"><ele>15.0</ele><time>2026-04-11T15:28:57.999Z</time></trkpt><trkpt lat="36.730589979834775" lon="14.857761726914955"><ele>15.0</ele><time>2026-04-11T15:28:58.999Z</time></trkpt><trkpt lat="36.73063358639691" lon="14.85766469234079"><ele>15.0</ele><time>2026-04-11T15:28:59.999Z</time></trkpt><trkpt lat="36.7306625019093" lon="14.857557287551689"><ele>15.0</ele><time>2026-04-11T15:29:00.999Z</time></trkpt><trkpt lat="36.73065125540924" lon="14.85744780533943"><ele>15.0</ele><time>2026-04-11T15:29:01.999Z</time></trkpt><trkpt lat="36.73060223954552" lon="14.857358732484911"><ele>15.0</ele><time>2026-04-11T15:29:02.999Z</time></trkpt><trkpt lat="36.73052306762194" lon="14.857309316217492"><ele>15.0</ele><time>2026-04-11T15:29:03.999Z</time></trkpt><trkpt lat="36.73044239604147" lon="14.85726018495755"><ele>14.8</ele><time>2026-04-11T15:29:04.999Z</time></trkpt><trkpt lat="36.73038035366695" lon="14.857171764426425"><ele>14.6</ele><time>2026-04-11T15:29:05.999Z</time></trkpt><trkpt lat="36.73032787771479" lon="14.857069115928054"><ele>14.399999999999999</ele><time>2026-04-11T15:29:06.999Z</time></trkpt><trkpt lat="36.73035077733231" lon="14.85693318115452"><ele>14.2</ele><time>2026-04-11T15:29:07.999Z</time></trkpt><trkpt lat="36.7303535396404" lon="14.856838517428203"><ele>14.0</ele><time>2026-04-11T15:29:08.999Z</time></trkpt><trkpt lat="36.73034735573996" lon="14.856745791405691"><ele>13.333333333333334</ele><time>2026-04-11T15:29:09.999Z</time></trkpt><trkpt lat="36.730343684432256" lon="14.85664801480997"><ele>12.666666666666668</ele><time>2026-04-11T15:29:10.999Z</time></trkpt><trkpt lat="36.73033890302372" lon="14.856554984003886"><ele>12.0</ele><time>2026-04-11T15:29:11.999Z</time></trkpt><trkpt lat="36.730318833437195" lon="14.856463740311007"><ele>11.333333333333334</ele><time>2026-04-11T15:29:12.999Z</time></trkpt><trkpt lat="36.73029300717243" lon="14.856380830745792"><ele>10.666666666666668</ele><time>2026-04-11T15:29:13.999Z</time></trkpt><trkpt lat="36.73028392168991" lon="14.856260333377115"><ele>10.0</ele><time>2026-04-11T15:29:15.999Z</time></trkpt><trkpt lat="36.730352365263485" lon="14.856234054163053"><ele>10.0</ele><time>2026-04-11T15:29:17.999Z</time></trkpt><trkpt lat="36.73046124746596" lon="14.85623896639771"><ele>10.0</ele><time>2026-04-11T15:29:19.999Z</time></trkpt><trkpt lat="36.73054871397656" lon="14.856237248734848"><ele>10.0</ele><time>2026-04-11T15:29:20.999Z</time></trkpt><trkpt lat="36.73063836211308" lon="14.856238216698753"><ele>10.0</ele><time>2026-04-11T15:29:21.999Z</time></trkpt><trkpt lat="36.730744218413" lon="14.856236277031678"><ele>10.0</ele><time>2026-04-11T15:29:22.999Z</time></trkpt><trkpt lat="36.73084598903813" lon="14.856237243143807"><ele>10.0</ele><time>2026-04-11T15:29:23.999Z</time></trkpt><trkpt lat="36.73092941007061" lon="14.856214716348514"><ele>10.0</ele><time>2026-04-11T15:29:25.999Z</time></trkpt><trkpt lat="36.73092376049009" lon="14.856073997846869"><ele>10.0</ele><time>2026-04-11T15:29:47Z</time></trkpt><trkpt lat="36.73089854136206" lon="14.855999692074215"><ele>10.0</ele><time>2026-04-11T15:29:48Z</time></trkpt><trkpt lat="36.73084082812143" lon="14.85586033070367"><ele>10.0</ele><time>2026-04-11T15:29:49Z</time></trkpt><trkpt lat="36.730784274434264" lon="14.855712080354257"><ele>9.5</ele><time>2026-04-11T15:29:50Z</time></trkpt><trkpt lat="36.73072467028671" lon="14.85554894818209"><ele>9.0</ele><time>2026-04-11T15:29:51Z</time></trkpt><trkpt lat="36.73066890446964" lon="14.855394427908179"><ele>8.5</ele><time>2026-04-11T15:29:52Z</time></trkpt><trkpt lat="36.7306240224165" lon="14.855267749706377"><ele>8.0</ele><time>2026-04-11T15:29:53Z</time></trkpt><trkpt lat="36.73058372572906" lon="14.85515343904315"><ele>9.0</ele><time>2026-04-11T15:29:54Z</time></trkpt><trkpt lat="36.7305471707539" lon="14.85504974300592"><ele>10.0</ele><time>2026-04-11T15:29:55Z</time></trkpt><trkpt lat="36.730519055277725" lon="14.85494523483829"><ele>11.0</ele><time>2026-04-11T15:29:57Z</time></trkpt><trkpt lat="36.73054456678227" lon="14.854866051291642"><ele>12.0</ele><time>2026-04-11T15:30:00Z</time></trkpt><trkpt lat="36.730663426172235" lon="14.854839519742825"><ele>13.0</ele><time>2026-04-11T15:30:01Z</time></trkpt><trkpt lat="36.730741168651825" lon="14.854790256231551"><ele>13.0</ele><time>2026-04-11T15:30:02Z</time></trkpt><trkpt lat="36.73072086866442" lon="14.854553082692481"><ele>13.0</ele><time>2026-04-11T15:30:05Z</time></trkpt><trkpt lat="36.73065526553699" lon="14.854403765708968"><ele>13.0</ele><time>2026-04-11T15:30:06Z</time></trkpt><trkpt lat="36.7306096860386" lon="14.854281258017084"><ele>13.0</ele><time>2026-04-11T15:30:07Z</time></trkpt><trkpt lat="36.73056603227161" lon="14.854197927930121"><ele>13.600000000000001</ele><time>2026-04-11T15:30:08Z</time></trkpt><trkpt lat="36.730533748893436" lon="14.85412828798564"><ele>14.200000000000001</ele><time>2026-04-11T15:30:09Z</time></trkpt><trkpt lat="36.73049213709923" lon="14.85401354027732"><ele>14.8</ele><time>2026-04-11T15:30:11Z</time></trkpt><trkpt lat="36.73045565794095" lon="14.853888713053658"><ele>15.4</ele><time>2026-04-11T15:30:12Z</time></trkpt><trkpt lat="36.73041681489177" lon="14.853764396660901"><ele>16.0</ele><time>2026-04-11T15:30:13Z</time></trkpt><trkpt lat="36.73037723046608" lon="14.853670300327076"><ele>15.999999999999998</ele><time>2026-04-11T15:30:14Z</time></trkpt><trkpt lat="36.73035185545065" lon="14.853559093507446"><ele>16.0</ele><time>2026-04-11T15:30:16Z</time></trkpt><trkpt lat="36.73041816612547" lon="14.853516935465976"><ele>16.0</ele><time>2026-04-11T15:30:18Z</time></trkpt><trkpt lat="36.730513608524646" lon="14.85348955453986"><ele>16.0</ele><time>2026-04-11T15:30:19Z</time></trkpt><trkpt lat="36.7305871858311" lon="14.853409957543892"><ele>15.999999999999998</ele><time>2026-04-11T15:30:21Z</time></trkpt><trkpt lat="36.73065377503409" lon="14.853375546409454"><ele>16.0</ele><time>2026-04-11T15:30:22Z</time></trkpt><trkpt lat="36.730729340325034" lon="14.85333644560292"><ele>16.0</ele><time>2026-04-11T15:30:23Z</time></trkpt><trkpt lat="36.730803372818535" lon="14.853289993376004"><ele>16.0</ele><time>2026-04-11T15:30:23.999Z</time></trkpt><trkpt lat="36.7308754263985" lon="14.853251189171807"><ele>16.0</ele><time>2026-04-11T15:30:24.999Z</time></trkpt><trkpt lat="36.73094034027508" lon="14.853214418333874"><ele>16.0</ele><time>2026-04-11T15:30:25.999Z</time></trkpt><trkpt lat="36.731072626499504" lon="14.853165275264413"><ele>16.0</ele><time>2026-04-11T15:30:27.999Z</time></trkpt><trkpt lat="36.73116149943501" lon="14.853075158064343"><ele>16.6</ele><time>2026-04-11T15:30:28.999Z</time></trkpt><trkpt lat="36.73122942219017" lon="14.852994385101276"><ele>17.200000000000003</ele><time>2026-04-11T15:30:29.999Z</time></trkpt><trkpt lat="36.73128046014574" lon="14.852930358063634"><ele>17.799999999999997</ele><time>2026-04-11T15:30:30.999Z</time></trkpt><trkpt lat="36.73138269927462" lon="14.852788147319936"><ele>18.4</ele><time>2026-04-11T15:30:32.999Z</time></trkpt><trkpt lat="36.73146154863475" lon="14.852704053141878"><ele>19.0</ele><time>2026-04-11T15:30:33.999Z</time></trkpt><trkpt lat="36.73154063997849" lon="14.852624816393535"><ele>18.833333333333332</ele><time>2026-04-11T15:30:34.999Z</time></trkpt><trkpt lat="36.73161917739253" lon="14.852554140651547"><ele>18.666666666666664</ele><time>2026-04-11T15:30:35.999Z</time></trkpt><trkpt lat="36.73167324036648" lon="14.852501410859537"><ele>18.5</ele><time>2026-04-11T15:30:36.999Z</time></trkpt><trkpt lat="36.73172355648449" lon="14.85243797652962"><ele>18.333333333333332</ele><time>2026-04-11T15:30:39.999Z</time></trkpt><trkpt lat="36.73169679503689" lon="14.85228792701774"><ele>18.166666666666668</ele><time>2026-04-11T15:30:42.999Z</time></trkpt><trkpt lat="36.73164340130933" lon="14.852225809997165"><ele>18.0</ele><time>2026-04-11T15:30:43.999Z</time></trkpt><trkpt lat="36.731586115663106" lon="14.852145549354686"><ele>18.0</ele><time>2026-04-11T15:30:44.999Z</time></trkpt><trkpt lat="36.73151421484015" lon="14.852061336300402"><ele>18.0</ele><time>2026-04-11T15:30:45.999Z</time></trkpt><trkpt lat="36.73145898811145" lon="14.851986246547186"><ele>18.0</ele><time>2026-04-11T15:30:46.999Z</time></trkpt><trkpt lat="36.73140487080497" lon="14.851923460115582"><ele>18.0</ele><time>2026-04-11T15:30:47.999Z</time></trkpt><trkpt lat="36.73135580534267" lon="14.851853185350244"><ele>18.0</ele><time>2026-04-11T15:30:48.999Z</time></trkpt><trkpt lat="36.73130032722139" lon="14.85178634712569"><ele>18.0</ele><time>2026-04-11T15:30:49.999Z</time></trkpt><trkpt lat="36.73124767799877" lon="14.851713653507643"><ele>17.833333333333332</ele><time>2026-04-11T15:30:50.999Z</time></trkpt><trkpt lat="36.7311864905779" lon="14.851638311448559"><ele>17.666666666666668</ele><time>2026-04-11T15:30:51.999Z</time></trkpt><trkpt lat="36.73112827800306" lon="14.851558966282706"><ele>17.5</ele><time>2026-04-11T15:30:52.999Z</time></trkpt><trkpt lat="36.73106429405849" lon="14.851506755228703"><ele>17.333333333333336</ele><time>2026-04-11T15:30:53.999Z</time></trkpt><trkpt lat="36.731011319616655" lon="14.851444118085597"><ele>17.166666666666668</ele><time>2026-04-11T15:30:54.999Z</time></trkpt><trkpt lat="36.7309591459283" lon="14.851390410147358"><ele>17.0</ele><time>2026-04-11T15:30:55.999Z</time></trkpt><trkpt lat="36.73090282325915" lon="14.851336332938278"><ele>17.0</ele><time>2026-04-11T15:30:56.999Z</time></trkpt><trkpt lat="36.730842667733306" lon="14.851276605097656"><ele>17.0</ele><time>2026-04-11T15:30:57.999Z</time></trkpt><trkpt lat="36.73078346661473" lon="14.851215598127938"><ele>17.0</ele><time>2026-04-11T15:30:58.999Z</time></trkpt><trkpt lat="36.730723125445" lon="14.851155320650946"><ele>17.0</ele><time>2026-04-11T15:30:59.999Z</time></trkpt><trkpt lat="36.73066683083616" lon="14.851097943389728"><ele>17.0</ele><time>2026-04-11T15:31:00.999Z</time></trkpt><trkpt lat="36.73061165528712" lon="14.851041107954876"><ele>17.0</ele><time>2026-04-11T15:31:01.999Z</time></trkpt><trkpt lat="36.73055183464091" lon="14.850985379989895"><ele>16.166666666666668</ele><time>2026-04-11T15:31:02.999Z</time></trkpt><trkpt lat="36.73049375092849" lon="14.850928650296328"><ele>15.333333333333334</ele><time>2026-04-11T15:31:03.999Z</time></trkpt><trkpt lat="36.73042686082784" lon="14.850868562076982"><ele>14.5</ele><time>2026-04-11T15:31:04.999Z</time></trkpt><trkpt lat="36.73036084041404" lon="14.8508099063158"><ele>13.666666666666668</ele><time>2026-04-11T15:31:05.999Z</time></trkpt><trkpt lat="36.73029972542149" lon="14.850756815323955"><ele>12.833333333333334</ele><time>2026-04-11T15:31:06.999Z</time></trkpt><trkpt lat="36.730231604518195" lon="14.850691840675676"><ele>12.0</ele><time>2026-04-11T15:31:07.999Z</time></trkpt><trkpt lat="36.73016721580136" lon="14.85062758098173"><ele>11.833333333333334</ele><time>2026-04-11T15:31:08.999Z</time></trkpt><trkpt lat="36.73010520848648" lon="14.850563888804697"><ele>11.666666666666666</ele><time>2026-04-11T15:31:09.999Z</time></trkpt><trkpt lat="36.73004487067617" lon="14.850501411571408"><ele>11.5</ele><time>2026-04-11T15:31:10.999Z</time></trkpt><trkpt lat="36.72998745397736" lon="14.850440382274451"><ele>11.333333333333332</ele><time>2026-04-11T15:31:11.999Z</time></trkpt><trkpt lat="36.7299373760775" lon="14.85038448225554"><ele>11.166666666666666</ele><time>2026-04-11T15:31:12.999Z</time></trkpt><trkpt lat="36.729886978673" lon="14.850334612201914"><ele>11.0</ele><time>2026-04-11T15:31:13.999Z</time></trkpt><trkpt lat="36.72979360432931" lon="14.850237444951665"><ele>11.0</ele><time>2026-04-11T15:31:15.999Z</time></trkpt><trkpt lat="36.72970762243989" lon="14.850136526424063"><ele>11.0</ele><time>2026-04-11T15:31:17.999Z</time></trkpt><trkpt lat="36.729633131894786" lon="14.850067430577049"><ele>11.0</ele><time>2026-04-11T15:31:19.999Z</time></trkpt><trkpt lat="36.729575554942926" lon="14.850013543557584"><ele>11.0</ele><time>2026-04-11T15:31:21.999Z</time></trkpt><trkpt lat="36.72951191249606" lon="14.849963214407481"><ele>11.0</ele><time>2026-04-11T15:31:23.999Z</time></trkpt><trkpt lat="36.72945716175188" lon="14.849917380381342"><ele>11.0</ele><time>2026-04-11T15:31:24.999Z</time></trkpt><trkpt lat="36.729405511095514" lon="14.849863731260054"><ele>10.8</ele><time>2026-04-11T15:31:25.999Z</time></trkpt><trkpt lat="36.72933010169304" lon="14.849777242770045"><ele>10.600000000000001</ele><time>2026-04-11T15:31:27.999Z</time></trkpt><trkpt lat="36.72925145742247" lon="14.84968246592407"><ele>10.4</ele><time>2026-04-11T15:31:29.999Z</time></trkpt><trkpt lat="36.72918299120839" lon="14.849606957070641"><ele>10.2</ele><time>2026-04-11T15:31:31.999Z</time></trkpt><trkpt lat="36.72910174855446" lon="14.84952557318194"><ele>10.0</ele><time>2026-04-11T15:31:34Z</time></trkpt><trkpt lat="36.72902308149756" lon="14.849455995280863"><ele>10.0</ele><time>2026-04-11T15:31:36Z</time></trkpt><trkpt lat="36.728964268603804" lon="14.849396281613476"><ele>10.0</ele><time>2026-04-11T15:31:38Z</time></trkpt><trkpt lat="36.72890822839324" lon="14.849328437255702"><ele>10.0</ele><time>2026-04-11T15:31:40Z</time></trkpt><trkpt lat="36.72884100387048" lon="14.8492570207617"><ele>10.0</ele><time>2026-04-11T15:31:42Z</time></trkpt><trkpt lat="36.72876002479108" lon="14.849179732058143"><ele>10.0</ele><time>2026-04-11T15:31:44Z</time></trkpt><trkpt lat="36.728674117398505" lon="14.849095058195218"><ele>9.833333333333334</ele><time>2026-04-11T15:31:46Z</time></trkpt><trkpt lat="36.72860188821463" lon="14.849027465354165"><ele>9.666666666666668</ele><time>2026-04-11T15:31:48Z</time></trkpt><trkpt lat="36.72851186690444" lon="14.848945083715517"><ele>9.5</ele><time>2026-04-11T15:31:50Z</time></trkpt><trkpt lat="36.728441180193556" lon="14.848874219562328"><ele>9.333333333333334</ele><time>2026-04-11T15:31:52Z</time></trkpt><trkpt lat="36.72838914976131" lon="14.848815371450097"><ele>9.166666666666666</ele><time>2026-04-11T15:31:54Z</time></trkpt><trkpt lat="36.72832759958495" lon="14.848750091021632"><ele>9.0</ele><time>2026-04-11T15:31:56Z</time></trkpt><trkpt lat="36.72825668167308" lon="14.848680773264032"><ele>9.0</ele><time>2026-04-11T15:31:58Z</time></trkpt><trkpt lat="36.72819173844722" lon="14.848625224062108"><ele>9.0</ele><time>2026-04-11T15:32:01Z</time></trkpt><trkpt lat="36.72813564223575" lon="14.848552052205866"><ele>9.0</ele><time>2026-04-11T15:32:04Z</time></trkpt><trkpt lat="36.72806749972158" lon="14.848485887417825"><ele>9.0</ele><time>2026-04-11T15:32:08Z</time></trkpt><trkpt lat="36.72799662946031" lon="14.84840674136142"><ele>9.0</ele><time>2026-04-11T15:32:10Z</time></trkpt><trkpt lat="36.727950748581726" lon="14.848345609194242"><ele>9.0</ele><time>2026-04-11T15:32:11Z</time></trkpt><trkpt lat="36.72790185888872" lon="14.848273706126905"><ele>9.428571428571429</ele><time>2026-04-11T15:32:12Z</time></trkpt><trkpt lat="36.72785347258853" lon="14.84819763361568"><ele>9.857142857142858</ele><time>2026-04-11T15:32:13Z</time></trkpt><trkpt lat="36.727807505500245" lon="14.84811874215948"><ele>10.285714285714285</ele><time>2026-04-11T15:32:14Z</time></trkpt><trkpt lat="36.727764983524" lon="14.848044852022763"><ele>10.714285714285715</ele><time>2026-04-11T15:32:15Z</time></trkpt><trkpt lat="36.72772379821397" lon="14.847974613061565"><ele>11.142857142857142</ele><time>2026-04-11T15:32:16Z</time></trkpt><trkpt lat="36.72768657499647" lon="14.847903348596418"><ele>11.571428571428571</ele><time>2026-04-11T15:32:17Z</time></trkpt><trkpt lat="36.72764282222864" lon="14.84783539285929"><ele>12.0</ele><time>2026-04-11T15:32:18Z</time></trkpt><trkpt lat="36.72759768594445" lon="14.847769606998185"><ele>12.166666666666666</ele><time>2026-04-11T15:32:19Z</time></trkpt><trkpt lat="36.72755702211775" lon="14.847706163055667"><ele>12.333333333333332</ele><time>2026-04-11T15:32:20Z</time></trkpt><trkpt lat="36.727515724594255" lon="14.847641334583821"><ele>12.5</ele><time>2026-04-11T15:32:21Z</time></trkpt><trkpt lat="36.72747604001648" lon="14.847573308081568"><ele>12.666666666666666</ele><time>2026-04-11T15:32:22Z</time></trkpt><trkpt lat="36.72743709768357" lon="14.847509831499222"><ele>12.833333333333332</ele><time>2026-04-11T15:32:23Z</time></trkpt><trkpt lat="36.727371845866266" lon="14.847403936213277"><ele>13.0</ele><time>2026-04-11T15:32:25Z</time></trkpt><trkpt lat="36.727309853377385" lon="14.847307654883883"><ele>13.4</ele><time>2026-04-11T15:32:26.999Z</time></trkpt><trkpt lat="36.72724542492149" lon="14.847203085466969"><ele>13.8</ele><time>2026-04-11T15:32:28.999Z</time></trkpt><trkpt lat="36.72718740106848" lon="14.847113099628448"><ele>14.2</ele><time>2026-04-11T15:32:30.999Z</time></trkpt><trkpt lat="36.7271005071489" lon="14.846960215546286"><ele>14.6</ele><time>2026-04-11T15:32:32.999Z</time></trkpt><trkpt lat="36.72704289773513" lon="14.846866160017425"><ele>15.0</ele><time>2026-04-11T15:32:33.999Z</time></trkpt><trkpt lat="36.72699070039164" lon="14.846792317659059"><ele>15.6</ele><time>2026-04-11T15:32:34.999Z</time></trkpt><trkpt lat="36.72695164857779" lon="14.84672506038923"><ele>16.2</ele><time>2026-04-11T15:32:35.999Z</time></trkpt><trkpt lat="36.726880795115484" lon="14.84661942376003"><ele>16.8</ele><time>2026-04-11T15:32:37.999Z</time></trkpt><trkpt lat="36.72681909038883" lon="14.846520201553078"><ele>17.4</ele><time>2026-04-11T15:32:39.999Z</time></trkpt><trkpt lat="36.72678283429251" lon="14.846452469416487"><ele>18.0</ele><time>2026-04-11T15:32:40.999Z</time></trkpt><trkpt lat="36.726719988648576" lon="14.84634282123292"><ele>18.0</ele><time>2026-04-11T15:32:42.999Z</time></trkpt><trkpt lat="36.72666507139533" lon="14.846246376901266"><ele>18.0</ele><time>2026-04-11T15:32:44.999Z</time></trkpt><trkpt lat="36.72659478946546" lon="14.84612718620348"><ele>18.0</ele><time>2026-04-11T15:32:46.999Z</time></trkpt><trkpt lat="36.72652540392436" lon="14.846011604152343"><ele>18.0</ele><time>2026-04-11T15:32:48.999Z</time></trkpt><trkpt lat="36.72645936210561" lon="14.845905614204591"><ele>18.0</ele><time>2026-04-11T15:32:50.999Z</time></trkpt><trkpt lat="36.726394703986735" lon="14.84580101216269"><ele>18.333333333333332</ele><time>2026-04-11T15:32:52.999Z</time></trkpt><trkpt lat="36.72632292194149" lon="14.845692331895881"><ele>18.666666666666668</ele><time>2026-04-11T15:32:54.999Z</time></trkpt><trkpt lat="36.726265883686985" lon="14.845620016773465"><ele>19.0</ele><time>2026-04-11T15:32:55.999Z</time></trkpt><trkpt lat="36.72620505071604" lon="14.845522767068404"><ele>19.333333333333336</ele><time>2026-04-11T15:32:56.999Z</time></trkpt><trkpt lat="36.7261601729922" lon="14.845425445137858"><ele>19.666666666666668</ele><time>2026-04-11T15:32:57.999Z</time></trkpt><trkpt lat="36.72611966462171" lon="14.845363440246079"><ele>20.0</ele><time>2026-04-11T15:32:58.999Z</time></trkpt><trkpt lat="36.72603652237959" lon="14.845261761996941"><ele>20.0</ele><time>2026-04-11T15:33:00.999Z</time></trkpt><trkpt lat="36.725984747369594" lon="14.845148863254742"><ele>20.0</ele><time>2026-04-11T15:33:02.999Z</time></trkpt><trkpt lat="36.725944713358786" lon="14.84507308016115"><ele>20.0</ele><time>2026-04-11T15:33:03.999Z</time></trkpt><trkpt lat="36.72590349508839" lon="14.844998956260037"><ele>20.0</ele><time>2026-04-11T15:33:04.999Z</time></trkpt><trkpt lat="36.72585525533771" lon="14.84492696094294"><ele>20.0</ele><time>2026-04-11T15:33:05.999Z</time></trkpt><trkpt lat="36.72580231833839" lon="14.844843265637705"><ele>20.0</ele><time>2026-04-11T15:33:06.999Z</time></trkpt><trkpt lat="36.725745206619195" lon="14.84473971755895"><ele>20.0</ele><time>2026-04-11T15:33:07.999Z</time></trkpt><trkpt lat="36.72567773418324" lon="14.844637606633496"><ele>20.0</ele><time>2026-04-11T15:33:08.999Z</time></trkpt><trkpt lat="36.72560414277336" lon="14.84451432030965"><ele>20.0</ele><time>2026-04-11T15:33:09.999Z</time></trkpt><trkpt lat="36.725539627800096" lon="14.844392941153199"><ele>20.0</ele><time>2026-04-11T15:33:10.999Z</time></trkpt><trkpt lat="36.72547261002936" lon="14.84427859764375"><ele>20.5</ele><time>2026-04-11T15:33:11.999Z</time></trkpt><trkpt lat="36.72539938640905" lon="14.844158998328453"><ele>21.0</ele><time>2026-04-11T15:33:12.999Z</time></trkpt><trkpt lat="36.725325897305176" lon="14.84402958872589"><ele>21.5</ele><time>2026-04-11T15:33:13.999Z</time></trkpt><trkpt lat="36.72525725997804" lon="14.84391007335233"><ele>22.0</ele><time>2026-04-11T15:33:14.999Z</time></trkpt><trkpt lat="36.72519205331467" lon="14.843803518368597"><ele>21.200000000000003</ele><time>2026-04-11T15:33:15.999Z</time></trkpt><trkpt lat="36.72513335282031" lon="14.843705224285152"><ele>20.400000000000002</ele><time>2026-04-11T15:33:16.999Z</time></trkpt><trkpt lat="36.72507311016588" lon="14.843614482247872"><ele>19.6</ele><time>2026-04-11T15:33:17.999Z</time></trkpt><trkpt lat="36.72501933851801" lon="14.843509118789585"><ele>18.8</ele><time>2026-04-11T15:33:18.999Z</time></trkpt><trkpt lat="36.7249590408554" lon="14.843400169505093"><ele>18.0</ele><time>2026-04-11T15:33:19.999Z</time></trkpt><trkpt lat="36.72488502969802" lon="14.843281807864177"><ele>18.0</ele><time>2026-04-11T15:33:20.999Z</time></trkpt><trkpt lat="36.724795578842304" lon="14.843165770064932"><ele>18.0</ele><time>2026-04-11T15:33:21.999Z</time></trkpt><trkpt lat="36.72473426652083" lon="14.843058464147465"><ele>18.0</ele><time>2026-04-11T15:33:22.999Z</time></trkpt><trkpt lat="36.72467911818634" lon="14.842960418826825"><ele>18.0</ele><time>2026-04-11T15:33:23.999Z</time></trkpt><trkpt lat="36.724633019774046" lon="14.8428710048723"><ele>18.0</ele><time>2026-04-11T15:33:24.999Z</time></trkpt><trkpt lat="36.72458372996728" lon="14.842794729127387"><ele>18.0</ele><time>2026-04-11T15:33:25.999Z</time></trkpt><trkpt lat="36.72453290421313" lon="14.84272308206442"><ele>18.0</ele><time>2026-04-11T15:33:26.999Z</time></trkpt><trkpt lat="36.72448458521622" lon="14.842648938509624"><ele>18.0</ele><time>2026-04-11T15:33:27.999Z</time></trkpt><trkpt lat="36.72444162858374" lon="14.842573259387734"><ele>18.0</ele><time>2026-04-11T15:33:28.999Z</time></trkpt><trkpt lat="36.72440457189684" lon="14.84250308648783"><ele>18.0</ele><time>2026-04-11T15:33:29.999Z</time></trkpt><trkpt lat="36.72434987804566" lon="14.842381540609658"><ele>18.0</ele><time>2026-04-11T15:33:31.999Z</time></trkpt><trkpt lat="36.72428649652887" lon="14.842293028375103"><ele>17.666666666666668</ele><time>2026-04-11T15:33:33.999Z</time></trkpt><trkpt lat="36.72423365090493" lon="14.842215955263617"><ele>17.333333333333332</ele><time>2026-04-11T15:33:35.999Z</time></trkpt><trkpt lat="36.72418913802891" lon="14.842142492585374"><ele>17.0</ele><time>2026-04-11T15:33:37.999Z</time></trkpt><trkpt lat="36.724144230898496" lon="14.84206959167094"><ele>16.666666666666664</ele><time>2026-04-11T15:33:40Z</time></trkpt><trkpt lat="36.72409683400298" lon="14.841987066632429"><ele>16.333333333333332</ele><time>2026-04-11T15:33:42Z</time></trkpt><trkpt lat="36.72404681592071" lon="14.84190716408384"><ele>16.0</ele><time>2026-04-11T15:33:44Z</time></trkpt><trkpt lat="36.72400177911272" lon="14.84182002056834"><ele>16.2</ele><time>2026-04-11T15:33:46Z</time></trkpt><trkpt lat="36.72395994823972" lon="14.84175655448964"><ele>16.400000000000002</ele><time>2026-04-11T15:33:47Z</time></trkpt><trkpt lat="36.72388598924201" lon="14.841662061667327"><ele>16.6</ele><time>2026-04-11T15:33:48Z</time></trkpt><trkpt lat="36.72381943733772" lon="14.841550319836607"><ele>16.8</ele><time>2026-04-11T15:33:49Z</time></trkpt><trkpt lat="36.723762320745905" lon="14.841455862229296"><ele>17.0</ele><time>2026-04-11T15:33:50Z</time></trkpt><trkpt lat="36.72371661423592" lon="14.841363523130985"><ele>17.0</ele><time>2026-04-11T15:33:51Z</time></trkpt><trkpt lat="36.72367139914612" lon="14.841269312240023"><ele>17.0</ele><time>2026-04-11T15:33:52Z</time></trkpt><trkpt lat="36.72362951288187" lon="14.841169674911653"><ele>17.0</ele><time>2026-04-11T15:33:53Z</time></trkpt><trkpt lat="36.723595190874505" lon="14.841067470820265"><ele>17.0</ele><time>2026-04-11T15:33:54Z</time></trkpt><trkpt lat="36.723583438792026" lon="14.840967275168191"><ele>17.0</ele><time>2026-04-11T15:33:55Z</time></trkpt><trkpt lat="36.723601525481406" lon="14.840887744166457"><ele>17.0</ele><time>2026-04-11T15:33:56Z</time></trkpt><trkpt lat="36.7236976090941" lon="14.840806983873321"><ele>17.0</ele><time>2026-04-11T15:33:58Z</time></trkpt><trkpt lat="36.72380060462514" lon="14.84074698849107"><ele>17.0</ele><time>2026-04-11T15:34:00Z</time></trkpt><trkpt lat="36.723899908579654" lon="14.840681475881752"><ele>17.0</ele><time>2026-04-11T15:34:02Z</time></trkpt><trkpt lat="36.72395868650203" lon="14.840611361647913"><ele>17.0</ele><time>2026-04-11T15:34:03Z</time></trkpt><trkpt lat="36.724010430215884" lon="14.840560519895188"><ele>17.0</ele><time>2026-04-11T15:34:04Z</time></trkpt><trkpt lat="36.724061848989116" lon="14.84048493617589"><ele>17.0</ele><time>2026-04-11T15:34:07Z</time></trkpt><trkpt lat="36.72406651004988" lon="14.840392919769538"><ele>17.0</ele><time>2026-04-11T15:34:09Z</time></trkpt><trkpt lat="36.723976758065575" lon="14.840289004956032"><ele>17.0</ele><time>2026-04-11T15:34:10Z</time></trkpt><trkpt lat="36.723905388510126" lon="14.840175817150822"><ele>17.0</ele><time>2026-04-11T15:34:11Z</time></trkpt><trkpt lat="36.72383553481789" lon="14.840064614845746"><ele>17.0</ele><time>2026-04-11T15:34:12Z</time></trkpt><trkpt lat="36.72376750374886" lon="14.839920002760216"><ele>17.0</ele><time>2026-04-11T15:34:13Z</time></trkpt><trkpt lat="36.72368366474376" lon="14.839810185691828"><ele>17.0</ele><time>2026-04-11T15:34:14Z</time></trkpt><trkpt lat="36.72363111258463" lon="14.839700102099824"><ele>17.0</ele><time>2026-04-11T15:34:15Z</time></trkpt><trkpt lat="36.72357858590816" lon="14.839628567712941"><ele>17.0</ele><time>2026-04-11T15:34:16Z</time></trkpt><trkpt lat="36.7235467760091" lon="14.839548907090238"><ele>17.0</ele><time>2026-04-11T15:34:17Z</time></trkpt><trkpt lat="36.723481545060615" lon="14.839469699633367"><ele>16.8</ele><time>2026-04-11T15:34:18Z</time></trkpt><trkpt lat="36.72341865562804" lon="14.83936409239376"><ele>16.6</ele><time>2026-04-11T15:34:19Z</time></trkpt><trkpt lat="36.723367800099986" lon="14.839257121915074"><ele>16.400000000000002</ele><time>2026-04-11T15:34:20Z</time></trkpt><trkpt lat="36.72332360858547" lon="14.839181802821532"><ele>16.2</ele><time>2026-04-11T15:34:21Z</time></trkpt><trkpt lat="36.72327360354705" lon="14.839081865163472"><ele>16.0</ele><time>2026-04-11T15:34:22Z</time></trkpt><trkpt lat="36.7232050396262" lon="14.838981651033654"><ele>15.4</ele><time>2026-04-11T15:34:23Z</time></trkpt><trkpt lat="36.723147575286866" lon="14.838884540975508"><ele>14.8</ele><time>2026-04-11T15:34:24Z</time></trkpt><trkpt lat="36.723095448152" lon="14.838798629283929"><ele>14.200000000000001</ele><time>2026-04-11T15:34:25Z</time></trkpt><trkpt lat="36.72305344255853" lon="14.838717232585001"><ele>13.600000000000001</ele><time>2026-04-11T15:34:26Z</time></trkpt><trkpt lat="36.72298177743989" lon="14.838616039634188"><ele>13.0</ele><time>2026-04-11T15:34:28Z</time></trkpt><trkpt lat="36.72292537751092" lon="14.838532566930962"><ele>12.999999999999998</ele><time>2026-04-11T15:34:30Z</time></trkpt><trkpt lat="36.722876192139" lon="14.838437297386175"><ele>13.0</ele><time>2026-04-11T15:34:33Z</time></trkpt><trkpt lat="36.72290304461473" lon="14.83851304027217"><ele>13.0</ele><time>2026-04-11T15:35:02.999Z</time></trkpt><trkpt lat="36.7229539082308" lon="14.838583272756196"><ele>13.0</ele><time>2026-04-11T15:35:04.999Z</time></trkpt><trkpt lat="36.72300300376852" lon="14.838663766038653"><ele>12.999999999999998</ele><time>2026-04-11T15:35:06.999Z</time></trkpt><trkpt lat="36.72306063763788" lon="14.838758257751829"><ele>13.0</ele><time>2026-04-11T15:35:08.999Z</time></trkpt><trkpt lat="36.72320262223275" lon="14.838703938753818"><ele>12.999999999999998</ele><time>2026-04-11T15:35:11.999Z</time></trkpt><trkpt lat="36.72325402254381" lon="14.838639905462506"><ele>13.0</ele><time>2026-04-11T15:35:12.999Z</time></trkpt><trkpt lat="36.723308386209204" lon="14.838581266194534"><ele>13.0</ele><time>2026-04-11T15:35:13.999Z</time></trkpt><trkpt lat="36.723397767289306" lon="14.838502100116251"><ele>13.0</ele><time>2026-04-11T15:35:14.999Z</time></trkpt><trkpt lat="36.7234841155065" lon="14.83844000816361"><ele>12.999999999999998</ele><time>2026-04-11T15:35:15.999Z</time></trkpt><trkpt lat="36.72355766191299" lon="14.838377217393244"><ele>13.0</ele><time>2026-04-11T15:35:16.999Z</time></trkpt><trkpt lat="36.72362660074756" lon="14.838305433793403"><ele>12.333333333333332</ele><time>2026-04-11T15:35:17.999Z</time></trkpt><trkpt lat="36.7236896651131" lon="14.838249026408803"><ele>11.666666666666666</ele><time>2026-04-11T15:35:18.999Z</time></trkpt><trkpt lat="36.723762286396735" lon="14.838205909092212"><ele>11.0</ele><time>2026-04-11T15:35:19.999Z</time></trkpt><trkpt lat="36.72380692391115" lon="14.838143545030468"><ele>10.333333333333332</ele><time>2026-04-11T15:35:20.999Z</time></trkpt><trkpt lat="36.723889418422374" lon="14.838119648201177"><ele>9.666666666666666</ele><time>2026-04-11T15:35:22.999Z</time></trkpt><trkpt lat="36.72395459961868" lon="14.838231058718575"><ele>9.0</ele><time>2026-04-11T15:35:24.999Z</time></trkpt><trkpt lat="36.72399439502124" lon="14.838313655718316"><ele>9.0</ele><time>2026-04-11T15:35:25.999Z</time></trkpt><trkpt lat="36.724039280573045" lon="14.838399810175291"><ele>9.0</ele><time>2026-04-11T15:35:26.999Z</time></trkpt><trkpt lat="36.72410075994661" lon="14.838499404038028"><ele>9.0</ele><time>2026-04-11T15:35:28.999Z</time></trkpt><trkpt lat="36.72419776794459" lon="14.83844452863575"><ele>9.0</ele><time>2026-04-11T15:35:31.999Z</time></trkpt><trkpt lat="36.724255379947365" lon="14.83839000650706"><ele>9.0</ele><time>2026-04-11T15:35:32.999Z</time></trkpt><trkpt lat="36.72432127542478" lon="14.838332831814073"><ele>9.0</ele><time>2026-04-11T15:35:33.999Z</time></trkpt><trkpt lat="36.72438319210112" lon="14.838281342152628"><ele>8.8</ele><time>2026-04-11T15:35:34.999Z</time></trkpt><trkpt lat="36.72446790106915" lon="14.838227242713826"><ele>8.600000000000001</ele><time>2026-04-11T15:35:36.999Z</time></trkpt><trkpt lat="36.724515774712806" lon="14.838334729292683"><ele>8.4</ele><time>2026-04-11T15:35:40.999Z</time></trkpt><trkpt lat="36.724585963796166" lon="14.838425916733922"><ele>8.200000000000001</ele><time>2026-04-11T15:35:42.999Z</time></trkpt><trkpt lat="36.72465419377434" lon="14.838541034906829"><ele>8.0</ele><time>2026-04-11T15:35:45Z</time></trkpt><trkpt lat="36.72468569739301" lon="14.83862342703114"><ele>8.0</ele><time>2026-04-11T15:35:48Z</time></trkpt><trkpt lat="36.724835266566735" lon="14.838472379091627"><ele>8.0</ele><time>2026-04-11T15:35:50Z</time></trkpt><trkpt lat="36.724927353891566" lon="14.83835592695971"><ele>8.0</ele><time>2026-04-11T15:35:52Z</time></trkpt><trkpt lat="36.72497820098217" lon="14.83825715906679"><ele>8.0</ele><time>2026-04-11T15:35:54Z</time></trkpt><trkpt lat="36.725005156912594" lon="14.838176257164871"><ele>8.0</ele><time>2026-04-11T15:35:56Z</time></trkpt><trkpt lat="36.72487193947295" lon="14.838038166305001"><ele>8.0</ele><time>2026-04-11T15:35:57Z</time></trkpt><trkpt lat="36.72481097114728" lon="14.837951286454954"><ele>8.0</ele><time>2026-04-11T15:35:59Z</time></trkpt><trkpt lat="36.724746692208946" lon="14.837846534797452"><ele>8.0</ele><time>2026-04-11T15:36:01Z</time></trkpt><trkpt lat="36.7246629309456" lon="14.837719020324194"><ele>7.999999999999999</ele><time>2026-04-11T15:36:03Z</time></trkpt><trkpt lat="36.72461867950863" lon="14.83765259878337"><ele>8.0</ele><time>2026-04-11T15:36:04Z</time></trkpt><trkpt lat="36.72457234619829" lon="14.837579434194437"><ele>8.0</ele><time>2026-04-11T15:36:05Z</time></trkpt><trkpt lat="36.72452100273519" lon="14.837504927393942"><ele>8.0</ele><time>2026-04-11T15:36:06Z</time></trkpt><trkpt lat="36.72446501888853" lon="14.837424268965469"><ele>7.999999999999999</ele><time>2026-04-11T15:36:07Z</time></trkpt><trkpt lat="36.72440832741105" lon="14.837336887449426"><ele>8.0</ele><time>2026-04-11T15:36:08Z</time></trkpt><trkpt lat="36.72434832780003" lon="14.83724726784438"><ele>7.800000000000001</ele><time>2026-04-11T15:36:09Z</time></trkpt><trkpt lat="36.724285882117584" lon="14.837156926941589"><ele>7.6000000000000005</ele><time>2026-04-11T15:36:10Z</time></trkpt><trkpt lat="36.72422255799798" lon="14.837067620223246"><ele>7.3999999999999995</ele><time>2026-04-11T15:36:11Z</time></trkpt><trkpt lat="36.72415890677462" lon="14.83697674057954"><ele>7.199999999999999</ele><time>2026-04-11T15:36:12Z</time></trkpt><trkpt lat="36.72409460058834" lon="14.836886079523728"><ele>7.0</ele><time>2026-04-11T15:36:13Z</time></trkpt><trkpt lat="36.72403069015227" lon="14.836793780293965"><ele>7.6</ele><time>2026-04-11T15:36:14Z</time></trkpt><trkpt lat="36.723970127557905" lon="14.836703207823534"><ele>8.2</ele><time>2026-04-11T15:36:15Z</time></trkpt><trkpt lat="36.72390365818285" lon="14.836616474456818"><ele>8.8</ele><time>2026-04-11T15:36:16Z</time></trkpt><trkpt lat="36.72383943040555" lon="14.836530671902455"><ele>9.4</ele><time>2026-04-11T15:36:17Z</time></trkpt><trkpt lat="36.72377135300085" lon="14.836440680371195"><ele>10.0</ele><time>2026-04-11T15:36:18Z</time></trkpt><trkpt lat="36.723699191895626" lon="14.836349386693959"><ele>10.0</ele><time>2026-04-11T15:36:19Z</time></trkpt><trkpt lat="36.72362423981413" lon="14.83625923984109"><ele>10.0</ele><time>2026-04-11T15:36:20Z</time></trkpt><trkpt lat="36.72354967938256" lon="14.836168852523777"><ele>10.0</ele><time>2026-04-11T15:36:21Z</time></trkpt><trkpt lat="36.723476213636914" lon="14.836081179362063"><ele>10.0</ele><time>2026-04-11T15:36:22Z</time></trkpt><trkpt lat="36.72340270894978" lon="14.835996664063918"><ele>10.0</ele><time>2026-04-11T15:36:23Z</time></trkpt><trkpt lat="36.72332803412315" lon="14.835916739091218"><ele>9.6</ele><time>2026-04-11T15:36:24Z</time></trkpt><trkpt lat="36.72325445608607" lon="14.835835404743909"><ele>9.2</ele><time>2026-04-11T15:36:25Z</time></trkpt><trkpt lat="36.72318364986086" lon="14.835753114898893"><ele>8.8</ele><time>2026-04-11T15:36:26Z</time></trkpt><trkpt lat="36.72311291440214" lon="14.835665349549549"><ele>8.4</ele><time>2026-04-11T15:36:27Z</time></trkpt><trkpt lat="36.7230450805359" lon="14.835573556209681"><ele>8.0</ele><time>2026-04-11T15:36:28Z</time></trkpt><trkpt lat="36.72298410895585" lon="14.835483978716427"><ele>8.0</ele><time>2026-04-11T15:36:29Z</time></trkpt><trkpt lat="36.72292979026446" lon="14.83539412348202"><ele>8.0</ele><time>2026-04-11T15:36:30Z</time></trkpt><trkpt lat="36.722872487017874" lon="14.835299240490487"><ele>8.0</ele><time>2026-04-11T15:36:31Z</time></trkpt><trkpt lat="36.722810277048026" lon="14.835203127567482"><ele>8.0</ele><time>2026-04-11T15:36:32Z</time></trkpt><trkpt lat="36.72274155033539" lon="14.835099580116218"><ele>8.0</ele><time>2026-04-11T15:36:33Z</time></trkpt><trkpt lat="36.72266961744378" lon="14.83498970415055"><ele>7.833333333333333</ele><time>2026-04-11T15:36:34Z</time></trkpt><trkpt lat="36.7226124384987" lon="14.834895700679967"><ele>7.666666666666666</ele><time>2026-04-11T15:36:35Z</time></trkpt><trkpt lat="36.722560713020634" lon="14.834819854729266"><ele>7.5</ele><time>2026-04-11T15:36:36Z</time></trkpt><trkpt lat="36.722517039061536" lon="14.83474804972481"><ele>7.333333333333334</ele><time>2026-04-11T15:36:37Z</time></trkpt><trkpt lat="36.72247561399529" lon="14.834684635056812"><ele>7.166666666666667</ele><time>2026-04-11T15:36:38Z</time></trkpt><trkpt lat="36.7224067978914" lon="14.83457236770842"><ele>7.0</ele><time>2026-04-11T15:36:40Z</time></trkpt><trkpt lat="36.72235029694882" lon="14.834472883897588"><ele>7.0</ele><time>2026-04-11T15:36:42Z</time></trkpt><trkpt lat="36.72227787840229" lon="14.834363042536538"><ele>6.999999999999999</ele><time>2026-04-11T15:36:43.999Z</time></trkpt><trkpt lat="36.722231089595304" lon="14.83429232528025"><ele>6.999999999999999</ele><time>2026-04-11T15:36:44.999Z</time></trkpt><trkpt lat="36.72217680262458" lon="14.834213495107928"><ele>7.0</ele><time>2026-04-11T15:36:45.999Z</time></trkpt><trkpt lat="36.72210190940994" lon="14.83411654093078"><ele>7.0</ele><time>2026-04-11T15:36:46.999Z</time></trkpt><trkpt lat="36.72202717940513" lon="14.834021924021046"><ele>7.3999999999999995</ele><time>2026-04-11T15:36:47.999Z</time></trkpt><trkpt lat="36.72196150495204" lon="14.833934798169782"><ele>7.799999999999999</ele><time>2026-04-11T15:36:48.999Z</time></trkpt><trkpt lat="36.72189089165872" lon="14.833849716548952"><ele>8.2</ele><time>2026-04-11T15:36:49.999Z</time></trkpt><trkpt lat="36.7218165977799" lon="14.83376454294087"><ele>8.6</ele><time>2026-04-11T15:36:50.999Z</time></trkpt><trkpt lat="36.72173745074916" lon="14.833683040812074"><ele>9.0</ele><time>2026-04-11T15:36:51.999Z</time></trkpt><trkpt lat="36.721652491420635" lon="14.833607820795553"><ele>9.0</ele><time>2026-04-11T15:36:52.999Z</time></trkpt><trkpt lat="36.72156834296183" lon="14.833535980320839"><ele>9.0</ele><time>2026-04-11T15:36:53.999Z</time></trkpt><trkpt lat="36.72148792194688" lon="14.833467321734581"><ele>9.0</ele><time>2026-04-11T15:36:54.999Z</time></trkpt><trkpt lat="36.72140940095014" lon="14.833402829137974"><ele>9.0</ele><time>2026-04-11T15:36:55.999Z</time></trkpt><trkpt lat="36.721326829855784" lon="14.833344584219395"><ele>9.0</ele><time>2026-04-11T15:36:56.999Z</time></trkpt><trkpt lat="36.72123875917621" lon="14.833288843284551"><ele>9.4</ele><time>2026-04-11T15:36:57.999Z</time></trkpt><trkpt lat="36.72115179903411" lon="14.833224651456808"><ele>9.8</ele><time>2026-04-11T15:36:58.999Z</time></trkpt><trkpt lat="36.72106409818644" lon="14.833159601000903"><ele>10.200000000000001</ele><time>2026-04-11T15:36:59.999Z</time></trkpt><trkpt lat="36.720972230361525" lon="14.833093468335681"><ele>10.600000000000001</ele><time>2026-04-11T15:37:00.999Z</time></trkpt><trkpt lat="36.72088085245007" lon="14.833023618227944"><ele>11.0</ele><time>2026-04-11T15:37:01.999Z</time></trkpt><trkpt lat="36.72078695356802" lon="14.832954125530925"><ele>10.8</ele><time>2026-04-11T15:37:02.999Z</time></trkpt><trkpt lat="36.720693193765634" lon="14.832886836322484"><ele>10.600000000000001</ele><time>2026-04-11T15:37:03.999Z</time></trkpt><trkpt lat="36.72060442843084" lon="14.83281765758936"><ele>10.4</ele><time>2026-04-11T15:37:04.999Z</time></trkpt><trkpt lat="36.72051949286658" lon="14.832748319013643"><ele>10.2</ele><time>2026-04-11T15:37:05.999Z</time></trkpt><trkpt lat="36.72043324499762" lon="14.832676272191986"><ele>10.0</ele><time>2026-04-11T15:37:06.999Z</time></trkpt><trkpt lat="36.720346994706325" lon="14.832597254796092"><ele>10.0</ele><time>2026-04-11T15:37:07.999Z</time></trkpt><trkpt lat="36.720265788000546" lon="14.832508417282467"><ele>10.0</ele><time>2026-04-11T15:37:08.999Z</time></trkpt><trkpt lat="36.72017836373704" lon="14.832396116168425"><ele>10.0</ele><time>2026-04-11T15:37:09.999Z</time></trkpt><trkpt lat="36.72008486025953" lon="14.83226958367641"><ele>10.0</ele><time>2026-04-11T15:37:10.999Z</time></trkpt><trkpt lat="36.719989869929314" lon="14.832140661899832"><ele>9.333333333333334</ele><time>2026-04-11T15:37:11.999Z</time></trkpt><trkpt lat="36.71989294318944" lon="14.832005886136546"><ele>8.666666666666666</ele><time>2026-04-11T15:37:12.999Z</time></trkpt><trkpt lat="36.71979501917288" lon="14.831869917766141"><ele>8.0</ele><time>2026-04-11T15:37:13.999Z</time></trkpt><trkpt lat="36.719673342765965" lon="14.831703593545665"><ele>8.0</ele><time>2026-04-11T15:37:14.999Z</time></trkpt><trkpt lat="36.71953457647236" lon="14.831520456522597"><ele>8.0</ele><time>2026-04-11T15:37:15.999Z</time></trkpt><trkpt lat="36.7193919329238" lon="14.831330674579476"><ele>8.0</ele><time>2026-04-11T15:37:16.999Z</time></trkpt><trkpt lat="36.71925123368057" lon="14.831137498746086"><ele>7.333333333333333</ele><time>2026-04-11T15:37:17.999Z</time></trkpt><trkpt lat="36.71911001581074" lon="14.830941523099701"><ele>6.666666666666666</ele><time>2026-04-11T15:37:18.999Z</time></trkpt><trkpt lat="36.718980030136514" lon="14.830756594890648"><ele>6.0</ele><time>2026-04-11T15:37:19.999Z</time></trkpt><trkpt lat="36.71886689679588" lon="14.830592527622544"><ele>6.0</ele><time>2026-04-11T15:37:20.999Z</time></trkpt><trkpt lat="36.71877204918074" lon="14.830448887471123"><ele>6.0</ele><time>2026-04-11T15:37:21.999Z</time></trkpt><trkpt lat="36.7186828082705" lon="14.830309242321812"><ele>6.0</ele><time>2026-04-11T15:37:22.999Z</time></trkpt><trkpt lat="36.71859632705893" lon="14.830161685929351"><ele>6.0</ele><time>2026-04-11T15:37:23.999Z</time></trkpt><trkpt lat="36.71851524123211" lon="14.83001632370886"><ele>5.5</ele><time>2026-04-11T15:37:24.999Z</time></trkpt><trkpt lat="36.71843554543491" lon="14.829877383912104"><ele>5.0</ele><time>2026-04-11T15:37:25.999Z</time></trkpt><trkpt lat="36.718347496302094" lon="14.829733622904739"><ele>4.5</ele><time>2026-04-11T15:37:26.999Z</time></trkpt><trkpt lat="36.7182516283614" lon="14.82957254463619"><ele>4.0</ele><time>2026-04-11T15:37:27.999Z</time></trkpt><trkpt lat="36.7181620995352" lon="14.82941289268494"><ele>5.5</ele><time>2026-04-11T15:37:28.999Z</time></trkpt><trkpt lat="36.71808036798723" lon="14.82926008743238"><ele>7.0</ele><time>2026-04-11T15:37:29.999Z</time></trkpt><trkpt lat="36.71800048332171" lon="14.829115884113891"><ele>8.5</ele><time>2026-04-11T15:37:30.999Z</time></trkpt><trkpt lat="36.71792049760474" lon="14.828977191776522"><ele>10.0</ele><time>2026-04-11T15:37:31.999Z</time></trkpt><trkpt lat="36.71784137896576" lon="14.828835119781901"><ele>10.0</ele><time>2026-04-11T15:37:32.999Z</time></trkpt><trkpt lat="36.717761224468155" lon="14.828695167371082"><ele>10.0</ele><time>2026-04-11T15:37:33.999Z</time></trkpt><trkpt lat="36.717682314345105" lon="14.828552064401839"><ele>10.0</ele><time>2026-04-11T15:37:34.999Z</time></trkpt><trkpt lat="36.717604304624395" lon="14.828413313863958"><ele>10.0</ele><time>2026-04-11T15:37:35.999Z</time></trkpt><trkpt lat="36.71753090514849" lon="14.828279606357752"><ele>9.0</ele><time>2026-04-11T15:37:36.999Z</time></trkpt><trkpt lat="36.71746107466598" lon="14.828153878768557"><ele>8.0</ele><time>2026-04-11T15:37:37.999Z</time></trkpt><trkpt lat="36.71739453233909" lon="14.828038051534657"><ele>7.0</ele><time>2026-04-11T15:37:38.999Z</time></trkpt><trkpt lat="36.717330256464855" lon="14.827925627979461"><ele>6.0</ele><time>2026-04-11T15:37:39.999Z</time></trkpt><trkpt lat="36.71726948961676" lon="14.827818134595624"><ele>6.0</ele><time>2026-04-11T15:37:40.999Z</time></trkpt><trkpt lat="36.71720846702956" lon="14.827712614833514"><ele>6.0</ele><time>2026-04-11T15:37:41.999Z</time></trkpt><trkpt lat="36.71714648400268" lon="14.827607733957722"><ele>6.0</ele><time>2026-04-11T15:37:42.999Z</time></trkpt><trkpt lat="36.717072865481995" lon="14.827486178577164"><ele>6.0</ele><time>2026-04-11T15:37:43.999Z</time></trkpt><trkpt lat="36.716987641719776" lon="14.82733580526841"><ele>5.333333333333333</ele><time>2026-04-11T15:37:44.999Z</time></trkpt><trkpt lat="36.71689540717633" lon="14.82716860049195"><ele>4.666666666666666</ele><time>2026-04-11T15:37:45.999Z</time></trkpt><trkpt lat="36.71679891715536" lon="14.826997644567852"><ele>4.0</ele><time>2026-04-11T15:37:46.999Z</time></trkpt><trkpt lat="36.71670492589157" lon="14.826832096673293"><ele>4.0</ele><time>2026-04-11T15:37:47.999Z</time></trkpt><trkpt lat="36.71660280894169" lon="14.826659655915272"><ele>4.0</ele><time>2026-04-11T15:37:48.999Z</time></trkpt><trkpt lat="36.716495818497485" lon="14.826471394269811"><ele>4.0</ele><time>2026-04-11T15:37:49.999Z</time></trkpt><trkpt lat="36.716400912494144" lon="14.82627816938911"><ele>4.0</ele><time>2026-04-11T15:37:51Z</time></trkpt><trkpt lat="36.716338542188375" lon="14.826070758014763"><ele>4.0</ele><time>2026-04-11T15:37:52Z</time></trkpt><trkpt lat="36.71630065498583" lon="14.825882634442474"><ele>4.0</ele><time>2026-04-11T15:37:53Z</time></trkpt><trkpt lat="36.71627148677301" lon="14.825716890321743"><ele>4.75</ele><time>2026-04-11T15:37:54Z</time></trkpt><trkpt lat="36.71622194459464" lon="14.825569375878633"><ele>5.5</ele><time>2026-04-11T15:37:55Z</time></trkpt><trkpt lat="36.71626057691452" lon="14.825401377044063"><ele>6.25</ele><time>2026-04-11T15:37:56Z</time></trkpt><trkpt lat="36.716284548942916" lon="14.825252621952766"><ele>7.0</ele><time>2026-04-11T15:37:57Z</time></trkpt><trkpt lat="36.71632808100079" lon="14.825115941017986"><ele>7.0</ele><time>2026-04-11T15:37:58Z</time></trkpt><trkpt lat="36.71638102389837" lon="14.825009127313027"><ele>6.999999999999999</ele><time>2026-04-11T15:37:59Z</time></trkpt><trkpt lat="36.71643989632292" lon="14.824921070403413"><ele>6.999999999999999</ele><time>2026-04-11T15:38:00Z</time></trkpt><trkpt lat="36.716506663731806" lon="14.82484924945039"><ele>7.0</ele><time>2026-04-11T15:38:01Z</time></trkpt><trkpt lat="36.71656618417062" lon="14.824766056363366"><ele>7.0</ele><time>2026-04-11T15:38:02Z</time></trkpt><trkpt lat="36.71662879246811" lon="14.824684956722308"><ele>7.0</ele><time>2026-04-11T15:38:03Z</time></trkpt><trkpt lat="36.71676819120413" lon="14.824683939971614"><ele>7.0</ele><time>2026-04-11T15:38:04Z</time></trkpt><trkpt lat="36.7168840775812" lon="14.824651027175864"><ele>7.0</ele><time>2026-04-11T15:38:05Z</time></trkpt><trkpt lat="36.71698645567635" lon="14.824619204084872"><ele>7.0</ele><time>2026-04-11T15:38:06Z</time></trkpt><trkpt lat="36.71708370001028" lon="14.824583161776493"><ele>7.833333333333334</ele><time>2026-04-11T15:38:07Z</time></trkpt><trkpt lat="36.71717173661216" lon="14.824563535064277"><ele>8.666666666666668</ele><time>2026-04-11T15:38:08Z</time></trkpt><trkpt lat="36.7172518046943" lon="14.824548221728595"><ele>9.5</ele><time>2026-04-11T15:38:09Z</time></trkpt><trkpt lat="36.71733335790926" lon="14.824536296735813"><ele>10.333333333333334</ele><time>2026-04-11T15:38:10Z</time></trkpt><trkpt lat="36.717416561116664" lon="14.82452634435422"><ele>11.166666666666666</ele><time>2026-04-11T15:38:11Z</time></trkpt><trkpt lat="36.71749375741543" lon="14.824524001979661"><ele>12.0</ele><time>2026-04-11T15:38:12Z</time></trkpt><trkpt lat="36.717605516505465" lon="14.824539215447352"><ele>12.0</ele><time>2026-04-11T15:38:14Z</time></trkpt><trkpt lat="36.717670145916095" lon="14.824538688745042"><ele>12.0</ele><time>2026-04-11T15:38:16Z</time></trkpt><trkpt lat="36.71776204763291" lon="14.824492182318657"><ele>12.0</ele><time>2026-04-11T15:40:01Z</time></trkpt><trkpt lat="36.717847686168696" lon="14.824453299621982"><ele>12.0</ele><time>2026-04-11T15:40:03Z</time></trkpt><trkpt lat="36.71796390432004" lon="14.824438597549873"><ele>12.0</ele><time>2026-04-11T15:40:05Z</time></trkpt><trkpt lat="36.718030333574504" lon="14.824432990407683"><ele>12.0</ele><time>2026-04-11T15:40:06Z</time></trkpt><trkpt lat="36.71810111288239" lon="14.824426413724128"><ele>12.6</ele><time>2026-04-11T15:40:07Z</time></trkpt><trkpt lat="36.71817644497012" lon="14.824419686712211"><ele>13.2</ele><time>2026-04-11T15:40:08Z</time></trkpt><trkpt lat="36.71826129746163" lon="14.824409858451054"><ele>13.8</ele><time>2026-04-11T15:40:09Z</time></trkpt><trkpt lat="36.71835656788389" lon="14.824399664409457"><ele>14.4</ele><time>2026-04-11T15:40:10Z</time></trkpt><trkpt lat="36.718495329487666" lon="14.824393272729388"><ele>15.0</ele><time>2026-04-11T15:40:11Z</time></trkpt><trkpt lat="36.71866723083402" lon="14.824386506278225"><ele>15.666666666666668</ele><time>2026-04-11T15:40:12Z</time></trkpt><trkpt lat="36.718867919396104" lon="14.824374956982826"><ele>16.333333333333336</ele><time>2026-04-11T15:40:13Z</time></trkpt><trkpt lat="36.71907708811989" lon="14.824354785090666"><ele>17.0</ele><time>2026-04-11T15:40:14Z</time></trkpt><trkpt lat="36.71931246648349" lon="14.824320694853633"><ele>16.333333333333336</ele><time>2026-04-11T15:40:15Z</time></trkpt><trkpt lat="36.719528854795406" lon="14.824298922325116"><ele>15.666666666666668</ele><time>2026-04-11T15:40:16Z</time></trkpt><trkpt lat="36.71972597492788" lon="14.824283769090009"><ele>15.0</ele><time>2026-04-11T15:40:17Z</time></trkpt><trkpt lat="36.719905255338304" lon="14.824270394553809"><ele>15.0</ele><time>2026-04-11T15:40:18Z</time></trkpt><trkpt lat="36.720054817546455" lon="14.82425426077184"><ele>15.0</ele><time>2026-04-11T15:40:19Z</time></trkpt><trkpt lat="36.72018902384216" lon="14.824238860908116"><ele>15.0</ele><time>2026-04-11T15:40:20Z</time></trkpt><trkpt lat="36.720316610627414" lon="14.824262034339286"><ele>15.0</ele><time>2026-04-11T15:40:21Z</time></trkpt><trkpt lat="36.72043782165932" lon="14.824290932918654"><ele>16.25</ele><time>2026-04-11T15:40:22Z</time></trkpt><trkpt lat="36.720547089358156" lon="14.824355600205747"><ele>17.5</ele><time>2026-04-11T15:40:23Z</time></trkpt><trkpt lat="36.72063716086298" lon="14.824452536952492"><ele>18.75</ele><time>2026-04-11T15:40:24Z</time></trkpt><trkpt lat="36.720699215831246" lon="14.82457509301501"><ele>20.0</ele><time>2026-04-11T15:40:25Z</time></trkpt><trkpt lat="36.720742794945245" lon="14.824712012346996"><ele>20.0</ele><time>2026-04-11T15:40:26Z</time></trkpt><trkpt lat="36.72074074491687" lon="14.82485323833797"><ele>20.0</ele><time>2026-04-11T15:40:27Z</time></trkpt><trkpt lat="36.72071652944851" lon="14.824987043742894"><ele>20.0</ele><time>2026-04-11T15:40:28Z</time></trkpt><trkpt lat="36.72064859971214" lon="14.825116975008653"><ele>20.0</ele><time>2026-04-11T15:40:29Z</time></trkpt><trkpt lat="36.7205489069639" lon="14.825222682086675"><ele>20.5</ele><time>2026-04-11T15:40:30Z</time></trkpt><trkpt lat="36.72044009762821" lon="14.825279303914764"><ele>21.0</ele><time>2026-04-11T15:40:31Z</time></trkpt><trkpt lat="36.7203230785864" lon="14.825291211272994"><ele>21.5</ele><time>2026-04-11T15:40:32Z</time></trkpt><trkpt lat="36.72019564020319" lon="14.825267053507185"><ele>22.0</ele><time>2026-04-11T15:40:33Z</time></trkpt><trkpt lat="36.72008353620553" lon="14.82520586910162"><ele>21.0</ele><time>2026-04-11T15:40:34Z</time></trkpt><trkpt lat="36.719989501457846" lon="14.825093997770031"><ele>20.0</ele><time>2026-04-11T15:40:35Z</time></trkpt><trkpt lat="36.71991810118765" lon="14.824940692967408"><ele>19.0</ele><time>2026-04-11T15:40:36Z</time></trkpt><trkpt lat="36.719877995635684" lon="14.824755125959104"><ele>18.0</ele><time>2026-04-11T15:40:37Z</time></trkpt><trkpt lat="36.719819969930384" lon="14.824539657349863"><ele>17.0</ele><time>2026-04-11T15:40:38Z</time></trkpt><trkpt lat="36.719808564653036" lon="14.824298908871171"><ele>16.0</ele><time>2026-04-11T15:40:39Z</time></trkpt><trkpt lat="36.71979612898159" lon="14.824055954956425"><ele>15.0</ele><time>2026-04-11T15:40:40Z</time></trkpt><trkpt lat="36.71977773355949" lon="14.823795654114626"><ele>15.0</ele><time>2026-04-11T15:40:41Z</time></trkpt><trkpt lat="36.71976994120365" lon="14.823551528890532"><ele>15.0</ele><time>2026-04-11T15:40:42Z</time></trkpt><trkpt lat="36.71975433423611" lon="14.823311098780364"><ele>15.0</ele><time>2026-04-11T15:40:43Z</time></trkpt><trkpt lat="36.71973881067902" lon="14.823070368038914"><ele>13.333333333333334</ele><time>2026-04-11T15:40:44Z</time></trkpt><trkpt lat="36.719731709363124" lon="14.822833549993096"><ele>11.666666666666668</ele><time>2026-04-11T15:40:45Z</time></trkpt><trkpt lat="36.719721272976706" lon="14.822598180342736"><ele>10.0</ele><time>2026-04-11T15:40:46Z</time></trkpt><trkpt lat="36.719710577189964" lon="14.822365000518516"><ele>8.333333333333334</ele><time>2026-04-11T15:40:47Z</time></trkpt><trkpt lat="36.719699538808825" lon="14.822133733910444"><ele>6.666666666666667</ele><time>2026-04-11T15:40:48Z</time></trkpt><trkpt lat="36.71968847079966" lon="14.82190335938887"><ele>5.0</ele><time>2026-04-11T15:40:49Z</time></trkpt><trkpt lat="36.71967877864915" lon="14.82167579211683"><ele>4.333333333333334</ele><time>2026-04-11T15:40:50Z</time></trkpt><trkpt lat="36.71966569558822" lon="14.821440699505407"><ele>3.666666666666667</ele><time>2026-04-11T15:40:51Z</time></trkpt><trkpt lat="36.71965405459547" lon="14.821203520947035"><ele>3.0</ele><time>2026-04-11T15:40:51.999Z</time></trkpt><trkpt lat="36.7196419879401" lon="14.820957650724242"><ele>2.6666666666666665</ele><time>2026-04-11T15:40:52.999Z</time></trkpt><trkpt lat="36.7196289738708" lon="14.82070689390452"><ele>2.333333333333333</ele><time>2026-04-11T15:40:53.999Z</time></trkpt><trkpt lat="36.71961667708226" lon="14.820450441611543"><ele>2.0</ele><time>2026-04-11T15:40:54.999Z</time></trkpt><trkpt lat="36.71960499877299" lon="14.820193779251742"><ele>2.333333333333333</ele><time>2026-04-11T15:40:55.999Z</time></trkpt><trkpt lat="36.71959656012111" lon="14.819939904467628"><ele>2.6666666666666665</ele><time>2026-04-11T15:40:56.999Z</time></trkpt><trkpt lat="36.719586029508804" lon="14.819686090702133"><ele>3.0</ele><time>2026-04-11T15:40:57.999Z</time></trkpt><trkpt lat="36.71957396477887" lon="14.8194308367109"><ele>4.333333333333334</ele><time>2026-04-11T15:40:58.999Z</time></trkpt><trkpt lat="36.719561050795946" lon="14.81917760930615"><ele>5.666666666666667</ele><time>2026-04-11T15:40:59.999Z</time></trkpt><trkpt lat="36.7195477628131" lon="14.818925254372184"><ele>7.0</ele><time>2026-04-11T15:41:00.999Z</time></trkpt><trkpt lat="36.71953453027479" lon="14.818677717313848"><ele>8.333333333333334</ele><time>2026-04-11T15:41:01.999Z</time></trkpt><trkpt lat="36.71952315198099" lon="14.81843571091277"><ele>9.666666666666666</ele><time>2026-04-11T15:41:02.999Z</time></trkpt><trkpt lat="36.71951573269269" lon="14.818205293173632"><ele>11.0</ele><time>2026-04-11T15:41:03.999Z</time></trkpt><trkpt lat="36.71951111163613" lon="14.817989236920539"><ele>11.0</ele><time>2026-04-11T15:41:04.999Z</time></trkpt><trkpt lat="36.719508767854826" lon="14.817783836016202"><ele>11.0</ele><time>2026-04-11T15:41:05.999Z</time></trkpt><trkpt lat="36.719503304663924" lon="14.817591432464775"><ele>11.0</ele><time>2026-04-11T15:41:06.999Z</time></trkpt><trkpt lat="36.7194851785692" lon="14.817408285030522"><ele>11.25</ele><time>2026-04-11T15:41:07.999Z</time></trkpt><trkpt lat="36.71947591916644" lon="14.817237003965733"><ele>11.5</ele><time>2026-04-11T15:41:08.999Z</time></trkpt><trkpt lat="36.719468425421006" lon="14.817075873928"><ele>11.75</ele><time>2026-04-11T15:41:09.999Z</time></trkpt><trkpt lat="36.71946090506552" lon="14.816921440407018"><ele>12.0</ele><time>2026-04-11T15:41:10.999Z</time></trkpt><trkpt lat="36.71951232705769" lon="14.816774712865401"><ele>11.6</ele><time>2026-04-11T15:41:11.999Z</time></trkpt><trkpt lat="36.71951530851072" lon="14.816636867671717"><ele>11.2</ele><time>2026-04-11T15:41:12.999Z</time></trkpt><trkpt lat="36.71952219594417" lon="14.816511688542612"><ele>10.8</ele><time>2026-04-11T15:41:13.999Z</time></trkpt><trkpt lat="36.71954583074515" lon="14.81639669647884"><ele>10.4</ele><time>2026-04-11T15:41:14.999Z</time></trkpt><trkpt lat="36.71957386909899" lon="14.816294137414303"><ele>10.0</ele><time>2026-04-11T15:41:15.999Z</time></trkpt><trkpt lat="36.71961071799879" lon="14.816199564268878"><ele>10.0</ele><time>2026-04-11T15:41:16.999Z</time></trkpt><trkpt lat="36.71965567462937" lon="14.816116519238257"><ele>10.0</ele><time>2026-04-11T15:41:17.999Z</time></trkpt><trkpt lat="36.7196813329693" lon="14.816032025807013"><ele>10.0</ele><time>2026-04-11T15:41:18.999Z</time></trkpt><trkpt lat="36.71971608458546" lon="14.815965549581103"><ele>10.0</ele><time>2026-04-11T15:41:19.999Z</time></trkpt><trkpt lat="36.719789705958085" lon="14.815867728487568"><ele>10.0</ele><time>2026-04-11T15:41:21.999Z</time></trkpt><trkpt lat="36.71984019369613" lon="14.815770282234116"><ele>10.0</ele><time>2026-04-11T15:41:23.999Z</time></trkpt><trkpt lat="36.71987769303958" lon="14.81566608439247"><ele>9.666666666666668</ele><time>2026-04-11T15:41:25.999Z</time></trkpt><trkpt lat="36.719872014138474" lon="14.815556265660923"><ele>9.333333333333334</ele><time>2026-04-11T15:41:27.999Z</time></trkpt><trkpt lat="36.71983391938746" lon="14.815482984576285"><ele>9.0</ele><time>2026-04-11T15:41:29.999Z</time></trkpt><trkpt lat="36.719776398362114" lon="14.815438824803042"><ele>8.666666666666666</ele><time>2026-04-11T15:41:31.999Z</time></trkpt><trkpt lat="36.71970235901968" lon="14.815413621358003"><ele>8.333333333333332</ele><time>2026-04-11T15:41:33.999Z</time></trkpt><trkpt lat="36.71960443455874" lon="14.815408845170415"><ele>8.0</ele><time>2026-04-11T15:41:35.999Z</time></trkpt><trkpt lat="36.719508519652585" lon="14.815428179297712"><ele>7.499999999999999</ele><time>2026-04-11T15:41:37.999Z</time></trkpt><trkpt lat="36.71939546444355" lon="14.815436483403678"><ele>7.0</ele><time>2026-04-11T15:41:39.999Z</time></trkpt><trkpt lat="36.71932786725443" lon="14.815439849604337"><ele>6.5</ele><time>2026-04-11T15:41:40.999Z</time></trkpt><trkpt lat="36.71925470132375" lon="14.815445782704106"><ele>6.0</ele><time>2026-04-11T15:41:41.999Z</time></trkpt><trkpt lat="36.71917902550783" lon="14.815451612716318"><ele>5.5</ele><time>2026-04-11T15:41:42.999Z</time></trkpt><trkpt lat="36.71910785622115" lon="14.815461198272656"><ele>5.0</ele><time>2026-04-11T15:41:43.999Z</time></trkpt><trkpt lat="36.71904291629958" lon="14.8154635801639"><ele>5.0</ele><time>2026-04-11T15:41:44.999Z</time></trkpt><trkpt lat="36.718971906142954" lon="14.815467247379363"><ele>5.0</ele><time>2026-04-11T15:41:45.999Z</time></trkpt><trkpt lat="36.71890249169198" lon="14.815470232953102"><ele>5.0</ele><time>2026-04-11T15:41:46.999Z</time></trkpt><trkpt lat="36.71883788926601" lon="14.815475033547957"><ele>5.0</ele><time>2026-04-11T15:41:47.999Z</time></trkpt><trkpt lat="36.718716686873464" lon="14.815491479982871"><ele>5.0</ele><time>2026-04-11T15:41:49.999Z</time></trkpt><trkpt lat="36.7186075447228" lon="14.815503171138465"><ele>5.0</ele><time>2026-04-11T15:41:51.999Z</time></trkpt><trkpt lat="36.718500927607366" lon="14.815491450000644"><ele>4.2</ele><time>2026-04-11T15:41:53.999Z</time></trkpt><trkpt lat="36.718432483730346" lon="14.815496512942712"><ele>3.4</ele><time>2026-04-11T15:41:56.999Z</time></trkpt><trkpt lat="36.718345891814415" lon="14.815501785445191"><ele>2.6</ele><time>2026-04-11T15:42:39Z</time></trkpt><trkpt lat="36.718219300527" lon="14.81550994329098"><ele>1.8</ele><time>2026-04-11T15:42:41Z</time></trkpt><trkpt lat="36.71812852894492" lon="14.815515792831553"><ele>1.0</ele><time>2026-04-11T15:42:42Z</time></trkpt><trkpt lat="36.71801096339694" lon="14.815523369019852"><ele>1.0</ele><time>2026-04-11T15:42:43Z</time></trkpt><trkpt lat="36.71786066257987" lon="14.81553129929322"><ele>1.0</ele><time>2026-04-11T15:42:44Z</time></trkpt><trkpt lat="36.71772662470108" lon="14.815538524975818"><ele>1.0</ele><time>2026-04-11T15:42:45Z</time></trkpt><trkpt lat="36.717618397816835" lon="14.815544359246333"><ele>1.0</ele><time>2026-04-11T15:42:46Z</time></trkpt><trkpt lat="36.71752457568331" lon="14.815681727924618"><ele>1.0</ele><time>2026-04-11T15:42:47Z</time></trkpt><trkpt lat="36.7174235016781" lon="14.815676720776843"><ele>0.9999999999999999</ele><time>2026-04-11T15:42:48Z</time></trkpt><trkpt lat="36.71734137967332" lon="14.815664555819518"><ele>1.0</ele><time>2026-04-11T15:42:49Z</time></trkpt><trkpt lat="36.717272100944214" lon="14.815663612256898"><ele>1.0</ele><time>2026-04-11T15:42:50Z</time></trkpt><trkpt lat="36.71720989301949" lon="14.81567574403528"><ele>0.9999999999999999</ele><time>2026-04-11T15:42:51Z</time></trkpt><trkpt lat="36.71714209876507" lon="14.815690552462447"><ele>1.0</ele><time>2026-04-11T15:42:52Z</time></trkpt><trkpt lat="36.71707965789377" lon="14.815706912274841"><ele>1.0</ele><time>2026-04-11T15:42:53Z</time></trkpt><trkpt lat="36.716986066511595" lon="14.815786942565841"><ele>0.9999999999999999</ele><time>2026-04-11T15:42:55Z</time></trkpt><trkpt lat="36.716930604705034" lon="14.815875628334464"><ele>1.0</ele><time>2026-04-11T15:42:56Z</time></trkpt><trkpt lat="36.71688952887174" lon="14.815976154255521"><ele>1.0</ele><time>2026-04-11T15:42:57Z</time></trkpt><trkpt lat="36.71687209966859" lon="14.816068155849381"><ele>1.0</ele><time>2026-04-11T15:42:57.999Z</time></trkpt><trkpt lat="36.716871979472174" lon="14.81614723006987"><ele>0.9999999999999999</ele><time>2026-04-11T15:42:58.999Z</time></trkpt><trkpt lat="36.71687696789172" lon="14.816232907238486"><ele>1.0</ele><time>2026-04-11T15:42:59.999Z</time></trkpt><trkpt lat="36.7168919517455" lon="14.816314041221625"><ele>0.8</ele><time>2026-04-11T15:43:00.999Z</time></trkpt><trkpt lat="36.716914357833126" lon="14.816408102573403"><ele>0.6000000000000001</ele><time>2026-04-11T15:43:01.999Z</time></trkpt><trkpt lat="36.71693628641994" lon="14.816531361724914"><ele>0.4</ele><time>2026-04-11T15:43:02.999Z</time></trkpt><trkpt lat="36.716958742442976" lon="14.816667381343219"><ele>0.2</ele><time>2026-04-11T15:43:03.999Z</time></trkpt><trkpt lat="36.71697863389826" lon="14.816810746850635"><ele>0.0</ele><time>2026-04-11T15:43:04.999Z</time></trkpt><trkpt lat="36.71699424368827" lon="14.816959027562225"><ele>0.0</ele><time>2026-04-11T15:43:05.999Z</time></trkpt><trkpt lat="36.71701129114456" lon="14.817110526478777"><ele>0.0</ele><time>2026-04-11T15:43:06.999Z</time></trkpt><trkpt lat="36.71702434164692" lon="14.817239272127882"><ele>0.0</ele><time>2026-04-11T15:43:07.999Z</time></trkpt><trkpt lat="36.71704000160346" lon="14.817349107556437"><ele>0.0</ele><time>2026-04-11T15:43:08.999Z</time></trkpt><trkpt lat="36.7170495677279" lon="14.817437143625643"><ele>0.0</ele><time>2026-04-11T15:43:09.999Z</time></trkpt><trkpt lat="36.71706886719201" lon="14.81760599326773"><ele>0.0</ele><time>2026-04-11T15:43:11.999Z</time></trkpt><trkpt lat="36.717087541826096" lon="14.817701722470378"><ele>0.0</ele><time>2026-04-11T15:43:12.999Z</time></trkpt><trkpt lat="36.717118496103474" lon="14.81779474579325"><ele>0.0</ele><time>2026-04-11T15:43:13.999Z</time></trkpt><trkpt lat="36.717156409606396" lon="14.817898955849312"><ele>0.0</ele><time>2026-04-11T15:43:14.999Z</time></trkpt><trkpt lat="36.717179872922024" lon="14.817984483217083"><ele>0.0</ele><time>2026-04-11T15:43:15.999Z</time></trkpt><trkpt lat="36.717183934046126" lon="14.818123337441149"><ele>0.0</ele><time>2026-04-11T15:43:17.999Z</time></trkpt><trkpt lat="36.717148720222255" lon="14.81825909062112"><ele>0.0</ele><time>2026-04-11T15:43:19.999Z</time></trkpt><trkpt lat="36.71709149245802" lon="14.818315241557086"><ele>0.0</ele><time>2026-04-11T15:43:21.999Z</time></trkpt><trkpt lat="36.71702824299441" lon="14.818325224063697"><ele>0.0</ele><time>2026-04-11T15:43:23.999Z</time></trkpt><trkpt lat="36.71696540335899" lon="14.818298004814636"><ele>0.0</ele><time>2026-04-11T15:43:36.999Z</time></trkpt><trkpt lat="36.71691429566527" lon="14.818238751321633"><ele>0.0</ele><time>2026-04-11T15:43:38.999Z</time></trkpt><trkpt lat="36.71684119195779" lon="14.818089549104359"><ele>0.0</ele><time>2026-04-11T15:43:40.999Z</time></trkpt><trkpt lat="36.716818457292604" lon="14.817983693680816"><ele>0.0</ele><time>2026-04-11T15:43:41.999Z</time></trkpt><trkpt lat="36.71680806586105" lon="14.817845849177857"><ele>0.0</ele><time>2026-04-11T15:43:42.999Z</time></trkpt><trkpt lat="36.71680310564593" lon="14.817658067416"><ele>0.0</ele><time>2026-04-11T15:43:43.999Z</time></trkpt><trkpt lat="36.71679302953779" lon="14.817454502512733"><ele>0.0</ele><time>2026-04-11T15:43:44.999Z</time></trkpt><trkpt lat="36.71677591482072" lon="14.81720841249782"><ele>0.0</ele><time>2026-04-11T15:43:45.999Z</time></trkpt><trkpt lat="36.71675302015608" lon="14.816939724810391"><ele>0.0</ele><time>2026-04-11T15:43:46.999Z</time></trkpt><trkpt lat="36.71672701098537" lon="14.816685459256492"><ele>0.0</ele><time>2026-04-11T15:43:47.999Z</time></trkpt><trkpt lat="36.71669976695131" lon="14.816434436795966"><ele>0.0</ele><time>2026-04-11T15:43:48.999Z</time></trkpt><trkpt lat="36.716669956178315" lon="14.816178029650546"><ele>0.0</ele><time>2026-04-11T15:43:49.999Z</time></trkpt><trkpt lat="36.71663708648146" lon="14.815913329580152"><ele>0.0</ele><time>2026-04-11T15:43:50.999Z</time></trkpt><trkpt lat="36.71661122781677" lon="14.815652393262905"><ele>0.0</ele><time>2026-04-11T15:43:51.999Z</time></trkpt><trkpt lat="36.71658396867037" lon="14.815399111931809"><ele>0.0</ele><time>2026-04-11T15:43:52.999Z</time></trkpt><trkpt lat="36.716552819759336" lon="14.815159527887143"><ele>0.0</ele><time>2026-04-11T15:43:53.999Z</time></trkpt><trkpt lat="36.716526717572876" lon="14.814935553557802"><ele>0.0</ele><time>2026-04-11T15:43:54.999Z</time></trkpt><trkpt lat="36.7165038377766" lon="14.814717067323697"><ele>0.0</ele><time>2026-04-11T15:43:55.999Z</time></trkpt><trkpt lat="36.7164779698304" lon="14.814502478090233"><ele>0.0</ele><time>2026-04-11T15:43:56.999Z</time></trkpt><trkpt lat="36.71644640037296" lon="14.814277539605975"><ele>0.0</ele><time>2026-04-11T15:43:57.999Z</time></trkpt><trkpt lat="36.71641357875437" lon="14.814057438690098"><ele>0.0</ele><time>2026-04-11T15:43:58.999Z</time></trkpt><trkpt lat="36.71638299046828" lon="14.813854034097167"><ele>0.0</ele><time>2026-04-11T15:43:59.999Z</time></trkpt><trkpt lat="36.7163529078022" lon="14.813653818912737"><ele>0.0</ele><time>2026-04-11T15:44:00.999Z</time></trkpt><trkpt lat="36.716323362748426" lon="14.813476248686323"><ele>0.0</ele><time>2026-04-11T15:44:01.999Z</time></trkpt><trkpt lat="36.71629434720455" lon="14.81331311251833"><ele>0.0</ele><time>2026-04-11T15:44:02.999Z</time></trkpt><trkpt lat="36.71626335377609" lon="14.813130518874672"><ele>0.0</ele><time>2026-04-11T15:44:03.999Z</time></trkpt><trkpt lat="36.716231727506816" lon="14.812926750591132"><ele>0.0</ele><time>2026-04-11T15:44:04.999Z</time></trkpt><trkpt lat="36.71620599114374" lon="14.812740130749825"><ele>0.0</ele><time>2026-04-11T15:44:05.999Z</time></trkpt><trkpt lat="36.716181838926644" lon="14.812565488893311"><ele>0.0</ele><time>2026-04-11T15:44:06.999Z</time></trkpt><trkpt lat="36.71615043612983" lon="14.812407364448008"><ele>0.0</ele><time>2026-04-11T15:44:07.999Z</time></trkpt><trkpt lat="36.71611342466502" lon="14.812251633847634"><ele>0.0</ele><time>2026-04-11T15:44:09Z</time></trkpt><trkpt lat="36.71607555050682" lon="14.812093668314976"><ele>0.0</ele><time>2026-04-11T15:44:10Z</time></trkpt><trkpt lat="36.7160492844843" lon="14.811963342869843"><ele>0.0</ele><time>2026-04-11T15:44:11Z</time></trkpt><trkpt lat="36.716028627417245" lon="14.81185397068681"><ele>0.0</ele><time>2026-04-11T15:44:12Z</time></trkpt><trkpt lat="36.716009682857994" lon="14.811757564625994"><ele>0.0</ele><time>2026-04-11T15:44:13Z</time></trkpt><trkpt lat="36.715989883798535" lon="14.811666524753345"><ele>0.3333333333333333</ele><time>2026-04-11T15:44:14Z</time></trkpt><trkpt lat="36.71597230139189" lon="14.811589627444917"><ele>0.6666666666666666</ele><time>2026-04-11T15:44:15Z</time></trkpt><trkpt lat="36.715966771612635" lon="14.81144712890654"><ele>1.0</ele><time>2026-04-11T15:44:17Z</time></trkpt><trkpt lat="36.715948569297375" lon="14.811328655778569"><ele>1.3333333333333333</ele><time>2026-04-11T15:44:19Z</time></trkpt><trkpt lat="36.715938404801626" lon="14.81124336437753"><ele>1.6666666666666665</ele><time>2026-04-11T15:44:24Z</time></trkpt><trkpt lat="36.71598459879012" lon="14.811163072289009"><ele>2.0</ele><time>2026-04-11T15:44:27Z</time></trkpt><trkpt lat="36.71593526473691" lon="14.81109627687453"><ele>1.9999999999999998</ele><time>2026-04-11T15:44:30Z</time></trkpt><trkpt lat="36.71586274684947" lon="14.81103645651177"><ele>2.0</ele><time>2026-04-11T15:45:33.999Z</time></trkpt><trkpt lat="36.71578811019395" lon="14.810975945932217"><ele>2.0</ele><time>2026-04-11T15:45:34.999Z</time></trkpt><trkpt lat="36.71571904129018" lon="14.810916160914449"><ele>2.0</ele><time>2026-04-11T15:45:35.999Z</time></trkpt><trkpt lat="36.715651128368584" lon="14.810867611858674"><ele>1.9999999999999998</ele><time>2026-04-11T15:45:36.999Z</time></trkpt><trkpt lat="36.71558763892262" lon="14.81082543175699"><ele>2.0</ele><time>2026-04-11T15:45:37.999Z</time></trkpt><trkpt lat="36.71552155385932" lon="14.810780127272714"><ele>1.9999999999999998</ele><time>2026-04-11T15:45:38.999Z</time></trkpt><trkpt lat="36.71546535212848" lon="14.8107400118833"><ele>2.0</ele><time>2026-04-11T15:45:39.999Z</time></trkpt><trkpt lat="36.71541344243749" lon="14.810676017151557"><ele>2.0</ele><time>2026-04-11T15:45:40.999Z</time></trkpt><trkpt lat="36.715350994290546" lon="14.810601951610293"><ele>2.0</ele><time>2026-04-11T15:45:41.999Z</time></trkpt><trkpt lat="36.715269463385255" lon="14.810529204660142"><ele>1.9999999999999998</ele><time>2026-04-11T15:45:42.999Z</time></trkpt><trkpt lat="36.71519561850217" lon="14.810463158675475"><ele>2.0</ele><time>2026-04-11T15:45:43.999Z</time></trkpt><trkpt lat="36.71511309216409" lon="14.810373804490926"><ele>2.0</ele><time>2026-04-11T15:45:44.999Z</time></trkpt><trkpt lat="36.71501014448202" lon="14.81022152644594"><ele>2.0</ele><time>2026-04-11T15:45:45.999Z</time></trkpt><trkpt lat="36.714870583519996" lon="14.810031090717072"><ele>2.0</ele><time>2026-04-11T15:45:46.999Z</time></trkpt><trkpt lat="36.71473220730295" lon="14.809858192134888"><ele>3.0</ele><time>2026-04-11T15:45:47.999Z</time></trkpt><trkpt lat="36.714611733840854" lon="14.809703208932072"><ele>4.0</ele><time>2026-04-11T15:45:48.999Z</time></trkpt><trkpt lat="36.71451025283777" lon="14.809561955010373"><ele>5.0</ele><time>2026-04-11T15:45:49.999Z</time></trkpt><trkpt lat="36.71441151564837" lon="14.809425236809046"><ele>5.0</ele><time>2026-04-11T15:45:50.999Z</time></trkpt><trkpt lat="36.71431463111489" lon="14.80928989807687"><ele>5.0</ele><time>2026-04-11T15:45:51.999Z</time></trkpt><trkpt lat="36.714229281698564" lon="14.809156708296053"><ele>5.0</ele><time>2026-04-11T15:45:52.999Z</time></trkpt><trkpt lat="36.71415041395143" lon="14.809032100386002"><ele>5.0</ele><time>2026-04-11T15:45:53.999Z</time></trkpt><trkpt lat="36.714076156918686" lon="14.808914074201361"><ele>5.0</ele><time>2026-04-11T15:45:54.999Z</time></trkpt><trkpt lat="36.71399978034115" lon="14.808804568436425"><ele>5.0</ele><time>2026-04-11T15:45:55.999Z</time></trkpt><trkpt lat="36.71392305367272" lon="14.808697514056819"><ele>5.0</ele><time>2026-04-11T15:45:56.999Z</time></trkpt><trkpt lat="36.713847118725226" lon="14.808591708795442"><ele>5.0</ele><time>2026-04-11T15:45:57.999Z</time></trkpt><trkpt lat="36.71377376800577" lon="14.808501984311018"><ele>5.0</ele><time>2026-04-11T15:45:58.999Z</time></trkpt><trkpt lat="36.71370518124723" lon="14.80840930333915"><ele>5.4</ele><time>2026-04-11T15:45:59.999Z</time></trkpt><trkpt lat="36.713637019543285" lon="14.808314665618454"><ele>5.8</ele><time>2026-04-11T15:46:00.999Z</time></trkpt><trkpt lat="36.7135686045323" lon="14.80822360579068"><ele>6.199999999999999</ele><time>2026-04-11T15:46:01.999Z</time></trkpt><trkpt lat="36.713504213529134" lon="14.808148560018179"><ele>6.6</ele><time>2026-04-11T15:46:02.999Z</time></trkpt><trkpt lat="36.71344063043338" lon="14.80806982494932"><ele>7.0</ele><time>2026-04-11T15:46:03.999Z</time></trkpt><trkpt lat="36.71338946953935" lon="14.807991647437953"><ele>7.000000000000001</ele><time>2026-04-11T15:46:04.999Z</time></trkpt><trkpt lat="36.71333788307188" lon="14.807923346147813"><ele>7.0</ele><time>2026-04-11T15:46:05.999Z</time></trkpt><trkpt lat="36.71329241721356" lon="14.807856593098219"><ele>7.0</ele><time>2026-04-11T15:46:06.999Z</time></trkpt><trkpt lat="36.71323962770833" lon="14.807775277356182"><ele>7.0</ele><time>2026-04-11T15:46:07.999Z</time></trkpt><trkpt lat="36.713194047558865" lon="14.807699369016904"><ele>7.000000000000001</ele><time>2026-04-11T15:46:08.999Z</time></trkpt><trkpt lat="36.71314352877819" lon="14.807622497958572"><ele>7.0</ele><time>2026-04-11T15:46:09.999Z</time></trkpt><trkpt lat="36.71309999737689" lon="14.807537306031513"><ele>7.199999999999999</ele><time>2026-04-11T15:46:10.999Z</time></trkpt><trkpt lat="36.71305362959033" lon="14.80745078868261"><ele>7.3999999999999995</ele><time>2026-04-11T15:46:11.999Z</time></trkpt><trkpt lat="36.71300694020487" lon="14.807360751723932"><ele>7.6000000000000005</ele><time>2026-04-11T15:46:12.999Z</time></trkpt><trkpt lat="36.71295882094594" lon="14.807288931457887"><ele>7.800000000000001</ele><time>2026-04-11T15:46:13.999Z</time></trkpt><trkpt lat="36.712904208037294" lon="14.807225056675835"><ele>8.0</ele><time>2026-04-11T15:46:15Z</time></trkpt><trkpt lat="36.7128097056016" lon="14.807105164403676"><ele>8.0</ele><time>2026-04-11T15:46:17Z</time></trkpt><trkpt lat="36.712747040631676" lon="14.806998266596235"><ele>8.0</ele><time>2026-04-11T15:46:18Z</time></trkpt><trkpt lat="36.71266498696593" lon="14.80687910725015"><ele>8.0</ele><time>2026-04-11T15:46:19Z</time></trkpt><trkpt lat="36.71255600142752" lon="14.806747175685581"><ele>8.0</ele><time>2026-04-11T15:46:20Z</time></trkpt><trkpt lat="36.71244396275019" lon="14.806616103806496"><ele>7.5</ele><time>2026-04-11T15:46:21Z</time></trkpt><trkpt lat="36.71233906633987" lon="14.80649814096369"><ele>7.0</ele><time>2026-04-11T15:46:22Z</time></trkpt><trkpt lat="36.71224248786396" lon="14.806382438861927"><ele>6.5</ele><time>2026-04-11T15:46:23Z</time></trkpt><trkpt lat="36.712138476425594" lon="14.806251594263484"><ele>6.0</ele><time>2026-04-11T15:46:24Z</time></trkpt><trkpt lat="36.71203174572053" lon="14.806109389355026"><ele>6.5</ele><time>2026-04-11T15:46:25Z</time></trkpt><trkpt lat="36.711930718003515" lon="14.805974737002487"><ele>7.0</ele><time>2026-04-11T15:46:26Z</time></trkpt><trkpt lat="36.7118381539772" lon="14.80584649145653"><ele>7.5</ele><time>2026-04-11T15:46:27Z</time></trkpt><trkpt lat="36.71175151366746" lon="14.805714996307078"><ele>8.0</ele><time>2026-04-11T15:46:28Z</time></trkpt><trkpt lat="36.71166670926197" lon="14.805586546041432"><ele>7.0</ele><time>2026-04-11T15:46:29Z</time></trkpt><trkpt lat="36.711592258867356" lon="14.805448771223963"><ele>6.0</ele><time>2026-04-11T15:46:30Z</time></trkpt><trkpt lat="36.71151506010672" lon="14.805307040472787"><ele>5.0</ele><time>2026-04-11T15:46:31Z</time></trkpt><trkpt lat="36.71143298556862" lon="14.805163232511232"><ele>4.0</ele><time>2026-04-11T15:46:32Z</time></trkpt><trkpt lat="36.711349042590406" lon="14.805030218430254"><ele>4.0</ele><time>2026-04-11T15:46:33Z</time></trkpt><trkpt lat="36.71126677251882" lon="14.804891210958699"><ele>4.0</ele><time>2026-04-11T15:46:34Z</time></trkpt><trkpt lat="36.71118359837848" lon="14.804749626777717"><ele>4.0</ele><time>2026-04-11T15:46:35Z</time></trkpt><trkpt lat="36.71110266027284" lon="14.804622027208229"><ele>4.0</ele><time>2026-04-11T15:46:36Z</time></trkpt><trkpt lat="36.711034594221836" lon="14.804498991489117"><ele>3.6</ele><time>2026-04-11T15:46:37Z</time></trkpt><trkpt lat="36.710970972559835" lon="14.804398488978718"><ele>3.2</ele><time>2026-04-11T15:46:38Z</time></trkpt><trkpt lat="36.71090587034212" lon="14.804301873223144"><ele>2.8000000000000003</ele><time>2026-04-11T15:46:39Z</time></trkpt><trkpt lat="36.71084796007847" lon="14.804200551236361"><ele>2.4000000000000004</ele><time>2026-04-11T15:46:40Z</time></trkpt><trkpt lat="36.710791168371124" lon="14.804093015369311"><ele>2.0</ele><time>2026-04-11T15:46:41Z</time></trkpt><trkpt lat="36.7107363550846" lon="14.803992462670708"><ele>1.9999999999999998</ele><time>2026-04-11T15:46:42Z</time></trkpt><trkpt lat="36.710683850847786" lon="14.803904531402441"><ele>2.0</ele><time>2026-04-11T15:46:43Z</time></trkpt><trkpt lat="36.71064036855812" lon="14.803829162645386"><ele>2.0</ele><time>2026-04-11T15:46:44Z</time></trkpt><trkpt lat="36.71060541821643" lon="14.803760799259619"><ele>2.0</ele><time>2026-04-11T15:46:45Z</time></trkpt><trkpt lat="36.71055089967273" lon="14.803631666967862"><ele>1.9999999999999998</ele><time>2026-04-11T15:46:47Z</time></trkpt><trkpt lat="36.710511609322786" lon="14.803511665819016"><ele>2.0</ele><time>2026-04-11T15:46:49Z</time></trkpt><trkpt lat="36.710443298979335" lon="14.803415778719957"><ele>1.9999999999999998</ele><time>2026-04-11T15:47:22.999Z</time></trkpt><trkpt lat="36.710411045478054" lon="14.80333207985644"><ele>2.0</ele><time>2026-04-11T15:47:23.999Z</time></trkpt><trkpt lat="36.71037938504175" lon="14.803248170719865"><ele>2.0</ele><time>2026-04-11T15:47:25.999Z</time></trkpt><trkpt lat="36.71033425900266" lon="14.803181365274725"><ele>2.0</ele><time>2026-04-11T15:48:30Z</time></trkpt><trkpt lat="36.710313785479755" lon="14.80308345589767"><ele>1.9999999999999998</ele><time>2026-04-11T15:48:32Z</time></trkpt><trkpt lat="36.71026281402988" lon="14.80294771861095"><ele>2.0</ele><time>2026-04-11T15:48:34Z</time></trkpt><trkpt lat="36.71021221143809" lon="14.80281273550061"><ele>2.0</ele><time>2026-04-11T15:48:35Z</time></trkpt><trkpt lat="36.71014984664504" lon="14.80268933773782"><ele>2.0</ele><time>2026-04-11T15:48:36Z</time></trkpt><trkpt lat="36.710066165324825" lon="14.802611269146054"><ele>2.0</ele><time>2026-04-11T15:48:37Z</time></trkpt><trkpt lat="36.70996679170548" lon="14.802561590195769"><ele>2.0</ele><time>2026-04-11T15:48:38Z</time></trkpt><trkpt lat="36.70987262596454" lon="14.802519874797358"><ele>2.0</ele><time>2026-04-11T15:48:39Z</time></trkpt><trkpt lat="36.709793420875094" lon="14.802448075288245"><ele>2.8</ele><time>2026-04-11T15:48:40Z</time></trkpt><trkpt lat="36.70971340811443" lon="14.802355579568703"><ele>3.6</ele><time>2026-04-11T15:48:41Z</time></trkpt><trkpt lat="36.70963802240606" lon="14.80226060575502"><ele>4.3999999999999995</ele><time>2026-04-11T15:48:42Z</time></trkpt><trkpt lat="36.70957477480923" lon="14.802166445824358"><ele>5.2</ele><time>2026-04-11T15:48:43Z</time></trkpt><trkpt lat="36.709510945717554" lon="14.802050481321714"><ele>6.0</ele><time>2026-04-11T15:48:44Z</time></trkpt><trkpt lat="36.709430302584394" lon="14.801906744709656"><ele>5.5</ele><time>2026-04-11T15:48:45Z</time></trkpt><trkpt lat="36.70934607664602" lon="14.801766777336521"><ele>5.0</ele><time>2026-04-11T15:48:46Z</time></trkpt><trkpt lat="36.709256928652415" lon="14.801632386272175"><ele>4.5</ele><time>2026-04-11T15:48:47Z</time></trkpt><trkpt lat="36.70917553272523" lon="14.80150491393082"><ele>4.0</ele><time>2026-04-11T15:48:48Z</time></trkpt><trkpt lat="36.709086643992435" lon="14.801368315850473"><ele>4.0</ele><time>2026-04-11T15:48:49Z</time></trkpt><trkpt lat="36.70900452562473" lon="14.801221352394924"><ele>4.0</ele><time>2026-04-11T15:48:50Z</time></trkpt><trkpt lat="36.708932030297404" lon="14.801076177559354"><ele>4.0</ele><time>2026-04-11T15:48:51Z</time></trkpt><trkpt lat="36.70885529829141" lon="14.800939473253255"><ele>4.0</ele><time>2026-04-11T15:48:52Z</time></trkpt><trkpt lat="36.70878621909956" lon="14.800825226092122"><ele>3.6666666666666665</ele><time>2026-04-11T15:48:53Z</time></trkpt><trkpt lat="36.708725339930005" lon="14.800719690707542"><ele>3.333333333333333</ele><time>2026-04-11T15:48:54Z</time></trkpt><trkpt lat="36.7086719105169" lon="14.800636139653752"><ele>3.0</ele><time>2026-04-11T15:48:55Z</time></trkpt><trkpt lat="36.70862708770149" lon="14.800571666232507"><ele>2.6666666666666665</ele><time>2026-04-11T15:48:56Z</time></trkpt><trkpt lat="36.708558397792395" lon="14.800491990745233"><ele>2.333333333333333</ele><time>2026-04-11T15:48:58Z</time></trkpt><trkpt lat="36.70852136759783" lon="14.800419164874285"><ele>2.0</ele><time>2026-04-11T15:49:00Z</time></trkpt><trkpt lat="36.70847451508494" lon="14.800366042591474"><ele>2.0</ele><time>2026-04-11T15:49:02Z</time></trkpt><trkpt lat="36.708431958456785" lon="14.800285229368782"><ele>1.9999999999999998</ele><time>2026-04-11T15:49:16Z</time></trkpt><trkpt lat="36.708410826018685" lon="14.800205565087822"><ele>2.0</ele><time>2026-04-11T15:49:22.999Z</time></trkpt><trkpt lat="36.708421376216776" lon="14.800114517049135"><ele>2.0</ele><time>2026-04-11T15:50:23.999Z</time></trkpt><trkpt lat="36.70845480280298" lon="14.80004049739203"><ele>1.9999999999999998</ele><time>2026-04-11T15:50:28Z</time></trkpt><trkpt lat="36.70850553345584" lon="14.799974591702624"><ele>2.0</ele><time>2026-04-11T15:54:33.999Z</time></trkpt><trkpt lat="36.708591289824284" lon="14.799943913362453"><ele>2.0</ele><time>2026-04-11T15:54:36.999Z</time></trkpt><trkpt lat="36.708658525633474" lon="14.799916509512414"><ele>3.0</ele><time>2026-04-11T15:54:41Z</time></trkpt><trkpt lat="36.70870852744788" lon="14.799864179104189"><ele>4.0</ele><time>2026-04-11T15:54:45Z</time></trkpt><trkpt lat="36.7087809138344" lon="14.799784415120008"><ele>5.0</ele><time>2026-04-11T15:54:49Z</time></trkpt><trkpt lat="36.708845451376234" lon="14.799773898277822"><ele>6.0</ele><time>2026-04-11T15:54:54Z</time></trkpt><trkpt lat="36.70884339883208" lon="14.79986057006936"><ele>7.0</ele><time>2026-04-11T15:54:59Z</time></trkpt><trkpt lat="36.70877052569945" lon="14.799887998677487"><ele>8.000000000000002</ele><time>2026-04-11T15:55:02Z</time></trkpt><trkpt lat="36.708704802196074" lon="14.799907221624313"><ele>9.0</ele><time>2026-04-11T15:55:04Z</time></trkpt><trkpt lat="36.70863486106658" lon="14.799925516886947"><ele>8.428571428571429</ele><time>2026-04-11T15:55:09Z</time></trkpt><trkpt lat="36.708550519164774" lon="14.799948312707194"><ele>7.857142857142858</ele><time>2026-04-11T15:55:23Z</time></trkpt><trkpt lat="36.708489226046815" lon="14.799986052614628"><ele>7.2857142857142865</ele><time>2026-04-11T15:55:38.999Z</time></trkpt><trkpt lat="36.70843489522245" lon="14.800031511354808"><ele>6.714285714285715</ele><time>2026-04-11T15:55:42.999Z</time></trkpt><trkpt lat="36.708427674400845" lon="14.800111194374423"><ele>6.142857142857143</ele><time>2026-04-11T15:55:51.999Z</time></trkpt><trkpt lat="36.70840691442322" lon="14.800188051716821"><ele>5.571428571428571</ele><time>2026-04-11T15:57:05Z</time></trkpt><trkpt lat="36.70839417576157" lon="14.800279197343718"><ele>5.0</ele><time>2026-04-11T15:57:23Z</time></trkpt><trkpt lat="36.70833221829103" lon="14.800293399716654"><ele>5.0</ele><time>2026-04-11T15:58:02.999Z</time></trkpt><trkpt lat="36.708278588421706" lon="14.80022912235315"><ele>5.0</ele><time>2026-04-11T15:58:07.999Z</time></trkpt><trkpt lat="36.708231365616314" lon="14.800151019957475"><ele>5.0</ele><time>2026-04-11T16:08:42.999Z</time></trkpt><trkpt lat="36.708172363314475" lon="14.800079370469645"><ele>5.0</ele><time>2026-04-11T16:08:46.999Z</time></trkpt><trkpt lat="36.708118806463396" lon="14.800016875016384"><ele>5.0</ele><time>2026-04-11T16:08:49.999Z</time></trkpt><trkpt lat="36.70810463792533" lon="14.799939100635243"><ele>5.0</ele><time>2026-04-11T16:08:51.999Z</time></trkpt><trkpt lat="36.708093843144844" lon="14.799849955571238"><ele>5.0</ele><time>2026-04-11T16:08:53.999Z</time></trkpt><trkpt lat="36.708053257822" lon="14.799761355118585"><ele>5.0</ele><time>2026-04-11T16:08:55.999Z</time></trkpt><trkpt lat="36.70801848324795" lon="14.799686198029637"><ele>5.0</ele><time>2026-04-11T16:08:58.999Z</time></trkpt><trkpt lat="36.707956072347194" lon="14.799517948055882"><ele>5.0</ele><time>2026-04-11T16:09:01.999Z</time></trkpt><trkpt lat="36.70793431061397" lon="14.799431992737974"><ele>5.0</ele><time>2026-04-11T16:09:03.999Z</time></trkpt><trkpt lat="36.707897281187286" lon="14.799361309286615"><ele>5.0</ele><time>2026-04-11T16:09:05.999Z</time></trkpt><trkpt lat="36.70784460167661" lon="14.799284156906992"><ele>5.0</ele><time>2026-04-11T16:09:07.999Z</time></trkpt><trkpt lat="36.70780587401751" lon="14.799212770474213"><ele>5.333333333333334</ele><time>2026-04-11T16:09:09.999Z</time></trkpt><trkpt lat="36.70775820607502" lon="14.799105096734783"><ele>5.666666666666667</ele><time>2026-04-11T16:09:11.999Z</time></trkpt><trkpt lat="36.70771384456628" lon="14.798996628880307"><ele>6.0</ele><time>2026-04-11T16:09:13.999Z</time></trkpt><trkpt lat="36.707689180125975" lon="14.798883475536499"><ele>6.333333333333334</ele><time>2026-04-11T16:09:15.999Z</time></trkpt><trkpt lat="36.70767456021647" lon="14.798804234494936"><ele>6.666666666666667</ele><time>2026-04-11T16:09:17.999Z</time></trkpt><trkpt lat="36.70761688796032" lon="14.798715570006957"><ele>7.0</ele><time>2026-04-11T16:09:19.999Z</time></trkpt><trkpt lat="36.70758310014829" lon="14.798608874548584"><ele>6.428571428571429</ele><time>2026-04-11T16:09:22Z</time></trkpt><trkpt lat="36.70753218797494" lon="14.798558821474327"><ele>5.857142857142857</ele><time>2026-04-11T16:09:24Z</time></trkpt><trkpt lat="36.70749775525157" lon="14.798471244592845"><ele>5.285714285714286</ele><time>2026-04-11T16:09:27Z</time></trkpt><trkpt lat="36.70750592348264" lon="14.798390570692051"><ele>4.714285714285714</ele><time>2026-04-11T16:09:30Z</time></trkpt><trkpt lat="36.707463742880655" lon="14.798318818856602"><ele>4.142857142857142</ele><time>2026-04-11T16:09:33Z</time></trkpt><trkpt lat="36.707433096856626" lon="14.798211924447946"><ele>3.571428571428571</ele><time>2026-04-11T16:09:37Z</time></trkpt><trkpt lat="36.70740728876998" lon="14.798135238328786"><ele>3.0</ele><time>2026-04-11T16:09:40Z</time></trkpt><trkpt lat="36.70737999612618" lon="14.798039958653543"><ele>3.0</ele><time>2026-04-11T16:09:44Z</time></trkpt><trkpt lat="36.70734457590494" lon="14.797973005188682"><ele>3.0</ele><time>2026-04-11T16:09:47Z</time></trkpt><trkpt lat="36.7073120371268" lon="14.797899320725158"><ele>3.0</ele><time>2026-04-11T16:09:50Z</time></trkpt><trkpt lat="36.70729646409672" lon="14.797814973424364"><ele>3.0</ele><time>2026-04-11T16:09:54Z</time></trkpt><trkpt lat="36.70730827427592" lon="14.797937408735557"><ele>3.0</ele><time>2026-04-11T16:14:26.999Z</time></trkpt><trkpt lat="36.70732884092945" lon="14.798024597010956"><ele>3.0</ele><time>2026-04-11T16:14:29.999Z</time></trkpt><trkpt lat="36.7073917666602" lon="14.798084411155381"><ele>3.0</ele><time>2026-04-11T16:14:55.999Z</time></trkpt><trkpt lat="36.70745419527697" lon="14.798050905129154"><ele>3.0</ele><time>2026-04-11T16:15:00.999Z</time></trkpt><trkpt lat="36.7074302845316" lon="14.797953203506887"><ele>3.0</ele><time>2026-04-11T16:15:05.999Z</time></trkpt><trkpt lat="36.70739851218484" lon="14.797813318911292"><ele>3.0</ele><time>2026-04-11T16:15:07.999Z</time></trkpt><trkpt lat="36.70738079189833" lon="14.797721952670075"><ele>3.0</ele><time>2026-04-11T16:26:09Z</time></trkpt><trkpt lat="36.707359240898576" lon="14.797639437300564"><ele>3.0</ele><time>2026-04-11T16:26:12Z</time></trkpt><trkpt lat="36.70732820882314" lon="14.797528347684775"><ele>3.4</ele><time>2026-04-11T16:26:15Z</time></trkpt><trkpt lat="36.70730092387388" lon="14.797449226328812"><ele>3.8</ele><time>2026-04-11T16:26:17Z</time></trkpt><trkpt lat="36.70725908562123" lon="14.797301424022521"><ele>4.2</ele><time>2026-04-11T16:26:19Z</time></trkpt><trkpt lat="36.707224301429115" lon="14.797160467452708"><ele>4.6</ele><time>2026-04-11T16:26:21Z</time></trkpt><trkpt lat="36.70718972484218" lon="14.797062824641799"><ele>5.0</ele><time>2026-04-11T16:26:23Z</time></trkpt><trkpt lat="36.70715946203019" lon="14.796976909690256"><ele>5.4</ele><time>2026-04-11T16:26:25Z</time></trkpt><trkpt lat="36.70718846184774" lon="14.79683547759391"><ele>5.8</ele><time>2026-04-11T16:26:27Z</time></trkpt><trkpt lat="36.707157869315175" lon="14.796734923362148"><ele>6.199999999999999</ele><time>2026-04-11T16:26:29Z</time></trkpt><trkpt lat="36.70712638723586" lon="14.796631445279537"><ele>6.6</ele><time>2026-04-11T16:26:31Z</time></trkpt><trkpt lat="36.707091378929626" lon="14.796516376888027"><ele>7.0</ele><time>2026-04-11T16:26:33Z</time></trkpt><trkpt lat="36.707054052888424" lon="14.79639369036195"><ele>7.0</ele><time>2026-04-11T16:26:35Z</time></trkpt><trkpt lat="36.70702033311778" lon="14.79628285723416"><ele>6.999999999999999</ele><time>2026-04-11T16:26:37Z</time></trkpt><trkpt lat="36.70698483332208" lon="14.796166173372862"><ele>6.999999999999999</ele><time>2026-04-11T16:26:39Z</time></trkpt><trkpt lat="36.70695117657981" lon="14.796056019164514"><ele>7.0</ele><time>2026-04-11T16:26:41Z</time></trkpt><trkpt lat="36.70692773858526" lon="14.795983133023187"><ele>7.0</ele><time>2026-04-11T16:26:43Z</time></trkpt><trkpt lat="36.70688873782491" lon="14.795861850710168"><ele>6.500000000000001</ele><time>2026-04-11T16:26:46Z</time></trkpt><trkpt lat="36.70685672852821" lon="14.795762310178072"><ele>6.0</ele><time>2026-04-11T16:26:48Z</time></trkpt><trkpt lat="36.70680970449048" lon="14.795695103376543"><ele>5.5</ele><time>2026-04-11T16:26:50Z</time></trkpt><trkpt lat="36.706775770508266" lon="14.795591115852895"><ele>5.0</ele><time>2026-04-11T16:26:53Z</time></trkpt><trkpt lat="36.70675577305206" lon="14.795482810819657"><ele>4.5</ele><time>2026-04-11T16:26:56Z</time></trkpt><trkpt lat="36.70672952155259" lon="14.795399420101644"><ele>4.0</ele><time>2026-04-11T16:26:58Z</time></trkpt><trkpt lat="36.706691888723526" lon="14.795199695605362"><ele>3.6666666666666665</ele><time>2026-04-11T16:27:00Z</time></trkpt><trkpt lat="36.70663877817838" lon="14.794998281404633"><ele>3.333333333333333</ele><time>2026-04-11T16:27:01Z</time></trkpt><trkpt lat="36.70660762880426" lon="14.79475538877367"><ele>3.0</ele><time>2026-04-11T16:27:01.999Z</time></trkpt><trkpt lat="36.70654273114487" lon="14.794490774851534"><ele>3.666666666666667</ele><time>2026-04-11T16:27:02.999Z</time></trkpt><trkpt lat="36.70646151930223" lon="14.794222085805362"><ele>4.333333333333334</ele><time>2026-04-11T16:27:03.999Z</time></trkpt><trkpt lat="36.70641709013446" lon="14.793969873659085"><ele>5.0</ele><time>2026-04-11T16:27:04.999Z</time></trkpt><trkpt lat="36.70636361072599" lon="14.793738311661299"><ele>5.0</ele><time>2026-04-11T16:27:05.999Z</time></trkpt><trkpt lat="36.706318114950875" lon="14.793511025954283"><ele>5.0</ele><time>2026-04-11T16:27:06.999Z</time></trkpt><trkpt lat="36.70626879376727" lon="14.79326397913001"><ele>5.0</ele><time>2026-04-11T16:27:07.999Z</time></trkpt><trkpt lat="36.70621916049309" lon="14.793034834993204"><ele>5.333333333333334</ele><time>2026-04-11T16:27:08.999Z</time></trkpt><trkpt lat="36.7061637819594" lon="14.792809000918044"><ele>5.666666666666667</ele><time>2026-04-11T16:27:09.999Z</time></trkpt><trkpt lat="36.706110908467565" lon="14.792567910676006"><ele>6.0</ele><time>2026-04-11T16:27:10.999Z</time></trkpt><trkpt lat="36.7060694099164" lon="14.792324289004277"><ele>4.333333333333333</ele><time>2026-04-11T16:27:11.999Z</time></trkpt><trkpt lat="36.70603092142591" lon="14.792084168501848"><ele>2.6666666666666665</ele><time>2026-04-11T16:27:12.999Z</time></trkpt><trkpt lat="36.70599269645756" lon="14.791875128329098"><ele>1.0</ele><time>2026-04-11T16:27:13.999Z</time></trkpt><trkpt lat="36.70595403576473" lon="14.791668627788926"><ele>1.0</ele><time>2026-04-11T16:27:14.999Z</time></trkpt><trkpt lat="36.70591633601767" lon="14.791460752423944"><ele>1.0</ele><time>2026-04-11T16:27:15.999Z</time></trkpt><trkpt lat="36.70588172875806" lon="14.79127285659632"><ele>1.0</ele><time>2026-04-11T16:27:16.999Z</time></trkpt><trkpt lat="36.705839567175246" lon="14.791100998284756"><ele>1.25</ele><time>2026-04-11T16:27:17.999Z</time></trkpt><trkpt lat="36.70579631993321" lon="14.790924714619974"><ele>1.5</ele><time>2026-04-11T16:27:18.999Z</time></trkpt><trkpt lat="36.705744458284464" lon="14.790782253557445"><ele>1.75</ele><time>2026-04-11T16:27:19.999Z</time></trkpt><trkpt lat="36.70571645518293" lon="14.790649633945684"><ele>2.0</ele><time>2026-04-11T16:27:20.999Z</time></trkpt><trkpt lat="36.705683564977505" lon="14.790517820564833"><ele>1.9999999999999998</ele><time>2026-04-11T16:27:21.999Z</time></trkpt><trkpt lat="36.705651450889924" lon="14.790401813270316"><ele>2.0</ele><time>2026-04-11T16:27:22.999Z</time></trkpt><trkpt lat="36.70563337914214" lon="14.790294606976973"><ele>2.0</ele><time>2026-04-11T16:27:23.999Z</time></trkpt><trkpt lat="36.70562819251548" lon="14.790207352733917"><ele>2.0</ele><time>2026-04-11T16:27:24.999Z</time></trkpt><trkpt lat="36.7055991753992" lon="14.790101802188005"><ele>1.9999999999999998</ele><time>2026-04-11T16:27:26.999Z</time></trkpt><trkpt lat="36.705557660438885" lon="14.790017841037105"><ele>2.0</ele><time>2026-04-11T16:27:48.999Z</time></trkpt><trkpt lat="36.70550198509992" lon="14.78986862681634"><ele>2.142857142857143</ele><time>2026-04-11T16:27:50.999Z</time></trkpt><trkpt lat="36.70548657586689" lon="14.789779656808117"><ele>2.2857142857142856</ele><time>2026-04-11T16:27:51.999Z</time></trkpt><trkpt lat="36.705474679364976" lon="14.789701069079218"><ele>2.4285714285714284</ele><time>2026-04-11T16:27:52.999Z</time></trkpt><trkpt lat="36.705459673502936" lon="14.789622229613228"><ele>2.571428571428571</ele><time>2026-04-11T16:27:53.999Z</time></trkpt><trkpt lat="36.70546260380373" lon="14.789530420089577"><ele>2.7142857142857144</ele><time>2026-04-11T16:27:54.999Z</time></trkpt><trkpt lat="36.705495425335975" lon="14.789430053177352"><ele>2.8571428571428568</ele><time>2026-04-11T16:27:55.999Z</time></trkpt><trkpt lat="36.70546752081839" lon="14.789332419652617"><ele>3.0</ele><time>2026-04-11T16:27:57.999Z</time></trkpt><trkpt lat="36.705424890827466" lon="14.78918797445697"><ele>3.2</ele><time>2026-04-11T16:27:59.999Z</time></trkpt><trkpt lat="36.70537460647373" lon="14.789047008819571"><ele>3.4</ele><time>2026-04-11T16:28:01.999Z</time></trkpt><trkpt lat="36.705330657106686" lon="14.788963418769786"><ele>3.6000000000000005</ele><time>2026-04-11T16:28:02.999Z</time></trkpt><trkpt lat="36.7053056004557" lon="14.788847853130198"><ele>3.8000000000000003</ele><time>2026-04-11T16:28:03.999Z</time></trkpt><trkpt lat="36.70528689696268" lon="14.788727531243632"><ele>4.0</ele><time>2026-04-11T16:28:04.999Z</time></trkpt><trkpt lat="36.705263715340365" lon="14.788605302384884"><ele>4.0</ele><time>2026-04-11T16:28:05.999Z</time></trkpt><trkpt lat="36.70524988062808" lon="14.788459421456102"><ele>4.0</ele><time>2026-04-11T16:28:06.999Z</time></trkpt><trkpt lat="36.70523380001903" lon="14.788305920697516"><ele>4.0</ele><time>2026-04-11T16:28:07.999Z</time></trkpt><trkpt lat="36.70521944478188" lon="14.788156854539274"><ele>4.0</ele><time>2026-04-11T16:28:08.999Z</time></trkpt><trkpt lat="36.705207254519834" lon="14.788011324245856"><ele>3.25</ele><time>2026-04-11T16:28:09.999Z</time></trkpt><trkpt lat="36.70520110407044" lon="14.78786001743604"><ele>2.5</ele><time>2026-04-11T16:28:10.999Z</time></trkpt><trkpt lat="36.705190231449265" lon="14.78770041407736"><ele>1.75</ele><time>2026-04-11T16:28:11.999Z</time></trkpt><trkpt lat="36.70517527692449" lon="14.787528792789816"><ele>1.0</ele><time>2026-04-11T16:28:12.999Z</time></trkpt><trkpt lat="36.70517151473472" lon="14.787360230305957"><ele>0.75</ele><time>2026-04-11T16:28:13.999Z</time></trkpt><trkpt lat="36.70517463913905" lon="14.787178893603686"><ele>0.5</ele><time>2026-04-11T16:28:15Z</time></trkpt><trkpt lat="36.705170889591166" lon="14.787008429373708"><ele>0.25</ele><time>2026-04-11T16:28:16Z</time></trkpt><trkpt lat="36.70516384674007" lon="14.786840515393806"><ele>0.0</ele><time>2026-04-11T16:28:17Z</time></trkpt><trkpt lat="36.70519331258944" lon="14.786681880932464"><ele>0.0</ele><time>2026-04-11T16:28:18Z</time></trkpt><trkpt lat="36.70518606320893" lon="14.786552738929208"><ele>0.0</ele><time>2026-04-11T16:28:19Z</time></trkpt><trkpt lat="36.705177606645414" lon="14.786441683616358"><ele>0.0</ele><time>2026-04-11T16:28:20Z</time></trkpt><trkpt lat="36.70516866232419" lon="14.78633081565561"><ele>0.0</ele><time>2026-04-11T16:28:21Z</time></trkpt><trkpt lat="36.70515645329048" lon="14.786208415653414"><ele>0.0</ele><time>2026-04-11T16:28:22Z</time></trkpt><trkpt lat="36.7051398276125" lon="14.786093783479233"><ele>0.4</ele><time>2026-04-11T16:28:23Z</time></trkpt><trkpt lat="36.705122356722484" lon="14.785972323893278"><ele>0.8</ele><time>2026-04-11T16:28:24Z</time></trkpt><trkpt lat="36.70510806341861" lon="14.78584844402556"><ele>1.2000000000000002</ele><time>2026-04-11T16:28:25Z</time></trkpt><trkpt lat="36.705092411527296" lon="14.785716457812509"><ele>1.6</ele><time>2026-04-11T16:28:26Z</time></trkpt><trkpt lat="36.70506534284834" lon="14.78557453469587"><ele>2.0</ele><time>2026-04-11T16:28:27Z</time></trkpt><trkpt lat="36.705035263432485" lon="14.78543598709322"><ele>2.0</ele><time>2026-04-11T16:28:28Z</time></trkpt><trkpt lat="36.704996975562175" lon="14.78528675415677"><ele>2.0</ele><time>2026-04-11T16:28:29Z</time></trkpt><trkpt lat="36.70497695302891" lon="14.785139263105007"><ele>2.0</ele><time>2026-04-11T16:28:30Z</time></trkpt><trkpt lat="36.70497414952589" lon="14.784992609030981"><ele>2.0</ele><time>2026-04-11T16:28:31Z</time></trkpt><trkpt lat="36.70495727179235" lon="14.78484042158897"><ele>2.0</ele><time>2026-04-11T16:28:32Z</time></trkpt><trkpt lat="36.70492604154351" lon="14.784691322614528"><ele>2.0</ele><time>2026-04-11T16:28:33Z</time></trkpt><trkpt lat="36.70488156862633" lon="14.784542476447992"><ele>2.0</ele><time>2026-04-11T16:28:34Z</time></trkpt><trkpt lat="36.704839058182735" lon="14.784411788405757"><ele>2.0</ele><time>2026-04-11T16:28:35Z</time></trkpt><trkpt lat="36.704800841477635" lon="14.78430315258232"><ele>2.0</ele><time>2026-04-11T16:28:36Z</time></trkpt><trkpt lat="36.70475852217946" lon="14.784187370584824"><ele>2.0</ele><time>2026-04-11T16:28:37Z</time></trkpt><trkpt lat="36.70471516828653" lon="14.784074764327094"><ele>2.0</ele><time>2026-04-11T16:28:38Z</time></trkpt><trkpt lat="36.70467968802832" lon="14.783982974165436"><ele>2.0</ele><time>2026-04-11T16:28:39Z</time></trkpt><trkpt lat="36.70464422438494" lon="14.78388293851435"><ele>2.0</ele><time>2026-04-11T16:28:40Z</time></trkpt><trkpt lat="36.70460941230197" lon="14.783778646260489"><ele>1.9999999999999998</ele><time>2026-04-11T16:28:41Z</time></trkpt><trkpt lat="36.70457828421929" lon="14.783674446155386"><ele>2.0</ele><time>2026-04-11T16:28:42Z</time></trkpt><trkpt lat="36.704539762132946" lon="14.783590865046547"><ele>2.0</ele><time>2026-04-11T16:28:43Z</time></trkpt><trkpt lat="36.70451494239654" lon="14.783498711172848"><ele>2.0</ele><time>2026-04-11T16:28:44Z</time></trkpt><trkpt lat="36.704504850166" lon="14.783394490373098"><ele>1.9999999999999998</ele><time>2026-04-11T16:28:45Z</time></trkpt><trkpt lat="36.7044791246901" lon="14.78331461510874"><ele>2.0</ele><time>2026-04-11T16:28:46Z</time></trkpt><trkpt lat="36.70443700686296" lon="14.783254313955057"><ele>1.8</ele><time>2026-04-11T16:28:47Z</time></trkpt><trkpt lat="36.70440632844896" lon="14.783138218358303"><ele>1.6</ele><time>2026-04-11T16:28:49Z</time></trkpt><trkpt lat="36.704367832128035" lon="14.783028742876459"><ele>1.4000000000000001</ele><time>2026-04-11T16:28:51Z</time></trkpt><trkpt lat="36.70432231559284" lon="14.782873621215236"><ele>1.2000000000000002</ele><time>2026-04-11T16:28:53Z</time></trkpt><trkpt lat="36.70433808702361" lon="14.782779139159247"><ele>1.0</ele><time>2026-04-11T16:28:54Z</time></trkpt><trkpt lat="36.704341183677265" lon="14.782687697333241"><ele>1.2000000000000002</ele><time>2026-04-11T16:28:55Z</time></trkpt><trkpt lat="36.70432948080921" lon="14.782584276517628"><ele>1.4000000000000001</ele><time>2026-04-11T16:28:56Z</time></trkpt><trkpt lat="36.70433080804813" lon="14.782452086235223"><ele>1.6</ele><time>2026-04-11T16:28:57Z</time></trkpt><trkpt lat="36.704315072374925" lon="14.78229983517624"><ele>1.8</ele><time>2026-04-11T16:28:58Z</time></trkpt><trkpt lat="36.704305465314974" lon="14.782154734218008"><ele>2.0</ele><time>2026-04-11T16:28:59Z</time></trkpt><trkpt lat="36.704316692389355" lon="14.78202755561395"><ele>2.0</ele><time>2026-04-11T16:29:00Z</time></trkpt><trkpt lat="36.70431874263404" lon="14.781890286771604"><ele>2.0</ele><time>2026-04-11T16:29:01Z</time></trkpt><trkpt lat="36.70431539177198" lon="14.781771000705573"><ele>2.0</ele><time>2026-04-11T16:29:02Z</time></trkpt><trkpt lat="36.70432168157682" lon="14.781673599032402"><ele>2.0</ele><time>2026-04-11T16:29:03Z</time></trkpt><trkpt lat="36.70432142902849" lon="14.781546977837243"><ele>2.0</ele><time>2026-04-11T16:29:05Z</time></trkpt><trkpt lat="36.70437155688368" lon="14.781472702412264"><ele>2.1666666666666665</ele><time>2026-04-11T16:29:07.999Z</time></trkpt><trkpt lat="36.70445691364135" lon="14.78146340968848"><ele>2.333333333333333</ele><time>2026-04-11T16:29:10.999Z</time></trkpt><trkpt lat="36.70454179730447" lon="14.78143895846679"><ele>2.5</ele><time>2026-04-11T16:29:13.999Z</time></trkpt><trkpt lat="36.70460146567025" lon="14.781464040013299"><ele>2.6666666666666665</ele><time>2026-04-11T16:29:17.999Z</time></trkpt><trkpt lat="36.70467058386153" lon="14.781489476053899"><ele>2.8333333333333335</ele><time>2026-04-11T16:30:18.999Z</time></trkpt><trkpt lat="36.704739198116336" lon="14.781558594842023"><ele>3.0</ele><time>2026-04-11T16:30:19.999Z</time></trkpt><trkpt lat="36.70482228848013" lon="14.781665949605221"><ele>3.0</ele><time>2026-04-11T16:30:21Z</time></trkpt><trkpt lat="36.704911736306364" lon="14.781789623189407"><ele>3.0</ele><time>2026-04-11T16:30:22Z</time></trkpt><trkpt lat="36.7050142996618" lon="14.78190430910732"><ele>3.0</ele><time>2026-04-11T16:30:23Z</time></trkpt><trkpt lat="36.70515430216719" lon="14.78201862694644"><ele>3.0</ele><time>2026-04-11T16:30:24Z</time></trkpt><trkpt lat="36.70529318960723" lon="14.782131421029094"><ele>2.75</ele><time>2026-04-11T16:30:25Z</time></trkpt><trkpt lat="36.70540534512978" lon="14.782233336868039"><ele>2.5</ele><time>2026-04-11T16:30:26Z</time></trkpt><trkpt lat="36.70549815701203" lon="14.782324992036964"><ele>2.25</ele><time>2026-04-11T16:30:27Z</time></trkpt><trkpt lat="36.70557579161499" lon="14.78242364008521"><ele>2.0</ele><time>2026-04-11T16:30:28Z</time></trkpt><trkpt lat="36.70563917364186" lon="14.782525124736974"><ele>2.0</ele><time>2026-04-11T16:30:29Z</time></trkpt><trkpt lat="36.705690792847804" lon="14.782611869893307"><ele>2.0</ele><time>2026-04-11T16:30:30Z</time></trkpt><trkpt lat="36.70572900157434" lon="14.782691795483144"><ele>2.0</ele><time>2026-04-11T16:30:31Z</time></trkpt><trkpt lat="36.70578257108327" lon="14.782739486272403"><ele>2.0</ele><time>2026-04-11T16:30:32Z</time></trkpt><trkpt lat="36.705870756390844" lon="14.7828216052785"><ele>2.0</ele><time>2026-04-11T16:30:34Z</time></trkpt><trkpt lat="36.70596115145408" lon="14.78290789234079"><ele>2.333333333333333</ele><time>2026-04-11T16:30:36Z</time></trkpt><trkpt lat="36.706034507106494" lon="14.78295759878962"><ele>2.6666666666666665</ele><time>2026-04-11T16:30:37Z</time></trkpt><trkpt lat="36.70610490246213" lon="14.783043629079442"><ele>3.0</ele><time>2026-04-11T16:30:38Z</time></trkpt><trkpt lat="36.7061777878595" lon="14.78312200147206"><ele>3.333333333333333</ele><time>2026-04-11T16:30:39Z</time></trkpt><trkpt lat="36.70624245718698" lon="14.783193889388773"><ele>3.6666666666666665</ele><time>2026-04-11T16:30:40Z</time></trkpt><trkpt lat="36.7062925587986" lon="14.783251454090351"><ele>4.0</ele><time>2026-04-11T16:30:41Z</time></trkpt><trkpt lat="36.70637145439388" lon="14.783343479851009"><ele>3.9999999999999996</ele><time>2026-04-11T16:30:43Z</time></trkpt><trkpt lat="36.70644258356991" lon="14.783453913341656"><ele>4.0</ele><time>2026-04-11T16:30:45Z</time></trkpt><trkpt lat="36.70641431309323" lon="14.78353517982214"><ele>4.0</ele><time>2026-04-11T16:30:46Z</time></trkpt><trkpt lat="36.706390766741926" lon="14.783618265512693"><ele>4.0</ele><time>2026-04-11T16:30:47Z</time></trkpt><trkpt lat="36.706377577667126" lon="14.78373247318764"><ele>3.9999999999999996</ele><time>2026-04-11T16:30:48Z</time></trkpt><trkpt lat="36.70636681103153" lon="14.78384203300882"><ele>4.0</ele><time>2026-04-11T16:30:49Z</time></trkpt><trkpt lat="36.706356594140445" lon="14.783945998670704"><ele>4.333333333333333</ele><time>2026-04-11T16:30:50Z</time></trkpt><trkpt lat="36.70634538240115" lon="14.784048556731896"><ele>4.666666666666666</ele><time>2026-04-11T16:30:51Z</time></trkpt><trkpt lat="36.70634420235841" lon="14.78415802918395"><ele>5.0</ele><time>2026-04-11T16:30:52Z</time></trkpt><trkpt lat="36.706333887022396" lon="14.784274290216157"><ele>5.333333333333333</ele><time>2026-04-11T16:30:53Z</time></trkpt><trkpt lat="36.70631838282403" lon="14.78438763311554"><ele>5.666666666666667</ele><time>2026-04-11T16:30:54Z</time></trkpt><trkpt lat="36.7063116515995" lon="14.784489921994288"><ele>6.0</ele><time>2026-04-11T16:30:55Z</time></trkpt><trkpt lat="36.70629075846276" lon="14.784577269019573"><ele>6.25</ele><time>2026-04-11T16:30:56Z</time></trkpt><trkpt lat="36.70629155467168" lon="14.784689695206435"><ele>6.5</ele><time>2026-04-11T16:30:58Z</time></trkpt><trkpt lat="36.70646188286295" lon="14.78473635840304"><ele>6.75</ele><time>2026-04-11T16:30:59Z</time></trkpt><trkpt lat="36.706570163507955" lon="14.784751366022206"><ele>7.0</ele><time>2026-04-11T16:31:00Z</time></trkpt><trkpt lat="36.70669499288585" lon="14.784759532293618"><ele>7.0</ele><time>2026-04-11T16:31:01Z</time></trkpt><trkpt lat="36.70682343778788" lon="14.78476251640217"><ele>7.0</ele><time>2026-04-11T16:31:02Z</time></trkpt><trkpt lat="36.70694637489355" lon="14.784764471775937"><ele>7.0</ele><time>2026-04-11T16:31:03Z</time></trkpt><trkpt lat="36.70706609359101" lon="14.78476225721741"><ele>7.0</ele><time>2026-04-11T16:31:04Z</time></trkpt><trkpt lat="36.70717208144078" lon="14.784755128223798"><ele>7.500000000000001</ele><time>2026-04-11T16:31:05Z</time></trkpt><trkpt lat="36.70727276092544" lon="14.784758962615431"><ele>8.0</ele><time>2026-04-11T16:31:06Z</time></trkpt><trkpt lat="36.70735263736785" lon="14.784782012512375"><ele>8.5</ele><time>2026-04-11T16:31:07Z</time></trkpt><trkpt lat="36.70742568791502" lon="14.784779966111486"><ele>9.0</ele><time>2026-04-11T16:31:09Z</time></trkpt><trkpt lat="36.7074715712688" lon="14.784706056793715"><ele>9.5</ele><time>2026-04-11T16:31:11Z</time></trkpt><trkpt lat="36.707483040689965" lon="14.78457256896417"><ele>10.0</ele><time>2026-04-11T16:31:12Z</time></trkpt><trkpt lat="36.70747192105602" lon="14.784416818605807"><ele>9.6</ele><time>2026-04-11T16:31:13Z</time></trkpt><trkpt lat="36.70747800299278" lon="14.784281628724244"><ele>9.2</ele><time>2026-04-11T16:31:14Z</time></trkpt><trkpt lat="36.70748427564264" lon="14.784143227418589"><ele>8.8</ele><time>2026-04-11T16:31:15Z</time></trkpt><trkpt lat="36.707498744442255" lon="14.784000237374075"><ele>8.4</ele><time>2026-04-11T16:31:16Z</time></trkpt><trkpt lat="36.707511628627785" lon="14.783866541924327"><ele>8.0</ele><time>2026-04-11T16:31:16.999Z</time></trkpt><trkpt lat="36.70752115319389" lon="14.783755044379577"><ele>8.0</ele><time>2026-04-11T16:31:17.999Z</time></trkpt><trkpt lat="36.707533905640936" lon="14.783668459253416"><ele>8.0</ele><time>2026-04-11T16:31:18.999Z</time></trkpt><trkpt lat="36.70758055487209" lon="14.783603804183425"><ele>8.0</ele><time>2026-04-11T16:31:20.999Z</time></trkpt><trkpt lat="36.70774287962559" lon="14.783630204975715"><ele>8.0</ele><time>2026-04-11T16:31:22.999Z</time></trkpt><trkpt lat="36.707850748492284" lon="14.783630330990833"><ele>8.0</ele><time>2026-04-11T16:31:23.999Z</time></trkpt><trkpt lat="36.707960491484805" lon="14.783620989354683"><ele>8.5</ele><time>2026-04-11T16:31:24.999Z</time></trkpt><trkpt lat="36.708075914258124" lon="14.783609080602194"><ele>9.0</ele><time>2026-04-11T16:31:25.999Z</time></trkpt><trkpt lat="36.70819523632792" lon="14.783594619536645"><ele>9.5</ele><time>2026-04-11T16:31:26.999Z</time></trkpt><trkpt lat="36.70832165438028" lon="14.783583566202221"><ele>10.0</ele><time>2026-04-11T16:31:27.999Z</time></trkpt><trkpt lat="36.70845314829934" lon="14.783573927062228"><ele>10.0</ele><time>2026-04-11T16:31:28.999Z</time></trkpt><trkpt lat="36.7085726188925" lon="14.783563089627059"><ele>10.0</ele><time>2026-04-11T16:31:29.999Z</time></trkpt><trkpt lat="36.70868531265544" lon="14.783555293687682"><ele>10.0</ele><time>2026-04-11T16:31:30.999Z</time></trkpt><trkpt lat="36.70878659305819" lon="14.783548375277324"><ele>10.0</ele><time>2026-04-11T16:31:31.999Z</time></trkpt><trkpt lat="36.70888258497604" lon="14.783536321788771"><ele>10.0</ele><time>2026-04-11T16:31:32.999Z</time></trkpt><trkpt lat="36.708976893477534" lon="14.78352280150433"><ele>10.0</ele><time>2026-04-11T16:31:33.999Z</time></trkpt><trkpt lat="36.709060147198585" lon="14.783513294091106"><ele>10.0</ele><time>2026-04-11T16:31:34.999Z</time></trkpt><trkpt lat="36.709140518682176" lon="14.783502846930668"><ele>10.0</ele><time>2026-04-11T16:31:35.999Z</time></trkpt><trkpt lat="36.70921745518556" lon="14.783492182292948"><ele>10.0</ele><time>2026-04-11T16:31:36.999Z</time></trkpt><trkpt lat="36.709294755708264" lon="14.783475081389653"><ele>10.0</ele><time>2026-04-11T16:31:37.999Z</time></trkpt><trkpt lat="36.709375390062895" lon="14.783439325241181"><ele>10.0</ele><time>2026-04-11T16:31:38.999Z</time></trkpt><trkpt lat="36.70947050406147" lon="14.783378226443965"><ele>8.75</ele><time>2026-04-11T16:31:39.999Z</time></trkpt><trkpt lat="36.709564760922405" lon="14.783283566969867"><ele>7.5</ele><time>2026-04-11T16:31:40.999Z</time></trkpt><trkpt lat="36.70965240561876" lon="14.783185298836784"><ele>6.25</ele><time>2026-04-11T16:31:41.999Z</time></trkpt><trkpt lat="36.70975638454642" lon="14.783084201556804"><ele>5.0</ele><time>2026-04-11T16:31:42.999Z</time></trkpt><trkpt lat="36.70986592412571" lon="14.782968157271233"><ele>5.0</ele><time>2026-04-11T16:31:43.999Z</time></trkpt><trkpt lat="36.70996543343334" lon="14.78286545734929"><ele>5.0</ele><time>2026-04-11T16:31:44.999Z</time></trkpt><trkpt lat="36.71005613717413" lon="14.782777462708582"><ele>5.0</ele><time>2026-04-11T16:31:45.999Z</time></trkpt><trkpt lat="36.71013181863759" lon="14.782698411739066"><ele>5.0</ele><time>2026-04-11T16:31:46.999Z</time></trkpt><trkpt lat="36.71020249141328" lon="14.782620104674514"><ele>5.0</ele><time>2026-04-11T16:31:47.999Z</time></trkpt><trkpt lat="36.71026338546229" lon="14.782545668283156"><ele>4.8</ele><time>2026-04-11T16:31:48.999Z</time></trkpt><trkpt lat="36.710313144891884" lon="14.782475148591653"><ele>4.6</ele><time>2026-04-11T16:31:49.999Z</time></trkpt><trkpt lat="36.710353856027496" lon="14.782410239608149"><ele>4.4</ele><time>2026-04-11T16:31:50.999Z</time></trkpt><trkpt lat="36.71041439395081" lon="14.782290245866834"><ele>4.2</ele><time>2026-04-11T16:31:52.999Z</time></trkpt><trkpt lat="36.71044610700834" lon="14.782164156013886"><ele>4.0</ele><time>2026-04-11T16:31:54.999Z</time></trkpt><trkpt lat="36.7104746839162" lon="14.78202902876508"><ele>4.0</ele><time>2026-04-11T16:31:56.999Z</time></trkpt><trkpt lat="36.71049504117551" lon="14.781886955586298"><ele>4.0</ele><time>2026-04-11T16:31:58.999Z</time></trkpt><trkpt lat="36.71051790194978" lon="14.78180491036696"><ele>4.0</ele><time>2026-04-11T16:32:00.999Z</time></trkpt><trkpt lat="36.71047381539244" lon="14.781915930287576"><ele>4.0</ele><time>2026-04-11T16:32:05.999Z</time></trkpt><trkpt lat="36.71045797897425" lon="14.781762423631088"><ele>4.0</ele><time>2026-04-11T16:32:06.999Z</time></trkpt><trkpt lat="36.710436351791714" lon="14.782051246683018"><ele>3.9999999999999996</ele><time>2026-04-11T16:32:07.999Z</time></trkpt><trkpt lat="36.710391978718995" lon="14.782159260690705"><ele>4.0</ele><time>2026-04-11T16:32:09.999Z</time></trkpt><trkpt lat="36.710360941024994" lon="14.7822695006735"><ele>4.0</ele><time>2026-04-11T16:32:11.999Z</time></trkpt><trkpt lat="36.71031826425488" lon="14.782364785761413"><ele>4.0</ele><time>2026-04-11T16:32:13.999Z</time></trkpt><trkpt lat="36.71027916970509" lon="14.782447972858181"><ele>3.9999999999999996</ele><time>2026-04-11T16:32:15.999Z</time></trkpt><trkpt lat="36.710235732383495" lon="14.782514895748779"><ele>4.0</ele><time>2026-04-11T16:32:17.999Z</time></trkpt><trkpt lat="36.71020129901299" lon="14.782584570389709"><ele>3.9999999999999996</ele><time>2026-04-11T16:32:19.999Z</time></trkpt><trkpt lat="36.7102751051185" lon="14.782550982751658"><ele>4.0</ele><time>2026-04-11T16:32:22.999Z</time></trkpt><trkpt lat="36.71031042511091" lon="14.78245926477959"><ele>4.0</ele><time>2026-04-11T16:32:46Z</time></trkpt><trkpt lat="36.710358687006675" lon="14.782364640430542"><ele>4.0</ele><time>2026-04-11T16:32:48Z</time></trkpt><trkpt lat="36.710399159720566" lon="14.782298248870996"><ele>3.9999999999999996</ele><time>2026-04-11T16:33:16Z</time></trkpt><trkpt lat="36.71041309518061" lon="14.782200743137114"><ele>4.0</ele><time>2026-04-11T16:33:20Z</time></trkpt><trkpt lat="36.7104685080089" lon="14.782002270789855"><ele>4.0</ele><time>2026-04-11T16:33:22Z</time></trkpt><trkpt lat="36.71049729759717" lon="14.781863307489376"><ele>4.0</ele><time>2026-04-11T16:33:22.999Z</time></trkpt><trkpt lat="36.710523090207325" lon="14.781720278115344"><ele>4.0</ele><time>2026-04-11T16:33:23.999Z</time></trkpt><trkpt lat="36.71055694683345" lon="14.781557287838371"><ele>4.0</ele><time>2026-04-11T16:33:24.999Z</time></trkpt><trkpt lat="36.71059226855185" lon="14.781405069068285"><ele>3.9999999999999996</ele><time>2026-04-11T16:33:25.999Z</time></trkpt><trkpt lat="36.71062258564281" lon="14.781275952080279"><ele>4.0</ele><time>2026-04-11T16:33:26.999Z</time></trkpt><trkpt lat="36.71065102798295" lon="14.781162354467462"><ele>4.0</ele><time>2026-04-11T16:33:27.999Z</time></trkpt><trkpt lat="36.71068246770533" lon="14.781060833821979"><ele>4.0</ele><time>2026-04-11T16:33:28.999Z</time></trkpt><trkpt lat="36.7107228958893" lon="14.780976337890474"><ele>3.9999999999999996</ele><time>2026-04-11T16:33:29.999Z</time></trkpt><trkpt lat="36.710782692546324" lon="14.780917151385628"><ele>4.0</ele><time>2026-04-11T16:33:30.999Z</time></trkpt><trkpt lat="36.710861140246166" lon="14.780886433320912"><ele>4.0</ele><time>2026-04-11T16:33:31.999Z</time></trkpt><trkpt lat="36.71094977014233" lon="14.780875900922817"><ele>4.0</ele><time>2026-04-11T16:33:32.999Z</time></trkpt><trkpt lat="36.71104100577855" lon="14.780856558626468"><ele>4.0</ele><time>2026-04-11T16:33:33.999Z</time></trkpt><trkpt lat="36.7111336574562" lon="14.780839990600915"><ele>4.0</ele><time>2026-04-11T16:33:34.999Z</time></trkpt><trkpt lat="36.71122712754188" lon="14.78082703466131"><ele>4.0</ele><time>2026-04-11T16:33:35.999Z</time></trkpt><trkpt lat="36.71131859040958" lon="14.78081049495338"><ele>3.8000000000000003</ele><time>2026-04-11T16:33:36.999Z</time></trkpt><trkpt lat="36.7114159153409" lon="14.780798246505892"><ele>3.6000000000000005</ele><time>2026-04-11T16:33:37.999Z</time></trkpt><trkpt lat="36.711512557850305" lon="14.780796030532102"><ele>3.4</ele><time>2026-04-11T16:33:38.999Z</time></trkpt><trkpt lat="36.711608427939716" lon="14.780775705151658"><ele>3.2</ele><time>2026-04-11T16:33:39.999Z</time></trkpt><trkpt lat="36.71171538571145" lon="14.780760749972087"><ele>3.0</ele><time>2026-04-11T16:33:40.999Z</time></trkpt><trkpt lat="36.7118126551863" lon="14.780747149438193"><ele>3.25</ele><time>2026-04-11T16:33:41.999Z</time></trkpt><trkpt lat="36.71196178699166" lon="14.78072304789767"><ele>3.5</ele><time>2026-04-11T16:33:42.999Z</time></trkpt><trkpt lat="36.712091172066664" lon="14.780708212125482"><ele>3.75</ele><time>2026-04-11T16:33:43.999Z</time></trkpt><trkpt lat="36.71223456063614" lon="14.780690188252928"><ele>4.0</ele><time>2026-04-11T16:33:44.999Z</time></trkpt><trkpt lat="36.712382185483214" lon="14.780670657646997"><ele>4.0</ele><time>2026-04-11T16:33:45.999Z</time></trkpt><trkpt lat="36.71253043120685" lon="14.780649553812315"><ele>4.0</ele><time>2026-04-11T16:33:46.999Z</time></trkpt><trkpt lat="36.71267541670932" lon="14.78063118958814"><ele>4.0</ele><time>2026-04-11T16:33:47.999Z</time></trkpt><trkpt lat="36.71282320703089" lon="14.780610673626649"><ele>4.0</ele><time>2026-04-11T16:33:48.999Z</time></trkpt><trkpt lat="36.71295102334557" lon="14.780592696255537"><ele>4.800000000000001</ele><time>2026-04-11T16:33:49.999Z</time></trkpt><trkpt lat="36.71306683403939" lon="14.780562806148309"><ele>5.6000000000000005</ele><time>2026-04-11T16:33:50.999Z</time></trkpt><trkpt lat="36.71316375711981" lon="14.780504064944994"><ele>6.4</ele><time>2026-04-11T16:33:51.999Z</time></trkpt><trkpt lat="36.71322407513719" lon="14.780470616646067"><ele>7.2</ele><time>2026-04-11T16:33:52.999Z</time></trkpt><trkpt lat="36.713331244145586" lon="14.780414867677694"><ele>8.0</ele><time>2026-04-11T16:33:54.999Z</time></trkpt><trkpt lat="36.713431815160995" lon="14.780348947571524"><ele>8.0</ele><time>2026-04-11T16:33:56.999Z</time></trkpt><trkpt lat="36.71353434839633" lon="14.780276803384256"><ele>8.0</ele><time>2026-04-11T16:33:58.999Z</time></trkpt><trkpt lat="36.71361867810438" lon="14.780354908370322"><ele>8.0</ele><time>2026-04-11T16:34:05.999Z</time></trkpt><trkpt lat="36.7136593278132" lon="14.780449412935695"><ele>8.0</ele><time>2026-04-11T16:34:06.999Z</time></trkpt><trkpt lat="36.71369265827983" lon="14.780539894132547"><ele>8.0</ele><time>2026-04-11T16:34:07.999Z</time></trkpt><trkpt lat="36.713730205929366" lon="14.780636677461908"><ele>8.8</ele><time>2026-04-11T16:34:08.999Z</time></trkpt><trkpt lat="36.71377532789821" lon="14.780744132761631"><ele>9.600000000000001</ele><time>2026-04-11T16:34:09.999Z</time></trkpt><trkpt lat="36.713812493479026" lon="14.780821671944288"><ele>10.399999999999999</ele><time>2026-04-11T16:34:10.999Z</time></trkpt><trkpt lat="36.713886807913184" lon="14.78091387997052"><ele>11.2</ele><time>2026-04-11T16:34:12.999Z</time></trkpt><trkpt lat="36.713993791466024" lon="14.780829968675219"><ele>12.0</ele><time>2026-04-11T16:34:14.999Z</time></trkpt><trkpt lat="36.71409349442877" lon="14.78076967504657"><ele>12.0</ele><time>2026-04-11T16:34:15.999Z</time></trkpt><trkpt lat="36.714186404022406" lon="14.780719036041193"><ele>12.0</ele><time>2026-04-11T16:34:16.999Z</time></trkpt><trkpt lat="36.714258709414835" lon="14.780693056393428"><ele>12.0</ele><time>2026-04-11T16:34:17.999Z</time></trkpt><trkpt lat="36.71432756259237" lon="14.780661295655822"><ele>12.0</ele><time>2026-04-11T16:34:19.999Z</time></trkpt><trkpt lat="36.71441562992146" lon="14.780864096641595"><ele>12.0</ele><time>2026-04-11T16:34:22.999Z</time></trkpt><trkpt lat="36.71446025464857" lon="14.780965501449824"><ele>12.25</ele><time>2026-04-11T16:34:23.999Z</time></trkpt><trkpt lat="36.7145078272521" lon="14.781072360179811"><ele>12.5</ele><time>2026-04-11T16:34:24.999Z</time></trkpt><trkpt lat="36.714583986850556" lon="14.781233878660917"><ele>12.75</ele><time>2026-04-11T16:34:25.999Z</time></trkpt><trkpt lat="36.71467372009022" lon="14.781430506731589"><ele>13.0</ele><time>2026-04-11T16:34:26.999Z</time></trkpt><trkpt lat="36.71476022842674" lon="14.78164847516473"><ele>12.666666666666666</ele><time>2026-04-11T16:34:27.999Z</time></trkpt><trkpt lat="36.714858018308114" lon="14.781890771091243"><ele>12.333333333333332</ele><time>2026-04-11T16:34:28.999Z</time></trkpt><trkpt lat="36.71496013266385" lon="14.782149085614545"><ele>12.0</ele><time>2026-04-11T16:34:29.999Z</time></trkpt><trkpt lat="36.71504136206729" lon="14.78236309439451"><ele>12.0</ele><time>2026-04-11T16:34:30.999Z</time></trkpt><trkpt lat="36.715117167486014" lon="14.782558777570213"><ele>12.0</ele><time>2026-04-11T16:34:31.999Z</time></trkpt><trkpt lat="36.715180902979114" lon="14.78272382708247"><ele>12.0</ele><time>2026-04-11T16:34:33Z</time></trkpt><trkpt lat="36.71522874255769" lon="14.782847747275406"><ele>12.0</ele><time>2026-04-11T16:34:34Z</time></trkpt><trkpt lat="36.71526603011106" lon="14.782922451385385"><ele>13.0</ele><time>2026-04-11T16:34:35Z</time></trkpt><trkpt lat="36.715344876780875" lon="14.782921426329896"><ele>14.0</ele><time>2026-04-11T16:34:37Z</time></trkpt><trkpt lat="36.715399553428675" lon="14.782858538227696"><ele>15.0</ele><time>2026-04-11T16:34:40Z</time></trkpt><trkpt lat="36.715445728258906" lon="14.782800825230332"><ele>16.0</ele><time>2026-04-11T16:34:47Z</time></trkpt><trkpt lat="36.715387212034614" lon="14.78261883383221"><ele>17.0</ele><time>2026-04-11T16:34:48Z</time></trkpt><trkpt lat="36.715360968323694" lon="14.782525398014432"><ele>17.166666666666668</ele><time>2026-04-11T16:34:49Z</time></trkpt><trkpt lat="36.71534902507632" lon="14.782416937826465"><ele>17.333333333333336</ele><time>2026-04-11T16:34:50Z</time></trkpt><trkpt lat="36.71534436473789" lon="14.782287580170339"><ele>17.5</ele><time>2026-04-11T16:34:51Z</time></trkpt><trkpt lat="36.715341563184325" lon="14.782166193484546"><ele>17.666666666666668</ele><time>2026-04-11T16:34:52Z</time></trkpt><trkpt lat="36.71534703299572" lon="14.782069535717214"><ele>17.833333333333332</ele><time>2026-04-11T16:34:53Z</time></trkpt><trkpt lat="36.71535593321672" lon="14.781991423140573"><ele>18.0</ele><time>2026-04-11T16:34:54Z</time></trkpt><trkpt lat="36.7153690725725" lon="14.781830632103325"><ele>18.2</ele><time>2026-04-11T16:34:56Z</time></trkpt><trkpt lat="36.71537883175483" lon="14.78172965192165"><ele>18.4</ele><time>2026-04-11T16:34:57Z</time></trkpt><trkpt lat="36.71539143936848" lon="14.781617962598173"><ele>18.599999999999998</ele><time>2026-04-11T16:34:58Z</time></trkpt><trkpt lat="36.71539603947797" lon="14.781494607633679"><ele>18.8</ele><time>2026-04-11T16:34:59Z</time></trkpt><trkpt lat="36.715391883632414" lon="14.781370407869838"><ele>19.0</ele><time>2026-04-11T16:35:00Z</time></trkpt><trkpt lat="36.71536679639621" lon="14.78123242595942"><ele>19.0</ele><time>2026-04-11T16:35:01Z</time></trkpt><trkpt lat="36.715326858860884" lon="14.781091280312866"><ele>19.0</ele><time>2026-04-11T16:35:02Z</time></trkpt><trkpt lat="36.71528713020744" lon="14.780968273585113"><ele>19.0</ele><time>2026-04-11T16:35:03Z</time></trkpt><trkpt lat="36.715250524059826" lon="14.780862296785969"><ele>19.0</ele><time>2026-04-11T16:35:04Z</time></trkpt><trkpt lat="36.71521594249173" lon="14.780771525344663"><ele>19.0</ele><time>2026-04-11T16:35:05Z</time></trkpt><trkpt lat="36.71517712874641" lon="14.780666340776257"><ele>18.8</ele><time>2026-04-11T16:35:06Z</time></trkpt><trkpt lat="36.71513381017767" lon="14.780549966655318"><ele>18.599999999999998</ele><time>2026-04-11T16:35:07Z</time></trkpt><trkpt lat="36.71509035241064" lon="14.78043075430658"><ele>18.4</ele><time>2026-04-11T16:35:08Z</time></trkpt><trkpt lat="36.71505320845935" lon="14.780322952478373"><ele>18.2</ele><time>2026-04-11T16:35:09Z</time></trkpt><trkpt lat="36.71502030134525" lon="14.780229428086848"><ele>18.0</ele><time>2026-04-11T16:35:10Z</time></trkpt><trkpt lat="36.71498654581992" lon="14.780134925370357"><ele>18.0</ele><time>2026-04-11T16:35:11Z</time></trkpt><trkpt lat="36.71495212163589" lon="14.7800357990476"><ele>18.0</ele><time>2026-04-11T16:35:12Z</time></trkpt><trkpt lat="36.7149144504011" lon="14.779932722165116"><ele>18.0</ele><time>2026-04-11T16:35:13Z</time></trkpt><trkpt lat="36.714878343623624" lon="14.779829977146829"><ele>18.0</ele><time>2026-04-11T16:35:14Z</time></trkpt><trkpt lat="36.71484428620878" lon="14.779736331117299"><ele>18.0</ele><time>2026-04-11T16:35:15Z</time></trkpt><trkpt lat="36.71480983336023" lon="14.77963599895964"><ele>18.0</ele><time>2026-04-11T16:35:16Z</time></trkpt><trkpt lat="36.71476973581996" lon="14.779538947478015"><ele>18.000000000000004</ele><time>2026-04-11T16:35:17Z</time></trkpt><trkpt lat="36.714737614230685" lon="14.779457003596212"><ele>18.0</ele><time>2026-04-11T16:35:18Z</time></trkpt><trkpt lat="36.714711112648615" lon="14.779378260146752"><ele>18.0</ele><time>2026-04-11T16:35:19Z</time></trkpt><trkpt lat="36.71467654553918" lon="14.77929107535745"><ele>18.0</ele><time>2026-04-11T16:35:20Z</time></trkpt><trkpt lat="36.71463908100926" lon="14.779197576410862"><ele>18.0</ele><time>2026-04-11T16:35:21Z</time></trkpt><trkpt lat="36.714606136286775" lon="14.779111335976427"><ele>18.000000000000004</ele><time>2026-04-11T16:35:22Z</time></trkpt><trkpt lat="36.714582235372276" lon="14.779033161168476"><ele>18.0</ele><time>2026-04-11T16:35:23Z</time></trkpt><trkpt lat="36.71456567632635" lon="14.778953696368562"><ele>18.28571428571429</ele><time>2026-04-11T16:35:24Z</time></trkpt><trkpt lat="36.714556718442296" lon="14.778874947399931"><ele>18.571428571428573</ele><time>2026-04-11T16:35:25Z</time></trkpt><trkpt lat="36.71456299929945" lon="14.778785968273754"><ele>18.857142857142858</ele><time>2026-04-11T16:35:26Z</time></trkpt><trkpt lat="36.7145676051002" lon="14.778703447169063"><ele>19.142857142857146</ele><time>2026-04-11T16:35:27Z</time></trkpt><trkpt lat="36.714571277986124" lon="14.778616684988872"><ele>19.42857142857143</ele><time>2026-04-11T16:35:28Z</time></trkpt><trkpt lat="36.714572536906466" lon="14.778519610967413"><ele>19.714285714285715</ele><time>2026-04-11T16:35:28.999Z</time></trkpt><trkpt lat="36.7145749967273" lon="14.778421196493275"><ele>20.0</ele><time>2026-04-11T16:35:29.999Z</time></trkpt><trkpt lat="36.714563256283" lon="14.778299000618873"><ele>20.166666666666668</ele><time>2026-04-11T16:35:30.999Z</time></trkpt><trkpt lat="36.71456891766718" lon="14.778188544142438"><ele>20.333333333333336</ele><time>2026-04-11T16:35:31.999Z</time></trkpt><trkpt lat="36.71456910109638" lon="14.778074902198354"><ele>20.5</ele><time>2026-04-11T16:35:32.999Z</time></trkpt><trkpt lat="36.714578630207434" lon="14.777969192701978"><ele>20.666666666666668</ele><time>2026-04-11T16:35:33.999Z</time></trkpt><trkpt lat="36.71457550921019" lon="14.777865997403103"><ele>20.833333333333332</ele><time>2026-04-11T16:35:34.999Z</time></trkpt><trkpt lat="36.71457730242271" lon="14.777762832797935"><ele>21.0</ele><time>2026-04-11T16:35:35.999Z</time></trkpt><trkpt lat="36.71457598011493" lon="14.777661843780038"><ele>21.166666666666668</ele><time>2026-04-11T16:35:36.999Z</time></trkpt><trkpt lat="36.714574654546524" lon="14.777566268551094"><ele>21.333333333333332</ele><time>2026-04-11T16:35:37.999Z</time></trkpt><trkpt lat="36.714574811853765" lon="14.77747683326937"><ele>21.5</ele><time>2026-04-11T16:35:38.999Z</time></trkpt><trkpt lat="36.71457409927389" lon="14.777393562861807"><ele>21.666666666666664</ele><time>2026-04-11T16:35:39.999Z</time></trkpt><trkpt lat="36.71457331835897" lon="14.777288862323717"><ele>21.833333333333332</ele><time>2026-04-11T16:35:40.999Z</time></trkpt><trkpt lat="36.71457560971553" lon="14.77717709627488"><ele>22.0</ele><time>2026-04-11T16:35:41.999Z</time></trkpt><trkpt lat="36.7145746171742" lon="14.777058510079588"><ele>22.0</ele><time>2026-04-11T16:35:42.999Z</time></trkpt><trkpt lat="36.714575496462835" lon="14.776935173361847"><ele>22.0</ele><time>2026-04-11T16:35:43.999Z</time></trkpt><trkpt lat="36.714574805392395" lon="14.776810055603438"><ele>22.0</ele><time>2026-04-11T16:35:44.999Z</time></trkpt><trkpt lat="36.7145803594809" lon="14.776680437815857"><ele>22.0</ele><time>2026-04-11T16:35:45.999Z</time></trkpt><trkpt lat="36.71457814002336" lon="14.776548783938482"><ele>22.0</ele><time>2026-04-11T16:35:46.999Z</time></trkpt><trkpt lat="36.71457483408085" lon="14.776428930495115"><ele>22.166666666666664</ele><time>2026-04-11T16:35:47.999Z</time></trkpt><trkpt lat="36.71457801254358" lon="14.776322081115616"><ele>22.333333333333332</ele><time>2026-04-11T16:35:48.999Z</time></trkpt><trkpt lat="36.714579721071104" lon="14.776231914298888"><ele>22.5</ele><time>2026-04-11T16:35:49.999Z</time></trkpt><trkpt lat="36.71457544009077" lon="14.77613030306109"><ele>22.666666666666668</ele><time>2026-04-11T16:35:50.999Z</time></trkpt><trkpt lat="36.71457910004026" lon="14.776036223335696"><ele>22.833333333333336</ele><time>2026-04-11T16:35:51.999Z</time></trkpt><trkpt lat="36.7145805301165" lon="14.775938579715609"><ele>23.0</ele><time>2026-04-11T16:35:52.999Z</time></trkpt><trkpt lat="36.71457768118658" lon="14.775845220852146"><ele>23.166666666666668</ele><time>2026-04-11T16:35:53.999Z</time></trkpt><trkpt lat="36.71458002415328" lon="14.77576384003151"><ele>23.333333333333336</ele><time>2026-04-11T16:35:54.999Z</time></trkpt><trkpt lat="36.714553186833534" lon="14.775643552114397"><ele>23.5</ele><time>2026-04-11T16:35:56.999Z</time></trkpt><trkpt lat="36.71446187472421" lon="14.775582142773702"><ele>23.666666666666668</ele><time>2026-04-11T16:35:58.999Z</time></trkpt><trkpt lat="36.71439518209541" lon="14.775567032668778"><ele>23.833333333333332</ele><time>2026-04-11T16:35:59.999Z</time></trkpt><trkpt lat="36.714325186700606" lon="14.77553041888294"><ele>24.0</ele><time>2026-04-11T16:36:00.999Z</time></trkpt><trkpt lat="36.714244532611666" lon="14.775493751822264"><ele>23.5</ele><time>2026-04-11T16:36:01.999Z</time></trkpt><trkpt lat="36.71416789404266" lon="14.775457508794153"><ele>23.0</ele><time>2026-04-11T16:36:02.999Z</time></trkpt><trkpt lat="36.7140977322452" lon="14.775426590486365"><ele>22.5</ele><time>2026-04-11T16:36:03.999Z</time></trkpt><trkpt lat="36.71402853727459" lon="14.775396117715866"><ele>22.0</ele><time>2026-04-11T16:36:04.999Z</time></trkpt><trkpt lat="36.71396159657951" lon="14.775368668581562"><ele>21.5</ele><time>2026-04-11T16:36:05.999Z</time></trkpt><trkpt lat="36.71389891372901" lon="14.775341467205992"><ele>21.0</ele><time>2026-04-11T16:36:06.999Z</time></trkpt><trkpt lat="36.71382183116579" lon="14.77530164860609"><ele>21.6</ele><time>2026-04-11T16:36:08.999Z</time></trkpt><trkpt lat="36.71383629829127" lon="14.775186780319153"><ele>22.200000000000003</ele><time>2026-04-11T16:36:11.999Z</time></trkpt><trkpt lat="36.71386120942349" lon="14.775099724654156"><ele>22.799999999999997</ele><time>2026-04-11T16:36:14.999Z</time></trkpt><trkpt lat="36.71389027523719" lon="14.775004676931886"><ele>23.4</ele><time>2026-04-11T16:36:28.999Z</time></trkpt><trkpt lat="36.713949184664386" lon="14.774828649057223"><ele>24.0</ele><time>2026-04-11T16:36:30.999Z</time></trkpt><trkpt lat="36.713983522052004" lon="14.774714231744106"><ele>24.0</ele><time>2026-04-11T16:36:31.999Z</time></trkpt><trkpt lat="36.71401351608691" lon="14.774611415203992"><ele>24.0</ele><time>2026-04-11T16:36:32.999Z</time></trkpt><trkpt lat="36.71403753004341" lon="14.774501656577598"><ele>24.0</ele><time>2026-04-11T16:36:33.999Z</time></trkpt><trkpt lat="36.71405230188118" lon="14.774393190790631"><ele>24.0</ele><time>2026-04-11T16:36:34.999Z</time></trkpt><trkpt lat="36.71403471002878" lon="14.7742559705318"><ele>24.0</ele><time>2026-04-11T16:36:35.999Z</time></trkpt><trkpt lat="36.71404324303334" lon="14.77411841111334"><ele>23.799999999999997</ele><time>2026-04-11T16:36:36.999Z</time></trkpt><trkpt lat="36.71403750152606" lon="14.773988114688368"><ele>23.599999999999998</ele><time>2026-04-11T16:36:37.999Z</time></trkpt><trkpt lat="36.71402481812903" lon="14.773852597929105"><ele>23.4</ele><time>2026-04-11T16:36:39Z</time></trkpt><trkpt lat="36.714017832079016" lon="14.773717692949733"><ele>23.2</ele><time>2026-04-11T16:36:40Z</time></trkpt><trkpt lat="36.71400645026969" lon="14.773585518691476"><ele>23.0</ele><time>2026-04-11T16:36:41Z</time></trkpt><trkpt lat="36.71400251044491" lon="14.773446220669479"><ele>23.4</ele><time>2026-04-11T16:36:42Z</time></trkpt><trkpt lat="36.71399294595385" lon="14.77330661997209"><ele>23.799999999999997</ele><time>2026-04-11T16:36:43Z</time></trkpt><trkpt lat="36.71398420774733" lon="14.773168086105276"><ele>24.2</ele><time>2026-04-11T16:36:44Z</time></trkpt><trkpt lat="36.71397617884297" lon="14.773075952977637"><ele>24.6</ele><time>2026-04-11T16:36:45Z</time></trkpt><trkpt lat="36.71396487596804" lon="14.772956009930407"><ele>25.0</ele><time>2026-04-11T16:36:49Z</time></trkpt><trkpt lat="36.713954319928504" lon="14.772866733862982"><ele>25.0</ele><time>2026-04-11T16:36:50Z</time></trkpt><trkpt lat="36.713958687713685" lon="14.772750163713782"><ele>25.0</ele><time>2026-04-11T16:36:51Z</time></trkpt><trkpt lat="36.71394964384839" lon="14.772638785923657"><ele>25.0</ele><time>2026-04-11T16:36:52Z</time></trkpt><trkpt lat="36.71394461346669" lon="14.772501015261954"><ele>25.0</ele><time>2026-04-11T16:36:53Z</time></trkpt><trkpt lat="36.71393449448226" lon="14.772344681277392"><ele>25.0</ele><time>2026-04-11T16:36:54Z</time></trkpt><trkpt lat="36.71392921966672" lon="14.772171223798958"><ele>25.25</ele><time>2026-04-11T16:36:55Z</time></trkpt><trkpt lat="36.713922691601" lon="14.772003966127413"><ele>25.5</ele><time>2026-04-11T16:36:56Z</time></trkpt><trkpt lat="36.71391257043132" lon="14.7718566451253"><ele>25.75</ele><time>2026-04-11T16:36:57Z</time></trkpt><trkpt lat="36.71390513176928" lon="14.771721059623708"><ele>26.0</ele><time>2026-04-11T16:36:58Z</time></trkpt><trkpt lat="36.713899438494245" lon="14.771589452945316"><ele>25.4</ele><time>2026-04-11T16:36:59Z</time></trkpt><trkpt lat="36.713898891045865" lon="14.771468678547258"><ele>24.8</ele><time>2026-04-11T16:37:00Z</time></trkpt><trkpt lat="36.71389392284401" lon="14.771346893721745"><ele>24.2</ele><time>2026-04-11T16:37:01Z</time></trkpt><trkpt lat="36.713885845723716" lon="14.771214812999705"><ele>23.599999999999998</ele><time>2026-04-11T16:37:02Z</time></trkpt><trkpt lat="36.71387436519733" lon="14.77107984603684"><ele>23.0</ele><time>2026-04-11T16:37:03Z</time></trkpt><trkpt lat="36.71386368528144" lon="14.77093814961045"><ele>22.799999999999997</ele><time>2026-04-11T16:37:04Z</time></trkpt><trkpt lat="36.7138565325102" lon="14.770806755694474"><ele>22.6</ele><time>2026-04-11T16:37:05Z</time></trkpt><trkpt lat="36.713848617454246" lon="14.770683805052162"><ele>22.4</ele><time>2026-04-11T16:37:06Z</time></trkpt><trkpt lat="36.71384149555293" lon="14.770570903649062"><ele>22.200000000000003</ele><time>2026-04-11T16:37:07Z</time></trkpt><trkpt lat="36.71383880486617" lon="14.770469192697147"><ele>22.0</ele><time>2026-04-11T16:37:08Z</time></trkpt><trkpt lat="36.71383698866936" lon="14.770371112189105"><ele>22.0</ele><time>2026-04-11T16:37:09Z</time></trkpt><trkpt lat="36.71384173355285" lon="14.770292432787407"><ele>22.0</ele><time>2026-04-11T16:37:10Z</time></trkpt><trkpt lat="36.71383101364593" lon="14.770190879086904"><ele>22.0</ele><time>2026-04-11T16:37:12Z</time></trkpt><trkpt lat="36.713827613965094" lon="14.77010819984369"><ele>22.0</ele><time>2026-04-11T16:37:17Z</time></trkpt><trkpt lat="36.713800967193286" lon="14.770013995533457"><ele>22.0</ele><time>2026-04-11T16:37:22Z</time></trkpt><trkpt lat="36.71359636906979" lon="14.770003955283945"><ele>21.166666666666664</ele><time>2026-04-11T16:37:25Z</time></trkpt><trkpt lat="36.71352469866185" lon="14.770007640001928"><ele>20.333333333333332</ele><time>2026-04-11T16:37:26Z</time></trkpt><trkpt lat="36.71344522460961" lon="14.770017435960625"><ele>19.5</ele><time>2026-04-11T16:37:27Z</time></trkpt><trkpt lat="36.71336443530824" lon="14.770024565354676"><ele>18.666666666666668</ele><time>2026-04-11T16:37:28Z</time></trkpt><trkpt lat="36.713280319057155" lon="14.770034094306816"><ele>17.833333333333336</ele><time>2026-04-11T16:37:29Z</time></trkpt><trkpt lat="36.71318750744111" lon="14.770045774500076"><ele>17.0</ele><time>2026-04-11T16:37:30Z</time></trkpt><trkpt lat="36.71309086359526" lon="14.77006155353202"><ele>17.0</ele><time>2026-04-11T16:37:31Z</time></trkpt><trkpt lat="36.71298409815058" lon="14.77006930688294"><ele>17.0</ele><time>2026-04-11T16:37:32Z</time></trkpt><trkpt lat="36.71287143237381" lon="14.77007637364358"><ele>17.0</ele><time>2026-04-11T16:37:33Z</time></trkpt><trkpt lat="36.71275734709181" lon="14.77008554599479"><ele>17.0</ele><time>2026-04-11T16:37:33.999Z</time></trkpt><trkpt lat="36.712651278364" lon="14.770093710956163"><ele>17.0</ele><time>2026-04-11T16:37:34.999Z</time></trkpt><trkpt lat="36.71256200555856" lon="14.770099453762066"><ele>16.333333333333336</ele><time>2026-04-11T16:37:35.999Z</time></trkpt><trkpt lat="36.71247603034062" lon="14.77010788243572"><ele>15.666666666666668</ele><time>2026-04-11T16:37:36.999Z</time></trkpt><trkpt lat="36.71239099881184" lon="14.77011533896752"><ele>15.0</ele><time>2026-04-11T16:37:37.999Z</time></trkpt><trkpt lat="36.712305123098545" lon="14.770119355327985"><ele>14.333333333333332</ele><time>2026-04-11T16:37:38.999Z</time></trkpt><trkpt lat="36.71221993710004" lon="14.770123172909939"><ele>13.666666666666666</ele><time>2026-04-11T16:37:39.999Z</time></trkpt><trkpt lat="36.71213105768419" lon="14.770130387857625"><ele>13.0</ele><time>2026-04-11T16:37:40.999Z</time></trkpt><trkpt lat="36.712040992790364" lon="14.770137547464868"><ele>12.999999999999998</ele><time>2026-04-11T16:37:41.999Z</time></trkpt><trkpt lat="36.71194901553181" lon="14.770143247726718"><ele>13.0</ele><time>2026-04-11T16:37:42.999Z</time></trkpt><trkpt lat="36.71186476669702" lon="14.77014955989008"><ele>13.0</ele><time>2026-04-11T16:37:43.999Z</time></trkpt><trkpt lat="36.711779450207956" lon="14.770160695157369"><ele>13.0</ele><time>2026-04-11T16:37:44.999Z</time></trkpt><trkpt lat="36.7116935405448" lon="14.770168254519144"><ele>12.999999999999998</ele><time>2026-04-11T16:37:45.999Z</time></trkpt><trkpt lat="36.71161968597162" lon="14.770173752174141"><ele>13.0</ele><time>2026-04-11T16:37:46.999Z</time></trkpt><trkpt lat="36.71151162085427" lon="14.770183075617016"><ele>12.0</ele><time>2026-04-11T16:37:48.999Z</time></trkpt><trkpt lat="36.7114227359684" lon="14.770184766717476"><ele>11.0</ele><time>2026-04-11T16:37:51.999Z</time></trkpt><trkpt lat="36.711405524947345" lon="14.769990418377262"><ele>10.0</ele><time>2026-04-11T16:37:54.999Z</time></trkpt><trkpt lat="36.711402949069125" lon="14.769885314659167"><ele>9.0</ele><time>2026-04-11T16:37:55.999Z</time></trkpt><trkpt lat="36.7113967738474" lon="14.76978853489783"><ele>8.0</ele><time>2026-04-11T16:37:56.999Z</time></trkpt><trkpt lat="36.71139386035633" lon="14.769681031365213"><ele>7.999999999999999</ele><time>2026-04-11T16:37:57.999Z</time></trkpt><trkpt lat="36.7113901856798" lon="14.769566090049096"><ele>8.0</ele><time>2026-04-11T16:37:58.999Z</time></trkpt><trkpt lat="36.71138667985483" lon="14.769455866881614"><ele>8.0</ele><time>2026-04-11T16:37:59.999Z</time></trkpt><trkpt lat="36.71138161790254" lon="14.769359013862973"><ele>8.0</ele><time>2026-04-11T16:38:00.999Z</time></trkpt><trkpt lat="36.711374210771105" lon="14.76926826493421"><ele>7.999999999999999</ele><time>2026-04-11T16:38:01.999Z</time></trkpt><trkpt lat="36.71136782482581" lon="14.76918743522323"><ele>8.0</ele><time>2026-04-11T16:38:02.999Z</time></trkpt><trkpt lat="36.71135743874247" lon="14.76904022688328"><ele>8.0</ele><time>2026-04-11T16:38:04.999Z</time></trkpt><trkpt lat="36.71134991743136" lon="14.768943849317578"><ele>8.0</ele><time>2026-04-11T16:38:06.999Z</time></trkpt><trkpt lat="36.71118835854562" lon="14.768893509368587"><ele>8.0</ele><time>2026-04-11T16:38:10.999Z</time></trkpt><trkpt lat="36.711119025863425" lon="14.76887876213459"><ele>8.0</ele><time>2026-04-11T16:38:11.999Z</time></trkpt><trkpt lat="36.71102395653007" lon="14.768885602650812"><ele>8.0</ele><time>2026-04-11T16:38:13.999Z</time></trkpt><trkpt lat="36.71096364227655" lon="14.768811659276839"><ele>6.75</ele><time>2026-04-11T16:38:16.999Z</time></trkpt><trkpt lat="36.710975346895246" lon="14.768675162035995"><ele>5.5</ele><time>2026-04-11T16:38:18.999Z</time></trkpt><trkpt lat="36.71097808635157" lon="14.768533671559203"><ele>4.25</ele><time>2026-04-11T16:38:19.999Z</time></trkpt><trkpt lat="36.71097774287356" lon="14.768378711873275"><ele>3.0</ele><time>2026-04-11T16:38:20.999Z</time></trkpt><trkpt lat="36.710961046723845" lon="14.768224124060678"><ele>2.8</ele><time>2026-04-11T16:38:21.999Z</time></trkpt><trkpt lat="36.71094333871664" lon="14.768081131427687"><ele>2.5999999999999996</ele><time>2026-04-11T16:38:22.999Z</time></trkpt><trkpt lat="36.710916495533546" lon="14.767956327828374"><ele>2.4000000000000004</ele><time>2026-04-11T16:38:23.999Z</time></trkpt><trkpt lat="36.71092371280698" lon="14.7678369413758"><ele>2.2</ele><time>2026-04-11T16:38:24.999Z</time></trkpt><trkpt lat="36.71091940094478" lon="14.767718604977617"><ele>2.0</ele><time>2026-04-11T16:38:25.999Z</time></trkpt><trkpt lat="36.71092659553316" lon="14.767599342767289"><ele>2.0</ele><time>2026-04-11T16:38:26.999Z</time></trkpt><trkpt lat="36.710919428482796" lon="14.767458003607242"><ele>2.0</ele><time>2026-04-11T16:38:27.999Z</time></trkpt><trkpt lat="36.710932696179455" lon="14.767306649550866"><ele>2.0</ele><time>2026-04-11T16:38:28.999Z</time></trkpt><trkpt lat="36.710934570240646" lon="14.767156471942652"><ele>2.0</ele><time>2026-04-11T16:38:29.999Z</time></trkpt><trkpt lat="36.710924461009114" lon="14.76699451209601"><ele>1.5</ele><time>2026-04-11T16:38:30.999Z</time></trkpt><trkpt lat="36.710912680717904" lon="14.766835085457954"><ele>1.0</ele><time>2026-04-11T16:38:31.999Z</time></trkpt><trkpt lat="36.710908433452104" lon="14.76669009939436"><ele>0.5</ele><time>2026-04-11T16:38:32.999Z</time></trkpt><trkpt lat="36.71090877247082" lon="14.766542223954763"><ele>0.0</ele><time>2026-04-11T16:38:33.999Z</time></trkpt><trkpt lat="36.71090493448924" lon="14.766390619632576"><ele>0.0</ele><time>2026-04-11T16:38:34.999Z</time></trkpt><trkpt lat="36.71089651819599" lon="14.766246025669606"><ele>0.0</ele><time>2026-04-11T16:38:35.999Z</time></trkpt><trkpt lat="36.71088471755569" lon="14.766125363754348"><ele>0.0</ele><time>2026-04-11T16:38:36.999Z</time></trkpt><trkpt lat="36.71087364624514" lon="14.7660098179007"><ele>0.0</ele><time>2026-04-11T16:38:37.999Z</time></trkpt><trkpt lat="36.71086904637909" lon="14.765888417897486"><ele>0.0</ele><time>2026-04-11T16:38:38.999Z</time></trkpt><trkpt lat="36.7108687643601" lon="14.765776035258607"><ele>0.16666666666666666</ele><time>2026-04-11T16:38:39.999Z</time></trkpt><trkpt lat="36.71086148544273" lon="14.765669229283521"><ele>0.3333333333333333</ele><time>2026-04-11T16:38:40.999Z</time></trkpt><trkpt lat="36.71085364405592" lon="14.765585705872926"><ele>0.5</ele><time>2026-04-11T16:38:41.999Z</time></trkpt><trkpt lat="36.71085268629745" lon="14.765499023941503"><ele>0.6666666666666666</ele><time>2026-04-11T16:38:42.999Z</time></trkpt><trkpt lat="36.71084790466427" lon="14.765354955489304"><ele>0.8333333333333333</ele><time>2026-04-11T16:38:45Z</time></trkpt><trkpt lat="36.710848640277455" lon="14.765260597179307"><ele>1.0</ele><time>2026-04-11T16:38:46Z</time></trkpt><trkpt lat="36.710845578760136" lon="14.765149776498058"><ele>1.0</ele><time>2026-04-11T16:38:47Z</time></trkpt><trkpt lat="36.710839100298344" lon="14.76502658006493"><ele>1.0</ele><time>2026-04-11T16:38:48Z</time></trkpt><trkpt lat="36.71082314140818" lon="14.764906685438373"><ele>1.0</ele><time>2026-04-11T16:38:49Z</time></trkpt><trkpt lat="36.71081687815459" lon="14.76478533151533"><ele>1.0</ele><time>2026-04-11T16:38:50Z</time></trkpt><trkpt lat="36.71081736425557" lon="14.764671045656733"><ele>1.0</ele><time>2026-04-11T16:38:51Z</time></trkpt><trkpt lat="36.7108161929401" lon="14.764564193332339"><ele>0.9999999999999999</ele><time>2026-04-11T16:38:52Z</time></trkpt><trkpt lat="36.71079240257035" lon="14.76445820161278"><ele>1.0</ele><time>2026-04-11T16:38:53Z</time></trkpt><trkpt lat="36.71076161048759" lon="14.764362508679879"><ele>1.0</ele><time>2026-04-11T16:38:54Z</time></trkpt><trkpt lat="36.71073679949759" lon="14.76426644529684"><ele>1.0</ele><time>2026-04-11T16:38:55Z</time></trkpt><trkpt lat="36.71071847170946" lon="14.764159237425524"><ele>0.9999999999999999</ele><time>2026-04-11T16:38:56Z</time></trkpt><trkpt lat="36.7107085839046" lon="14.764035498573884"><ele>1.0</ele><time>2026-04-11T16:38:57Z</time></trkpt><trkpt lat="36.71068271837242" lon="14.763937269278001"><ele>1.2000000000000002</ele><time>2026-04-11T16:38:58Z</time></trkpt><trkpt lat="36.71065212960274" lon="14.763866607906149"><ele>1.4000000000000001</ele><time>2026-04-11T16:38:59Z</time></trkpt><trkpt lat="36.71060882654027" lon="14.7637503341875"><ele>1.6</ele><time>2026-04-11T16:39:01Z</time></trkpt><trkpt lat="36.71059866374849" lon="14.76363152283032"><ele>1.8</ele><time>2026-04-11T16:39:03Z</time></trkpt><trkpt lat="36.710600497955994" lon="14.763486300143056"><ele>2.0</ele><time>2026-04-11T16:39:05Z</time></trkpt><trkpt lat="36.71058555061126" lon="14.763390053118986"><ele>2.333333333333333</ele><time>2026-04-11T16:39:06Z</time></trkpt><trkpt lat="36.71057280800093" lon="14.763293013325608"><ele>2.6666666666666665</ele><time>2026-04-11T16:39:07Z</time></trkpt><trkpt lat="36.71055925649474" lon="14.763195509566819"><ele>3.0</ele><time>2026-04-11T16:39:08Z</time></trkpt><trkpt lat="36.71052875027084" lon="14.76311315586942"><ele>3.333333333333333</ele><time>2026-04-11T16:39:09Z</time></trkpt><trkpt lat="36.71052721570454" lon="14.763010579976301"><ele>3.6666666666666665</ele><time>2026-04-11T16:39:10Z</time></trkpt><trkpt lat="36.710473512391935" lon="14.762860568065872"><ele>4.0</ele><time>2026-04-11T16:39:12Z</time></trkpt><trkpt lat="36.710465900862125" lon="14.762765020869077"><ele>4.142857142857142</ele><time>2026-04-11T16:39:13Z</time></trkpt><trkpt lat="36.710446749162394" lon="14.762683571613437"><ele>4.285714285714286</ele><time>2026-04-11T16:39:14Z</time></trkpt><trkpt lat="36.71041659503577" lon="14.76261124828232"><ele>4.428571428571429</ele><time>2026-04-11T16:39:15Z</time></trkpt><trkpt lat="36.71042027465424" lon="14.76252958776478"><ele>4.571428571428571</ele><time>2026-04-11T16:39:16Z</time></trkpt><trkpt lat="36.710441953996394" lon="14.762388155044523"><ele>4.714285714285714</ele><time>2026-04-11T16:39:18Z</time></trkpt><trkpt lat="36.71044952453066" lon="14.762309472595694"><ele>4.857142857142857</ele><time>2026-04-11T16:39:19Z</time></trkpt><trkpt lat="36.71043460930961" lon="14.762227919607628"><ele>5.0</ele><time>2026-04-11T16:39:20Z</time></trkpt><trkpt lat="36.71041571580905" lon="14.762147923052366"><ele>5.0</ele><time>2026-04-11T16:39:21Z</time></trkpt><trkpt lat="36.71038746957888" lon="14.761995239080806"><ele>5.0</ele><time>2026-04-11T16:39:23Z</time></trkpt><trkpt lat="36.71039664364526" lon="14.761830131790823"><ele>5.0</ele><time>2026-04-11T16:39:25Z</time></trkpt><trkpt lat="36.710394990372656" lon="14.761741389162705"><ele>5.0</ele><time>2026-04-11T16:39:26Z</time></trkpt><trkpt lat="36.71039064809216" lon="14.761662637449271"><ele>5.0</ele><time>2026-04-11T16:39:27Z</time></trkpt><trkpt lat="36.71038107780704" lon="14.761548599249773"><ele>5.0</ele><time>2026-04-11T16:39:29Z</time></trkpt><trkpt lat="36.71039678717119" lon="14.761432801935655"><ele>5.0</ele><time>2026-04-11T16:39:31Z</time></trkpt><trkpt lat="36.71038528425073" lon="14.761354886941787"><ele>5.0</ele><time>2026-04-11T16:39:32Z</time></trkpt><trkpt lat="36.71040501138555" lon="14.761273831377922"><ele>5.0</ele><time>2026-04-11T16:39:33Z</time></trkpt><trkpt lat="36.71041573597724" lon="14.761169414028746"><ele>5.0</ele><time>2026-04-11T16:39:34Z</time></trkpt><trkpt lat="36.7104272412241" lon="14.761043027947757"><ele>5.0</ele><time>2026-04-11T16:39:35Z</time></trkpt><trkpt lat="36.710439871828065" lon="14.760895052635327"><ele>5.0</ele><time>2026-04-11T16:39:36Z</time></trkpt><trkpt lat="36.71045682474733" lon="14.760774638545183"><ele>5.0</ele><time>2026-04-11T16:39:37Z</time></trkpt><trkpt lat="36.71045765639948" lon="14.76067878646303"><ele>5.0</ele><time>2026-04-11T16:39:38Z</time></trkpt><trkpt lat="36.7104399028351" lon="14.760570014461663"><ele>5.0</ele><time>2026-04-11T16:39:40Z</time></trkpt><trkpt lat="36.710473737943495" lon="14.760489720252158"><ele>5.0</ele><time>2026-04-11T16:39:42Z</time></trkpt><trkpt lat="36.710527122371836" lon="14.760397675794268"><ele>5.0</ele><time>2026-04-11T16:39:44Z</time></trkpt><trkpt lat="36.710553608030274" lon="14.760250339854503"><ele>5.0</ele><time>2026-04-11T16:39:45.999Z</time></trkpt><trkpt lat="36.71059916079971" lon="14.76013285148612"><ele>5.0</ele><time>2026-04-11T16:39:47.999Z</time></trkpt><trkpt lat="36.710617717698646" lon="14.760010720307129"><ele>5.0</ele><time>2026-04-11T16:39:49.999Z</time></trkpt><trkpt lat="36.71061550954846" lon="14.759921938426327"><ele>5.0</ele><time>2026-04-11T16:41:13Z</time></trkpt><trkpt lat="36.71065042060986" lon="14.759747843405515"><ele>5.0</ele><time>2026-04-11T16:41:15Z</time></trkpt><trkpt lat="36.71067885433631" lon="14.759639404188059"><ele>5.0</ele><time>2026-04-11T16:41:16Z</time></trkpt><trkpt lat="36.71067886304434" lon="14.759550262398651"><ele>5.0</ele><time>2026-04-11T16:41:17Z</time></trkpt><trkpt lat="36.710650720107225" lon="14.759456560001185"><ele>5.0</ele><time>2026-04-11T16:41:18Z</time></trkpt><trkpt lat="36.710619872108445" lon="14.759368084411488"><ele>5.0</ele><time>2026-04-11T16:41:19Z</time></trkpt><trkpt lat="36.710610597493115" lon="14.759235512018721"><ele>5.0</ele><time>2026-04-11T16:41:21Z</time></trkpt><trkpt lat="36.71063754328328" lon="14.759096430848116"><ele>4.833333333333334</ele><time>2026-04-11T16:41:23Z</time></trkpt><trkpt lat="36.710646635265135" lon="14.75899979728184"><ele>4.666666666666667</ele><time>2026-04-11T16:41:24Z</time></trkpt><trkpt lat="36.710653866237344" lon="14.758895664032181"><ele>4.5</ele><time>2026-04-11T16:41:25Z</time></trkpt><trkpt lat="36.71066894537478" lon="14.758807757303234"><ele>4.333333333333333</ele><time>2026-04-11T16:41:26Z</time></trkpt><trkpt lat="36.71067207685892" lon="14.758714476473306"><ele>4.166666666666666</ele><time>2026-04-11T16:41:27Z</time></trkpt><trkpt lat="36.710673127036195" lon="14.758620790299258"><ele>4.0</ele><time>2026-04-11T16:41:28Z</time></trkpt><trkpt lat="36.71067441156275" lon="14.758513903244463"><ele>4.0</ele><time>2026-04-11T16:41:29Z</time></trkpt><trkpt lat="36.71069925640195" lon="14.758402918369653"><ele>3.9999999999999996</ele><time>2026-04-11T16:41:30Z</time></trkpt><trkpt lat="36.71068049913376" lon="14.758309578817933"><ele>4.0</ele><time>2026-04-11T16:41:31Z</time></trkpt><trkpt lat="36.71069798561913" lon="14.758233337297154"><ele>4.0</ele><time>2026-04-11T16:41:32Z</time></trkpt><trkpt lat="36.71071281094591" lon="14.75815200907514"><ele>3.9999999999999996</ele><time>2026-04-11T16:41:33Z</time></trkpt><trkpt lat="36.71072104311242" lon="14.758064327976953"><ele>4.0</ele><time>2026-04-11T16:41:34Z</time></trkpt><trkpt lat="36.710736017961565" lon="14.75797806988187"><ele>4.0</ele><time>2026-04-11T16:41:35Z</time></trkpt><trkpt lat="36.7107556350633" lon="14.757885776840672"><ele>3.9999999999999996</ele><time>2026-04-11T16:41:36Z</time></trkpt><trkpt lat="36.710770692813256" lon="14.757796570826809"><ele>4.0</ele><time>2026-04-11T16:41:37Z</time></trkpt><trkpt lat="36.710791750088774" lon="14.757720911898293"><ele>4.0</ele><time>2026-04-11T16:41:38Z</time></trkpt><trkpt lat="36.71084706950273" lon="14.757612989403123"><ele>4.0</ele><time>2026-04-11T16:41:40Z</time></trkpt><trkpt lat="36.71088787881716" lon="14.757536361780303"><ele>3.9999999999999996</ele><time>2026-04-11T16:41:42Z</time></trkpt><trkpt lat="36.710928615138144" lon="14.757472504414197"><ele>4.0</ele><time>2026-04-11T16:41:44Z</time></trkpt><trkpt lat="36.71099997216993" lon="14.757369910972313"><ele>3.9999999999999996</ele><time>2026-04-11T16:41:46Z</time></trkpt><trkpt lat="36.711050508285425" lon="14.757304607317133"><ele>4.0</ele><time>2026-04-11T16:41:48Z</time></trkpt><trkpt lat="36.71110312341819" lon="14.757256132137242"><ele>4.0</ele><time>2026-04-11T16:41:49.999Z</time></trkpt><trkpt lat="36.711175380931245" lon="14.757198473840086"><ele>4.0</ele><time>2026-04-11T16:41:51.999Z</time></trkpt><trkpt lat="36.71125250938201" lon="14.75713448585254"><ele>3.9999999999999996</ele><time>2026-04-11T16:41:53.999Z</time></trkpt><trkpt lat="36.71132950613927" lon="14.757079569779151"><ele>4.0</ele><time>2026-04-11T16:41:55.999Z</time></trkpt><trkpt lat="36.71139882277859" lon="14.757031898452864"><ele>3.8000000000000003</ele><time>2026-04-11T16:41:57.999Z</time></trkpt><trkpt lat="36.71146600540677" lon="14.756980387955538"><ele>3.6000000000000005</ele><time>2026-04-11T16:42:00.999Z</time></trkpt><trkpt lat="36.7115371540008" lon="14.75689396838935"><ele>3.4</ele><time>2026-04-11T16:42:02.999Z</time></trkpt><trkpt lat="36.71164927909319" lon="14.75680912043972"><ele>3.2</ele><time>2026-04-11T16:42:04.999Z</time></trkpt><trkpt lat="36.711705406715176" lon="14.756770455950203"><ele>3.0</ele><time>2026-04-11T16:42:05.999Z</time></trkpt><trkpt lat="36.71181138352089" lon="14.756730593883024"><ele>3.8</ele><time>2026-04-11T16:42:07.999Z</time></trkpt><trkpt lat="36.71190951787099" lon="14.756708903657039"><ele>4.6</ele><time>2026-04-11T16:42:09.999Z</time></trkpt><trkpt lat="36.712007053861306" lon="14.756709140465215"><ele>5.3999999999999995</ele><time>2026-04-11T16:42:11.999Z</time></trkpt><trkpt lat="36.71210557212723" lon="14.756695574063533"><ele>6.199999999999999</ele><time>2026-04-11T16:42:13.999Z</time></trkpt><trkpt lat="36.71220343407192" lon="14.756685007506418"><ele>7.0</ele><time>2026-04-11T16:42:15.999Z</time></trkpt><trkpt lat="36.71228439491214" lon="14.75666945673871"><ele>7.0</ele><time>2026-04-11T16:42:16.999Z</time></trkpt><trkpt lat="36.712394139275936" lon="14.756652112305147"><ele>7.0</ele><time>2026-04-11T16:42:17.999Z</time></trkpt><trkpt lat="36.712490156068554" lon="14.756636977574681"><ele>7.0</ele><time>2026-04-11T16:42:18.999Z</time></trkpt><trkpt lat="36.71260755916207" lon="14.756624081507532"><ele>7.0</ele><time>2026-04-11T16:42:19.999Z</time></trkpt><trkpt lat="36.712748215842666" lon="14.7566081680313"><ele>7.0</ele><time>2026-04-11T16:42:20.999Z</time></trkpt><trkpt lat="36.71286422547616" lon="14.756595230975114"><ele>6.999999999999999</ele><time>2026-04-11T16:42:21.999Z</time></trkpt><trkpt lat="36.71295974635303" lon="14.756578130294804"><ele>6.999999999999999</ele><time>2026-04-11T16:42:22.999Z</time></trkpt><trkpt lat="36.71303621848373" lon="14.756567405641517"><ele>7.0</ele><time>2026-04-11T16:42:23.999Z</time></trkpt><trkpt lat="36.7131491543001" lon="14.756548427061404"><ele>7.0</ele><time>2026-04-11T16:42:25.999Z</time></trkpt><trkpt lat="36.713249481884446" lon="14.756536784674127"><ele>7.000000000000001</ele><time>2026-04-11T16:42:27.999Z</time></trkpt><trkpt lat="36.71332784094141" lon="14.75653463599529"><ele>7.0</ele><time>2026-04-11T16:42:29.999Z</time></trkpt><trkpt lat="36.71341484717371" lon="14.756534708771266"><ele>7.0</ele><time>2026-04-11T16:42:31.999Z</time></trkpt><trkpt lat="36.71347913999311" lon="14.756536675900978"><ele>7.0</ele><time>2026-04-11T16:42:32.999Z</time></trkpt><trkpt lat="36.71355420607682" lon="14.75654709253075"><ele>7.000000000000001</ele><time>2026-04-11T16:42:33.999Z</time></trkpt><trkpt lat="36.71364560525975" lon="14.756556675550524"><ele>7.0</ele><time>2026-04-11T16:42:34.999Z</time></trkpt><trkpt lat="36.713759526768776" lon="14.756569266673846"><ele>6.75</ele><time>2026-04-11T16:42:35.999Z</time></trkpt><trkpt lat="36.71389116726805" lon="14.756584136007145"><ele>6.5</ele><time>2026-04-11T16:42:36.999Z</time></trkpt><trkpt lat="36.71404319890791" lon="14.756594393903885"><ele>6.25</ele><time>2026-04-11T16:42:37.999Z</time></trkpt><trkpt lat="36.714186737076446" lon="14.75660924656556"><ele>6.0</ele><time>2026-04-11T16:42:38.999Z</time></trkpt><trkpt lat="36.714277063202545" lon="14.756642369670873"><ele>6.0</ele><time>2026-04-11T16:42:39.999Z</time></trkpt><trkpt lat="36.71435074908943" lon="14.756658974807385"><ele>6.0</ele><time>2026-04-11T16:42:40.999Z</time></trkpt><trkpt lat="36.71442679842972" lon="14.756740490873135"><ele>6.0</ele><time>2026-04-11T16:42:42.999Z</time></trkpt><trkpt lat="36.714485973551454" lon="14.756783045746351"><ele>6.0</ele><time>2026-04-11T16:42:44.999Z</time></trkpt><trkpt lat="36.71465663428913" lon="14.75657586997103"><ele>6.166666666666667</ele><time>2026-04-11T16:42:47.999Z</time></trkpt><trkpt lat="36.7147209555319" lon="14.756535733990937"><ele>6.333333333333334</ele><time>2026-04-11T16:42:50.999Z</time></trkpt><trkpt lat="36.714800403148544" lon="14.75659426975374"><ele>6.5</ele><time>2026-04-11T16:42:57Z</time></trkpt><trkpt lat="36.71480882681447" lon="14.756690028949714"><ele>6.666666666666667</ele><time>2026-04-11T16:42:59Z</time></trkpt><trkpt lat="36.71486669145253" lon="14.756761179737426"><ele>6.833333333333334</ele><time>2026-04-11T16:43:01Z</time></trkpt><trkpt lat="36.71492927959827" lon="14.756853226671291"><ele>7.0</ele><time>2026-04-11T16:43:03Z</time></trkpt><trkpt lat="36.714928600806985" lon="14.756948533438443"><ele>8.0</ele><time>2026-04-11T16:43:06Z</time></trkpt><trkpt lat="36.71490464016477" lon="14.757066689419519"><ele>9.0</ele><time>2026-04-11T16:43:09Z</time></trkpt><trkpt lat="36.7149140428069" lon="14.757164835690265"><ele>10.0</ele><time>2026-04-11T16:43:11Z</time></trkpt><trkpt lat="36.71490853082384" lon="14.757249935752194"><ele>11.0</ele><time>2026-04-11T16:43:13Z</time></trkpt><trkpt lat="36.714906404268326" lon="14.757347785142372"><ele>11.999999999999998</ele><time>2026-04-11T16:43:14Z</time></trkpt><trkpt lat="36.71488902603808" lon="14.75743895098911"><ele>13.0</ele><time>2026-04-11T16:43:15Z</time></trkpt><trkpt lat="36.71481601828597" lon="14.757577702549318"><ele>12.999999999999998</ele><time>2026-04-11T16:43:17Z</time></trkpt><trkpt lat="36.71476332997858" lon="14.757653400805266"><ele>13.0</ele><time>2026-04-11T16:43:18Z</time></trkpt><trkpt lat="36.71470438702991" lon="14.757725263555589"><ele>13.0</ele><time>2026-04-11T16:43:19Z</time></trkpt><trkpt lat="36.714660816370866" lon="14.757785429462263"><ele>13.0</ele><time>2026-04-11T16:43:20Z</time></trkpt><trkpt lat="36.71462165110371" lon="14.757892246290647"><ele>12.999999999999998</ele><time>2026-04-11T16:43:22Z</time></trkpt><trkpt lat="36.714626583131796" lon="14.757988608527356"><ele>13.0</ele><time>2026-04-11T16:43:24Z</time></trkpt><trkpt lat="36.71463236100126" lon="14.758135861320907"><ele>13.600000000000001</ele><time>2026-04-11T16:43:26Z</time></trkpt><trkpt lat="36.71462032921811" lon="14.758260451895682"><ele>14.200000000000001</ele><time>2026-04-11T16:43:27Z</time></trkpt><trkpt lat="36.71462032922067" lon="14.758386779770147"><ele>14.8</ele><time>2026-04-11T16:43:28Z</time></trkpt><trkpt lat="36.714633264049525" lon="14.758546718419714"><ele>15.4</ele><time>2026-04-11T16:43:29Z</time></trkpt><trkpt lat="36.714660876789715" lon="14.758678182314005"><ele>16.0</ele><time>2026-04-11T16:43:30Z</time></trkpt><trkpt lat="36.71469888423096" lon="14.758778850660304"><ele>16.666666666666664</ele><time>2026-04-11T16:43:31Z</time></trkpt><trkpt lat="36.714733563310176" lon="14.75886867261412"><ele>17.333333333333332</ele><time>2026-04-11T16:43:32Z</time></trkpt><trkpt lat="36.714761578628284" lon="14.758947947969304"><ele>18.0</ele><time>2026-04-11T16:43:33Z</time></trkpt><trkpt lat="36.71481821704718" lon="14.759054406420228"><ele>18.666666666666668</ele><time>2026-04-11T16:43:35Z</time></trkpt><trkpt lat="36.71489355602862" lon="14.759088084685592"><ele>19.333333333333336</ele><time>2026-04-11T16:43:42Z</time></trkpt><trkpt lat="36.714978426621464" lon="14.759020840865846"><ele>20.0</ele><time>2026-04-11T16:43:43Z</time></trkpt><trkpt lat="36.7150448520868" lon="14.758939513309329"><ele>20.0</ele><time>2026-04-11T16:43:44Z</time></trkpt><trkpt lat="36.715111174544646" lon="14.758862693054457"><ele>20.0</ele><time>2026-04-11T16:43:45Z</time></trkpt><trkpt lat="36.71519159508007" lon="14.75877803282086"><ele>20.0</ele><time>2026-04-11T16:43:46Z</time></trkpt><trkpt lat="36.71527571894934" lon="14.758697567659931"><ele>20.0</ele><time>2026-04-11T16:43:47Z</time></trkpt><trkpt lat="36.715351739020115" lon="14.758633258772779"><ele>20.0</ele><time>2026-04-11T16:43:48Z</time></trkpt><trkpt lat="36.71542825743138" lon="14.75857041795701"><ele>19.4</ele><time>2026-04-11T16:43:49Z</time></trkpt><trkpt lat="36.715506181791795" lon="14.758505144208218"><ele>18.8</ele><time>2026-04-11T16:43:50Z</time></trkpt><trkpt lat="36.71558535079" lon="14.758435724630855"><ele>18.2</ele><time>2026-04-11T16:43:51Z</time></trkpt><trkpt lat="36.71565946031692" lon="14.758372697705601"><ele>17.6</ele><time>2026-04-11T16:43:52Z</time></trkpt><trkpt lat="36.71572999733614" lon="14.758316222680458"><ele>17.0</ele><time>2026-04-11T16:43:53Z</time></trkpt><trkpt lat="36.71580409075869" lon="14.758254040283619"><ele>17.0</ele><time>2026-04-11T16:43:53.999Z</time></trkpt><trkpt lat="36.71588080321675" lon="14.75818280503254"><ele>17.0</ele><time>2026-04-11T16:43:54.999Z</time></trkpt><trkpt lat="36.71596957735356" lon="14.758103795129697"><ele>17.0</ele><time>2026-04-11T16:43:55.999Z</time></trkpt><trkpt lat="36.716065359262075" lon="14.758016432180112"><ele>17.0</ele><time>2026-04-11T16:43:56.999Z</time></trkpt><trkpt lat="36.7161655558939" lon="14.757932274169852"><ele>17.0</ele><time>2026-04-11T16:43:57.999Z</time></trkpt><trkpt lat="36.71627067011173" lon="14.757848093143851"><ele>17.0</ele><time>2026-04-11T16:43:58.999Z</time></trkpt><trkpt lat="36.716382576588046" lon="14.75775250763343"><ele>17.0</ele><time>2026-04-11T16:43:59.999Z</time></trkpt><trkpt lat="36.7165005579512" lon="14.757654504416234"><ele>17.0</ele><time>2026-04-11T16:44:00.999Z</time></trkpt><trkpt lat="36.71662489221219" lon="14.757547780555296"><ele>17.0</ele><time>2026-04-11T16:44:01.999Z</time></trkpt><trkpt lat="36.71675231583078" lon="14.757439411597982"><ele>15.666666666666668</ele><time>2026-04-11T16:44:02.999Z</time></trkpt><trkpt lat="36.71688385120084" lon="14.757327790496973"><ele>14.333333333333332</ele><time>2026-04-11T16:44:03.999Z</time></trkpt><trkpt lat="36.717009710641115" lon="14.75722400721672"><ele>13.0</ele><time>2026-04-11T16:44:04.999Z</time></trkpt><trkpt lat="36.717137660050035" lon="14.757120769723937"><ele>12.25</ele><time>2026-04-11T16:44:05.999Z</time></trkpt><trkpt lat="36.71726244414571" lon="14.757020622232435"><ele>11.5</ele><time>2026-04-11T16:44:06.999Z</time></trkpt><trkpt lat="36.71737921677535" lon="14.756918546820378"><ele>10.75</ele><time>2026-04-11T16:44:07.999Z</time></trkpt><trkpt lat="36.717493229644305" lon="14.756820622611587"><ele>10.0</ele><time>2026-04-11T16:44:08.999Z</time></trkpt><trkpt lat="36.71759912800999" lon="14.756725977348678"><ele>9.5</ele><time>2026-04-11T16:44:09.999Z</time></trkpt><trkpt lat="36.71769781627428" lon="14.756633234345825"><ele>9.0</ele><time>2026-04-11T16:44:10.999Z</time></trkpt><trkpt lat="36.71778734175447" lon="14.75653990157555"><ele>8.5</ele><time>2026-04-11T16:44:11.999Z</time></trkpt><trkpt lat="36.71787313985196" lon="14.75644970439335"><ele>8.0</ele><time>2026-04-11T16:44:12.999Z</time></trkpt><trkpt lat="36.71795470844859" lon="14.756358025117475"><ele>7.6000000000000005</ele><time>2026-04-11T16:44:13.999Z</time></trkpt><trkpt lat="36.718032205432614" lon="14.756267883099694"><ele>7.200000000000001</ele><time>2026-04-11T16:44:14.999Z</time></trkpt><trkpt lat="36.718110880185726" lon="14.756178271713832"><ele>6.8</ele><time>2026-04-11T16:44:15.999Z</time></trkpt><trkpt lat="36.718189687512364" lon="14.756086276887356"><ele>6.4</ele><time>2026-04-11T16:44:16.999Z</time></trkpt><trkpt lat="36.718271772408436" lon="14.755989635433046"><ele>6.0</ele><time>2026-04-11T16:44:17.999Z</time></trkpt><trkpt lat="36.71835133894474" lon="14.755887949126521"><ele>6.0</ele><time>2026-04-11T16:44:18.999Z</time></trkpt><trkpt lat="36.71843685065713" lon="14.755784859268722"><ele>6.0</ele><time>2026-04-11T16:44:19.999Z</time></trkpt><trkpt lat="36.718516975566615" lon="14.755680715844814"><ele>6.0</ele><time>2026-04-11T16:44:20.999Z</time></trkpt><trkpt lat="36.71860038392346" lon="14.755578917710078"><ele>6.0</ele><time>2026-04-11T16:44:21.999Z</time></trkpt><trkpt lat="36.71868602661122" lon="14.75547361739068"><ele>5.2</ele><time>2026-04-11T16:44:22.999Z</time></trkpt><trkpt lat="36.718764943027985" lon="14.75537673605848"><ele>4.3999999999999995</ele><time>2026-04-11T16:44:23.999Z</time></trkpt><trkpt lat="36.718843137695686" lon="14.755283216355496"><ele>3.6</ele><time>2026-04-11T16:44:24.999Z</time></trkpt><trkpt lat="36.718914961732395" lon="14.755190852873492"><ele>2.8</ele><time>2026-04-11T16:44:25.999Z</time></trkpt><trkpt lat="36.7189855504978" lon="14.755101451194948"><ele>2.0</ele><time>2026-04-11T16:44:26.999Z</time></trkpt><trkpt lat="36.71905406722586" lon="14.755018346892772"><ele>2.0</ele><time>2026-04-11T16:44:27.999Z</time></trkpt><trkpt lat="36.71912127028631" lon="14.754940194890438"><ele>2.0</ele><time>2026-04-11T16:44:28.999Z</time></trkpt><trkpt lat="36.7191889261114" lon="14.754868744760893"><ele>2.0</ele><time>2026-04-11T16:44:29.999Z</time></trkpt><trkpt lat="36.71924729134465" lon="14.754801269915452"><ele>2.0</ele><time>2026-04-11T16:44:30.999Z</time></trkpt><trkpt lat="36.719324523018194" lon="14.754726246643294"><ele>2.0</ele><time>2026-04-11T16:44:32.999Z</time></trkpt><trkpt lat="36.7194168935309" lon="14.754704531227981"><ele>2.4000000000000004</ele><time>2026-04-11T16:44:50.999Z</time></trkpt><trkpt lat="36.71951588926208" lon="14.754695592972983"><ele>2.8000000000000003</ele><time>2026-04-11T16:44:51.999Z</time></trkpt><trkpt lat="36.71960677782736" lon="14.754674092995577"><ele>3.2</ele><time>2026-04-11T16:44:52.999Z</time></trkpt><trkpt lat="36.719707057382124" lon="14.754643511541829"><ele>3.6</ele><time>2026-04-11T16:44:53.999Z</time></trkpt><trkpt lat="36.719809408228606" lon="14.754616313744128"><ele>4.0</ele><time>2026-04-11T16:44:54.999Z</time></trkpt><trkpt lat="36.719924363027204" lon="14.754582802730136"><ele>4.0</ele><time>2026-04-11T16:44:55.999Z</time></trkpt><trkpt lat="36.72004184732311" lon="14.754546707014985"><ele>4.0</ele><time>2026-04-11T16:44:56.999Z</time></trkpt><trkpt lat="36.72017108120983" lon="14.754514558438165"><ele>4.0</ele><time>2026-04-11T16:44:57.999Z</time></trkpt><trkpt lat="36.720297549750256" lon="14.754486203384353"><ele>4.0</ele><time>2026-04-11T16:44:58.999Z</time></trkpt><trkpt lat="36.72040185558585" lon="14.754464540966676"><ele>3.833333333333333</ele><time>2026-04-11T16:44:59.999Z</time></trkpt><trkpt lat="36.72049775067009" lon="14.754449408680127"><ele>3.6666666666666665</ele><time>2026-04-11T16:45:00.999Z</time></trkpt><trkpt lat="36.720574394858346" lon="14.754443340848717"><ele>3.5</ele><time>2026-04-11T16:45:01.999Z</time></trkpt><trkpt lat="36.72063798762114" lon="14.754432651365775"><ele>3.333333333333333</ele><time>2026-04-11T16:45:03Z</time></trkpt><trkpt lat="36.720722583779235" lon="14.754432393676957"><ele>3.1666666666666665</ele><time>2026-04-11T16:45:05Z</time></trkpt><trkpt lat="36.720810976884316" lon="14.754423346682023"><ele>3.0</ele><time>2026-04-11T16:45:07Z</time></trkpt><trkpt lat="36.720939881862826" lon="14.75443133138462"><ele>3.0</ele><time>2026-04-11T16:45:09Z</time></trkpt><trkpt lat="36.72101040622097" lon="14.754444337874837"><ele>3.0</ele><time>2026-04-11T16:45:10Z</time></trkpt><trkpt lat="36.72107808587609" lon="14.75443833648615"><ele>3.0</ele><time>2026-04-11T16:45:11Z</time></trkpt><trkpt lat="36.721193237537065" lon="14.754452181951574"><ele>3.0</ele><time>2026-04-11T16:45:13Z</time></trkpt><trkpt lat="36.72132217231748" lon="14.754477938439491"><ele>3.0</ele><time>2026-04-11T16:45:15Z</time></trkpt><trkpt lat="36.72142449949291" lon="14.75451514463375"><ele>3.0</ele><time>2026-04-11T16:45:16Z</time></trkpt><trkpt lat="36.72154239869568" lon="14.754540809878758"><ele>3.0</ele><time>2026-04-11T16:45:17Z</time></trkpt><trkpt lat="36.721673364771036" lon="14.754590832729267"><ele>3.0</ele><time>2026-04-11T16:45:18Z</time></trkpt><trkpt lat="36.72183018878138" lon="14.75465559314757"><ele>3.0</ele><time>2026-04-11T16:45:19Z</time></trkpt><trkpt lat="36.72197330361454" lon="14.75470926541348"><ele>3.666666666666667</ele><time>2026-04-11T16:45:20Z</time></trkpt><trkpt lat="36.72208261567967" lon="14.754752425841405"><ele>4.333333333333334</ele><time>2026-04-11T16:45:21Z</time></trkpt><trkpt lat="36.72216389824349" lon="14.754778743692494"><ele>5.0</ele><time>2026-04-11T16:45:22Z</time></trkpt><trkpt lat="36.72223349785426" lon="14.754790514499879"><ele>5.666666666666667</ele><time>2026-04-11T16:45:25Z</time></trkpt><trkpt lat="36.7222909706881" lon="14.754709302499082"><ele>6.333333333333334</ele><time>2026-04-11T16:45:28Z</time></trkpt><trkpt lat="36.72222002942548" lon="14.754719416157863"><ele>7.0</ele><time>2026-04-11T16:46:01.999Z</time></trkpt><trkpt lat="36.72207791311532" lon="14.754651454934178"><ele>7.000000000000001</ele><time>2026-04-11T16:46:04.999Z</time></trkpt><trkpt lat="36.722002577761224" lon="14.754607701844016"><ele>7.0</ele><time>2026-04-11T16:46:07.999Z</time></trkpt><trkpt lat="36.721939681617606" lon="14.754591138309708"><ele>7.0</ele><time>2026-04-11T16:46:09.999Z</time></trkpt><trkpt lat="36.721850827087266" lon="14.754552269990517"><ele>7.0</ele><time>2026-04-11T16:46:11.999Z</time></trkpt><trkpt lat="36.72178327753109" lon="14.75452316635855"><ele>7.000000000000001</ele><time>2026-04-11T16:46:12.999Z</time></trkpt><trkpt lat="36.72171893683456" lon="14.754501122617006"><ele>7.0</ele><time>2026-04-11T16:46:13.999Z</time></trkpt><trkpt lat="36.721634689383066" lon="14.754468026696692"><ele>6.199999999999999</ele><time>2026-04-11T16:46:15.999Z</time></trkpt><trkpt lat="36.72156378454884" lon="14.75443715049319"><ele>5.3999999999999995</ele><time>2026-04-11T16:46:18.999Z</time></trkpt><trkpt lat="36.72146762279748" lon="14.754407138014567"><ele>4.6</ele><time>2026-04-11T16:46:20.999Z</time></trkpt><trkpt lat="36.72134552813968" lon="14.754391808160362"><ele>3.8</ele><time>2026-04-11T16:46:22.999Z</time></trkpt><trkpt lat="36.72127573559533" lon="14.754380333080556"><ele>3.0</ele><time>2026-04-11T16:46:23.999Z</time></trkpt><trkpt lat="36.72118922702038" lon="14.75436069523349"><ele>3.0</ele><time>2026-04-11T16:46:24.999Z</time></trkpt><trkpt lat="36.721106167767765" lon="14.754351344348164"><ele>3.0</ele><time>2026-04-11T16:46:25.999Z</time></trkpt><trkpt lat="36.72103996568063" lon="14.754342634743649"><ele>3.0</ele><time>2026-04-11T16:46:26.999Z</time></trkpt><trkpt lat="36.72095352847474" lon="14.754342396477261"><ele>3.0</ele><time>2026-04-11T16:46:28.999Z</time></trkpt><trkpt lat="36.72086601170334" lon="14.754366417954191"><ele>3.0</ele><time>2026-04-11T16:46:51.999Z</time></trkpt><trkpt lat="36.72077452610794" lon="14.75440558865636"><ele>3.0</ele><time>2026-04-11T16:46:52.999Z</time></trkpt><trkpt lat="36.720648560734446" lon="14.75443054050159"><ele>3.0</ele><time>2026-04-11T16:46:53.999Z</time></trkpt><trkpt lat="36.72048084825514" lon="14.754453344361112"><ele>3.0</ele><time>2026-04-11T16:46:54.999Z</time></trkpt><trkpt lat="36.720299255743825" lon="14.754439487541761"><ele>3.0</ele><time>2026-04-11T16:46:55.999Z</time></trkpt><trkpt lat="36.720120112330875" lon="14.754485424735167"><ele>3.2</ele><time>2026-04-11T16:46:56.999Z</time></trkpt><trkpt lat="36.71997772599334" lon="14.754526500989755"><ele>3.4</ele><time>2026-04-11T16:46:57.999Z</time></trkpt><trkpt lat="36.71987734663755" lon="14.75457436874949"><ele>3.6000000000000005</ele><time>2026-04-11T16:46:58.999Z</time></trkpt><trkpt lat="36.71981171723804" lon="14.754574620833745"><ele>3.8000000000000003</ele><time>2026-04-11T16:46:59.999Z</time></trkpt><trkpt lat="36.7197244629139" lon="14.754459436513342"><ele>4.0</ele><time>2026-04-11T16:47:01.999Z</time></trkpt><trkpt lat="36.719687739008855" lon="14.754389335889886"><ele>4.0</ele><time>2026-04-11T16:47:02.999Z</time></trkpt><trkpt lat="36.71964003129708" lon="14.754299070337737"><ele>4.0</ele><time>2026-04-11T16:47:04.999Z</time></trkpt><trkpt lat="36.71973397486438" lon="14.754205260383383"><ele>4.0</ele><time>2026-04-11T16:47:06.999Z</time></trkpt><trkpt lat="36.719776510118734" lon="14.754106321863107"><ele>4.0</ele><time>2026-04-11T16:47:09Z</time></trkpt><trkpt lat="36.719844956443076" lon="14.754020937903551"><ele>4.0</ele><time>2026-04-11T16:47:10Z</time></trkpt><trkpt lat="36.71991399793752" lon="14.753944588176678"><ele>4.0</ele><time>2026-04-11T16:47:11Z</time></trkpt><trkpt lat="36.719988983364985" lon="14.753858580957887"><ele>4.0</ele><time>2026-04-11T16:47:12Z</time></trkpt><trkpt lat="36.720066515366405" lon="14.75376213577888"><ele>4.0</ele><time>2026-04-11T16:47:13Z</time></trkpt><trkpt lat="36.720148833909526" lon="14.753662199663195"><ele>4.0</ele><time>2026-04-11T16:47:14Z</time></trkpt><trkpt lat="36.72023978181346" lon="14.753556634062335"><ele>3.75</ele><time>2026-04-11T16:47:15Z</time></trkpt><trkpt lat="36.72033424120958" lon="14.753439554850331"><ele>3.5</ele><time>2026-04-11T16:47:16Z</time></trkpt><trkpt lat="36.72043200215909" lon="14.753316942270512"><ele>3.25</ele><time>2026-04-11T16:47:17Z</time></trkpt><trkpt lat="36.720537880715575" lon="14.75318569853645"><ele>3.0</ele><time>2026-04-11T16:47:18Z</time></trkpt><trkpt lat="36.72064284616263" lon="14.753054494207573"><ele>3.0</ele><time>2026-04-11T16:47:19Z</time></trkpt><trkpt lat="36.72074004171517" lon="14.752929979017127"><ele>3.0</ele><time>2026-04-11T16:47:20Z</time></trkpt><trkpt lat="36.720839684632736" lon="14.75280080603781"><ele>3.0</ele><time>2026-04-11T16:47:21Z</time></trkpt><trkpt lat="36.720943796670284" lon="14.75267028113022"><ele>3.0</ele><time>2026-04-11T16:47:22Z</time></trkpt><trkpt lat="36.721054692842976" lon="14.752535942972806"><ele>3.0</ele><time>2026-04-11T16:47:23Z</time></trkpt><trkpt lat="36.721166390211984" lon="14.75239853285065"><ele>3.0</ele><time>2026-04-11T16:47:24Z</time></trkpt><trkpt lat="36.72128047935903" lon="14.752257825180388"><ele>3.0</ele><time>2026-04-11T16:47:25Z</time></trkpt><trkpt lat="36.72139507657767" lon="14.752116627798207"><ele>3.0</ele><time>2026-04-11T16:47:26Z</time></trkpt><trkpt lat="36.721508856105146" lon="14.751970080320909"><ele>3.0</ele><time>2026-04-11T16:47:27Z</time></trkpt><trkpt lat="36.72161709873175" lon="14.751823737049445"><ele>3.0</ele><time>2026-04-11T16:47:28Z</time></trkpt><trkpt lat="36.72173528892687" lon="14.751686589658176"><ele>2.6666666666666665</ele><time>2026-04-11T16:47:29Z</time></trkpt><trkpt lat="36.72184894427187" lon="14.751541461993956"><ele>2.333333333333333</ele><time>2026-04-11T16:47:30Z</time></trkpt><trkpt lat="36.721968770251806" lon="14.75139447451945"><ele>2.0</ele><time>2026-04-11T16:47:31Z</time></trkpt><trkpt lat="36.72208554395026" lon="14.75125348178157"><ele>2.6666666666666665</ele><time>2026-04-11T16:47:32Z</time></trkpt><trkpt lat="36.72220169078573" lon="14.751110912967253"><ele>3.333333333333333</ele><time>2026-04-11T16:47:33Z</time></trkpt><trkpt lat="36.72231566693185" lon="14.750970515304804"><ele>4.0</ele><time>2026-04-11T16:47:34Z</time></trkpt><trkpt lat="36.722430258730235" lon="14.750831313544063"><ele>4.333333333333333</ele><time>2026-04-11T16:47:35Z</time></trkpt><trkpt lat="36.7225336081608" lon="14.75069483407361"><ele>4.666666666666667</ele><time>2026-04-11T16:47:36Z</time></trkpt><trkpt lat="36.72264817588796" lon="14.750561816374123"><ele>5.0</ele><time>2026-04-11T16:47:37Z</time></trkpt><trkpt lat="36.722752689328495" lon="14.750424924378304"><ele>5.0</ele><time>2026-04-11T16:47:38Z</time></trkpt><trkpt lat="36.72285979968913" lon="14.750290660799457"><ele>5.0</ele><time>2026-04-11T16:47:39Z</time></trkpt><trkpt lat="36.72296125617817" lon="14.750155153890033"><ele>5.0</ele><time>2026-04-11T16:47:40Z</time></trkpt><trkpt lat="36.723056579528105" lon="14.750007051266486"><ele>5.0</ele><time>2026-04-11T16:47:41Z</time></trkpt><trkpt lat="36.723148164029546" lon="14.749854516495937"><ele>5.0</ele><time>2026-04-11T16:47:42Z</time></trkpt><trkpt lat="36.72323156151984" lon="14.749696873916095"><ele>5.0</ele><time>2026-04-11T16:47:43Z</time></trkpt><trkpt lat="36.72330719969661" lon="14.74953552210418"><ele>4.666666666666667</ele><time>2026-04-11T16:47:44Z</time></trkpt><trkpt lat="36.723384401213735" lon="14.749360922444124"><ele>4.333333333333333</ele><time>2026-04-11T16:47:45Z</time></trkpt><trkpt lat="36.72345539561869" lon="14.749188028967795"><ele>4.0</ele><time>2026-04-11T16:47:46Z</time></trkpt><trkpt lat="36.72351417277737" lon="14.749009315567678"><ele>4.333333333333333</ele><time>2026-04-11T16:47:47Z</time></trkpt><trkpt lat="36.723570378109606" lon="14.748824748992945"><ele>4.666666666666667</ele><time>2026-04-11T16:47:48Z</time></trkpt><trkpt lat="36.723619547079714" lon="14.748637091848748"><ele>5.0</ele><time>2026-04-11T16:47:49Z</time></trkpt><trkpt lat="36.72365931874174" lon="14.748449006513036"><ele>5.0</ele><time>2026-04-11T16:47:50Z</time></trkpt><trkpt lat="36.723690088464075" lon="14.748256926069402"><ele>5.0</ele><time>2026-04-11T16:47:51Z</time></trkpt><trkpt lat="36.72371217714754" lon="14.748062291044224"><ele>5.0</ele><time>2026-04-11T16:47:51.999Z</time></trkpt><trkpt lat="36.7237267264529" lon="14.747865332145722"><ele>6.0</ele><time>2026-04-11T16:47:52.999Z</time></trkpt><trkpt lat="36.72373334348303" lon="14.747676321724217"><ele>7.0</ele><time>2026-04-11T16:47:53.999Z</time></trkpt><trkpt lat="36.72373317480992" lon="14.747490395544732"><ele>8.0</ele><time>2026-04-11T16:47:54.999Z</time></trkpt><trkpt lat="36.72372823433402" lon="14.747309679142678"><ele>9.0</ele><time>2026-04-11T16:47:55.999Z</time></trkpt><trkpt lat="36.723711424372596" lon="14.747152892624264"><ele>9.0</ele><time>2026-04-11T16:47:56.999Z</time></trkpt><trkpt lat="36.723690785458125" lon="14.746984718330088"><ele>9.0</ele><time>2026-04-11T16:47:57.999Z</time></trkpt><trkpt lat="36.723667129654785" lon="14.7468300685519"><ele>9.0</ele><time>2026-04-11T16:47:58.999Z</time></trkpt><trkpt lat="36.72364457307298" lon="14.746679414434627"><ele>9.0</ele><time>2026-04-11T16:47:59.999Z</time></trkpt><trkpt lat="36.72362211528698" lon="14.746531388510403"><ele>9.5</ele><time>2026-04-11T16:48:00.999Z</time></trkpt><trkpt lat="36.723594511097495" lon="14.746385561955263"><ele>10.0</ele><time>2026-04-11T16:48:01.999Z</time></trkpt><trkpt lat="36.723568493577616" lon="14.746243445679445"><ele>10.5</ele><time>2026-04-11T16:48:02.999Z</time></trkpt><trkpt lat="36.7235444676733" lon="14.7460991133015"><ele>11.0</ele><time>2026-04-11T16:48:03.999Z</time></trkpt><trkpt lat="36.72351887784456" lon="14.74595205139944"><ele>9.25</ele><time>2026-04-11T16:48:04.999Z</time></trkpt><trkpt lat="36.723488024791116" lon="14.74581529240502"><ele>7.5</ele><time>2026-04-11T16:48:05.999Z</time></trkpt><trkpt lat="36.72346464636174" lon="14.745680030668085"><ele>5.75</ele><time>2026-04-11T16:48:06.999Z</time></trkpt><trkpt lat="36.72343492879602" lon="14.745530900887541"><ele>4.0</ele><time>2026-04-11T16:48:07.999Z</time></trkpt><trkpt lat="36.72340555421046" lon="14.745376821748199"><ele>4.0</ele><time>2026-04-11T16:48:08.999Z</time></trkpt><trkpt lat="36.72337635498066" lon="14.745224666734993"><ele>4.0</ele><time>2026-04-11T16:48:09.999Z</time></trkpt><trkpt lat="36.72334699080121" lon="14.74507853792892"><ele>4.0</ele><time>2026-04-11T16:48:10.999Z</time></trkpt><trkpt lat="36.72331341183145" lon="14.744935021140657"><ele>4.0</ele><time>2026-04-11T16:48:11.999Z</time></trkpt><trkpt lat="36.72327600029285" lon="14.744799608189647"><ele>4.4</ele><time>2026-04-11T16:48:12.999Z</time></trkpt><trkpt lat="36.723247506863075" lon="14.744669032666714"><ele>4.800000000000001</ele><time>2026-04-11T16:48:13.999Z</time></trkpt><trkpt lat="36.72322383155644" lon="14.744545841389549"><ele>5.199999999999999</ele><time>2026-04-11T16:48:14.999Z</time></trkpt><trkpt lat="36.723198286723154" lon="14.744416660058087"><ele>5.6</ele><time>2026-04-11T16:48:15.999Z</time></trkpt><trkpt lat="36.72317071552894" lon="14.744290345817031"><ele>6.0</ele><time>2026-04-11T16:48:16.999Z</time></trkpt><trkpt lat="36.723140525001355" lon="14.74418963902196"><ele>6.6</ele><time>2026-04-11T16:48:17.999Z</time></trkpt><trkpt lat="36.72312649814194" lon="14.744105892577567"><ele>7.199999999999999</ele><time>2026-04-11T16:48:18.999Z</time></trkpt><trkpt lat="36.7231050328203" lon="14.743995487527503"><ele>7.800000000000001</ele><time>2026-04-11T16:48:20.999Z</time></trkpt><trkpt lat="36.72307232625159" lon="14.743824283109047"><ele>8.4</ele><time>2026-04-11T16:48:22.999Z</time></trkpt><trkpt lat="36.72305308138227" lon="14.743721527218316"><ele>9.0</ele><time>2026-04-11T16:48:23.999Z</time></trkpt><trkpt lat="36.72302942018398" lon="14.743597213971617"><ele>9.0</ele><time>2026-04-11T16:48:24.999Z</time></trkpt><trkpt lat="36.72300154922768" lon="14.743454153624475"><ele>9.0</ele><time>2026-04-11T16:48:25.999Z</time></trkpt><trkpt lat="36.72297497197644" lon="14.74331773385577"><ele>9.0</ele><time>2026-04-11T16:48:26.999Z</time></trkpt><trkpt lat="36.72295194458172" lon="14.743199535358155"><ele>9.0</ele><time>2026-04-11T16:48:27.999Z</time></trkpt><trkpt lat="36.72293144081579" lon="14.743093839197511"><ele>9.0</ele><time>2026-04-11T16:48:28.999Z</time></trkpt><trkpt lat="36.72291008631152" lon="14.742980338691911"><ele>9.0</ele><time>2026-04-11T16:48:29.999Z</time></trkpt><trkpt lat="36.72288504136143" lon="14.742847223364114"><ele>9.0</ele><time>2026-04-11T16:48:30.999Z</time></trkpt><trkpt lat="36.72285850442417" lon="14.742706177977848"><ele>9.0</ele><time>2026-04-11T16:48:31.999Z</time></trkpt><trkpt lat="36.722832782968396" lon="14.742569466860827"><ele>9.0</ele><time>2026-04-11T16:48:32.999Z</time></trkpt><trkpt lat="36.72280908231462" lon="14.74244349648851"><ele>9.0</ele><time>2026-04-11T16:48:33.999Z</time></trkpt><trkpt lat="36.72278543568751" lon="14.742318729566643"><ele>9.2</ele><time>2026-04-11T16:48:34.999Z</time></trkpt><trkpt lat="36.72276144655137" lon="14.742196243901564"><ele>9.4</ele><time>2026-04-11T16:48:35.999Z</time></trkpt><trkpt lat="36.722737830948965" lon="14.742075665407388"><ele>9.6</ele><time>2026-04-11T16:48:36.999Z</time></trkpt><trkpt lat="36.72271619505395" lon="14.741965195085543"><ele>9.8</ele><time>2026-04-11T16:48:37.999Z</time></trkpt><trkpt lat="36.72269489825222" lon="14.741856456336874"><ele>10.0</ele><time>2026-04-11T16:48:38.999Z</time></trkpt><trkpt lat="36.72267918481666" lon="14.741769957875896"><ele>9.333333333333334</ele><time>2026-04-11T16:48:39.999Z</time></trkpt><trkpt lat="36.72266300374197" lon="14.741681423850464"><ele>8.666666666666668</ele><time>2026-04-11T16:48:40.999Z</time></trkpt><trkpt lat="36.72264858268337" lon="14.741602519605744"><ele>8.0</ele><time>2026-04-11T16:48:41.999Z</time></trkpt><trkpt lat="36.72262435914908" lon="14.741469981642553"><ele>7.333333333333334</ele><time>2026-04-11T16:48:43.999Z</time></trkpt><trkpt lat="36.722603163320926" lon="14.741354009644455"><ele>6.666666666666667</ele><time>2026-04-11T16:48:45.999Z</time></trkpt><trkpt lat="36.72258865119735" lon="14.741274140965533"><ele>6.0</ele><time>2026-04-11T16:48:46.999Z</time></trkpt><trkpt lat="36.72256211376049" lon="14.741142186092551"><ele>6.333333333333333</ele><time>2026-04-11T16:48:48.999Z</time></trkpt><trkpt lat="36.72254105967893" lon="14.741037496445694"><ele>6.666666666666666</ele><time>2026-04-11T16:48:49.999Z</time></trkpt><trkpt lat="36.722519751135124" lon="14.740927756545881"><ele>7.0</ele><time>2026-04-11T16:48:50.999Z</time></trkpt><trkpt lat="36.7224648880615" lon="14.740833160620474"><ele>7.333333333333333</ele><time>2026-04-11T16:48:51.999Z</time></trkpt><trkpt lat="36.722411942035336" lon="14.74075998740386"><ele>7.666666666666666</ele><time>2026-04-11T16:48:52.999Z</time></trkpt><trkpt lat="36.72235530457963" lon="14.740685024136852"><ele>8.0</ele><time>2026-04-11T16:48:53.999Z</time></trkpt><trkpt lat="36.722298024244154" lon="14.740612062855876"><ele>7.999999999999999</ele><time>2026-04-11T16:48:54.999Z</time></trkpt><trkpt lat="36.7222406736714" lon="14.740533541898493"><ele>8.0</ele><time>2026-04-11T16:48:55.999Z</time></trkpt><trkpt lat="36.72218396050194" lon="14.740461472782057"><ele>8.0</ele><time>2026-04-11T16:48:56.999Z</time></trkpt><trkpt lat="36.722127175692485" lon="14.740413406200997"><ele>8.0</ele><time>2026-04-11T16:48:57.999Z</time></trkpt><trkpt lat="36.72206780950132" lon="14.740364193063849"><ele>7.999999999999999</ele><time>2026-04-11T16:48:58.999Z</time></trkpt><trkpt lat="36.72200729216334" lon="14.740312597671522"><ele>8.0</ele><time>2026-04-11T16:48:59.999Z</time></trkpt><trkpt lat="36.72194196601085" lon="14.740243096894822"><ele>6.5</ele><time>2026-04-11T16:49:00.999Z</time></trkpt><trkpt lat="36.721866724703894" lon="14.740145443803382"><ele>5.0</ele><time>2026-04-11T16:49:01.999Z</time></trkpt><trkpt lat="36.72143858841511" lon="14.740165162743914"><ele>5.0</ele><time>2026-04-11T16:49:02.999Z</time></trkpt><trkpt lat="36.72141358678178" lon="14.740076494564079"><ele>5.0</ele><time>2026-04-11T16:49:03.999Z</time></trkpt><trkpt lat="36.72137894232596" lon="14.740000613118248"><ele>5.0</ele><time>2026-04-11T16:49:04.999Z</time></trkpt><trkpt lat="36.72134059132588" lon="14.739905624166788"><ele>5.0</ele><time>2026-04-11T16:49:05.999Z</time></trkpt><trkpt lat="36.72130132795723" lon="14.739812216047513"><ele>5.0</ele><time>2026-04-11T16:49:06.999Z</time></trkpt><trkpt lat="36.721267153889684" lon="14.739727431603427"><ele>5.0</ele><time>2026-04-11T16:49:07.999Z</time></trkpt><trkpt lat="36.72123557684103" lon="14.739649472437252"><ele>5.0</ele><time>2026-04-11T16:49:08.999Z</time></trkpt><trkpt lat="36.72120276883785" lon="14.739577174612633"><ele>5.0</ele><time>2026-04-11T16:49:09.999Z</time></trkpt><trkpt lat="36.72115254287606" lon="14.739440906664873"><ele>5.0</ele><time>2026-04-11T16:49:11.999Z</time></trkpt><trkpt lat="36.72113152990947" lon="14.739362164259665"><ele>5.0</ele><time>2026-04-11T16:49:12.998Z</time></trkpt><trkpt lat="36.72108686843572" lon="14.739224562047735"><ele>5.0</ele><time>2026-04-11T16:49:15Z</time></trkpt><trkpt lat="36.721036660377095" lon="14.739092700037794"><ele>5.2</ele><time>2026-04-11T16:49:17Z</time></trkpt><trkpt lat="36.72100698778381" lon="14.73901070859155"><ele>5.4</ele><time>2026-04-11T16:49:18Z</time></trkpt><trkpt lat="36.72098382190458" lon="14.73893609579997"><ele>5.6</ele><time>2026-04-11T16:49:19Z</time></trkpt><trkpt lat="36.72094420537806" lon="14.738803533782457"><ele>5.8</ele><time>2026-04-11T16:49:21Z</time></trkpt><trkpt lat="36.720904645905875" lon="14.738668073939117"><ele>6.0</ele><time>2026-04-11T16:49:23Z</time></trkpt><trkpt lat="36.72087326157298" lon="14.738550209768151"><ele>5.999999999999999</ele><time>2026-04-11T16:49:25Z</time></trkpt><trkpt lat="36.72084293798768" lon="14.738437836774846"><ele>6.0</ele><time>2026-04-11T16:49:27Z</time></trkpt><trkpt lat="36.72080350929433" lon="14.738350264085861"><ele>6.0</ele><time>2026-04-11T16:49:29Z</time></trkpt><trkpt lat="36.720733100980866" lon="14.738371277198663"><ele>6.0</ele><time>2026-04-11T16:49:32Z</time></trkpt><trkpt lat="36.720706755169154" lon="14.738299192816557"><ele>6.0</ele><time>2026-04-11T16:51:27Z</time></trkpt><trkpt lat="36.720639831514646" lon="14.738277520341464"><ele>5.999999999999999</ele><time>2026-04-11T16:54:27Z</time></trkpt><trkpt lat="36.72058724460598" lon="14.738233275586072"><ele>6.0</ele><time>2026-04-11T16:54:36.999Z</time></trkpt><trkpt lat="36.72054240870836" lon="14.738174141954445"><ele>5.999999999999999</ele><time>2026-04-11T16:54:45.999Z</time></trkpt><trkpt lat="36.720537113259404" lon="14.738090778544372"><ele>6.0</ele><time>2026-04-11T16:54:54.999Z</time></trkpt><trkpt lat="36.72052213455452" lon="14.7380066755905"><ele>6.0</ele><time>2026-04-11T16:55:03.999Z</time></trkpt><trkpt lat="36.720516982913885" lon="14.737917411490102"><ele>6.0</ele><time>2026-04-11T16:55:11.999Z</time></trkpt><trkpt lat="36.72049354262695" lon="14.737841784311396"><ele>6.0</ele><time>2026-04-11T16:55:18.999Z</time></trkpt><trkpt lat="36.720475629876866" lon="14.737756955333497"><ele>5.999999999999999</ele><time>2026-04-11T16:55:29.999Z</time></trkpt><trkpt lat="36.72043142582949" lon="14.737695778465316"><ele>6.0</ele><time>2026-04-11T16:55:39Z</time></trkpt><trkpt lat="36.720428114246246" lon="14.737616030326274"><ele>6.5</ele><time>2026-04-11T16:55:46Z</time></trkpt><trkpt lat="36.720521680721646" lon="14.73759645199971"><ele>7.0</ele><time>2026-04-11T16:55:56Z</time></trkpt><trkpt lat="36.72059355165628" lon="14.73762377628937"><ele>7.5</ele><time>2026-04-11T16:56:02Z</time></trkpt><trkpt lat="36.720661579402055" lon="14.737646831836763"><ele>8.0</ele><time>2026-04-11T16:56:06Z</time></trkpt><trkpt lat="36.72072697310252" lon="14.737667981617669"><ele>8.5</ele><time>2026-04-11T16:56:09Z</time></trkpt><trkpt lat="36.72064714448536" lon="14.737711533600574"><ele>9.0</ele><time>2026-04-11T16:56:11Z</time></trkpt><trkpt lat="36.7205812926147" lon="14.737677433105333"><ele>9.0</ele><time>2026-04-11T16:56:13Z</time></trkpt><trkpt lat="36.72068581618973" lon="14.737493924674963"><ele>9.0</ele><time>2026-04-11T16:56:44.999Z</time></trkpt><trkpt lat="36.72079484480067" lon="14.737365348496416"><ele>9.0</ele><time>2026-04-11T16:56:45.999Z</time></trkpt><trkpt lat="36.72075185126468" lon="14.737429579701326"><ele>9.0</ele><time>2026-04-11T16:56:46.999Z</time></trkpt><trkpt lat="36.72066082778594" lon="14.737465248895235"><ele>9.0</ele><time>2026-04-11T16:56:52.999Z</time></trkpt><trkpt lat="36.72061684113762" lon="14.737542869768287"><ele>9.0</ele><time>2026-04-11T16:57:13.999Z</time></trkpt><trkpt lat="36.72052599111253" lon="14.737641652354776"><ele>9.0</ele><time>2026-04-11T16:57:19.999Z</time></trkpt><trkpt lat="36.720716943957264" lon="14.737620185663237"><ele>9.0</ele><time>2026-04-11T16:58:05Z</time></trkpt></trkseg></trk></gpx>